<?xml version='1.0' encoding='UTF-8'?><gpx version="1.1" creator="JPX - https://github.com/jenetics/jpx" xmlns="http://www.topografix.com/GPX/1/1"><trk><trkseg><trkpt lat="43.0026848" lon="12.1271614"><ele>242.00000000000003</ele><time>2026-03-29T07:09:44.175Z</time></trkpt><trkpt lat="43.0026247" lon="12.1272807"><ele>242.0</ele><time>2026-03-29T07:09:46.193Z</time></trkpt><trkpt lat="43.0025989" lon="12.1274266"><ele>242.0</ele><time>2026-03-29T07:09:48.173Z</time></trkpt><trkpt lat="43.002587" lon="12.1275172"><ele>242.0</ele><time>2026-03-29T07:09:49.164Z</time></trkpt><trkpt lat="43.0025699" lon="12.1276161"><ele>242.00000000000003</ele><time>2026-03-29T07:09:50.167Z</time></trkpt><trkpt lat="43.002552" lon="12.1277037"><ele>242.0</ele><time>2026-03-29T07:09:51.173Z</time></trkpt><trkpt lat="43.0025182" lon="12.1278351"><ele>241.8</ele><time>2026-03-29T07:09:53.167Z</time></trkpt><trkpt lat="43.0024888" lon="12.1279633"><ele>241.6</ele><time>2026-03-29T07:09:55.163Z</time></trkpt><trkpt lat="43.0024756" lon="12.1280785"><ele>241.40000000000003</ele><time>2026-03-29T07:09:57.164Z</time></trkpt><trkpt lat="43.0024413" lon="12.1282235"><ele>241.20000000000002</ele><time>2026-03-29T07:09:59.167Z</time></trkpt><trkpt lat="43.0023997" lon="12.1283155"><ele>241.0</ele><time>2026-03-29T07:10:00.172Z</time></trkpt><trkpt lat="43.0023456" lon="12.1284151"><ele>240.60000000000002</ele><time>2026-03-29T07:10:01.173Z</time></trkpt><trkpt lat="43.0022866" lon="12.1285176"><ele>240.20000000000002</ele><time>2026-03-29T07:10:02.165Z</time></trkpt><trkpt lat="43.0022225" lon="12.1286235"><ele>239.79999999999998</ele><time>2026-03-29T07:10:03.166Z</time></trkpt><trkpt lat="43.0021543" lon="12.1287406"><ele>239.39999999999998</ele><time>2026-03-29T07:10:04.18Z</time></trkpt><trkpt lat="43.0020835" lon="12.1288652"><ele>239.0</ele><time>2026-03-29T07:10:05.17Z</time></trkpt><trkpt lat="43.002009" lon="12.1289847"><ele>239.0</ele><time>2026-03-29T07:10:06.171Z</time></trkpt><trkpt lat="43.0019284" lon="12.1291"><ele>238.99999999999997</ele><time>2026-03-29T07:10:07.167Z</time></trkpt><trkpt lat="43.0018438" lon="12.129203"><ele>238.99999999999997</ele><time>2026-03-29T07:10:08.167Z</time></trkpt><trkpt lat="43.0017555" lon="12.1292868"><ele>239.0</ele><time>2026-03-29T07:10:09.168Z</time></trkpt><trkpt lat="43.0016567" lon="12.1293535"><ele>239.0</ele><time>2026-03-29T07:10:10.169Z</time></trkpt><trkpt lat="43.0015458" lon="12.1294117"><ele>239.0</ele><time>2026-03-29T07:10:11.168Z</time></trkpt><trkpt lat="43.0014261" lon="12.1294684"><ele>239.0</ele><time>2026-03-29T07:10:12.175Z</time></trkpt><trkpt lat="43.0013099" lon="12.1295237"><ele>239.0</ele><time>2026-03-29T07:10:13.172Z</time></trkpt><trkpt lat="43.0012058" lon="12.1295714"><ele>239.0</ele><time>2026-03-29T07:10:14.18Z</time></trkpt><trkpt lat="43.0011156" lon="12.1296011"><ele>239.0</ele><time>2026-03-29T07:10:15.177Z</time></trkpt><trkpt lat="43.0010387" lon="12.1296076"><ele>238.99999999999997</ele><time>2026-03-29T07:10:16.175Z</time></trkpt><trkpt lat="43.000935" lon="12.1295603"><ele>238.99999999999997</ele><time>2026-03-29T07:10:18.17Z</time></trkpt><trkpt lat="43.000824" lon="12.1294623"><ele>239.0</ele><time>2026-03-29T07:10:20.175Z</time></trkpt><trkpt lat="43.0007673" lon="12.1293647"><ele>239.0</ele><time>2026-03-29T07:10:21.164Z</time></trkpt><trkpt lat="43.0007057" lon="12.1292476"><ele>239.0</ele><time>2026-03-29T07:10:22.174Z</time></trkpt><trkpt lat="43.0006416" lon="12.1291236"><ele>239.0</ele><time>2026-03-29T07:10:23.179Z</time></trkpt><trkpt lat="43.000574" lon="12.1289945"><ele>239.0</ele><time>2026-03-29T07:10:24.177Z</time></trkpt><trkpt lat="43.0005025" lon="12.1288508"><ele>239.0</ele><time>2026-03-29T07:10:25.169Z</time></trkpt><trkpt lat="43.000425" lon="12.1287002"><ele>239.0</ele><time>2026-03-29T07:10:26.166Z</time></trkpt><trkpt lat="43.0003434" lon="12.1285455"><ele>239.0</ele><time>2026-03-29T07:10:27.205Z</time></trkpt><trkpt lat="43.0002598" lon="12.1283827"><ele>239.0</ele><time>2026-03-29T07:10:28.172Z</time></trkpt><trkpt lat="43.000175" lon="12.1282178"><ele>239.0</ele><time>2026-03-29T07:10:29.225Z</time></trkpt><trkpt lat="43.0000916" lon="12.1280588"><ele>239.0</ele><time>2026-03-29T07:10:30.171Z</time></trkpt><trkpt lat="43.0000085" lon="12.1279027"><ele>239.0</ele><time>2026-03-29T07:10:31.164Z</time></trkpt><trkpt lat="42.9999257" lon="12.1277474"><ele>239.0</ele><time>2026-03-29T07:10:32.167Z</time></trkpt><trkpt lat="42.9998404" lon="12.1275905"><ele>239.0</ele><time>2026-03-29T07:10:33.162Z</time></trkpt><trkpt lat="42.9997492" lon="12.1274316"><ele>239.66666666666669</ele><time>2026-03-29T07:10:34.168Z</time></trkpt><trkpt lat="42.99965" lon="12.127262"><ele>240.33333333333331</ele><time>2026-03-29T07:10:35.16Z</time></trkpt><trkpt lat="42.999552" lon="12.1270865"><ele>241.0</ele><time>2026-03-29T07:10:36.165Z</time></trkpt><trkpt lat="42.9994581" lon="12.1269134"><ele>241.0</ele><time>2026-03-29T07:10:37.162Z</time></trkpt><trkpt lat="42.9993756" lon="12.1267536"><ele>241.0</ele><time>2026-03-29T07:10:38.164Z</time></trkpt><trkpt lat="42.9993078" lon="12.1266118"><ele>241.0</ele><time>2026-03-29T07:10:39.162Z</time></trkpt><trkpt lat="42.9992562" lon="12.1264894"><ele>241.0</ele><time>2026-03-29T07:10:40.162Z</time></trkpt><trkpt lat="42.9992177" lon="12.1263865"><ele>240.8</ele><time>2026-03-29T07:10:41.165Z</time></trkpt><trkpt lat="42.9991856" lon="12.1262902"><ele>240.60000000000002</ele><time>2026-03-29T07:10:42.169Z</time></trkpt><trkpt lat="42.9991457" lon="12.1261836"><ele>240.4</ele><time>2026-03-29T07:10:43.161Z</time></trkpt><trkpt lat="42.9991019" lon="12.1260479"><ele>240.2</ele><time>2026-03-29T07:10:44.161Z</time></trkpt><trkpt lat="42.9990521" lon="12.1258962"><ele>240.0</ele><time>2026-03-29T07:10:45.165Z</time></trkpt><trkpt lat="42.999004" lon="12.1257322"><ele>240.6</ele><time>2026-03-29T07:10:46.171Z</time></trkpt><trkpt lat="42.9989665" lon="12.1255712"><ele>241.2</ele><time>2026-03-29T07:10:47.166Z</time></trkpt><trkpt lat="42.9989368" lon="12.1254331"><ele>241.8</ele><time>2026-03-29T07:10:48.169Z</time></trkpt><trkpt lat="42.998902" lon="12.1253322"><ele>242.4</ele><time>2026-03-29T07:10:49.164Z</time></trkpt><trkpt lat="42.9988206" lon="12.1252388"><ele>243.0</ele><time>2026-03-29T07:10:51.162Z</time></trkpt><trkpt lat="42.9987178" lon="12.1253126"><ele>243.0</ele><time>2026-03-29T07:10:53.165Z</time></trkpt><trkpt lat="42.9986566" lon="12.1254155"><ele>243.0</ele><time>2026-03-29T07:10:54.165Z</time></trkpt><trkpt lat="42.9985834" lon="12.1255333"><ele>243.0</ele><time>2026-03-29T07:10:55.163Z</time></trkpt><trkpt lat="42.9984915" lon="12.1256695"><ele>243.0</ele><time>2026-03-29T07:10:56.17Z</time></trkpt><trkpt lat="42.9983859" lon="12.1258251"><ele>241.33333333333331</ele><time>2026-03-29T07:10:57.164Z</time></trkpt><trkpt lat="42.9982768" lon="12.1259848"><ele>239.66666666666666</ele><time>2026-03-29T07:10:58.166Z</time></trkpt><trkpt lat="42.9981606" lon="12.1261622"><ele>238.0</ele><time>2026-03-29T07:10:59.17Z</time></trkpt><trkpt lat="42.9980379" lon="12.1263446"><ele>238.0</ele><time>2026-03-29T07:11:00.172Z</time></trkpt><trkpt lat="42.9979123" lon="12.1265298"><ele>238.0</ele><time>2026-03-29T07:11:01.164Z</time></trkpt><trkpt lat="42.9977808" lon="12.1267194"><ele>238.0</ele><time>2026-03-29T07:11:02.162Z</time></trkpt><trkpt lat="42.9976438" lon="12.1269133"><ele>238.33333333333331</ele><time>2026-03-29T07:11:03.163Z</time></trkpt><trkpt lat="42.9975067" lon="12.1271061"><ele>238.66666666666669</ele><time>2026-03-29T07:11:04.162Z</time></trkpt><trkpt lat="42.9973789" lon="12.127285"><ele>239.0</ele><time>2026-03-29T07:11:05.163Z</time></trkpt><trkpt lat="42.9972606" lon="12.1274498"><ele>238.0</ele><time>2026-03-29T07:11:06.167Z</time></trkpt><trkpt lat="42.9971492" lon="12.1276064"><ele>237.0</ele><time>2026-03-29T07:11:07.202Z</time></trkpt><trkpt lat="42.9970444" lon="12.127753"><ele>236.0</ele><time>2026-03-29T07:11:08.166Z</time></trkpt><trkpt lat="42.9969383" lon="12.1278912"><ele>236.0</ele><time>2026-03-29T07:11:09.164Z</time></trkpt><trkpt lat="42.9968284" lon="12.1280292"><ele>236.0</ele><time>2026-03-29T07:11:10.162Z</time></trkpt><trkpt lat="42.9967258" lon="12.1281597"><ele>236.0</ele><time>2026-03-29T07:11:11.163Z</time></trkpt><trkpt lat="42.9966307" lon="12.1282911"><ele>236.0</ele><time>2026-03-29T07:11:12.161Z</time></trkpt><trkpt lat="42.9965351" lon="12.128428"><ele>236.33333333333334</ele><time>2026-03-29T07:11:13.165Z</time></trkpt><trkpt lat="42.9964383" lon="12.1285758"><ele>236.66666666666669</ele><time>2026-03-29T07:11:14.164Z</time></trkpt><trkpt lat="42.9963391" lon="12.1287376"><ele>237.0</ele><time>2026-03-29T07:11:15.171Z</time></trkpt><trkpt lat="42.9962468" lon="12.1289211"><ele>236.66666666666669</ele><time>2026-03-29T07:11:16.163Z</time></trkpt><trkpt lat="42.9961515" lon="12.1291094"><ele>236.33333333333334</ele><time>2026-03-29T07:11:17.161Z</time></trkpt><trkpt lat="42.9960612" lon="12.1292866"><ele>236.0</ele><time>2026-03-29T07:11:18.162Z</time></trkpt><trkpt lat="42.9959686" lon="12.1294509"><ele>236.0</ele><time>2026-03-29T07:11:19.163Z</time></trkpt><trkpt lat="42.9958728" lon="12.1295911"><ele>236.0</ele><time>2026-03-29T07:11:20.161Z</time></trkpt><trkpt lat="42.9957679" lon="12.1297025"><ele>236.0</ele><time>2026-03-29T07:11:21.164Z</time></trkpt><trkpt lat="42.995665" lon="12.1297898"><ele>236.0</ele><time>2026-03-29T07:11:22.163Z</time></trkpt><trkpt lat="42.9955613" lon="12.12987"><ele>236.0</ele><time>2026-03-29T07:11:23.164Z</time></trkpt><trkpt lat="42.9954565" lon="12.1299579"><ele>236.0</ele><time>2026-03-29T07:11:24.162Z</time></trkpt><trkpt lat="42.9953531" lon="12.1300506"><ele>236.0</ele><time>2026-03-29T07:11:25.167Z</time></trkpt><trkpt lat="42.9952382" lon="12.130147"><ele>236.0</ele><time>2026-03-29T07:11:26.165Z</time></trkpt><trkpt lat="42.9951086" lon="12.1302524"><ele>236.66666666666669</ele><time>2026-03-29T07:11:27.172Z</time></trkpt><trkpt lat="42.9949671" lon="12.1303665"><ele>237.33333333333331</ele><time>2026-03-29T07:11:28.168Z</time></trkpt><trkpt lat="42.9948182" lon="12.1304817"><ele>238.0</ele><time>2026-03-29T07:11:29.164Z</time></trkpt><trkpt lat="42.994672" lon="12.1305926"><ele>238.0</ele><time>2026-03-29T07:11:30.165Z</time></trkpt><trkpt lat="42.9945363" lon="12.130699"><ele>238.0</ele><time>2026-03-29T07:11:31.162Z</time></trkpt><trkpt lat="42.9944101" lon="12.1307996"><ele>238.0</ele><time>2026-03-29T07:11:32.162Z</time></trkpt><trkpt lat="42.9942956" lon="12.130893"><ele>238.0</ele><time>2026-03-29T07:11:33.164Z</time></trkpt><trkpt lat="42.9941899" lon="12.1309731"><ele>238.2</ele><time>2026-03-29T07:11:34.171Z</time></trkpt><trkpt lat="42.994096" lon="12.1310308"><ele>238.4</ele><time>2026-03-29T07:11:35.161Z</time></trkpt><trkpt lat="42.9940146" lon="12.1310534"><ele>238.59999999999997</ele><time>2026-03-29T07:11:36.165Z</time></trkpt><trkpt lat="42.9939418" lon="12.1310362"><ele>238.79999999999998</ele><time>2026-03-29T07:11:37.163Z</time></trkpt><trkpt lat="42.9938394" lon="12.1309094"><ele>239.0</ele><time>2026-03-29T07:11:39.169Z</time></trkpt><trkpt lat="42.9937896" lon="12.1308206"><ele>238.39999999999998</ele><time>2026-03-29T07:11:40.162Z</time></trkpt><trkpt lat="42.9937345" lon="12.1307221"><ele>237.79999999999998</ele><time>2026-03-29T07:11:41.162Z</time></trkpt><trkpt lat="42.9936667" lon="12.1306182"><ele>237.20000000000002</ele><time>2026-03-29T07:11:42.175Z</time></trkpt><trkpt lat="42.9935845" lon="12.1305093"><ele>236.60000000000002</ele><time>2026-03-29T07:11:43.163Z</time></trkpt><trkpt lat="42.9934916" lon="12.1303984"><ele>236.0</ele><time>2026-03-29T07:11:44.164Z</time></trkpt><trkpt lat="42.993396" lon="12.130283"><ele>236.75</ele><time>2026-03-29T07:11:45.165Z</time></trkpt><trkpt lat="42.9933026" lon="12.1301614"><ele>237.5</ele><time>2026-03-29T07:11:46.166Z</time></trkpt><trkpt lat="42.9932199" lon="12.1300361"><ele>238.25</ele><time>2026-03-29T07:11:47.161Z</time></trkpt><trkpt lat="42.993154" lon="12.1299014"><ele>239.0</ele><time>2026-03-29T07:11:48.162Z</time></trkpt><trkpt lat="42.9931038" lon="12.1297538"><ele>239.0</ele><time>2026-03-29T07:11:49.165Z</time></trkpt><trkpt lat="42.993067" lon="12.1295955"><ele>239.0</ele><time>2026-03-29T07:11:50.162Z</time></trkpt><trkpt lat="42.9930431" lon="12.1294354"><ele>239.0</ele><time>2026-03-29T07:11:51.161Z</time></trkpt><trkpt lat="42.9930182" lon="12.129272"><ele>239.0</ele><time>2026-03-29T07:11:52.167Z</time></trkpt><trkpt lat="42.9929863" lon="12.1291014"><ele>238.5</ele><time>2026-03-29T07:11:53.162Z</time></trkpt><trkpt lat="42.9929513" lon="12.1289291"><ele>238.0</ele><time>2026-03-29T07:11:54.16Z</time></trkpt><trkpt lat="42.9929179" lon="12.1287658"><ele>237.5</ele><time>2026-03-29T07:11:55.161Z</time></trkpt><trkpt lat="42.9928856" lon="12.1286153"><ele>237.0</ele><time>2026-03-29T07:11:56.166Z</time></trkpt><trkpt lat="42.9928628" lon="12.1284738"><ele>237.0</ele><time>2026-03-29T07:11:57.165Z</time></trkpt><trkpt lat="42.9928504" lon="12.1283384"><ele>237.0</ele><time>2026-03-29T07:11:58.16Z</time></trkpt><trkpt lat="42.9928458" lon="12.1282148"><ele>237.0</ele><time>2026-03-29T07:11:59.163Z</time></trkpt><trkpt lat="42.9928449" lon="12.1281039"><ele>237.0</ele><time>2026-03-29T07:12:00.161Z</time></trkpt><trkpt lat="42.9928455" lon="12.1279908"><ele>237.0</ele><time>2026-03-29T07:12:01.165Z</time></trkpt><trkpt lat="42.9928408" lon="12.1278707"><ele>237.0</ele><time>2026-03-29T07:12:02.161Z</time></trkpt><trkpt lat="42.9928218" lon="12.1277387"><ele>237.0</ele><time>2026-03-29T07:12:03.162Z</time></trkpt><trkpt lat="42.9927939" lon="12.1275945"><ele>237.0</ele><time>2026-03-29T07:12:04.163Z</time></trkpt><trkpt lat="42.9927695" lon="12.1274418"><ele>237.0</ele><time>2026-03-29T07:12:05.168Z</time></trkpt><trkpt lat="42.9927501" lon="12.1272994"><ele>237.0</ele><time>2026-03-29T07:12:06.163Z</time></trkpt><trkpt lat="42.9927349" lon="12.1271643"><ele>237.0</ele><time>2026-03-29T07:12:07.162Z</time></trkpt><trkpt lat="42.9927278" lon="12.1270339"><ele>237.0</ele><time>2026-03-29T07:12:08.162Z</time></trkpt><trkpt lat="42.9927292" lon="12.1269118"><ele>237.0</ele><time>2026-03-29T07:12:09.165Z</time></trkpt><trkpt lat="42.992742" lon="12.1267931"><ele>237.0</ele><time>2026-03-29T07:12:10.166Z</time></trkpt><trkpt lat="42.9927678" lon="12.1266777"><ele>237.0</ele><time>2026-03-29T07:12:11.17Z</time></trkpt><trkpt lat="42.9928041" lon="12.1265613"><ele>237.0</ele><time>2026-03-29T07:12:12.162Z</time></trkpt><trkpt lat="42.9928466" lon="12.1264517"><ele>237.0</ele><time>2026-03-29T07:12:13.172Z</time></trkpt><trkpt lat="42.9928897" lon="12.1263456"><ele>237.39999999999998</ele><time>2026-03-29T07:12:14.164Z</time></trkpt><trkpt lat="42.9929192" lon="12.1262334"><ele>237.79999999999998</ele><time>2026-03-29T07:12:15.164Z</time></trkpt><trkpt lat="42.9929332" lon="12.1261095"><ele>238.2</ele><time>2026-03-29T07:12:16.172Z</time></trkpt><trkpt lat="42.9929402" lon="12.125972"><ele>238.6</ele><time>2026-03-29T07:12:17.16Z</time></trkpt><trkpt lat="42.9929552" lon="12.1258411"><ele>239.0</ele><time>2026-03-29T07:12:18.164Z</time></trkpt><trkpt lat="42.9929814" lon="12.1257148"><ele>239.66666666666669</ele><time>2026-03-29T07:12:19.164Z</time></trkpt><trkpt lat="42.9930243" lon="12.1255911"><ele>240.33333333333334</ele><time>2026-03-29T07:12:20.163Z</time></trkpt><trkpt lat="42.9930772" lon="12.1254766"><ele>241.0</ele><time>2026-03-29T07:12:21.16Z</time></trkpt><trkpt lat="42.9931306" lon="12.1253708"><ele>241.66666666666669</ele><time>2026-03-29T07:12:22.162Z</time></trkpt><trkpt lat="42.9931835" lon="12.1252797"><ele>242.33333333333334</ele><time>2026-03-29T07:12:23.166Z</time></trkpt><trkpt lat="42.9932229" lon="12.1252043"><ele>243.0</ele><time>2026-03-29T07:12:24.163Z</time></trkpt><trkpt lat="42.9932509" lon="12.1250609"><ele>243.0</ele><time>2026-03-29T07:12:26.192Z</time></trkpt><trkpt lat="42.9932507" lon="12.1249743"><ele>243.0</ele><time>2026-03-29T07:12:27.164Z</time></trkpt><trkpt lat="42.9932487" lon="12.1248841"><ele>243.0</ele><time>2026-03-29T07:12:28.161Z</time></trkpt><trkpt lat="42.9932412" lon="12.1247878"><ele>243.0</ele><time>2026-03-29T07:12:29.161Z</time></trkpt><trkpt lat="42.993234" lon="12.1246811"><ele>243.0</ele><time>2026-03-29T07:12:30.164Z</time></trkpt><trkpt lat="42.9932221" lon="12.1245608"><ele>243.0</ele><time>2026-03-29T07:12:31.168Z</time></trkpt><trkpt lat="42.9931975" lon="12.1244246"><ele>242.60000000000002</ele><time>2026-03-29T07:12:32.167Z</time></trkpt><trkpt lat="42.9931577" lon="12.1242837"><ele>242.20000000000002</ele><time>2026-03-29T07:12:33.167Z</time></trkpt><trkpt lat="42.9931137" lon="12.1241446"><ele>241.8</ele><time>2026-03-29T07:12:34.162Z</time></trkpt><trkpt lat="42.9930684" lon="12.1240201"><ele>241.4</ele><time>2026-03-29T07:12:35.163Z</time></trkpt><trkpt lat="42.9930255" lon="12.123902"><ele>241.0</ele><time>2026-03-29T07:12:36.164Z</time></trkpt><trkpt lat="42.9929829" lon="12.1237813"><ele>240.99999999999997</ele><time>2026-03-29T07:12:37.162Z</time></trkpt><trkpt lat="42.9929391" lon="12.1236534"><ele>241.0</ele><time>2026-03-29T07:12:38.16Z</time></trkpt><trkpt lat="42.9929013" lon="12.123539"><ele>241.0</ele><time>2026-03-29T07:12:39.163Z</time></trkpt><trkpt lat="42.9928724" lon="12.1234358"><ele>241.0</ele><time>2026-03-29T07:12:40.163Z</time></trkpt><trkpt lat="42.9928519" lon="12.1233299"><ele>240.99999999999997</ele><time>2026-03-29T07:12:41.163Z</time></trkpt><trkpt lat="42.9928384" lon="12.1232108"><ele>241.0</ele><time>2026-03-29T07:12:42.163Z</time></trkpt><trkpt lat="42.9928297" lon="12.1230888"><ele>241.0</ele><time>2026-03-29T07:12:43.163Z</time></trkpt><trkpt lat="42.9928185" lon="12.1229681"><ele>241.00000000000003</ele><time>2026-03-29T07:12:44.164Z</time></trkpt><trkpt lat="42.9927967" lon="12.122846"><ele>241.00000000000003</ele><time>2026-03-29T07:12:45.162Z</time></trkpt><trkpt lat="42.9927668" lon="12.1227271"><ele>241.0</ele><time>2026-03-29T07:12:46.165Z</time></trkpt><trkpt lat="42.9927308" lon="12.12261"><ele>241.0</ele><time>2026-03-29T07:12:47.162Z</time></trkpt><trkpt lat="42.9926951" lon="12.1224978"><ele>241.0</ele><time>2026-03-29T07:12:48.162Z</time></trkpt><trkpt lat="42.9926587" lon="12.1224032"><ele>241.00000000000003</ele><time>2026-03-29T07:12:49.162Z</time></trkpt><trkpt lat="42.992574" lon="12.1222953"><ele>241.00000000000003</ele><time>2026-03-29T07:12:51.172Z</time></trkpt><trkpt lat="42.9924544" lon="12.1222425"><ele>241.0</ele><time>2026-03-29T07:12:53.194Z</time></trkpt><trkpt lat="42.9923896" lon="12.1222275"><ele>241.0</ele><time>2026-03-29T07:12:54.169Z</time></trkpt><trkpt lat="42.992323" lon="12.1222173"><ele>241.4</ele><time>2026-03-29T07:12:55.191Z</time></trkpt><trkpt lat="42.9922592" lon="12.1222109"><ele>241.8</ele><time>2026-03-29T07:12:56.174Z</time></trkpt><trkpt lat="42.9921465" lon="12.1221772"><ele>242.20000000000002</ele><time>2026-03-29T07:12:58.166Z</time></trkpt><trkpt lat="42.9920612" lon="12.1220929"><ele>242.60000000000002</ele><time>2026-03-29T07:13:00.165Z</time></trkpt><trkpt lat="42.9920138" lon="12.1220352"><ele>243.0</ele><time>2026-03-29T07:13:01.162Z</time></trkpt><trkpt lat="42.9919277" lon="12.1219265"><ele>243.0</ele><time>2026-03-29T07:13:03.164Z</time></trkpt><trkpt lat="42.9919044" lon="12.122016"><ele>243.0</ele><time>2026-03-29T07:13:36.163Z</time></trkpt><trkpt lat="42.9919525" lon="12.122121"><ele>243.0</ele><time>2026-03-29T07:13:38.165Z</time></trkpt><trkpt lat="42.9920172" lon="12.1221907"><ele>243.0</ele><time>2026-03-29T07:13:40.161Z</time></trkpt><trkpt lat="42.9920667" lon="12.1222649"><ele>243.0</ele><time>2026-03-29T07:13:42.162Z</time></trkpt><trkpt lat="42.9921101" lon="12.1223621"><ele>243.0</ele><time>2026-03-29T07:13:44.163Z</time></trkpt><trkpt lat="42.9921756" lon="12.1224741"><ele>244.33333333333334</ele><time>2026-03-29T07:13:46.163Z</time></trkpt><trkpt lat="42.9922372" lon="12.1225584"><ele>245.66666666666669</ele><time>2026-03-29T07:13:48.163Z</time></trkpt><trkpt lat="42.9922462" lon="12.1226844"><ele>247.0</ele><time>2026-03-29T07:13:51.162Z</time></trkpt><trkpt lat="42.9922177" lon="12.1227858"><ele>248.33333333333334</ele><time>2026-03-29T07:13:53.161Z</time></trkpt><trkpt lat="42.992222" lon="12.1228862"><ele>249.66666666666669</ele><time>2026-03-29T07:13:55.162Z</time></trkpt><trkpt lat="42.9922356" lon="12.1229792"><ele>251.0</ele><time>2026-03-29T07:13:57.165Z</time></trkpt><trkpt lat="42.9921824" lon="12.1230596"><ele>250.99999999999997</ele><time>2026-03-29T07:14:00.162Z</time></trkpt><trkpt lat="42.9921146" lon="12.1230289"><ele>251.0</ele><time>2026-03-29T07:14:02.172Z</time></trkpt><trkpt lat="42.9920487" lon="12.1230013"><ele>250.99999999999997</ele><time>2026-03-29T07:14:04.161Z</time></trkpt><trkpt lat="42.9919711" lon="12.1229724"><ele>250.99999999999997</ele><time>2026-03-29T07:14:06.162Z</time></trkpt><trkpt lat="42.9919039" lon="12.1229844"><ele>251.0</ele><time>2026-03-29T07:14:08.163Z</time></trkpt><trkpt lat="42.9918454" lon="12.1230312"><ele>250.99999999999997</ele><time>2026-03-29T07:14:10.162Z</time></trkpt><trkpt lat="42.9917641" lon="12.1230527"><ele>250.99999999999997</ele><time>2026-03-29T07:14:12.161Z</time></trkpt><trkpt lat="42.9916931" lon="12.1230639"><ele>253.33333333333334</ele><time>2026-03-29T07:14:14.162Z</time></trkpt><trkpt lat="42.9916515" lon="12.1231901"><ele>255.66666666666669</ele><time>2026-03-29T07:14:18.179Z</time></trkpt><trkpt lat="42.9916446" lon="12.1232817"><ele>258.0</ele><time>2026-03-29T07:14:20.174Z</time></trkpt><trkpt lat="42.9916221" lon="12.1234048"><ele>260.3333333333333</ele><time>2026-03-29T07:14:23.163Z</time></trkpt><trkpt lat="42.9915873" lon="12.1234794"><ele>262.66666666666663</ele><time>2026-03-29T07:14:25.162Z</time></trkpt><trkpt lat="42.9915345" lon="12.1235351"><ele>265.0</ele><time>2026-03-29T07:14:27.166Z</time></trkpt><trkpt lat="42.9914685" lon="12.1235326"><ele>268.0</ele><time>2026-03-29T07:14:30.163Z</time></trkpt><trkpt lat="42.9914085" lon="12.1234351"><ele>271.0</ele><time>2026-03-29T07:14:33.163Z</time></trkpt><trkpt lat="42.9913481" lon="12.1233689"><ele>274.0</ele><time>2026-03-29T07:14:35.16Z</time></trkpt><trkpt lat="42.9912596" lon="12.1233279"><ele>277.0</ele><time>2026-03-29T07:14:37.161Z</time></trkpt><trkpt lat="42.9911617" lon="12.1232979"><ele>280.0</ele><time>2026-03-29T07:14:39.165Z</time></trkpt><trkpt lat="42.991059" lon="12.1232666"><ele>280.0</ele><time>2026-03-29T07:14:41.163Z</time></trkpt><trkpt lat="42.9909709" lon="12.1232396"><ele>280.0</ele><time>2026-03-29T07:14:43.193Z</time></trkpt><trkpt lat="42.9908907" lon="12.1231987"><ele>280.0</ele><time>2026-03-29T07:14:45.161Z</time></trkpt><trkpt lat="42.9908244" lon="12.123145"><ele>280.0</ele><time>2026-03-29T07:14:47.164Z</time></trkpt><trkpt lat="42.9907701" lon="12.1230839"><ele>280.0</ele><time>2026-03-29T07:14:49.162Z</time></trkpt><trkpt lat="42.9906837" lon="12.1230205"><ele>280.0</ele><time>2026-03-29T07:14:52.161Z</time></trkpt><trkpt lat="42.9905895" lon="12.1229888"><ele>280.5</ele><time>2026-03-29T07:14:54.16Z</time></trkpt><trkpt lat="42.9904951" lon="12.1229553"><ele>281.0</ele><time>2026-03-29T07:14:56.162Z</time></trkpt><trkpt lat="42.9904111" lon="12.1229141"><ele>281.5</ele><time>2026-03-29T07:14:58.163Z</time></trkpt><trkpt lat="42.9903354" lon="12.1228951"><ele>282.0</ele><time>2026-03-29T07:15:00.163Z</time></trkpt><trkpt lat="42.9902604" lon="12.1228832"><ele>282.5</ele><time>2026-03-29T07:15:02.162Z</time></trkpt><trkpt lat="42.9901771" lon="12.1228881"><ele>283.0</ele><time>2026-03-29T07:15:09.164Z</time></trkpt><trkpt lat="42.9901332" lon="12.1229918"><ele>283.0</ele><time>2026-03-29T07:15:12.166Z</time></trkpt><trkpt lat="42.9901305" lon="12.1230819"><ele>283.0</ele><time>2026-03-29T07:15:15.166Z</time></trkpt><trkpt lat="42.9900623" lon="12.1231017"><ele>283.0</ele><time>2026-03-29T07:15:18.161Z</time></trkpt><trkpt lat="42.989983" lon="12.1230719"><ele>283.0</ele><time>2026-03-29T07:15:21.161Z</time></trkpt><trkpt lat="42.9899239" lon="12.1230422"><ele>283.0</ele><time>2026-03-29T07:15:26.162Z</time></trkpt><trkpt lat="42.9898584" lon="12.1229976"><ele>283.0</ele><time>2026-03-29T07:15:30.163Z</time></trkpt><trkpt lat="42.9897968" lon="12.1229639"><ele>283.0</ele><time>2026-03-29T07:15:32.166Z</time></trkpt><trkpt lat="42.9897374" lon="12.1229339"><ele>285.57142857142856</ele><time>2026-03-29T07:15:34.161Z</time></trkpt><trkpt lat="42.9896693" lon="12.122969"><ele>288.14285714285717</ele><time>2026-03-29T07:15:36.163Z</time></trkpt><trkpt lat="42.9896021" lon="12.1230343"><ele>290.7142857142857</ele><time>2026-03-29T07:15:38.164Z</time></trkpt><trkpt lat="42.9895313" lon="12.1230619"><ele>293.2857142857143</ele><time>2026-03-29T07:15:40.166Z</time></trkpt><trkpt lat="42.9894441" lon="12.1230577"><ele>295.8571428571429</ele><time>2026-03-29T07:15:43.162Z</time></trkpt><trkpt lat="42.9893771" lon="12.1230718"><ele>298.42857142857144</ele><time>2026-03-29T07:15:45.162Z</time></trkpt><trkpt lat="42.9893156" lon="12.1230986"><ele>301.0</ele><time>2026-03-29T07:15:47.166Z</time></trkpt><trkpt lat="42.9892349" lon="12.1231175"><ele>302.8333333333333</ele><time>2026-03-29T07:15:49.161Z</time></trkpt><trkpt lat="42.9891502" lon="12.1231338"><ele>304.66666666666663</ele><time>2026-03-29T07:15:51.162Z</time></trkpt><trkpt lat="42.98915" lon="12.1232296"><ele>306.5</ele><time>2026-03-29T07:15:54.164Z</time></trkpt><trkpt lat="42.9892337" lon="12.1232846"><ele>308.3333333333333</ele><time>2026-03-29T07:15:56.16Z</time></trkpt><trkpt lat="42.9893139" lon="12.1233232"><ele>310.1666666666667</ele><time>2026-03-29T07:15:58.16Z</time></trkpt><trkpt lat="42.9893663" lon="12.123419"><ele>312.0</ele><time>2026-03-29T07:16:01.167Z</time></trkpt><trkpt lat="42.989348" lon="12.1235157"><ele>312.0</ele><time>2026-03-29T07:16:04.161Z</time></trkpt><trkpt lat="42.9893018" lon="12.1236051"><ele>312.0</ele><time>2026-03-29T07:16:08.163Z</time></trkpt><trkpt lat="42.9892381" lon="12.1236611"><ele>312.0</ele><time>2026-03-29T07:16:11.163Z</time></trkpt><trkpt lat="42.9891761" lon="12.1236868"><ele>312.0</ele><time>2026-03-29T07:16:13.163Z</time></trkpt><trkpt lat="42.9891066" lon="12.1237418"><ele>312.0</ele><time>2026-03-29T07:16:16.164Z</time></trkpt><trkpt lat="42.9891257" lon="12.1238751"><ele>312.0</ele><time>2026-03-29T07:16:19.163Z</time></trkpt><trkpt lat="42.9891575" lon="12.1239672"><ele>317.1666666666667</ele><time>2026-03-29T07:16:21.16Z</time></trkpt><trkpt lat="42.9891384" lon="12.1240909"><ele>322.3333333333333</ele><time>2026-03-29T07:16:24.165Z</time></trkpt><trkpt lat="42.989132" lon="12.1241891"><ele>327.5</ele><time>2026-03-29T07:16:26.167Z</time></trkpt><trkpt lat="42.9890811" lon="12.1242891"><ele>332.66666666666663</ele><time>2026-03-29T07:16:29.167Z</time></trkpt><trkpt lat="42.9890143" lon="12.1243507"><ele>337.8333333333333</ele><time>2026-03-29T07:16:32.171Z</time></trkpt><trkpt lat="42.9889618" lon="12.1244079"><ele>343.0</ele><time>2026-03-29T07:16:35.162Z</time></trkpt><trkpt lat="42.9889154" lon="12.1244882"><ele>343.0</ele><time>2026-03-29T07:16:37.167Z</time></trkpt><trkpt lat="42.9888535" lon="12.1245613"><ele>343.0</ele><time>2026-03-29T07:16:39.164Z</time></trkpt><trkpt lat="42.9888097" lon="12.1246625"><ele>343.0</ele><time>2026-03-29T07:16:41.167Z</time></trkpt><trkpt lat="42.9887859" lon="12.1247706"><ele>343.0</ele><time>2026-03-29T07:16:43.165Z</time></trkpt><trkpt lat="42.9887232" lon="12.1248368"><ele>343.0</ele><time>2026-03-29T07:16:45.162Z</time></trkpt><trkpt lat="42.9886262" lon="12.1248775"><ele>343.0</ele><time>2026-03-29T07:16:47.162Z</time></trkpt><trkpt lat="42.9885596" lon="12.1249518"><ele>344.3333333333333</ele><time>2026-03-29T07:16:49.159Z</time></trkpt><trkpt lat="42.9885078" lon="12.1250419"><ele>345.66666666666663</ele><time>2026-03-29T07:16:51.163Z</time></trkpt><trkpt lat="42.988443" lon="12.1251358"><ele>347.0</ele><time>2026-03-29T07:16:53.162Z</time></trkpt><trkpt lat="42.9883983" lon="12.1252433"><ele>348.3333333333333</ele><time>2026-03-29T07:16:55.166Z</time></trkpt><trkpt lat="42.9883473" lon="12.1253597"><ele>349.6666666666667</ele><time>2026-03-29T07:16:57.162Z</time></trkpt><trkpt lat="42.9882688" lon="12.1253424"><ele>351.0</ele><time>2026-03-29T07:17:00.167Z</time></trkpt><trkpt lat="42.9882237" lon="12.1252627"><ele>351.0</ele><time>2026-03-29T07:17:02.164Z</time></trkpt><trkpt lat="42.9881543" lon="12.1251816"><ele>351.0</ele><time>2026-03-29T07:17:22.169Z</time></trkpt><trkpt lat="42.9880985" lon="12.1251275"><ele>351.0</ele><time>2026-03-29T07:17:23.16Z</time></trkpt><trkpt lat="42.9880349" lon="12.1250695"><ele>351.0</ele><time>2026-03-29T07:17:24.162Z</time></trkpt><trkpt lat="42.9879758" lon="12.1250094"><ele>351.0</ele><time>2026-03-29T07:17:25.16Z</time></trkpt><trkpt lat="42.9879052" lon="12.124946"><ele>351.0</ele><time>2026-03-29T07:17:26.164Z</time></trkpt><trkpt lat="42.987825" lon="12.1248801"><ele>351.0</ele><time>2026-03-29T07:17:27.168Z</time></trkpt><trkpt lat="42.9877477" lon="12.12483"><ele>351.0</ele><time>2026-03-29T07:17:28.162Z</time></trkpt><trkpt lat="42.9876741" lon="12.1247898"><ele>351.0</ele><time>2026-03-29T07:17:29.162Z</time></trkpt><trkpt lat="42.9876091" lon="12.1247513"><ele>351.0</ele><time>2026-03-29T07:17:30.162Z</time></trkpt><trkpt lat="42.9875226" lon="12.124669"><ele>351.0</ele><time>2026-03-29T07:17:32.161Z</time></trkpt><trkpt lat="42.9875196" lon="12.1245606"><ele>351.0</ele><time>2026-03-29T07:17:34.169Z</time></trkpt><trkpt lat="42.9875906" lon="12.1244237"><ele>351.0</ele><time>2026-03-29T07:17:36.16Z</time></trkpt><trkpt lat="42.9876402" lon="12.1243311"><ele>351.0</ele><time>2026-03-29T07:17:37.161Z</time></trkpt><trkpt lat="42.9876899" lon="12.1242155"><ele>351.0</ele><time>2026-03-29T07:17:38.165Z</time></trkpt><trkpt lat="42.9877249" lon="12.12409"><ele>351.0</ele><time>2026-03-29T07:17:39.16Z</time></trkpt><trkpt lat="42.9877449" lon="12.1239797"><ele>351.0</ele><time>2026-03-29T07:17:40.166Z</time></trkpt><trkpt lat="42.9877445" lon="12.1238901"><ele>351.0</ele><time>2026-03-29T07:17:41.163Z</time></trkpt><trkpt lat="42.9877016" lon="12.1237111"><ele>351.1666666666667</ele><time>2026-03-29T07:17:43.161Z</time></trkpt><trkpt lat="42.9876953" lon="12.1236043"><ele>351.3333333333333</ele><time>2026-03-29T07:17:44.162Z</time></trkpt><trkpt lat="42.9877037" lon="12.1234826"><ele>351.5</ele><time>2026-03-29T07:17:45.161Z</time></trkpt><trkpt lat="42.9877014" lon="12.1233647"><ele>351.66666666666663</ele><time>2026-03-29T07:17:46.161Z</time></trkpt><trkpt lat="42.9876838" lon="12.1232611"><ele>351.8333333333333</ele><time>2026-03-29T07:17:47.16Z</time></trkpt><trkpt lat="42.9876442" lon="12.1231569"><ele>352.0</ele><time>2026-03-29T07:17:48.16Z</time></trkpt><trkpt lat="42.9875829" lon="12.1230436"><ele>357.25</ele><time>2026-03-29T07:17:49.162Z</time></trkpt><trkpt lat="42.9875031" lon="12.122915"><ele>362.5</ele><time>2026-03-29T07:17:50.162Z</time></trkpt><trkpt lat="42.987425" lon="12.1227797"><ele>367.75</ele><time>2026-03-29T07:17:51.163Z</time></trkpt><trkpt lat="42.9873559" lon="12.122635"><ele>373.0</ele><time>2026-03-29T07:17:52.159Z</time></trkpt><trkpt lat="42.9872956" lon="12.122497"><ele>370.0</ele><time>2026-03-29T07:17:53.165Z</time></trkpt><trkpt lat="42.9872327" lon="12.1223855"><ele>367.0</ele><time>2026-03-29T07:17:54.16Z</time></trkpt><trkpt lat="42.987154" lon="12.1222961"><ele>364.0</ele><time>2026-03-29T07:17:55.332Z</time></trkpt><trkpt lat="42.9869744" lon="12.1221337"><ele>361.0</ele><time>2026-03-29T07:17:57.162Z</time></trkpt><trkpt lat="42.9868938" lon="12.1220272"><ele>361.0</ele><time>2026-03-29T07:17:58.164Z</time></trkpt><trkpt lat="42.9868323" lon="12.1218994"><ele>361.0</ele><time>2026-03-29T07:17:59.163Z</time></trkpt><trkpt lat="42.9867908" lon="12.1217784"><ele>361.0</ele><time>2026-03-29T07:18:00.163Z</time></trkpt><trkpt lat="42.9867473" lon="12.1216824"><ele>361.0</ele><time>2026-03-29T07:18:01.168Z</time></trkpt><trkpt lat="42.986683" lon="12.1216054"><ele>361.0</ele><time>2026-03-29T07:18:02.171Z</time></trkpt><trkpt lat="42.9866016" lon="12.1215466"><ele>362.8</ele><time>2026-03-29T07:18:03.167Z</time></trkpt><trkpt lat="42.9864994" lon="12.1214922"><ele>364.6</ele><time>2026-03-29T07:18:04.19Z</time></trkpt><trkpt lat="42.9863889" lon="12.1214273"><ele>366.4</ele><time>2026-03-29T07:18:05.163Z</time></trkpt><trkpt lat="42.9862933" lon="12.1213435"><ele>368.2</ele><time>2026-03-29T07:18:06.164Z</time></trkpt><trkpt lat="42.9862302" lon="12.1212357"><ele>370.0</ele><time>2026-03-29T07:18:07.161Z</time></trkpt><trkpt lat="42.9862" lon="12.1210961"><ele>370.0</ele><time>2026-03-29T07:18:08.161Z</time></trkpt><trkpt lat="42.9861814" lon="12.1209527"><ele>370.0</ele><time>2026-03-29T07:18:09.161Z</time></trkpt><trkpt lat="42.9861594" lon="12.1208335"><ele>370.0</ele><time>2026-03-29T07:18:10.163Z</time></trkpt><trkpt lat="42.9861206" lon="12.1207422"><ele>370.0</ele><time>2026-03-29T07:18:11.169Z</time></trkpt><trkpt lat="42.9860579" lon="12.1206687"><ele>370.0</ele><time>2026-03-29T07:18:12.16Z</time></trkpt><trkpt lat="42.9859795" lon="12.1205893"><ele>367.25</ele><time>2026-03-29T07:18:13.165Z</time></trkpt><trkpt lat="42.9858952" lon="12.1204895"><ele>364.5</ele><time>2026-03-29T07:18:14.16Z</time></trkpt><trkpt lat="42.9858101" lon="12.120361"><ele>361.75</ele><time>2026-03-29T07:18:15.16Z</time></trkpt><trkpt lat="42.9857313" lon="12.1202083"><ele>359.0</ele><time>2026-03-29T07:18:16.162Z</time></trkpt><trkpt lat="42.9856644" lon="12.1200559"><ele>363.0</ele><time>2026-03-29T07:18:17.167Z</time></trkpt><trkpt lat="42.9855971" lon="12.1199147"><ele>367.0</ele><time>2026-03-29T07:18:18.163Z</time></trkpt><trkpt lat="42.9855387" lon="12.1197862"><ele>371.0</ele><time>2026-03-29T07:18:19.163Z</time></trkpt><trkpt lat="42.9854955" lon="12.1196625"><ele>375.0</ele><time>2026-03-29T07:18:20.171Z</time></trkpt><trkpt lat="42.9854621" lon="12.1195321"><ele>379.0</ele><time>2026-03-29T07:18:21.168Z</time></trkpt><trkpt lat="42.9854335" lon="12.1193991"><ele>379.0</ele><time>2026-03-29T07:18:22.16Z</time></trkpt><trkpt lat="42.9854103" lon="12.1192745"><ele>379.0</ele><time>2026-03-29T07:18:23.166Z</time></trkpt><trkpt lat="42.9853874" lon="12.1191659"><ele>379.0</ele><time>2026-03-29T07:18:24.163Z</time></trkpt><trkpt lat="42.9853569" lon="12.1190773"><ele>379.0</ele><time>2026-03-29T07:18:25.16Z</time></trkpt><trkpt lat="42.9852864" lon="12.1189637"><ele>379.0</ele><time>2026-03-29T07:18:27.164Z</time></trkpt><trkpt lat="42.9852141" lon="12.1189369"><ele>379.0</ele><time>2026-03-29T07:18:30.377Z</time></trkpt><trkpt lat="42.9851601" lon="12.1189822"><ele>379.0</ele><time>2026-03-29T07:18:32.375Z</time></trkpt><trkpt lat="42.9851058" lon="12.1191071"><ele>379.0</ele><time>2026-03-29T07:18:34.366Z</time></trkpt><trkpt lat="42.9850758" lon="12.1191856"><ele>379.0</ele><time>2026-03-29T07:18:35.371Z</time></trkpt><trkpt lat="42.9850366" lon="12.1192647"><ele>379.0</ele><time>2026-03-29T07:18:36.371Z</time></trkpt><trkpt lat="42.9849778" lon="12.1193434"><ele>379.0</ele><time>2026-03-29T07:18:37.371Z</time></trkpt><trkpt lat="42.9849052" lon="12.1194166"><ele>379.0</ele><time>2026-03-29T07:18:38.368Z</time></trkpt><trkpt lat="42.9848267" lon="12.1194939"><ele>381.79999999999995</ele><time>2026-03-29T07:18:39.375Z</time></trkpt><trkpt lat="42.9847364" lon="12.1195692"><ele>384.59999999999997</ele><time>2026-03-29T07:18:40.368Z</time></trkpt><trkpt lat="42.9846483" lon="12.1196263"><ele>387.4</ele><time>2026-03-29T07:18:41.37Z</time></trkpt><trkpt lat="42.9845562" lon="12.1196822"><ele>390.2</ele><time>2026-03-29T07:18:42.367Z</time></trkpt><trkpt lat="42.9844709" lon="12.1197389"><ele>393.0</ele><time>2026-03-29T07:18:43.368Z</time></trkpt><trkpt lat="42.9843989" lon="12.1197954"><ele>393.0</ele><time>2026-03-29T07:18:44.374Z</time></trkpt><trkpt lat="42.9843488" lon="12.1198546"><ele>393.0</ele><time>2026-03-29T07:18:45.373Z</time></trkpt><trkpt lat="42.9842857" lon="12.1199763"><ele>393.0</ele><time>2026-03-29T07:18:47.37Z</time></trkpt><trkpt lat="42.9842169" lon="12.120134"><ele>393.0</ele><time>2026-03-29T07:18:49.376Z</time></trkpt><trkpt lat="42.9841734" lon="12.12023"><ele>393.0</ele><time>2026-03-29T07:18:50.374Z</time></trkpt><trkpt lat="42.9841278" lon="12.1203408"><ele>395.59999999999997</ele><time>2026-03-29T07:18:51.37Z</time></trkpt><trkpt lat="42.9840791" lon="12.1204682"><ele>398.2</ele><time>2026-03-29T07:18:52.369Z</time></trkpt><trkpt lat="42.9840241" lon="12.1206134"><ele>400.8</ele><time>2026-03-29T07:18:53.368Z</time></trkpt><trkpt lat="42.9839742" lon="12.1207564"><ele>403.4</ele><time>2026-03-29T07:18:54.37Z</time></trkpt><trkpt lat="42.9839218" lon="12.1208771"><ele>406.0</ele><time>2026-03-29T07:18:55.369Z</time></trkpt><trkpt lat="42.9838684" lon="12.1209766"><ele>408.6666666666667</ele><time>2026-03-29T07:18:56.374Z</time></trkpt><trkpt lat="42.9838197" lon="12.1210616"><ele>411.33333333333337</ele><time>2026-03-29T07:18:57.373Z</time></trkpt><trkpt lat="42.9837734" lon="12.1211363"><ele>414.0</ele><time>2026-03-29T07:18:58.371Z</time></trkpt><trkpt lat="42.9837337" lon="12.1212254"><ele>416.66666666666663</ele><time>2026-03-29T07:18:59.37Z</time></trkpt><trkpt lat="42.9837033" lon="12.1213411"><ele>419.3333333333333</ele><time>2026-03-29T07:19:00.37Z</time></trkpt><trkpt lat="42.9836832" lon="12.1214717"><ele>422.0</ele><time>2026-03-29T07:19:01.373Z</time></trkpt><trkpt lat="42.9836708" lon="12.1216005"><ele>425.3333333333333</ele><time>2026-03-29T07:19:02.371Z</time></trkpt><trkpt lat="42.9836594" lon="12.1217192"><ele>428.66666666666663</ele><time>2026-03-29T07:19:03.372Z</time></trkpt><trkpt lat="42.9836525" lon="12.1218298"><ele>432.0</ele><time>2026-03-29T07:19:04.374Z</time></trkpt><trkpt lat="42.9836448" lon="12.1219356"><ele>435.33333333333337</ele><time>2026-03-29T07:19:05.367Z</time></trkpt><trkpt lat="42.9836338" lon="12.1220374"><ele>438.6666666666667</ele><time>2026-03-29T07:19:06.366Z</time></trkpt><trkpt lat="42.9836203" lon="12.1221486"><ele>442.0</ele><time>2026-03-29T07:19:07.374Z</time></trkpt><trkpt lat="42.9836083" lon="12.1222627"><ele>442.00000000000006</ele><time>2026-03-29T07:19:08.368Z</time></trkpt><trkpt lat="42.9835978" lon="12.122371"><ele>442.0</ele><time>2026-03-29T07:19:09.369Z</time></trkpt><trkpt lat="42.9835878" lon="12.1224707"><ele>442.0</ele><time>2026-03-29T07:19:10.372Z</time></trkpt><trkpt lat="42.9835813" lon="12.1225654"><ele>442.0</ele><time>2026-03-29T07:19:11.37Z</time></trkpt><trkpt lat="42.9835832" lon="12.1226634"><ele>442.00000000000006</ele><time>2026-03-29T07:19:12.368Z</time></trkpt><trkpt lat="42.9835851" lon="12.1227686"><ele>442.0</ele><time>2026-03-29T07:19:13.367Z</time></trkpt><trkpt lat="42.983591" lon="12.1228862"><ele>443.83333333333337</ele><time>2026-03-29T07:19:14.367Z</time></trkpt><trkpt lat="42.9836026" lon="12.1230105"><ele>445.6666666666667</ele><time>2026-03-29T07:19:15.369Z</time></trkpt><trkpt lat="42.9836171" lon="12.1231384"><ele>447.5</ele><time>2026-03-29T07:19:16.372Z</time></trkpt><trkpt lat="42.9836249" lon="12.1232496"><ele>449.33333333333337</ele><time>2026-03-29T07:19:17.368Z</time></trkpt><trkpt lat="42.9836188" lon="12.1233409"><ele>451.1666666666667</ele><time>2026-03-29T07:19:18.367Z</time></trkpt><trkpt lat="42.9835854" lon="12.1234884"><ele>453.0</ele><time>2026-03-29T07:19:20.37Z</time></trkpt><trkpt lat="42.9835031" lon="12.1236174"><ele>453.4</ele><time>2026-03-29T07:19:22.371Z</time></trkpt><trkpt lat="42.9834424" lon="12.1236791"><ele>453.79999999999995</ele><time>2026-03-29T07:19:23.375Z</time></trkpt><trkpt lat="42.9833759" lon="12.1237493"><ele>454.2</ele><time>2026-03-29T07:19:24.371Z</time></trkpt><trkpt lat="42.9833176" lon="12.1238146"><ele>454.6</ele><time>2026-03-29T07:19:25.372Z</time></trkpt><trkpt lat="42.9832204" lon="12.1238669"><ele>455.0</ele><time>2026-03-29T07:19:27.369Z</time></trkpt><trkpt lat="42.983088" lon="12.1238481"><ele>453.8333333333333</ele><time>2026-03-29T07:19:29.371Z</time></trkpt><trkpt lat="42.9830102" lon="12.1238589"><ele>452.66666666666663</ele><time>2026-03-29T07:19:30.368Z</time></trkpt><trkpt lat="42.9829303" lon="12.1239507"><ele>451.5</ele><time>2026-03-29T07:19:32.37Z</time></trkpt><trkpt lat="42.9829017" lon="12.1240291"><ele>450.33333333333337</ele><time>2026-03-29T07:19:33.37Z</time></trkpt><trkpt lat="42.9828811" lon="12.1241862"><ele>449.1666666666667</ele><time>2026-03-29T07:19:35.372Z</time></trkpt><trkpt lat="42.9828851" lon="12.1242853"><ele>448.0</ele><time>2026-03-29T07:19:36.369Z</time></trkpt><trkpt lat="42.9828904" lon="12.1243989"><ele>448.00000000000006</ele><time>2026-03-29T07:19:37.379Z</time></trkpt><trkpt lat="42.9828952" lon="12.1244996"><ele>448.0</ele><time>2026-03-29T07:19:38.368Z</time></trkpt><trkpt lat="42.982887" lon="12.1245919"><ele>448.0</ele><time>2026-03-29T07:19:39.369Z</time></trkpt><trkpt lat="42.9828589" lon="12.1246933"><ele>448.0</ele><time>2026-03-29T07:19:40.37Z</time></trkpt><trkpt lat="42.9828168" lon="12.1248062"><ele>448.00000000000006</ele><time>2026-03-29T07:19:41.368Z</time></trkpt><trkpt lat="42.9827669" lon="12.1249252"><ele>448.0</ele><time>2026-03-29T07:19:42.371Z</time></trkpt><trkpt lat="42.9827213" lon="12.1250342"><ele>448.33333333333337</ele><time>2026-03-29T07:19:43.368Z</time></trkpt><trkpt lat="42.9826693" lon="12.1251321"><ele>448.6666666666667</ele><time>2026-03-29T07:19:44.368Z</time></trkpt><trkpt lat="42.982613" lon="12.1252084"><ele>449.0</ele><time>2026-03-29T07:19:45.366Z</time></trkpt><trkpt lat="42.982547" lon="12.1252646"><ele>449.33333333333337</ele><time>2026-03-29T07:19:46.366Z</time></trkpt><trkpt lat="42.982465" lon="12.1253083"><ele>449.6666666666667</ele><time>2026-03-29T07:19:47.368Z</time></trkpt><trkpt lat="42.9823698" lon="12.1253482"><ele>450.0</ele><time>2026-03-29T07:19:48.367Z</time></trkpt><trkpt lat="42.9822797" lon="12.1253818"><ele>447.0</ele><time>2026-03-29T07:19:49.378Z</time></trkpt><trkpt lat="42.9821847" lon="12.1254066"><ele>444.0</ele><time>2026-03-29T07:19:50.369Z</time></trkpt><trkpt lat="42.9820819" lon="12.1254227"><ele>441.0</ele><time>2026-03-29T07:19:51.41Z</time></trkpt><trkpt lat="42.9819796" lon="12.1254362"><ele>438.0</ele><time>2026-03-29T07:19:52.367Z</time></trkpt><trkpt lat="42.9818803" lon="12.125443"><ele>435.0</ele><time>2026-03-29T07:19:53.37Z</time></trkpt><trkpt lat="42.9817905" lon="12.1254447"><ele>435.0</ele><time>2026-03-29T07:19:54.37Z</time></trkpt><trkpt lat="42.981712" lon="12.1254425"><ele>435.0</ele><time>2026-03-29T07:19:55.37Z</time></trkpt><trkpt lat="42.9816443" lon="12.1254389"><ele>435.0</ele><time>2026-03-29T07:19:56.371Z</time></trkpt><trkpt lat="42.9815204" lon="12.1254394"><ele>435.0</ele><time>2026-03-29T07:19:58.371Z</time></trkpt><trkpt lat="42.9814198" lon="12.1254295"><ele>435.0</ele><time>2026-03-29T07:20:00.37Z</time></trkpt><trkpt lat="42.9812635" lon="12.1253645"><ele>434.4</ele><time>2026-03-29T07:20:02.37Z</time></trkpt><trkpt lat="42.9811513" lon="12.1253242"><ele>433.8</ele><time>2026-03-29T07:20:03.373Z</time></trkpt><trkpt lat="42.9810539" lon="12.1252995"><ele>433.20000000000005</ele><time>2026-03-29T07:20:04.369Z</time></trkpt><trkpt lat="42.9809526" lon="12.1252806"><ele>432.6</ele><time>2026-03-29T07:20:05.383Z</time></trkpt><trkpt lat="42.9808433" lon="12.1252599"><ele>432.0</ele><time>2026-03-29T07:20:06.368Z</time></trkpt><trkpt lat="42.9807332" lon="12.1252395"><ele>432.0</ele><time>2026-03-29T07:20:07.371Z</time></trkpt><trkpt lat="42.9806356" lon="12.1252248"><ele>432.0</ele><time>2026-03-29T07:20:08.369Z</time></trkpt><trkpt lat="42.980554" lon="12.1252103"><ele>432.0</ele><time>2026-03-29T07:20:09.369Z</time></trkpt><trkpt lat="42.9804863" lon="12.1252063"><ele>432.0</ele><time>2026-03-29T07:20:10.37Z</time></trkpt><trkpt lat="42.9803717" lon="12.1252579"><ele>432.0</ele><time>2026-03-29T07:20:12.37Z</time></trkpt><trkpt lat="42.9803092" lon="12.1252909"><ele>432.0</ele><time>2026-03-29T07:20:13.37Z</time></trkpt><trkpt lat="42.9802478" lon="12.1253118"><ele>432.0</ele><time>2026-03-29T07:20:14.367Z</time></trkpt><trkpt lat="42.9801448" lon="12.1253028"><ele>432.00000000000006</ele><time>2026-03-29T07:20:16.37Z</time></trkpt><trkpt lat="42.9800834" lon="12.1252633"><ele>432.00000000000006</ele><time>2026-03-29T07:20:18.367Z</time></trkpt><trkpt lat="42.9800112" lon="12.1252563"><ele>432.0</ele><time>2026-03-29T07:20:20.368Z</time></trkpt><trkpt lat="42.9799266" lon="12.125277"><ele>432.0</ele><time>2026-03-29T07:20:22.372Z</time></trkpt><trkpt lat="42.9798035" lon="12.1252737"><ele>432.6</ele><time>2026-03-29T07:20:24.368Z</time></trkpt><trkpt lat="42.9796881" lon="12.1252705"><ele>433.20000000000005</ele><time>2026-03-29T07:20:26.37Z</time></trkpt><trkpt lat="42.9795746" lon="12.1252999"><ele>433.8</ele><time>2026-03-29T07:20:28.37Z</time></trkpt><trkpt lat="42.9794616" lon="12.1253623"><ele>434.4</ele><time>2026-03-29T07:20:30.369Z</time></trkpt><trkpt lat="42.9793967" lon="12.125429"><ele>435.0</ele><time>2026-03-29T07:20:32.371Z</time></trkpt><trkpt lat="42.9793536" lon="12.1255434"><ele>435.00000000000006</ele><time>2026-03-29T07:20:34.368Z</time></trkpt><trkpt lat="42.9792956" lon="12.1256346"><ele>435.0</ele><time>2026-03-29T07:20:36.37Z</time></trkpt><trkpt lat="42.9792163" lon="12.1256778"><ele>435.0</ele><time>2026-03-29T07:20:38.37Z</time></trkpt><trkpt lat="42.9791538" lon="12.1257286"><ele>435.0</ele><time>2026-03-29T07:20:40.37Z</time></trkpt><trkpt lat="42.9791445" lon="12.1258207"><ele>435.0</ele><time>2026-03-29T07:20:42.368Z</time></trkpt><trkpt lat="42.9791686" lon="12.1259009"><ele>435.00000000000006</ele><time>2026-03-29T07:21:01.368Z</time></trkpt><trkpt lat="42.9792118" lon="12.1259746"><ele>435.0</ele><time>2026-03-29T07:21:04.371Z</time></trkpt><trkpt lat="42.9792735" lon="12.1260621"><ele>434.6666666666667</ele><time>2026-03-29T07:21:07.37Z</time></trkpt><trkpt lat="42.979334" lon="12.1261081"><ele>434.33333333333337</ele><time>2026-03-29T07:21:21.372Z</time></trkpt><trkpt lat="42.9792686" lon="12.1260442"><ele>434.0</ele><time>2026-03-29T07:21:57.381Z</time></trkpt><trkpt lat="42.9792173" lon="12.125964"><ele>433.6666666666667</ele><time>2026-03-29T07:22:00.37Z</time></trkpt><trkpt lat="42.9791746" lon="12.1258764"><ele>433.33333333333337</ele><time>2026-03-29T07:22:03.368Z</time></trkpt><trkpt lat="42.9791535" lon="12.1257796"><ele>433.0</ele><time>2026-03-29T07:22:25.37Z</time></trkpt><trkpt lat="42.979092" lon="12.1257128"><ele>432.1666666666667</ele><time>2026-03-29T07:22:28.368Z</time></trkpt><trkpt lat="42.9790271" lon="12.1256727"><ele>431.33333333333337</ele><time>2026-03-29T07:22:30.371Z</time></trkpt><trkpt lat="42.9789466" lon="12.1256357"><ele>430.5</ele><time>2026-03-29T07:22:32.369Z</time></trkpt><trkpt lat="42.9788708" lon="12.1256004"><ele>429.66666666666663</ele><time>2026-03-29T07:22:34.371Z</time></trkpt><trkpt lat="42.9788048" lon="12.1255116"><ele>428.8333333333333</ele><time>2026-03-29T07:22:37.374Z</time></trkpt><trkpt lat="42.9787387" lon="12.1254323"><ele>428.0</ele><time>2026-03-29T07:22:39.373Z</time></trkpt><trkpt lat="42.9786527" lon="12.125335"><ele>428.0</ele><time>2026-03-29T07:22:41.371Z</time></trkpt><trkpt lat="42.978565" lon="12.1252429"><ele>427.99999999999994</ele><time>2026-03-29T07:22:43.384Z</time></trkpt><trkpt lat="42.978512" lon="12.1251501"><ele>427.99999999999994</ele><time>2026-03-29T07:22:45.382Z</time></trkpt><trkpt lat="42.9784753" lon="12.1250345"><ele>428.0</ele><time>2026-03-29T07:22:47.37Z</time></trkpt><trkpt lat="42.9784275" lon="12.1248719"><ele>428.0</ele><time>2026-03-29T07:22:50.369Z</time></trkpt><trkpt lat="42.9784186" lon="12.1247623"><ele>425.8333333333333</ele><time>2026-03-29T07:22:52.369Z</time></trkpt><trkpt lat="42.9784302" lon="12.1246532"><ele>423.66666666666663</ele><time>2026-03-29T07:22:54.368Z</time></trkpt><trkpt lat="42.9784475" lon="12.1245162"><ele>421.5</ele><time>2026-03-29T07:22:56.374Z</time></trkpt><trkpt lat="42.9784501" lon="12.1243992"><ele>419.33333333333337</ele><time>2026-03-29T07:22:58.369Z</time></trkpt><trkpt lat="42.9784037" lon="12.124319"><ele>417.1666666666667</ele><time>2026-03-29T07:23:00.381Z</time></trkpt><trkpt lat="42.9783158" lon="12.1242538"><ele>415.0</ele><time>2026-03-29T07:23:02.371Z</time></trkpt><trkpt lat="42.9782412" lon="12.1241867"><ele>413.2</ele><time>2026-03-29T07:23:04.369Z</time></trkpt><trkpt lat="42.978179" lon="12.1241097"><ele>411.4</ele><time>2026-03-29T07:23:06.379Z</time></trkpt><trkpt lat="42.978102" lon="12.1240656"><ele>409.6</ele><time>2026-03-29T07:23:08.37Z</time></trkpt><trkpt lat="42.9780308" lon="12.1240201"><ele>407.8</ele><time>2026-03-29T07:23:10.373Z</time></trkpt><trkpt lat="42.977932" lon="12.1239886"><ele>406.0</ele><time>2026-03-29T07:23:12.371Z</time></trkpt><trkpt lat="42.9778297" lon="12.1239553"><ele>404.20000000000005</ele><time>2026-03-29T07:23:14.374Z</time></trkpt><trkpt lat="42.9777476" lon="12.1238729"><ele>402.40000000000003</ele><time>2026-03-29T07:23:16.371Z</time></trkpt><trkpt lat="42.9776758" lon="12.1237724"><ele>400.6</ele><time>2026-03-29T07:23:18.375Z</time></trkpt><trkpt lat="42.9775535" lon="12.123734"><ele>398.8</ele><time>2026-03-29T07:23:20.376Z</time></trkpt><trkpt lat="42.9774756" lon="12.1237267"><ele>397.0</ele><time>2026-03-29T07:23:21.381Z</time></trkpt><trkpt lat="42.9774129" lon="12.1237182"><ele>396.6</ele><time>2026-03-29T07:23:22.368Z</time></trkpt><trkpt lat="42.9773151" lon="12.1236773"><ele>396.20000000000005</ele><time>2026-03-29T07:23:24.37Z</time></trkpt><trkpt lat="42.9772578" lon="12.1236018"><ele>395.8</ele><time>2026-03-29T07:23:26.368Z</time></trkpt><trkpt lat="42.9772401" lon="12.1234779"><ele>395.4</ele><time>2026-03-29T07:23:28.374Z</time></trkpt><trkpt lat="42.977222" lon="12.1232987"><ele>395.0</ele><time>2026-03-29T07:23:30.37Z</time></trkpt><trkpt lat="42.977209" lon="12.1232033"><ele>394.2</ele><time>2026-03-29T07:23:31.374Z</time></trkpt><trkpt lat="42.9771908" lon="12.1230428"><ele>393.4</ele><time>2026-03-29T07:23:33.372Z</time></trkpt><trkpt lat="42.9771983" lon="12.1228837"><ele>392.6</ele><time>2026-03-29T07:23:35.376Z</time></trkpt><trkpt lat="42.9772177" lon="12.1227694"><ele>391.8</ele><time>2026-03-29T07:23:37.373Z</time></trkpt><trkpt lat="42.9772397" lon="12.1226513"><ele>391.0</ele><time>2026-03-29T07:23:39.377Z</time></trkpt><trkpt lat="42.9772399" lon="12.1225453"><ele>391.0</ele><time>2026-03-29T07:23:41.372Z</time></trkpt><trkpt lat="42.9772061" lon="12.122443"><ele>391.0</ele><time>2026-03-29T07:23:43.373Z</time></trkpt><trkpt lat="42.9771487" lon="12.1223441"><ele>391.0</ele><time>2026-03-29T07:23:45.375Z</time></trkpt><trkpt lat="42.9770957" lon="12.1222249"><ele>391.0</ele><time>2026-03-29T07:23:47.399Z</time></trkpt><trkpt lat="42.9770297" lon="12.1220978"><ele>391.0</ele><time>2026-03-29T07:23:49.37Z</time></trkpt><trkpt lat="42.9769875" lon="12.122032"><ele>389.33333333333337</ele><time>2026-03-29T07:23:50.37Z</time></trkpt><trkpt lat="42.9769485" lon="12.1219616"><ele>387.6666666666667</ele><time>2026-03-29T07:23:51.372Z</time></trkpt><trkpt lat="42.9769086" lon="12.1218864"><ele>386.0</ele><time>2026-03-29T07:23:52.38Z</time></trkpt><trkpt lat="42.9768654" lon="12.1218093"><ele>384.33333333333337</ele><time>2026-03-29T07:23:53.373Z</time></trkpt><trkpt lat="42.9768296" lon="12.1217345"><ele>382.6666666666667</ele><time>2026-03-29T07:23:54.369Z</time></trkpt><trkpt lat="42.9767787" lon="12.1216026"><ele>381.0</ele><time>2026-03-29T07:23:56.374Z</time></trkpt><trkpt lat="42.9767613" lon="12.1214835"><ele>378.4</ele><time>2026-03-29T07:23:58.378Z</time></trkpt><trkpt lat="42.976769" lon="12.1213652"><ele>375.8</ele><time>2026-03-29T07:24:00.371Z</time></trkpt><trkpt lat="42.9767729" lon="12.1212441"><ele>373.2</ele><time>2026-03-29T07:24:02.371Z</time></trkpt><trkpt lat="42.9767787" lon="12.1211289"><ele>370.59999999999997</ele><time>2026-03-29T07:24:04.372Z</time></trkpt><trkpt lat="42.9768065" lon="12.1210087"><ele>368.0</ele><time>2026-03-29T07:24:06.369Z</time></trkpt><trkpt lat="42.9768632" lon="12.1208679"><ele>365.0</ele><time>2026-03-29T07:24:08.371Z</time></trkpt><trkpt lat="42.976899" lon="12.1207257"><ele>362.0</ele><time>2026-03-29T07:24:10.37Z</time></trkpt><trkpt lat="42.9769097" lon="12.1205587"><ele>359.0</ele><time>2026-03-29T07:24:12.375Z</time></trkpt><trkpt lat="42.9769172" lon="12.1204671"><ele>356.0</ele><time>2026-03-29T07:24:13.376Z</time></trkpt><trkpt lat="42.9769347" lon="12.1203216"><ele>353.0</ele><time>2026-03-29T07:24:15.368Z</time></trkpt><trkpt lat="42.9769533" lon="12.1202317"><ele>353.0</ele><time>2026-03-29T07:24:18.376Z</time></trkpt><trkpt lat="42.976903" lon="12.1203509"><ele>353.0</ele><time>2026-03-29T07:24:28.386Z</time></trkpt><trkpt lat="42.9767837" lon="12.1204065"><ele>353.0</ele><time>2026-03-29T07:24:30.373Z</time></trkpt><trkpt lat="42.9766882" lon="12.1204531"><ele>353.0</ele><time>2026-03-29T07:24:32.369Z</time></trkpt><trkpt lat="42.9765901" lon="12.1205276"><ele>353.0</ele><time>2026-03-29T07:24:34.373Z</time></trkpt><trkpt lat="42.9765296" lon="12.1205866"><ele>353.83333333333337</ele><time>2026-03-29T07:24:35.372Z</time></trkpt><trkpt lat="42.9764646" lon="12.1206545"><ele>354.6666666666667</ele><time>2026-03-29T07:24:36.37Z</time></trkpt><trkpt lat="42.9763987" lon="12.120715"><ele>355.5</ele><time>2026-03-29T07:24:37.382Z</time></trkpt><trkpt lat="42.9763431" lon="12.1207702"><ele>356.3333333333333</ele><time>2026-03-29T07:24:38.376Z</time></trkpt><trkpt lat="42.9762542" lon="12.1208587"><ele>357.16666666666663</ele><time>2026-03-29T07:24:40.375Z</time></trkpt><trkpt lat="42.97617" lon="12.1209433"><ele>358.0</ele><time>2026-03-29T07:24:42.377Z</time></trkpt><trkpt lat="42.9760856" lon="12.121034"><ele>358.2</ele><time>2026-03-29T07:24:44.367Z</time></trkpt><trkpt lat="42.9760263" lon="12.1211218"><ele>358.4</ele><time>2026-03-29T07:24:46.375Z</time></trkpt><trkpt lat="42.9759383" lon="12.1212248"><ele>358.59999999999997</ele><time>2026-03-29T07:24:48.371Z</time></trkpt><trkpt lat="42.9758487" lon="12.1213176"><ele>358.79999999999995</ele><time>2026-03-29T07:24:50.374Z</time></trkpt><trkpt lat="42.9757942" lon="12.1214458"><ele>359.0</ele><time>2026-03-29T07:24:52.371Z</time></trkpt><trkpt lat="42.9757439" lon="12.1216035"><ele>359.2857142857143</ele><time>2026-03-29T07:24:54.37Z</time></trkpt><trkpt lat="42.9757204" lon="12.121692"><ele>359.57142857142856</ele><time>2026-03-29T07:24:55.38Z</time></trkpt><trkpt lat="42.975692" lon="12.1217813"><ele>359.8571428571429</ele><time>2026-03-29T07:24:56.37Z</time></trkpt><trkpt lat="42.975659" lon="12.1218743"><ele>360.1428571428571</ele><time>2026-03-29T07:24:57.371Z</time></trkpt><trkpt lat="42.9756332" lon="12.121961"><ele>360.4285714285714</ele><time>2026-03-29T07:24:58.37Z</time></trkpt><trkpt lat="42.9756141" lon="12.1220462"><ele>360.7142857142857</ele><time>2026-03-29T07:24:59.374Z</time></trkpt><trkpt lat="42.9756109" lon="12.1221382"><ele>361.0</ele><time>2026-03-29T07:25:00.372Z</time></trkpt><trkpt lat="42.9756155" lon="12.1222335"><ele>361.0</ele><time>2026-03-29T07:25:01.384Z</time></trkpt><trkpt lat="42.9756186" lon="12.1223213"><ele>361.0</ele><time>2026-03-29T07:25:02.374Z</time></trkpt><trkpt lat="42.9755777" lon="12.1224624"><ele>361.0</ele><time>2026-03-29T07:25:04.368Z</time></trkpt><trkpt lat="42.9755375" lon="12.1225318"><ele>361.0</ele><time>2026-03-29T07:25:05.369Z</time></trkpt><trkpt lat="42.9754892" lon="12.1226139"><ele>361.0</ele><time>2026-03-29T07:25:06.376Z</time></trkpt><trkpt lat="42.9754568" lon="12.1227031"><ele>361.0</ele><time>2026-03-29T07:25:07.376Z</time></trkpt><trkpt lat="42.9754369" lon="12.122793"><ele>361.8333333333333</ele><time>2026-03-29T07:25:08.376Z</time></trkpt><trkpt lat="42.975454" lon="12.122957"><ele>362.66666666666663</ele><time>2026-03-29T07:25:10.373Z</time></trkpt><trkpt lat="42.975477" lon="12.1230511"><ele>363.5</ele><time>2026-03-29T07:25:11.37Z</time></trkpt><trkpt lat="42.9754974" lon="12.1231591"><ele>364.3333333333333</ele><time>2026-03-29T07:25:12.374Z</time></trkpt><trkpt lat="42.9755057" lon="12.1232738"><ele>365.1666666666667</ele><time>2026-03-29T07:25:13.372Z</time></trkpt><trkpt lat="42.9755046" lon="12.1233892"><ele>366.0</ele><time>2026-03-29T07:25:14.37Z</time></trkpt><trkpt lat="42.9754958" lon="12.123504"><ele>366.4</ele><time>2026-03-29T07:25:15.368Z</time></trkpt><trkpt lat="42.9754757" lon="12.1236207"><ele>366.8</ele><time>2026-03-29T07:25:16.377Z</time></trkpt><trkpt lat="42.9754407" lon="12.1237377"><ele>367.2</ele><time>2026-03-29T07:25:17.373Z</time></trkpt><trkpt lat="42.9754" lon="12.1238419"><ele>367.59999999999997</ele><time>2026-03-29T07:25:18.376Z</time></trkpt><trkpt lat="42.9753702" lon="12.1239262"><ele>368.0</ele><time>2026-03-29T07:25:19.378Z</time></trkpt><trkpt lat="42.9753683" lon="12.1240909"><ele>368.5</ele><time>2026-03-29T07:25:21.37Z</time></trkpt><trkpt lat="42.975394" lon="12.1241753"><ele>369.0</ele><time>2026-03-29T07:25:22.371Z</time></trkpt><trkpt lat="42.9754191" lon="12.1242658"><ele>369.5</ele><time>2026-03-29T07:25:23.377Z</time></trkpt><trkpt lat="42.9754345" lon="12.1243532"><ele>370.0</ele><time>2026-03-29T07:25:24.374Z</time></trkpt><trkpt lat="42.9754402" lon="12.1245142"><ele>370.5</ele><time>2026-03-29T07:25:26.371Z</time></trkpt><trkpt lat="42.9754607" lon="12.1246236"><ele>371.0</ele><time>2026-03-29T07:25:28.369Z</time></trkpt><trkpt lat="42.9755084" lon="12.1246981"><ele>371.0</ele><time>2026-03-29T07:25:30.372Z</time></trkpt><trkpt lat="42.975567" lon="12.1248089"><ele>371.0</ele><time>2026-03-29T07:25:32.376Z</time></trkpt><trkpt lat="42.9756085" lon="12.1248801"><ele>371.0</ele><time>2026-03-29T07:25:33.367Z</time></trkpt><trkpt lat="42.9756508" lon="12.1249532"><ele>371.0</ele><time>2026-03-29T07:25:34.372Z</time></trkpt><trkpt lat="42.9756884" lon="12.1250261"><ele>371.0</ele><time>2026-03-29T07:25:35.372Z</time></trkpt><trkpt lat="42.9757249" lon="12.1251037"><ele>371.0</ele><time>2026-03-29T07:25:36.37Z</time></trkpt><trkpt lat="42.9757596" lon="12.125182"><ele>371.0</ele><time>2026-03-29T07:25:37.379Z</time></trkpt><trkpt lat="42.9758116" lon="12.1253145"><ele>371.0</ele><time>2026-03-29T07:25:39.378Z</time></trkpt><trkpt lat="42.9758337" lon="12.1254351"><ele>371.0</ele><time>2026-03-29T07:25:41.37Z</time></trkpt><trkpt lat="42.9758483" lon="12.1255622"><ele>371.0</ele><time>2026-03-29T07:25:43.375Z</time></trkpt><trkpt lat="42.9758605" lon="12.1257064"><ele>371.0</ele><time>2026-03-29T07:25:45.37Z</time></trkpt><trkpt lat="42.9758655" lon="12.1258368"><ele>371.0</ele><time>2026-03-29T07:25:47.376Z</time></trkpt><trkpt lat="42.9758682" lon="12.1259879"><ele>371.1666666666667</ele><time>2026-03-29T07:25:49.37Z</time></trkpt><trkpt lat="42.9758685" lon="12.1260883"><ele>371.33333333333337</ele><time>2026-03-29T07:25:50.37Z</time></trkpt><trkpt lat="42.9758746" lon="12.126189"><ele>371.5</ele><time>2026-03-29T07:25:51.372Z</time></trkpt><trkpt lat="42.9758948" lon="12.1263213"><ele>371.6666666666667</ele><time>2026-03-29T07:25:53.379Z</time></trkpt><trkpt lat="42.9758923" lon="12.1264222"><ele>371.8333333333333</ele><time>2026-03-29T07:25:55.369Z</time></trkpt><trkpt lat="42.9758324" lon="12.1265683"><ele>372.0</ele><time>2026-03-29T07:25:57.376Z</time></trkpt><trkpt lat="42.9757954" lon="12.1266414"><ele>372.0</ele><time>2026-03-29T07:25:58.378Z</time></trkpt><trkpt lat="42.9757458" lon="12.1267488"><ele>372.0</ele><time>2026-03-29T07:26:00.368Z</time></trkpt><trkpt lat="42.9757723" lon="12.1268607"><ele>372.0</ele><time>2026-03-29T07:26:02.371Z</time></trkpt><trkpt lat="42.9758317" lon="12.1270133"><ele>372.0</ele><time>2026-03-29T07:26:04.371Z</time></trkpt><trkpt lat="42.9758768" lon="12.127095"><ele>372.0</ele><time>2026-03-29T07:26:05.371Z</time></trkpt><trkpt lat="42.9759241" lon="12.1271693"><ele>373.0</ele><time>2026-03-29T07:26:06.369Z</time></trkpt><trkpt lat="42.9759718" lon="12.1272301"><ele>374.0</ele><time>2026-03-29T07:26:07.37Z</time></trkpt><trkpt lat="42.9760487" lon="12.1273348"><ele>375.0</ele><time>2026-03-29T07:26:09.371Z</time></trkpt><trkpt lat="42.976132" lon="12.1274137"><ele>376.0</ele><time>2026-03-29T07:26:11.366Z</time></trkpt><trkpt lat="42.9761917" lon="12.1274821"><ele>377.0</ele><time>2026-03-29T07:26:13.368Z</time></trkpt><trkpt lat="42.9761771" lon="12.1275682"><ele>378.0</ele><time>2026-03-29T07:26:16.369Z</time></trkpt><trkpt lat="42.9761259" lon="12.1276341"><ele>378.0</ele><time>2026-03-29T07:26:18.367Z</time></trkpt><trkpt lat="42.9760241" lon="12.1277238"><ele>378.0</ele><time>2026-03-29T07:26:20.379Z</time></trkpt><trkpt lat="42.9759569" lon="12.127759"><ele>378.0</ele><time>2026-03-29T07:26:21.371Z</time></trkpt><trkpt lat="42.9758765" lon="12.1277833"><ele>378.0</ele><time>2026-03-29T07:26:22.369Z</time></trkpt><trkpt lat="42.975792" lon="12.12781"><ele>378.0</ele><time>2026-03-29T07:26:23.368Z</time></trkpt><trkpt lat="42.9757005" lon="12.1278456"><ele>377.0</ele><time>2026-03-29T07:26:24.368Z</time></trkpt><trkpt lat="42.9756184" lon="12.1278858"><ele>376.0</ele><time>2026-03-29T07:26:25.366Z</time></trkpt><trkpt lat="42.9755444" lon="12.1279309"><ele>375.0</ele><time>2026-03-29T07:26:26.373Z</time></trkpt><trkpt lat="42.9754869" lon="12.1279799"><ele>374.0</ele><time>2026-03-29T07:26:27.37Z</time></trkpt><trkpt lat="42.9754201" lon="12.1281061"><ele>373.0</ele><time>2026-03-29T07:26:29.368Z</time></trkpt><trkpt lat="42.9754382" lon="12.1282313"><ele>372.0</ele><time>2026-03-29T07:26:31.369Z</time></trkpt><trkpt lat="42.9754885" lon="12.1283632"><ele>372.0</ele><time>2026-03-29T07:26:33.367Z</time></trkpt><trkpt lat="42.9755067" lon="12.1284511"><ele>372.0</ele><time>2026-03-29T07:26:34.368Z</time></trkpt><trkpt lat="42.9755207" lon="12.1285498"><ele>372.0</ele><time>2026-03-29T07:26:35.372Z</time></trkpt><trkpt lat="42.97553" lon="12.1286558"><ele>372.0</ele><time>2026-03-29T07:26:36.366Z</time></trkpt><trkpt lat="42.9755354" lon="12.128773"><ele>372.0</ele><time>2026-03-29T07:26:37.37Z</time></trkpt><trkpt lat="42.975545" lon="12.1288921"><ele>372.0</ele><time>2026-03-29T07:26:38.367Z</time></trkpt><trkpt lat="42.975559" lon="12.1289975"><ele>371.3333333333333</ele><time>2026-03-29T07:26:39.368Z</time></trkpt><trkpt lat="42.9755718" lon="12.1291011"><ele>370.6666666666667</ele><time>2026-03-29T07:26:40.37Z</time></trkpt><trkpt lat="42.9755856" lon="12.1292069"><ele>370.0</ele><time>2026-03-29T07:26:41.368Z</time></trkpt><trkpt lat="42.9755997" lon="12.1293037"><ele>369.33333333333337</ele><time>2026-03-29T07:26:42.369Z</time></trkpt><trkpt lat="42.9756076" lon="12.1293904"><ele>368.6666666666667</ele><time>2026-03-29T07:26:43.365Z</time></trkpt><trkpt lat="42.9756159" lon="12.1295254"><ele>368.0</ele><time>2026-03-29T07:26:45.372Z</time></trkpt><trkpt lat="42.9756235" lon="12.1296185"><ele>368.0</ele><time>2026-03-29T07:26:47.37Z</time></trkpt><trkpt lat="42.9756354" lon="12.1297296"><ele>368.0</ele><time>2026-03-29T07:26:54.371Z</time></trkpt><trkpt lat="42.9756362" lon="12.1298197"><ele>368.0</ele><time>2026-03-29T07:26:56.367Z</time></trkpt><trkpt lat="42.9756497" lon="12.1299196"><ele>368.0</ele><time>2026-03-29T07:26:58.369Z</time></trkpt><trkpt lat="42.9756552" lon="12.1300137"><ele>368.0</ele><time>2026-03-29T07:27:00.367Z</time></trkpt><trkpt lat="42.9756344" lon="12.1301195"><ele>368.0</ele><time>2026-03-29T07:27:03.366Z</time></trkpt><trkpt lat="42.9756544" lon="12.1302175"><ele>368.0</ele><time>2026-03-29T07:27:07.375Z</time></trkpt><trkpt lat="42.9756717" lon="12.1303072"><ele>367.0</ele><time>2026-03-29T07:27:11.369Z</time></trkpt><trkpt lat="42.9756102" lon="12.1303339"><ele>366.0</ele><time>2026-03-29T07:27:17.371Z</time></trkpt><trkpt lat="42.9755253" lon="12.1302849"><ele>365.0</ele><time>2026-03-29T07:27:20.368Z</time></trkpt><trkpt lat="42.9754827" lon="12.1301999"><ele>364.0</ele><time>2026-03-29T07:27:23.37Z</time></trkpt><trkpt lat="42.9754282" lon="12.1301559"><ele>363.0</ele><time>2026-03-29T07:27:25.368Z</time></trkpt><trkpt lat="42.9753498" lon="12.1301199"><ele>362.0</ele><time>2026-03-29T07:27:27.37Z</time></trkpt><trkpt lat="42.9752707" lon="12.1301566"><ele>362.0</ele><time>2026-03-29T07:27:30.371Z</time></trkpt><trkpt lat="42.9751983" lon="12.1301813"><ele>362.0</ele><time>2026-03-29T07:27:34.369Z</time></trkpt><trkpt lat="42.9751059" lon="12.1301753"><ele>362.0</ele><time>2026-03-29T07:27:37.369Z</time></trkpt><trkpt lat="42.9750101" lon="12.1301329"><ele>362.0</ele><time>2026-03-29T07:27:40.367Z</time></trkpt><trkpt lat="42.9749314" lon="12.1300867"><ele>362.0</ele><time>2026-03-29T07:27:42.37Z</time></trkpt><trkpt lat="42.9748575" lon="12.1300341"><ele>362.0</ele><time>2026-03-29T07:27:44.369Z</time></trkpt><trkpt lat="42.9747618" lon="12.1299678"><ele>361.5</ele><time>2026-03-29T07:27:46.366Z</time></trkpt><trkpt lat="42.974667" lon="12.1299116"><ele>361.0</ele><time>2026-03-29T07:27:48.37Z</time></trkpt><trkpt lat="42.9746011" lon="12.1298761"><ele>360.5</ele><time>2026-03-29T07:27:49.366Z</time></trkpt><trkpt lat="42.9745362" lon="12.1298418"><ele>360.0</ele><time>2026-03-29T07:27:50.368Z</time></trkpt><trkpt lat="42.9744334" lon="12.1298135"><ele>359.5</ele><time>2026-03-29T07:27:52.372Z</time></trkpt><trkpt lat="42.9743803" lon="12.1298799"><ele>359.0</ele><time>2026-03-29T07:27:54.368Z</time></trkpt><trkpt lat="42.9744029" lon="12.1300032"><ele>360.5</ele><time>2026-03-29T07:27:56.37Z</time></trkpt><trkpt lat="42.9744519" lon="12.1301592"><ele>362.0</ele><time>2026-03-29T07:27:58.371Z</time></trkpt><trkpt lat="42.9744586" lon="12.1302527"><ele>363.5</ele><time>2026-03-29T07:27:59.369Z</time></trkpt><trkpt lat="42.974456" lon="12.1303524"><ele>365.0</ele><time>2026-03-29T07:28:00.367Z</time></trkpt><trkpt lat="42.974457" lon="12.1304408"><ele>366.5</ele><time>2026-03-29T07:28:01.373Z</time></trkpt><trkpt lat="42.9744661" lon="12.1305749"><ele>368.0</ele><time>2026-03-29T07:28:03.367Z</time></trkpt><trkpt lat="42.9744815" lon="12.1306804"><ele>370.0</ele><time>2026-03-29T07:28:05.375Z</time></trkpt><trkpt lat="42.9745191" lon="12.1307897"><ele>372.0</ele><time>2026-03-29T07:28:08.374Z</time></trkpt><trkpt lat="42.9745591" lon="12.1308949"><ele>374.0</ele><time>2026-03-29T07:28:10.372Z</time></trkpt><trkpt lat="42.9746047" lon="12.1310554"><ele>376.0</ele><time>2026-03-29T07:28:12.373Z</time></trkpt><trkpt lat="42.9746293" lon="12.131159"><ele>378.0</ele><time>2026-03-29T07:28:13.371Z</time></trkpt><trkpt lat="42.9746527" lon="12.1312707"><ele>378.0</ele><time>2026-03-29T07:28:14.398Z</time></trkpt><trkpt lat="42.9746735" lon="12.1313869"><ele>378.0</ele><time>2026-03-29T07:28:15.367Z</time></trkpt><trkpt lat="42.9746862" lon="12.1314938"><ele>378.0</ele><time>2026-03-29T07:28:16.367Z</time></trkpt><trkpt lat="42.9746989" lon="12.131587"><ele>378.0</ele><time>2026-03-29T07:28:17.37Z</time></trkpt><trkpt lat="42.9747227" lon="12.1316685"><ele>378.0</ele><time>2026-03-29T07:28:18.376Z</time></trkpt><trkpt lat="42.9747879" lon="12.1318281"><ele>378.0</ele><time>2026-03-29T07:28:20.368Z</time></trkpt><trkpt lat="42.9748121" lon="12.1319239"><ele>379.8333333333333</ele><time>2026-03-29T07:28:21.387Z</time></trkpt><trkpt lat="42.974821" lon="12.132027"><ele>381.66666666666663</ele><time>2026-03-29T07:28:22.368Z</time></trkpt><trkpt lat="42.9748256" lon="12.1321568"><ele>383.5</ele><time>2026-03-29T07:28:23.367Z</time></trkpt><trkpt lat="42.9748304" lon="12.1322921"><ele>385.3333333333333</ele><time>2026-03-29T07:28:24.367Z</time></trkpt><trkpt lat="42.9748358" lon="12.1324043"><ele>387.16666666666663</ele><time>2026-03-29T07:28:25.367Z</time></trkpt><trkpt lat="42.974831" lon="12.1325084"><ele>389.0</ele><time>2026-03-29T07:28:26.369Z</time></trkpt><trkpt lat="42.974823" lon="12.1326122"><ele>389.8333333333333</ele><time>2026-03-29T07:28:27.37Z</time></trkpt><trkpt lat="42.9748139" lon="12.1327069"><ele>390.66666666666663</ele><time>2026-03-29T07:28:28.368Z</time></trkpt><trkpt lat="42.9748183" lon="12.1327943"><ele>391.5</ele><time>2026-03-29T07:28:29.369Z</time></trkpt><trkpt lat="42.9748668" lon="12.1329708"><ele>392.33333333333337</ele><time>2026-03-29T07:28:31.369Z</time></trkpt><trkpt lat="42.9748884" lon="12.1330718"><ele>393.1666666666667</ele><time>2026-03-29T07:28:32.367Z</time></trkpt><trkpt lat="42.974898" lon="12.1331758"><ele>394.0</ele><time>2026-03-29T07:28:33.371Z</time></trkpt><trkpt lat="42.9749009" lon="12.1332714"><ele>395.00000000000006</ele><time>2026-03-29T07:28:34.368Z</time></trkpt><trkpt lat="42.9749058" lon="12.1333586"><ele>396.0</ele><time>2026-03-29T07:28:35.376Z</time></trkpt><trkpt lat="42.9749428" lon="12.133507"><ele>397.0</ele><time>2026-03-29T07:28:37.37Z</time></trkpt><trkpt lat="42.9749786" lon="12.1335793"><ele>398.0</ele><time>2026-03-29T07:28:38.368Z</time></trkpt><trkpt lat="42.9750192" lon="12.1336613"><ele>399.00000000000006</ele><time>2026-03-29T07:28:39.372Z</time></trkpt><trkpt lat="42.9750866" lon="12.1338089"><ele>400.0</ele><time>2026-03-29T07:28:41.369Z</time></trkpt><trkpt lat="42.9751249" lon="12.1338948"><ele>399.1666666666667</ele><time>2026-03-29T07:28:42.367Z</time></trkpt><trkpt lat="42.9751492" lon="12.133984"><ele>398.33333333333337</ele><time>2026-03-29T07:28:43.371Z</time></trkpt><trkpt lat="42.9751673" lon="12.134068"><ele>397.5</ele><time>2026-03-29T07:28:44.372Z</time></trkpt><trkpt lat="42.9751911" lon="12.1341623"><ele>396.66666666666663</ele><time>2026-03-29T07:28:45.37Z</time></trkpt><trkpt lat="42.9752146" lon="12.1342609"><ele>395.8333333333333</ele><time>2026-03-29T07:28:46.369Z</time></trkpt><trkpt lat="42.9752321" lon="12.1343518"><ele>395.0</ele><time>2026-03-29T07:28:47.376Z</time></trkpt><trkpt lat="42.9752658" lon="12.1345181"><ele>395.0</ele><time>2026-03-29T07:28:49.369Z</time></trkpt><trkpt lat="42.9752969" lon="12.1346858"><ele>395.0</ele><time>2026-03-29T07:28:51.371Z</time></trkpt><trkpt lat="42.9753155" lon="12.1347808"><ele>395.0</ele><time>2026-03-29T07:28:52.368Z</time></trkpt><trkpt lat="42.9753689" lon="12.1349331"><ele>395.0</ele><time>2026-03-29T07:28:54.368Z</time></trkpt><trkpt lat="42.9754095" lon="12.1350094"><ele>395.0</ele><time>2026-03-29T07:28:55.368Z</time></trkpt><trkpt lat="42.9754461" lon="12.1350885"><ele>397.0</ele><time>2026-03-29T07:28:56.371Z</time></trkpt><trkpt lat="42.9754754" lon="12.1351804"><ele>399.0</ele><time>2026-03-29T07:28:57.37Z</time></trkpt><trkpt lat="42.9754985" lon="12.1352826"><ele>401.0</ele><time>2026-03-29T07:28:58.383Z</time></trkpt><trkpt lat="42.9755155" lon="12.1353767"><ele>403.0</ele><time>2026-03-29T07:28:59.368Z</time></trkpt><trkpt lat="42.9755373" lon="12.1354694"><ele>405.0</ele><time>2026-03-29T07:29:00.369Z</time></trkpt><trkpt lat="42.9755647" lon="12.1355582"><ele>407.0</ele><time>2026-03-29T07:29:01.367Z</time></trkpt><trkpt lat="42.9755931" lon="12.1356449"><ele>409.0</ele><time>2026-03-29T07:29:02.37Z</time></trkpt><trkpt lat="42.9756188" lon="12.1357413"><ele>410.50000000000006</ele><time>2026-03-29T07:29:03.373Z</time></trkpt><trkpt lat="42.9756361" lon="12.1358395"><ele>412.0</ele><time>2026-03-29T07:29:04.366Z</time></trkpt><trkpt lat="42.9756635" lon="12.1359435"><ele>413.5</ele><time>2026-03-29T07:29:05.369Z</time></trkpt><trkpt lat="42.9757066" lon="12.1360413"><ele>415.0</ele><time>2026-03-29T07:29:06.366Z</time></trkpt><trkpt lat="42.9757466" lon="12.1361197"><ele>416.50000000000006</ele><time>2026-03-29T07:29:07.368Z</time></trkpt><trkpt lat="42.9757836" lon="12.1361947"><ele>418.0</ele><time>2026-03-29T07:29:08.371Z</time></trkpt><trkpt lat="42.9758507" lon="12.1363418"><ele>418.42857142857144</ele><time>2026-03-29T07:29:10.368Z</time></trkpt><trkpt lat="42.9758918" lon="12.1364089"><ele>418.85714285714283</ele><time>2026-03-29T07:29:11.369Z</time></trkpt><trkpt lat="42.9759254" lon="12.136483"><ele>419.28571428571433</ele><time>2026-03-29T07:29:12.369Z</time></trkpt><trkpt lat="42.975951" lon="12.1365653"><ele>419.7142857142857</ele><time>2026-03-29T07:29:13.369Z</time></trkpt><trkpt lat="42.9759773" lon="12.1366554"><ele>420.14285714285717</ele><time>2026-03-29T07:29:14.366Z</time></trkpt><trkpt lat="42.9760148" lon="12.1367601"><ele>420.5714285714286</ele><time>2026-03-29T07:29:15.402Z</time></trkpt><trkpt lat="42.9760606" lon="12.1368708"><ele>421.0</ele><time>2026-03-29T07:29:16.369Z</time></trkpt><trkpt lat="42.976116" lon="12.1369785"><ele>421.00000000000006</ele><time>2026-03-29T07:29:17.367Z</time></trkpt><trkpt lat="42.9761704" lon="12.1370681"><ele>421.0</ele><time>2026-03-29T07:29:18.371Z</time></trkpt><trkpt lat="42.9762299" lon="12.1371506"><ele>421.0</ele><time>2026-03-29T07:29:19.374Z</time></trkpt><trkpt lat="42.9763019" lon="12.1372288"><ele>421.0</ele><time>2026-03-29T07:29:20.367Z</time></trkpt><trkpt lat="42.9763677" lon="12.1372854"><ele>421.00000000000006</ele><time>2026-03-29T07:29:21.37Z</time></trkpt><trkpt lat="42.9764532" lon="12.1373417"><ele>421.0</ele><time>2026-03-29T07:29:23.37Z</time></trkpt><trkpt lat="42.9765067" lon="12.1373908"><ele>420.33333333333337</ele><time>2026-03-29T07:29:26.373Z</time></trkpt><trkpt lat="42.9765104" lon="12.1375136"><ele>419.6666666666667</ele><time>2026-03-29T07:29:28.369Z</time></trkpt><trkpt lat="42.9765169" lon="12.1376052"><ele>419.0</ele><time>2026-03-29T07:29:30.368Z</time></trkpt><trkpt lat="42.9765397" lon="12.1377091"><ele>418.33333333333337</ele><time>2026-03-29T07:29:39.372Z</time></trkpt><trkpt lat="42.9765962" lon="12.1378145"><ele>417.6666666666667</ele><time>2026-03-29T07:29:42.371Z</time></trkpt><trkpt lat="42.9766392" lon="12.1379031"><ele>417.0</ele><time>2026-03-29T07:29:44.38Z</time></trkpt><trkpt lat="42.9766897" lon="12.1380104"><ele>417.0</ele><time>2026-03-29T07:29:46.372Z</time></trkpt><trkpt lat="42.9767393" lon="12.1381118"><ele>417.0</ele><time>2026-03-29T07:29:48.376Z</time></trkpt><trkpt lat="42.9767805" lon="12.1382198"><ele>417.0</ele><time>2026-03-29T07:29:50.374Z</time></trkpt><trkpt lat="42.9768238" lon="12.1383184"><ele>417.0</ele><time>2026-03-29T07:29:52.416Z</time></trkpt><trkpt lat="42.976883" lon="12.1384053"><ele>417.0</ele><time>2026-03-29T07:29:54.38Z</time></trkpt><trkpt lat="42.9769217" lon="12.1384854"><ele>417.0</ele><time>2026-03-29T07:29:56.37Z</time></trkpt><trkpt lat="42.976972" lon="12.1385681"><ele>419.2857142857143</ele><time>2026-03-29T07:29:58.374Z</time></trkpt><trkpt lat="42.9770379" lon="12.1386296"><ele>421.57142857142856</ele><time>2026-03-29T07:30:10.371Z</time></trkpt><trkpt lat="42.9770791" lon="12.1387105"><ele>423.85714285714283</ele><time>2026-03-29T07:30:13.377Z</time></trkpt><trkpt lat="42.9770354" lon="12.1386339"><ele>426.1428571428571</ele><time>2026-03-29T07:30:31.389Z</time></trkpt><trkpt lat="42.9769919" lon="12.1385709"><ele>428.42857142857144</ele><time>2026-03-29T07:30:35.407Z</time></trkpt><trkpt lat="42.9769516" lon="12.1384601"><ele>430.71428571428567</ele><time>2026-03-29T07:30:39.376Z</time></trkpt><trkpt lat="42.9769101" lon="12.138389"><ele>433.0</ele><time>2026-03-29T07:30:41.375Z</time></trkpt><trkpt lat="42.9768567" lon="12.1382773"><ele>432.59999999999997</ele><time>2026-03-29T07:30:44.375Z</time></trkpt><trkpt lat="42.9768173" lon="12.1381772"><ele>432.19999999999993</ele><time>2026-03-29T07:30:46.398Z</time></trkpt><trkpt lat="42.9767641" lon="12.1380797"><ele>431.8</ele><time>2026-03-29T07:30:48.371Z</time></trkpt><trkpt lat="42.9767155" lon="12.137984"><ele>431.4</ele><time>2026-03-29T07:30:50.369Z</time></trkpt><trkpt lat="42.9766543" lon="12.137883"><ele>431.0</ele><time>2026-03-29T07:30:52.377Z</time></trkpt><trkpt lat="42.9765831" lon="12.1377815"><ele>431.0</ele><time>2026-03-29T07:30:54.373Z</time></trkpt><trkpt lat="42.9765322" lon="12.1376755"><ele>431.0</ele><time>2026-03-29T07:30:56.373Z</time></trkpt><trkpt lat="42.9765025" lon="12.1375269"><ele>431.0</ele><time>2026-03-29T07:30:58.37Z</time></trkpt><trkpt lat="42.976474" lon="12.137404"><ele>431.0</ele><time>2026-03-29T07:31:00.368Z</time></trkpt><trkpt lat="42.9764075" lon="12.137314"><ele>431.0</ele><time>2026-03-29T07:31:02.368Z</time></trkpt><trkpt lat="42.976299" lon="12.1372963"><ele>431.0</ele><time>2026-03-29T07:31:04.37Z</time></trkpt><trkpt lat="42.9761967" lon="12.13735"><ele>431.0</ele><time>2026-03-29T07:31:06.369Z</time></trkpt><trkpt lat="42.9761037" lon="12.1374143"><ele>431.0</ele><time>2026-03-29T07:31:08.367Z</time></trkpt><trkpt lat="42.9760546" lon="12.1374791"><ele>431.0</ele><time>2026-03-29T07:31:10.371Z</time></trkpt><trkpt lat="42.9760459" lon="12.1375905"><ele>431.0</ele><time>2026-03-29T07:31:12.37Z</time></trkpt><trkpt lat="42.9760496" lon="12.1377227"><ele>431.0</ele><time>2026-03-29T07:31:14.371Z</time></trkpt><trkpt lat="42.9760651" lon="12.1378435"><ele>431.0</ele><time>2026-03-29T07:31:16.369Z</time></trkpt><trkpt lat="42.9760691" lon="12.1379752"><ele>431.0</ele><time>2026-03-29T07:31:18.369Z</time></trkpt><trkpt lat="42.976072" lon="12.1381105"><ele>431.0</ele><time>2026-03-29T07:31:20.368Z</time></trkpt><trkpt lat="42.9760764" lon="12.1382527"><ele>431.0</ele><time>2026-03-29T07:31:22.367Z</time></trkpt><trkpt lat="42.9760948" lon="12.1383796"><ele>431.20000000000005</ele><time>2026-03-29T07:31:24.367Z</time></trkpt><trkpt lat="42.9761304" lon="12.1385378"><ele>431.40000000000003</ele><time>2026-03-29T07:31:26.367Z</time></trkpt><trkpt lat="42.9761331" lon="12.1387025"><ele>431.6</ele><time>2026-03-29T07:31:28.371Z</time></trkpt><trkpt lat="42.9761319" lon="12.1388423"><ele>431.8</ele><time>2026-03-29T07:31:30.366Z</time></trkpt><trkpt lat="42.9761459" lon="12.1389691"><ele>432.0</ele><time>2026-03-29T07:31:32.396Z</time></trkpt><trkpt lat="42.9762038" lon="12.1391158"><ele>432.0</ele><time>2026-03-29T07:31:34.366Z</time></trkpt><trkpt lat="42.9762394" lon="12.1391961"><ele>432.00000000000006</ele><time>2026-03-29T07:31:35.366Z</time></trkpt><trkpt lat="42.9762986" lon="12.1393422"><ele>432.00000000000006</ele><time>2026-03-29T07:31:37.368Z</time></trkpt><trkpt lat="42.9763477" lon="12.1394908"><ele>432.0</ele><time>2026-03-29T07:31:39.376Z</time></trkpt><trkpt lat="42.9763666" lon="12.1395735"><ele>432.0</ele><time>2026-03-29T07:31:40.37Z</time></trkpt><trkpt lat="42.9763699" lon="12.1397088"><ele>432.0</ele><time>2026-03-29T07:31:42.367Z</time></trkpt><trkpt lat="42.9763481" lon="12.1398061"><ele>432.0</ele><time>2026-03-29T07:32:25.371Z</time></trkpt><trkpt lat="42.976303" lon="12.1398817"><ele>432.0</ele><time>2026-03-29T07:32:29.367Z</time></trkpt><trkpt lat="42.9762358" lon="12.1398321"><ele>432.0</ele><time>2026-03-29T07:32:32.371Z</time></trkpt><trkpt lat="42.9761682" lon="12.1397992"><ele>432.0</ele><time>2026-03-29T07:32:34.369Z</time></trkpt><trkpt lat="42.9760843" lon="12.1397612"><ele>432.0</ele><time>2026-03-29T07:32:36.373Z</time></trkpt><trkpt lat="42.9760045" lon="12.1397207"><ele>432.0</ele><time>2026-03-29T07:32:38.369Z</time></trkpt><trkpt lat="42.9759137" lon="12.1396895"><ele>432.00000000000006</ele><time>2026-03-29T07:32:40.365Z</time></trkpt><trkpt lat="42.9758036" lon="12.1396346"><ele>432.00000000000006</ele><time>2026-03-29T07:32:42.368Z</time></trkpt><trkpt lat="42.9757459" lon="12.139597"><ele>432.0</ele><time>2026-03-29T07:32:43.369Z</time></trkpt><trkpt lat="42.975655" lon="12.1395144"><ele>432.0</ele><time>2026-03-29T07:32:45.373Z</time></trkpt><trkpt lat="42.9755603" lon="12.1394222"><ele>429.40000000000003</ele><time>2026-03-29T07:32:47.367Z</time></trkpt><trkpt lat="42.9754962" lon="12.1393813"><ele>426.80000000000007</ele><time>2026-03-29T07:32:48.368Z</time></trkpt><trkpt lat="42.9753835" lon="12.1393426"><ele>424.2</ele><time>2026-03-29T07:32:50.366Z</time></trkpt><trkpt lat="42.9752828" lon="12.1393013"><ele>421.6</ele><time>2026-03-29T07:32:52.383Z</time></trkpt><trkpt lat="42.9751727" lon="12.1392392"><ele>419.0</ele><time>2026-03-29T07:32:54.371Z</time></trkpt><trkpt lat="42.9750603" lon="12.1392121"><ele>420.79999999999995</ele><time>2026-03-29T07:32:56.372Z</time></trkpt><trkpt lat="42.9749752" lon="12.1392273"><ele>422.59999999999997</ele><time>2026-03-29T07:32:57.374Z</time></trkpt><trkpt lat="42.9749013" lon="12.1392385"><ele>424.4</ele><time>2026-03-29T07:32:58.741Z</time></trkpt><trkpt lat="42.9747835" lon="12.1392238"><ele>426.2</ele><time>2026-03-29T07:33:00.37Z</time></trkpt><trkpt lat="42.9746821" lon="12.1392377"><ele>428.0</ele><time>2026-03-29T07:33:02.369Z</time></trkpt><trkpt lat="42.9745911" lon="12.1393087"><ele>428.0</ele><time>2026-03-29T07:33:04.37Z</time></trkpt><trkpt lat="42.9745403" lon="12.1393608"><ele>427.99999999999994</ele><time>2026-03-29T07:33:05.366Z</time></trkpt><trkpt lat="42.9744533" lon="12.1394436"><ele>427.99999999999994</ele><time>2026-03-29T07:33:07.372Z</time></trkpt><trkpt lat="42.9743805" lon="12.1394976"><ele>428.0</ele><time>2026-03-29T07:33:09.408Z</time></trkpt><trkpt lat="42.9742989" lon="12.1395151"><ele>428.0</ele><time>2026-03-29T07:33:11.397Z</time></trkpt><trkpt lat="42.9741915" lon="12.1394361"><ele>429.0</ele><time>2026-03-29T07:33:13.366Z</time></trkpt><trkpt lat="42.974116" lon="12.1393237"><ele>429.99999999999994</ele><time>2026-03-29T07:33:15.376Z</time></trkpt><trkpt lat="42.9740496" lon="12.1392069"><ele>430.99999999999994</ele><time>2026-03-29T07:33:17.366Z</time></trkpt><trkpt lat="42.9739881" lon="12.1390954"><ele>432.0</ele><time>2026-03-29T07:33:19.368Z</time></trkpt><trkpt lat="42.9739092" lon="12.139023"><ele>433.0</ele><time>2026-03-29T07:33:21.368Z</time></trkpt><trkpt lat="42.9738137" lon="12.1390351"><ele>433.00000000000006</ele><time>2026-03-29T07:33:23.369Z</time></trkpt><trkpt lat="42.9737428" lon="12.1391803"><ele>433.0</ele><time>2026-03-29T07:33:25.368Z</time></trkpt><trkpt lat="42.9737144" lon="12.1393024"><ele>433.0</ele><time>2026-03-29T07:33:26.369Z</time></trkpt><trkpt lat="42.9736877" lon="12.1394089"><ele>433.0</ele><time>2026-03-29T07:33:27.376Z</time></trkpt><trkpt lat="42.9736583" lon="12.1394974"><ele>433.00000000000006</ele><time>2026-03-29T07:33:28.368Z</time></trkpt><trkpt lat="42.973632" lon="12.1395764"><ele>433.0</ele><time>2026-03-29T07:33:29.37Z</time></trkpt><trkpt lat="42.9736047" lon="12.1396639"><ele>433.0</ele><time>2026-03-29T07:33:30.368Z</time></trkpt><trkpt lat="42.9735752" lon="12.1397564"><ele>432.99999999999994</ele><time>2026-03-29T07:33:31.373Z</time></trkpt><trkpt lat="42.9735521" lon="12.1398393"><ele>432.99999999999994</ele><time>2026-03-29T07:33:32.37Z</time></trkpt><trkpt lat="42.9735034" lon="12.1399321"><ele>433.0</ele><time>2026-03-29T07:33:34.376Z</time></trkpt><trkpt lat="42.9733956" lon="12.1399149"><ele>433.0</ele><time>2026-03-29T07:33:37.401Z</time></trkpt><trkpt lat="42.9732775" lon="12.1398739"><ele>433.00000000000006</ele><time>2026-03-29T07:33:39.367Z</time></trkpt><trkpt lat="42.9732151" lon="12.1398527"><ele>433.0</ele><time>2026-03-29T07:33:40.368Z</time></trkpt><trkpt lat="42.9730967" lon="12.139807"><ele>433.0</ele><time>2026-03-29T07:33:42.371Z</time></trkpt><trkpt lat="42.973038" lon="12.1397666"><ele>433.0</ele><time>2026-03-29T07:33:43.369Z</time></trkpt><trkpt lat="42.9729814" lon="12.1397225"><ele>433.00000000000006</ele><time>2026-03-29T07:33:44.371Z</time></trkpt><trkpt lat="42.9728945" lon="12.139624"><ele>433.0</ele><time>2026-03-29T07:33:46.368Z</time></trkpt><trkpt lat="42.9728312" lon="12.1395646"><ele>433.0</ele><time>2026-03-29T07:33:48.37Z</time></trkpt><trkpt lat="42.9727591" lon="12.1395754"><ele>432.99999999999994</ele><time>2026-03-29T07:33:50.377Z</time></trkpt><trkpt lat="42.9727093" lon="12.1397093"><ele>432.99999999999994</ele><time>2026-03-29T07:33:52.369Z</time></trkpt><trkpt lat="42.9727109" lon="12.1398762"><ele>433.0</ele><time>2026-03-29T07:33:54.372Z</time></trkpt><trkpt lat="42.9727303" lon="12.1400415"><ele>433.0</ele><time>2026-03-29T07:33:56.372Z</time></trkpt><trkpt lat="42.9727479" lon="12.1401302"><ele>434.79999999999995</ele><time>2026-03-29T07:33:57.376Z</time></trkpt><trkpt lat="42.9727687" lon="12.1402218"><ele>436.59999999999997</ele><time>2026-03-29T07:33:58.368Z</time></trkpt><trkpt lat="42.9727938" lon="12.1403797"><ele>438.40000000000003</ele><time>2026-03-29T07:34:00.368Z</time></trkpt><trkpt lat="42.9728103" lon="12.1405409"><ele>440.20000000000005</ele><time>2026-03-29T07:34:02.371Z</time></trkpt><trkpt lat="42.9728183" lon="12.1407057"><ele>442.0</ele><time>2026-03-29T07:34:04.369Z</time></trkpt><trkpt lat="42.9727956" lon="12.1408373"><ele>443.6666666666667</ele><time>2026-03-29T07:34:06.369Z</time></trkpt><trkpt lat="42.9727287" lon="12.1408899"><ele>445.33333333333337</ele><time>2026-03-29T07:34:08.374Z</time></trkpt><trkpt lat="42.9726902" lon="12.1409585"><ele>447.0</ele><time>2026-03-29T07:34:10.403Z</time></trkpt><trkpt lat="42.972655" lon="12.141041"><ele>448.66666666666663</ele><time>2026-03-29T07:34:11.372Z</time></trkpt><trkpt lat="42.9726169" lon="12.1411509"><ele>450.3333333333333</ele><time>2026-03-29T07:34:12.367Z</time></trkpt><trkpt lat="42.9725797" lon="12.1412595"><ele>452.0</ele><time>2026-03-29T07:34:13.37Z</time></trkpt><trkpt lat="42.9725448" lon="12.1413661"><ele>451.3333333333333</ele><time>2026-03-29T07:34:14.372Z</time></trkpt><trkpt lat="42.9725127" lon="12.1414689"><ele>450.66666666666663</ele><time>2026-03-29T07:34:15.369Z</time></trkpt><trkpt lat="42.9724785" lon="12.1415582"><ele>450.0</ele><time>2026-03-29T07:34:16.368Z</time></trkpt><trkpt lat="42.9724385" lon="12.1416252"><ele>449.33333333333337</ele><time>2026-03-29T07:34:17.368Z</time></trkpt><trkpt lat="42.9723425" lon="12.1417082"><ele>448.6666666666667</ele><time>2026-03-29T07:34:19.369Z</time></trkpt><trkpt lat="42.972286" lon="12.1417521"><ele>448.0</ele><time>2026-03-29T07:34:20.367Z</time></trkpt><trkpt lat="42.9722319" lon="12.1418045"><ele>450.4</ele><time>2026-03-29T07:34:21.368Z</time></trkpt><trkpt lat="42.9721214" lon="12.1418946"><ele>452.79999999999995</ele><time>2026-03-29T07:34:23.367Z</time></trkpt><trkpt lat="42.9720664" lon="12.1419428"><ele>455.2</ele><time>2026-03-29T07:34:24.367Z</time></trkpt><trkpt lat="42.9719754" lon="12.1420145"><ele>457.6</ele><time>2026-03-29T07:34:26.374Z</time></trkpt><trkpt lat="42.9718912" lon="12.1420521"><ele>460.0</ele><time>2026-03-29T07:34:29.367Z</time></trkpt><trkpt lat="42.9718392" lon="12.142101"><ele>460.00000000000006</ele><time>2026-03-29T07:34:31.368Z</time></trkpt><trkpt lat="42.9717828" lon="12.142158"><ele>460.0</ele><time>2026-03-29T07:34:33.368Z</time></trkpt><trkpt lat="42.9717096" lon="12.1421495"><ele>460.0</ele><time>2026-03-29T07:34:35.38Z</time></trkpt><trkpt lat="42.9716444" lon="12.1421102"><ele>460.0</ele><time>2026-03-29T07:34:37.369Z</time></trkpt><trkpt lat="42.9715727" lon="12.1420828"><ele>460.00000000000006</ele><time>2026-03-29T07:34:40.368Z</time></trkpt><trkpt lat="42.9714979" lon="12.1420863"><ele>460.0</ele><time>2026-03-29T07:34:42.369Z</time></trkpt><trkpt lat="42.9714085" lon="12.1420346"><ele>458.2</ele><time>2026-03-29T07:34:44.371Z</time></trkpt><trkpt lat="42.9713227" lon="12.1419661"><ele>456.4</ele><time>2026-03-29T07:34:46.373Z</time></trkpt><trkpt lat="42.9712211" lon="12.1418906"><ele>454.6</ele><time>2026-03-29T07:34:48.372Z</time></trkpt><trkpt lat="42.9711424" lon="12.1418319"><ele>452.8</ele><time>2026-03-29T07:34:50.371Z</time></trkpt><trkpt lat="42.971083" lon="12.1419137"><ele>451.0</ele><time>2026-03-29T07:34:53.37Z</time></trkpt><trkpt lat="42.9711203" lon="12.1420381"><ele>451.0</ele><time>2026-03-29T07:34:55.37Z</time></trkpt><trkpt lat="42.9711463" lon="12.1421673"><ele>451.0</ele><time>2026-03-29T07:34:57.368Z</time></trkpt><trkpt lat="42.9710895" lon="12.1422379"><ele>451.0</ele><time>2026-03-29T07:34:59.37Z</time></trkpt><trkpt lat="42.9709921" lon="12.1422229"><ele>451.0</ele><time>2026-03-29T07:35:01.369Z</time></trkpt><trkpt lat="42.9708869" lon="12.1421712"><ele>451.0</ele><time>2026-03-29T07:35:03.374Z</time></trkpt><trkpt lat="42.9707662" lon="12.1421471"><ele>453.33333333333337</ele><time>2026-03-29T07:35:05.369Z</time></trkpt><trkpt lat="42.9706882" lon="12.1421338"><ele>455.6666666666667</ele><time>2026-03-29T07:35:06.37Z</time></trkpt><trkpt lat="42.9706184" lon="12.1421069"><ele>458.0</ele><time>2026-03-29T07:35:07.398Z</time></trkpt><trkpt lat="42.9705584" lon="12.1420704"><ele>460.33333333333337</ele><time>2026-03-29T07:35:08.373Z</time></trkpt><trkpt lat="42.9704725" lon="12.1419788"><ele>462.6666666666667</ele><time>2026-03-29T07:35:10.367Z</time></trkpt><trkpt lat="42.9704133" lon="12.1418544"><ele>465.0</ele><time>2026-03-29T07:35:12.371Z</time></trkpt><trkpt lat="42.9703731" lon="12.1417692"><ele>465.0</ele><time>2026-03-29T07:35:13.371Z</time></trkpt><trkpt lat="42.9703242" lon="12.1416625"><ele>465.0</ele><time>2026-03-29T07:35:14.367Z</time></trkpt><trkpt lat="42.9702763" lon="12.1415437"><ele>465.0</ele><time>2026-03-29T07:35:15.368Z</time></trkpt><trkpt lat="42.9702399" lon="12.1414364"><ele>465.0</ele><time>2026-03-29T07:35:16.368Z</time></trkpt><trkpt lat="42.9702093" lon="12.1413441"><ele>465.0</ele><time>2026-03-29T07:35:17.371Z</time></trkpt><trkpt lat="42.9701716" lon="12.1412748"><ele>465.0</ele><time>2026-03-29T07:35:18.38Z</time></trkpt><trkpt lat="42.9701227" lon="12.1412172"><ele>463.71428571428567</ele><time>2026-03-29T07:35:19.371Z</time></trkpt><trkpt lat="42.970068" lon="12.1411719"><ele>462.42857142857144</ele><time>2026-03-29T07:35:20.368Z</time></trkpt><trkpt lat="42.9700087" lon="12.1411321"><ele>461.1428571428571</ele><time>2026-03-29T07:35:21.367Z</time></trkpt><trkpt lat="42.9699433" lon="12.1410812"><ele>459.85714285714283</ele><time>2026-03-29T07:35:22.368Z</time></trkpt><trkpt lat="42.9698774" lon="12.1410257"><ele>458.57142857142856</ele><time>2026-03-29T07:35:23.369Z</time></trkpt><trkpt lat="42.9698115" lon="12.1409807"><ele>457.2857142857143</ele><time>2026-03-29T07:35:24.367Z</time></trkpt><trkpt lat="42.9697414" lon="12.140941"><ele>456.0</ele><time>2026-03-29T07:35:25.38Z</time></trkpt><trkpt lat="42.9696755" lon="12.1408964"><ele>459.5</ele><time>2026-03-29T07:35:26.368Z</time></trkpt><trkpt lat="42.9696186" lon="12.140848"><ele>463.0</ele><time>2026-03-29T07:35:27.369Z</time></trkpt><trkpt lat="42.9695657" lon="12.140712"><ele>466.5</ele><time>2026-03-29T07:35:29.37Z</time></trkpt><trkpt lat="42.96956" lon="12.140626"><ele>470.0</ele><time>2026-03-29T07:35:30.366Z</time></trkpt><trkpt lat="42.9695628" lon="12.1405322"><ele>473.5</ele><time>2026-03-29T07:35:31.374Z</time></trkpt><trkpt lat="42.9695669" lon="12.140419"><ele>477.0</ele><time>2026-03-29T07:35:32.371Z</time></trkpt><trkpt lat="42.9695586" lon="12.1402947"><ele>477.0</ele><time>2026-03-29T07:35:33.366Z</time></trkpt><trkpt lat="42.9695355" lon="12.1401871"><ele>477.0</ele><time>2026-03-29T07:35:34.368Z</time></trkpt><trkpt lat="42.969496" lon="12.1401045"><ele>477.0</ele><time>2026-03-29T07:35:35.367Z</time></trkpt><trkpt lat="42.9694416" lon="12.1400397"><ele>477.0</ele><time>2026-03-29T07:35:36.367Z</time></trkpt><trkpt lat="42.9693756" lon="12.139975"><ele>477.0</ele><time>2026-03-29T07:35:37.37Z</time></trkpt><trkpt lat="42.9693007" lon="12.1399051"><ele>477.0</ele><time>2026-03-29T07:35:38.37Z</time></trkpt><trkpt lat="42.969233" lon="12.1398307"><ele>478.8333333333333</ele><time>2026-03-29T07:35:39.37Z</time></trkpt><trkpt lat="42.969154" lon="12.1397737"><ele>480.66666666666663</ele><time>2026-03-29T07:35:40.37Z</time></trkpt><trkpt lat="42.9690741" lon="12.139728"><ele>482.5</ele><time>2026-03-29T07:35:41.367Z</time></trkpt><trkpt lat="42.9689983" lon="12.139706"><ele>484.3333333333333</ele><time>2026-03-29T07:35:42.366Z</time></trkpt><trkpt lat="42.9689346" lon="12.1397025"><ele>486.16666666666663</ele><time>2026-03-29T07:35:43.368Z</time></trkpt><trkpt lat="42.9688688" lon="12.1397118"><ele>488.0</ele><time>2026-03-29T07:35:45.377Z</time></trkpt><trkpt lat="42.9688063" lon="12.1397816"><ele>489.4</ele><time>2026-03-29T07:35:52.369Z</time></trkpt><trkpt lat="42.9687439" lon="12.1399217"><ele>490.79999999999995</ele><time>2026-03-29T07:35:54.368Z</time></trkpt><trkpt lat="42.968703" lon="12.1400108"><ele>492.2</ele><time>2026-03-29T07:35:55.373Z</time></trkpt><trkpt lat="42.9686645" lon="12.1401098"><ele>493.6</ele><time>2026-03-29T07:35:56.374Z</time></trkpt><trkpt lat="42.9686309" lon="12.1402188"><ele>495.0</ele><time>2026-03-29T07:35:57.373Z</time></trkpt><trkpt lat="42.9685899" lon="12.140327"><ele>495.0</ele><time>2026-03-29T07:35:58.37Z</time></trkpt><trkpt lat="42.9685407" lon="12.1404295"><ele>495.0</ele><time>2026-03-29T07:35:59.367Z</time></trkpt><trkpt lat="42.9684824" lon="12.1405327"><ele>495.0</ele><time>2026-03-29T07:36:00.373Z</time></trkpt><trkpt lat="42.9684131" lon="12.1406338"><ele>495.0</ele><time>2026-03-29T07:36:01.37Z</time></trkpt><trkpt lat="42.9683311" lon="12.1407312"><ele>495.0</ele><time>2026-03-29T07:36:02.372Z</time></trkpt><trkpt lat="42.9682384" lon="12.140818"><ele>495.4</ele><time>2026-03-29T07:36:03.37Z</time></trkpt><trkpt lat="42.9681415" lon="12.1408896"><ele>495.8</ele><time>2026-03-29T07:36:04.371Z</time></trkpt><trkpt lat="42.9680508" lon="12.1409387"><ele>496.20000000000005</ele><time>2026-03-29T07:36:05.37Z</time></trkpt><trkpt lat="42.9679569" lon="12.1409711"><ele>496.6</ele><time>2026-03-29T07:36:06.385Z</time></trkpt><trkpt lat="42.9678593" lon="12.1409872"><ele>497.0</ele><time>2026-03-29T07:36:07.373Z</time></trkpt><trkpt lat="42.9677654" lon="12.1409952"><ele>497.0</ele><time>2026-03-29T07:36:08.37Z</time></trkpt><trkpt lat="42.9676734" lon="12.1409998"><ele>497.00000000000006</ele><time>2026-03-29T07:36:09.371Z</time></trkpt><trkpt lat="42.9675882" lon="12.1410169"><ele>497.00000000000006</ele><time>2026-03-29T07:36:10.495Z</time></trkpt><trkpt lat="42.9674952" lon="12.1410478"><ele>497.0</ele><time>2026-03-29T07:36:11.499Z</time></trkpt><trkpt lat="42.9674015" lon="12.1410741"><ele>497.0</ele><time>2026-03-29T07:36:12.501Z</time></trkpt><trkpt lat="42.9673089" lon="12.1410936"><ele>495.66666666666663</ele><time>2026-03-29T07:36:13.498Z</time></trkpt><trkpt lat="42.9672162" lon="12.141104"><ele>494.3333333333333</ele><time>2026-03-29T07:36:14.496Z</time></trkpt><trkpt lat="42.967131" lon="12.1411003"><ele>493.0</ele><time>2026-03-29T07:36:15.498Z</time></trkpt><trkpt lat="42.9670583" lon="12.1410826"><ele>491.66666666666663</ele><time>2026-03-29T07:36:16.495Z</time></trkpt><trkpt lat="42.9669937" lon="12.1410579"><ele>490.3333333333333</ele><time>2026-03-29T07:36:17.496Z</time></trkpt><trkpt lat="42.9668976" lon="12.1410219"><ele>489.0</ele><time>2026-03-29T07:36:19.495Z</time></trkpt><trkpt lat="42.9668558" lon="12.1411034"><ele>489.0</ele><time>2026-03-29T07:36:35.497Z</time></trkpt><trkpt lat="42.9668578" lon="12.1412009"><ele>489.0</ele><time>2026-03-29T07:36:37.503Z</time></trkpt><trkpt lat="42.9668321" lon="12.1413755"><ele>489.0</ele><time>2026-03-29T07:36:39.497Z</time></trkpt><trkpt lat="42.9668096" lon="12.141469"><ele>489.0</ele><time>2026-03-29T07:36:40.5Z</time></trkpt><trkpt lat="42.9667838" lon="12.1415609"><ele>489.0</ele><time>2026-03-29T07:36:41.497Z</time></trkpt><trkpt lat="42.9667478" lon="12.1416492"><ele>489.0</ele><time>2026-03-29T07:36:42.497Z</time></trkpt><trkpt lat="42.9667009" lon="12.1417221"><ele>488.0</ele><time>2026-03-29T07:36:43.497Z</time></trkpt><trkpt lat="42.9666496" lon="12.1417727"><ele>487.0</ele><time>2026-03-29T07:36:44.496Z</time></trkpt><trkpt lat="42.9665318" lon="12.1418339"><ele>486.0</ele><time>2026-03-29T07:36:46.5Z</time></trkpt><trkpt lat="42.9664766" lon="12.1418803"><ele>485.0</ele><time>2026-03-29T07:36:47.499Z</time></trkpt><trkpt lat="42.9663992" lon="12.1419785"><ele>484.0</ele><time>2026-03-29T07:36:49.494Z</time></trkpt><trkpt lat="42.9663358" lon="12.1420331"><ele>483.0</ele><time>2026-03-29T07:36:51.498Z</time></trkpt><trkpt lat="42.9662088" lon="12.1420953"><ele>483.0</ele><time>2026-03-29T07:36:53.497Z</time></trkpt><trkpt lat="42.9661496" lon="12.142146"><ele>483.0</ele><time>2026-03-29T07:36:54.498Z</time></trkpt><trkpt lat="42.9661062" lon="12.1422125"><ele>483.0</ele><time>2026-03-29T07:36:55.497Z</time></trkpt><trkpt lat="42.9660746" lon="12.1422917"><ele>483.0</ele><time>2026-03-29T07:36:56.498Z</time></trkpt><trkpt lat="42.9660465" lon="12.142389"><ele>483.0</ele><time>2026-03-29T07:36:57.503Z</time></trkpt><trkpt lat="42.9660175" lon="12.1424979"><ele>483.0</ele><time>2026-03-29T07:36:58.501Z</time></trkpt><trkpt lat="42.9660026" lon="12.1426031"><ele>483.0</ele><time>2026-03-29T07:36:59.497Z</time></trkpt><trkpt lat="42.9659936" lon="12.1427102"><ele>482.8333333333333</ele><time>2026-03-29T07:37:00.496Z</time></trkpt><trkpt lat="42.965962" lon="12.1428163"><ele>482.66666666666663</ele><time>2026-03-29T07:37:01.495Z</time></trkpt><trkpt lat="42.9659301" lon="12.1429238"><ele>482.5</ele><time>2026-03-29T07:37:02.499Z</time></trkpt><trkpt lat="42.9659062" lon="12.1430231"><ele>482.3333333333333</ele><time>2026-03-29T07:37:03.495Z</time></trkpt><trkpt lat="42.9658855" lon="12.1431201"><ele>482.16666666666663</ele><time>2026-03-29T07:37:04.497Z</time></trkpt><trkpt lat="42.9658642" lon="12.1432142"><ele>482.0</ele><time>2026-03-29T07:37:05.495Z</time></trkpt><trkpt lat="42.9658429" lon="12.1433115"><ele>481.99999999999994</ele><time>2026-03-29T07:37:06.496Z</time></trkpt><trkpt lat="42.965825" lon="12.1434229"><ele>482.0</ele><time>2026-03-29T07:37:07.499Z</time></trkpt><trkpt lat="42.9658077" lon="12.1435455"><ele>482.0</ele><time>2026-03-29T07:37:08.504Z</time></trkpt><trkpt lat="42.9657916" lon="12.1436718"><ele>482.0</ele><time>2026-03-29T07:37:09.501Z</time></trkpt><trkpt lat="42.9657788" lon="12.1437958"><ele>481.99999999999994</ele><time>2026-03-29T07:37:10.496Z</time></trkpt><trkpt lat="42.9657674" lon="12.1439118"><ele>482.0</ele><time>2026-03-29T07:37:11.495Z</time></trkpt><trkpt lat="42.9657551" lon="12.1440214"><ele>481.8333333333333</ele><time>2026-03-29T07:37:12.495Z</time></trkpt><trkpt lat="42.9657449" lon="12.144128"><ele>481.66666666666663</ele><time>2026-03-29T07:37:13.496Z</time></trkpt><trkpt lat="42.9657349" lon="12.1442315"><ele>481.5</ele><time>2026-03-29T07:37:14.502Z</time></trkpt><trkpt lat="42.9657273" lon="12.1443258"><ele>481.33333333333337</ele><time>2026-03-29T07:37:15.497Z</time></trkpt><trkpt lat="42.965733" lon="12.1444156"><ele>481.1666666666667</ele><time>2026-03-29T07:37:16.498Z</time></trkpt><trkpt lat="42.9657581" lon="12.1445743"><ele>481.0</ele><time>2026-03-29T07:37:18.527Z</time></trkpt><trkpt lat="42.9657522" lon="12.1446907"><ele>481.00000000000006</ele><time>2026-03-29T07:37:20.498Z</time></trkpt><trkpt lat="42.9657171" lon="12.1447629"><ele>481.0</ele><time>2026-03-29T07:37:22.527Z</time></trkpt><trkpt lat="42.9656154" lon="12.1447997"><ele>481.0</ele><time>2026-03-29T07:37:24.501Z</time></trkpt><trkpt lat="42.9655435" lon="12.1448237"><ele>481.0</ele><time>2026-03-29T07:37:25.496Z</time></trkpt><trkpt lat="42.9654712" lon="12.1448497"><ele>481.00000000000006</ele><time>2026-03-29T07:37:26.499Z</time></trkpt><trkpt lat="42.9654077" lon="12.1448553"><ele>481.0</ele><time>2026-03-29T07:37:27.498Z</time></trkpt><trkpt lat="42.9652767" lon="12.1448144"><ele>481.0</ele><time>2026-03-29T07:37:29.502Z</time></trkpt><trkpt lat="42.9651898" lon="12.1447725"><ele>481.0</ele><time>2026-03-29T07:37:30.497Z</time></trkpt><trkpt lat="42.965113" lon="12.144729"><ele>481.0</ele><time>2026-03-29T07:37:31.496Z</time></trkpt><trkpt lat="42.965055" lon="12.144693"><ele>481.0</ele><time>2026-03-29T07:37:32.497Z</time></trkpt><trkpt lat="42.9649539" lon="12.1446314"><ele>481.0</ele><time>2026-03-29T07:37:34.495Z</time></trkpt><trkpt lat="42.964859" lon="12.1445783"><ele>480.6666666666667</ele><time>2026-03-29T07:37:36.495Z</time></trkpt><trkpt lat="42.9647754" lon="12.1445549"><ele>480.33333333333337</ele><time>2026-03-29T07:37:42.496Z</time></trkpt><trkpt lat="42.9646919" lon="12.1444857"><ele>480.0</ele><time>2026-03-29T07:37:44.497Z</time></trkpt><trkpt lat="42.9646346" lon="12.1444474"><ele>479.66666666666663</ele><time>2026-03-29T07:37:45.498Z</time></trkpt><trkpt lat="42.9645408" lon="12.144398"><ele>479.3333333333333</ele><time>2026-03-29T07:37:47.497Z</time></trkpt><trkpt lat="42.9644709" lon="12.1444005"><ele>479.0</ele><time>2026-03-29T07:37:49.496Z</time></trkpt><trkpt lat="42.9644142" lon="12.1444814"><ele>478.99999999999994</ele><time>2026-03-29T07:37:52.5Z</time></trkpt><trkpt lat="42.9643464" lon="12.1445483"><ele>479.0</ele><time>2026-03-29T07:37:55.498Z</time></trkpt><trkpt lat="42.9642789" lon="12.1445859"><ele>479.0</ele><time>2026-03-29T07:37:57.501Z</time></trkpt><trkpt lat="42.9641985" lon="12.1446349"><ele>479.0</ele><time>2026-03-29T07:37:59.504Z</time></trkpt><trkpt lat="42.9641202" lon="12.144682"><ele>478.99999999999994</ele><time>2026-03-29T07:38:01.5Z</time></trkpt><trkpt lat="42.9640473" lon="12.1447251"><ele>479.0</ele><time>2026-03-29T07:38:03.498Z</time></trkpt><trkpt lat="42.963985" lon="12.1447648"><ele>479.0</ele><time>2026-03-29T07:38:05.506Z</time></trkpt><trkpt lat="42.963915" lon="12.1448359"><ele>479.0</ele><time>2026-03-29T07:38:07.497Z</time></trkpt><trkpt lat="42.9638354" lon="12.1449497"><ele>479.0</ele><time>2026-03-29T07:38:09.498Z</time></trkpt><trkpt lat="42.9637622" lon="12.1450784"><ele>479.0</ele><time>2026-03-29T07:38:11.496Z</time></trkpt><trkpt lat="42.9637258" lon="12.1451584"><ele>479.0</ele><time>2026-03-29T07:38:12.498Z</time></trkpt><trkpt lat="42.9636964" lon="12.1452481"><ele>480.16666666666663</ele><time>2026-03-29T07:38:13.494Z</time></trkpt><trkpt lat="42.9636695" lon="12.1453355"><ele>481.3333333333333</ele><time>2026-03-29T07:38:14.499Z</time></trkpt><trkpt lat="42.9636442" lon="12.1454242"><ele>482.5</ele><time>2026-03-29T07:38:15.494Z</time></trkpt><trkpt lat="42.9636053" lon="12.145564"><ele>483.66666666666663</ele><time>2026-03-29T07:38:17.496Z</time></trkpt><trkpt lat="42.9635759" lon="12.1456596"><ele>484.8333333333333</ele><time>2026-03-29T07:38:19.496Z</time></trkpt><trkpt lat="42.9635107" lon="12.1456851"><ele>486.0</ele><time>2026-03-29T07:38:23.524Z</time></trkpt><trkpt lat="42.9634209" lon="12.1456232"><ele>483.3333333333333</ele><time>2026-03-29T07:38:26.496Z</time></trkpt><trkpt lat="42.9633075" lon="12.1456051"><ele>480.66666666666663</ele><time>2026-03-29T07:38:28.496Z</time></trkpt><trkpt lat="42.9632385" lon="12.1455914"><ele>478.0</ele><time>2026-03-29T07:38:29.494Z</time></trkpt><trkpt lat="42.9631646" lon="12.1455636"><ele>475.3333333333333</ele><time>2026-03-29T07:38:30.499Z</time></trkpt><trkpt lat="42.9630982" lon="12.1455254"><ele>472.66666666666663</ele><time>2026-03-29T07:38:31.499Z</time></trkpt><trkpt lat="42.9630404" lon="12.1454746"><ele>470.0</ele><time>2026-03-29T07:38:32.497Z</time></trkpt><trkpt lat="42.9629599" lon="12.1453494"><ele>469.99999999999994</ele><time>2026-03-29T07:38:34.498Z</time></trkpt><trkpt lat="42.9628814" lon="12.1452734"><ele>470.0</ele><time>2026-03-29T07:38:36.499Z</time></trkpt><trkpt lat="42.9628079" lon="12.145224"><ele>470.0</ele><time>2026-03-29T07:38:38.496Z</time></trkpt><trkpt lat="42.9627476" lon="12.1451776"><ele>470.0</ele><time>2026-03-29T07:38:40.497Z</time></trkpt><trkpt lat="42.962672" lon="12.1451232"><ele>469.99999999999994</ele><time>2026-03-29T07:38:42.498Z</time></trkpt><trkpt lat="42.9625855" lon="12.1450458"><ele>470.0</ele><time>2026-03-29T07:38:44.497Z</time></trkpt><trkpt lat="42.9624772" lon="12.1449814"><ele>470.0</ele><time>2026-03-29T07:38:46.495Z</time></trkpt><trkpt lat="42.9624117" lon="12.1449495"><ele>469.99999999999994</ele><time>2026-03-29T07:38:47.494Z</time></trkpt><trkpt lat="42.9623418" lon="12.1449148"><ele>470.0</ele><time>2026-03-29T07:38:48.495Z</time></trkpt><trkpt lat="42.9622783" lon="12.1448768"><ele>470.0</ele><time>2026-03-29T07:38:49.526Z</time></trkpt><trkpt lat="42.9622118" lon="12.1448402"><ele>469.99999999999994</ele><time>2026-03-29T07:38:50.495Z</time></trkpt><trkpt lat="42.9621471" lon="12.1448095"><ele>470.0</ele><time>2026-03-29T07:38:51.495Z</time></trkpt><trkpt lat="42.962087" lon="12.1447831"><ele>470.0</ele><time>2026-03-29T07:38:52.495Z</time></trkpt><trkpt lat="42.9619962" lon="12.1447353"><ele>469.0</ele><time>2026-03-29T07:38:54.496Z</time></trkpt><trkpt lat="42.9619096" lon="12.1446793"><ele>468.0</ele><time>2026-03-29T07:38:56.495Z</time></trkpt><trkpt lat="42.9617788" lon="12.1446554"><ele>467.0</ele><time>2026-03-29T07:38:58.493Z</time></trkpt><trkpt lat="42.9616524" lon="12.1446272"><ele>466.0</ele><time>2026-03-29T07:39:00.528Z</time></trkpt><trkpt lat="42.9615712" lon="12.1445744"><ele>465.0</ele><time>2026-03-29T07:39:02.498Z</time></trkpt><trkpt lat="42.961529" lon="12.1444847"><ele>465.0</ele><time>2026-03-29T07:39:05.495Z</time></trkpt><trkpt lat="42.9615242" lon="12.1443855"><ele>465.0</ele><time>2026-03-29T07:39:07.497Z</time></trkpt><trkpt lat="42.9615052" lon="12.1442673"><ele>465.0</ele><time>2026-03-29T07:39:09.499Z</time></trkpt><trkpt lat="42.961484" lon="12.1441684"><ele>465.0</ele><time>2026-03-29T07:39:11.499Z</time></trkpt><trkpt lat="42.9614606" lon="12.1440631"><ele>465.0</ele><time>2026-03-29T07:39:13.503Z</time></trkpt><trkpt lat="42.9614398" lon="12.1439585"><ele>465.0</ele><time>2026-03-29T07:39:15.495Z</time></trkpt><trkpt lat="42.9614315" lon="12.143838"><ele>465.0</ele><time>2026-03-29T07:39:18.496Z</time></trkpt><trkpt lat="42.9613848" lon="12.1437466"><ele>465.0</ele><time>2026-03-29T07:39:27.504Z</time></trkpt><trkpt lat="42.9613347" lon="12.143819"><ele>465.0</ele><time>2026-03-29T07:39:34.503Z</time></trkpt><trkpt lat="42.9613429" lon="12.1439189"><ele>465.0</ele><time>2026-03-29T07:39:36.499Z</time></trkpt><trkpt lat="42.961378" lon="12.1440628"><ele>465.0</ele><time>2026-03-29T07:39:38.528Z</time></trkpt><trkpt lat="42.9614082" lon="12.1441518"><ele>465.0</ele><time>2026-03-29T07:39:39.498Z</time></trkpt><trkpt lat="42.9614289" lon="12.144237"><ele>465.0</ele><time>2026-03-29T07:39:40.495Z</time></trkpt><trkpt lat="42.9614416" lon="12.144377"><ele>465.0</ele><time>2026-03-29T07:39:42.496Z</time></trkpt><trkpt lat="42.9614394" lon="12.1444895"><ele>465.0</ele><time>2026-03-29T07:39:44.497Z</time></trkpt><trkpt lat="42.9613913" lon="12.1445752"><ele>465.0</ele><time>2026-03-29T07:39:47.497Z</time></trkpt><trkpt lat="42.9613276" lon="12.1446055"><ele>465.0</ele><time>2026-03-29T07:39:49.498Z</time></trkpt><trkpt lat="42.9612589" lon="12.1446857"><ele>465.0</ele><time>2026-03-29T07:39:52.498Z</time></trkpt><trkpt lat="42.9612129" lon="12.1447706"><ele>465.0</ele><time>2026-03-29T07:39:55.5Z</time></trkpt><trkpt lat="42.9611653" lon="12.1448318"><ele>465.0</ele><time>2026-03-29T07:39:58.494Z</time></trkpt><trkpt lat="42.961111" lon="12.1448842"><ele>465.0</ele><time>2026-03-29T07:40:04.493Z</time></trkpt><trkpt lat="42.9610418" lon="12.1449385"><ele>465.0</ele><time>2026-03-29T07:40:07.501Z</time></trkpt><trkpt lat="42.9609965" lon="12.1450134"><ele>465.0</ele><time>2026-03-29T07:40:09.497Z</time></trkpt><trkpt lat="42.9609481" lon="12.1450975"><ele>465.0</ele><time>2026-03-29T07:40:11.496Z</time></trkpt><trkpt lat="42.9608885" lon="12.1451859"><ele>465.0</ele><time>2026-03-29T07:40:13.498Z</time></trkpt><trkpt lat="42.96082" lon="12.1452481"><ele>469.8333333333333</ele><time>2026-03-29T07:40:15.498Z</time></trkpt><trkpt lat="42.9607572" lon="12.1453135"><ele>474.66666666666663</ele><time>2026-03-29T07:40:17.499Z</time></trkpt><trkpt lat="42.9606787" lon="12.1453625"><ele>479.5</ele><time>2026-03-29T07:40:20.495Z</time></trkpt><trkpt lat="42.9606164" lon="12.1453366"><ele>484.3333333333333</ele><time>2026-03-29T07:40:23.498Z</time></trkpt><trkpt lat="42.960547" lon="12.145337"><ele>489.16666666666663</ele><time>2026-03-29T07:40:26.502Z</time></trkpt><trkpt lat="42.9604595" lon="12.1453632"><ele>494.0</ele><time>2026-03-29T07:40:29.496Z</time></trkpt><trkpt lat="42.9603848" lon="12.1453076"><ele>493.99999999999994</ele><time>2026-03-29T07:40:32.496Z</time></trkpt><trkpt lat="42.9603266" lon="12.1452568"><ele>494.0</ele><time>2026-03-29T07:40:34.498Z</time></trkpt><trkpt lat="42.9602474" lon="12.1452121"><ele>494.0</ele><time>2026-03-29T07:40:36.501Z</time></trkpt><trkpt lat="42.9601692" lon="12.1452628"><ele>494.0</ele><time>2026-03-29T07:40:39.494Z</time></trkpt><trkpt lat="42.9601104" lon="12.145351"><ele>493.99999999999994</ele><time>2026-03-29T07:40:41.495Z</time></trkpt><trkpt lat="42.9600301" lon="12.1454305"><ele>494.0</ele><time>2026-03-29T07:40:43.495Z</time></trkpt><trkpt lat="42.9599683" lon="12.1455001"><ele>497.0</ele><time>2026-03-29T07:40:45.494Z</time></trkpt><trkpt lat="42.9598964" lon="12.1455843"><ele>500.0</ele><time>2026-03-29T07:40:47.493Z</time></trkpt><trkpt lat="42.9598478" lon="12.1456759"><ele>503.0</ele><time>2026-03-29T07:40:49.527Z</time></trkpt><trkpt lat="42.9598164" lon="12.1458018"><ele>506.0</ele><time>2026-03-29T07:40:51.494Z</time></trkpt><trkpt lat="42.959773" lon="12.1459122"><ele>509.0</ele><time>2026-03-29T07:40:53.496Z</time></trkpt><trkpt lat="42.9597235" lon="12.1460038"><ele>509.99999999999994</ele><time>2026-03-29T07:40:55.495Z</time></trkpt><trkpt lat="42.9596949" lon="12.1461287"><ele>511.0</ele><time>2026-03-29T07:40:57.5Z</time></trkpt><trkpt lat="42.9596757" lon="12.1462301"><ele>512.0</ele><time>2026-03-29T07:40:59.497Z</time></trkpt><trkpt lat="42.9596626" lon="12.1463393"><ele>513.0</ele><time>2026-03-29T07:41:02.497Z</time></trkpt><trkpt lat="42.9596414" lon="12.1464323"><ele>514.0</ele><time>2026-03-29T07:41:05.505Z</time></trkpt><trkpt lat="42.9596246" lon="12.1465396"><ele>515.0</ele><time>2026-03-29T07:41:12.497Z</time></trkpt><trkpt lat="42.9596046" lon="12.1466565"><ele>517.1666666666666</ele><time>2026-03-29T07:41:24.495Z</time></trkpt><trkpt lat="42.9595629" lon="12.1467401"><ele>519.3333333333333</ele><time>2026-03-29T07:41:32.499Z</time></trkpt><trkpt lat="42.959532" lon="12.1468414"><ele>521.5</ele><time>2026-03-29T07:41:36.495Z</time></trkpt><trkpt lat="42.9595859" lon="12.1469222"><ele>523.6666666666666</ele><time>2026-03-29T07:41:39.496Z</time></trkpt><trkpt lat="42.9596599" lon="12.1469677"><ele>525.8333333333334</ele><time>2026-03-29T07:41:41.494Z</time></trkpt><trkpt lat="42.9597019" lon="12.1470475"><ele>528.0</ele><time>2026-03-29T07:41:44.495Z</time></trkpt><trkpt lat="42.9596934" lon="12.1471544"><ele>528.0</ele><time>2026-03-29T07:41:48.499Z</time></trkpt><trkpt lat="42.9596568" lon="12.147244"><ele>528.0</ele><time>2026-03-29T07:41:52.496Z</time></trkpt><trkpt lat="42.9596101" lon="12.1473101"><ele>528.0</ele><time>2026-03-29T07:41:56.493Z</time></trkpt><trkpt lat="42.9596028" lon="12.1473991"><ele>528.0</ele><time>2026-03-29T07:42:00.494Z</time></trkpt><trkpt lat="42.9595578" lon="12.1474905"><ele>528.0</ele><time>2026-03-29T07:42:04.498Z</time></trkpt><trkpt lat="42.9594911" lon="12.1475819"><ele>528.0</ele><time>2026-03-29T07:42:07.494Z</time></trkpt><trkpt lat="42.9594789" lon="12.1476868"><ele>531.0</ele><time>2026-03-29T07:42:13.501Z</time></trkpt><trkpt lat="42.9595275" lon="12.147773"><ele>534.0</ele><time>2026-03-29T07:42:16.496Z</time></trkpt><trkpt lat="42.9595915" lon="12.1478284"><ele>537.0</ele><time>2026-03-29T07:42:19.495Z</time></trkpt><trkpt lat="42.95967" lon="12.1478432"><ele>540.0</ele><time>2026-03-29T07:42:22.504Z</time></trkpt><trkpt lat="42.9597294" lon="12.1479057"><ele>543.0</ele><time>2026-03-29T07:42:24.497Z</time></trkpt><trkpt lat="42.9597766" lon="12.1479798"><ele>546.0</ele><time>2026-03-29T07:42:26.497Z</time></trkpt><trkpt lat="42.9598247" lon="12.1480714"><ele>546.0</ele><time>2026-03-29T07:42:29.501Z</time></trkpt><trkpt lat="42.9598552" lon="12.1481517"><ele>546.0</ele><time>2026-03-29T07:42:31.494Z</time></trkpt><trkpt lat="42.959848" lon="12.1482545"><ele>546.0</ele><time>2026-03-29T07:42:33.498Z</time></trkpt><trkpt lat="42.9598976" lon="12.1483622"><ele>546.0</ele><time>2026-03-29T07:42:36.497Z</time></trkpt><trkpt lat="42.9599544" lon="12.1484051"><ele>546.0</ele><time>2026-03-29T07:42:38.497Z</time></trkpt><trkpt lat="42.9600518" lon="12.1484473"><ele>546.0</ele><time>2026-03-29T07:42:40.498Z</time></trkpt><trkpt lat="42.9600549" lon="12.1485678"><ele>548.0</ele><time>2026-03-29T07:42:43.497Z</time></trkpt><trkpt lat="42.960023" lon="12.1486468"><ele>550.0</ele><time>2026-03-29T07:42:45.499Z</time></trkpt><trkpt lat="42.9600096" lon="12.1487754"><ele>552.0</ele><time>2026-03-29T07:42:48.497Z</time></trkpt><trkpt lat="42.9599866" lon="12.1488727"><ele>554.0</ele><time>2026-03-29T07:42:50.494Z</time></trkpt><trkpt lat="42.9599826" lon="12.1489626"><ele>556.0</ele><time>2026-03-29T07:42:52.502Z</time></trkpt><trkpt lat="42.9600583" lon="12.1490399"><ele>558.0</ele><time>2026-03-29T07:42:55.502Z</time></trkpt><trkpt lat="42.9601281" lon="12.1490772"><ele>560.5</ele><time>2026-03-29T07:42:57.508Z</time></trkpt><trkpt lat="42.9601866" lon="12.1491544"><ele>563.0</ele><time>2026-03-29T07:42:59.497Z</time></trkpt><trkpt lat="42.9602137" lon="12.1492442"><ele>565.5</ele><time>2026-03-29T07:47:09.495Z</time></trkpt><trkpt lat="42.9601703" lon="12.149358"><ele>568.0</ele><time>2026-03-29T07:47:12.508Z</time></trkpt><trkpt lat="42.960128" lon="12.1494694"><ele>570.5</ele><time>2026-03-29T07:47:14.496Z</time></trkpt><trkpt lat="42.9600838" lon="12.1495855"><ele>573.0</ele><time>2026-03-29T07:47:16.495Z</time></trkpt><trkpt lat="42.9600361" lon="12.1496998"><ele>572.6666666666666</ele><time>2026-03-29T07:47:18.494Z</time></trkpt><trkpt lat="42.9599702" lon="12.1497884"><ele>572.3333333333334</ele><time>2026-03-29T07:47:20.496Z</time></trkpt><trkpt lat="42.9599132" lon="12.1498692"><ele>572.0</ele><time>2026-03-29T07:47:22.498Z</time></trkpt><trkpt lat="42.9598728" lon="12.1499401"><ele>571.6666666666667</ele><time>2026-03-29T07:47:24.495Z</time></trkpt><trkpt lat="42.959841" lon="12.1500608"><ele>571.3333333333334</ele><time>2026-03-29T07:47:26.493Z</time></trkpt><trkpt lat="42.9598034" lon="12.1501834"><ele>571.0</ele><time>2026-03-29T07:47:28.494Z</time></trkpt><trkpt lat="42.9597598" lon="12.1502776"><ele>572.8333333333334</ele><time>2026-03-29T07:47:30.494Z</time></trkpt><trkpt lat="42.9597169" lon="12.150376"><ele>574.6666666666667</ele><time>2026-03-29T07:47:32.502Z</time></trkpt><trkpt lat="42.9596629" lon="12.1504413"><ele>576.5</ele><time>2026-03-29T07:47:34.498Z</time></trkpt><trkpt lat="42.9595919" lon="12.1505029"><ele>578.3333333333334</ele><time>2026-03-29T07:47:36.495Z</time></trkpt><trkpt lat="42.9595746" lon="12.1506147"><ele>580.1666666666666</ele><time>2026-03-29T07:47:38.5Z</time></trkpt><trkpt lat="42.9596478" lon="12.1506999"><ele>582.0</ele><time>2026-03-29T07:47:40.493Z</time></trkpt><trkpt lat="42.9597166" lon="12.1507188"><ele>585.2</ele><time>2026-03-29T07:47:41.494Z</time></trkpt><trkpt lat="42.9598426" lon="12.1507364"><ele>588.4000000000001</ele><time>2026-03-29T07:47:43.496Z</time></trkpt><trkpt lat="42.9599148" lon="12.1507633"><ele>591.5999999999999</ele><time>2026-03-29T07:47:44.495Z</time></trkpt><trkpt lat="42.9599922" lon="12.1507869"><ele>594.8</ele><time>2026-03-29T07:47:45.497Z</time></trkpt><trkpt lat="42.960059" lon="12.150786"><ele>598.0</ele><time>2026-03-29T07:47:46.496Z</time></trkpt><trkpt lat="42.9601701" lon="12.1507303"><ele>598.0</ele><time>2026-03-29T07:47:48.494Z</time></trkpt><trkpt lat="42.9602341" lon="12.1507299"><ele>598.0</ele><time>2026-03-29T07:47:50.498Z</time></trkpt><trkpt lat="42.9602052" lon="12.1508373"><ele>598.0</ele><time>2026-03-29T07:47:53.496Z</time></trkpt><trkpt lat="42.9601576" lon="12.150949"><ele>598.0</ele><time>2026-03-29T07:47:55.496Z</time></trkpt><trkpt lat="42.9601063" lon="12.1510948"><ele>598.0</ele><time>2026-03-29T07:47:57.494Z</time></trkpt><trkpt lat="42.9600701" lon="12.1511659"><ele>598.0</ele><time>2026-03-29T07:47:58.497Z</time></trkpt><trkpt lat="42.9600045" lon="12.1512954"><ele>598.0</ele><time>2026-03-29T07:48:00.493Z</time></trkpt><trkpt lat="42.9599608" lon="12.1513605"><ele>598.0</ele><time>2026-03-29T07:48:01.495Z</time></trkpt><trkpt lat="42.9599107" lon="12.151429"><ele>598.0</ele><time>2026-03-29T07:48:02.495Z</time></trkpt><trkpt lat="42.9598643" lon="12.151556"><ele>598.0</ele><time>2026-03-29T07:48:04.493Z</time></trkpt><trkpt lat="42.9598612" lon="12.151642"><ele>598.0</ele><time>2026-03-29T07:48:06.529Z</time></trkpt><trkpt lat="42.959823" lon="12.1517168"><ele>598.0</ele><time>2026-03-29T07:48:08.495Z</time></trkpt><trkpt lat="42.9597571" lon="12.1517518"><ele>598.0</ele><time>2026-03-29T07:48:09.497Z</time></trkpt><trkpt lat="42.9596753" lon="12.1518055"><ele>599.8333333333334</ele><time>2026-03-29T07:48:10.493Z</time></trkpt><trkpt lat="42.9595801" lon="12.1518593"><ele>601.6666666666667</ele><time>2026-03-29T07:48:11.525Z</time></trkpt><trkpt lat="42.9594924" lon="12.1519124"><ele>603.5</ele><time>2026-03-29T07:48:12.497Z</time></trkpt><trkpt lat="42.9594148" lon="12.1519586"><ele>605.3333333333334</ele><time>2026-03-29T07:48:13.494Z</time></trkpt><trkpt lat="42.9593537" lon="12.1520017"><ele>607.1666666666666</ele><time>2026-03-29T07:48:14.498Z</time></trkpt><trkpt lat="42.9592929" lon="12.1520457"><ele>609.0</ele><time>2026-03-29T07:48:15.502Z</time></trkpt><trkpt lat="42.9592317" lon="12.1521014"><ele>607.8</ele><time>2026-03-29T07:48:16.499Z</time></trkpt><trkpt lat="42.9591759" lon="12.1521725"><ele>606.5999999999999</ele><time>2026-03-29T07:48:17.496Z</time></trkpt><trkpt lat="42.95913" lon="12.1522584"><ele>605.4</ele><time>2026-03-29T07:48:18.498Z</time></trkpt><trkpt lat="42.9590869" lon="12.1523665"><ele>604.1999999999999</ele><time>2026-03-29T07:48:19.494Z</time></trkpt><trkpt lat="42.959044" lon="12.1524927"><ele>603.0</ele><time>2026-03-29T07:48:20.492Z</time></trkpt><trkpt lat="42.9590013" lon="12.1526371"><ele>603.0</ele><time>2026-03-29T07:48:21.497Z</time></trkpt><trkpt lat="42.958958" lon="12.1527815"><ele>603.0</ele><time>2026-03-29T07:48:22.495Z</time></trkpt><trkpt lat="42.9589105" lon="12.1529171"><ele>603.0</ele><time>2026-03-29T07:48:23.495Z</time></trkpt><trkpt lat="42.9588563" lon="12.15305"><ele>603.0</ele><time>2026-03-29T07:48:24.5Z</time></trkpt><trkpt lat="42.9588064" lon="12.1531797"><ele>603.0</ele><time>2026-03-29T07:48:25.494Z</time></trkpt><trkpt lat="42.9587625" lon="12.1533055"><ele>602.8333333333334</ele><time>2026-03-29T07:48:26.493Z</time></trkpt><trkpt lat="42.9587323" lon="12.153427"><ele>602.6666666666666</ele><time>2026-03-29T07:48:27.497Z</time></trkpt><trkpt lat="42.9587126" lon="12.1535515"><ele>602.5</ele><time>2026-03-29T07:48:28.495Z</time></trkpt><trkpt lat="42.9586995" lon="12.1536754"><ele>602.3333333333333</ele><time>2026-03-29T07:48:29.493Z</time></trkpt><trkpt lat="42.9586876" lon="12.1537884"><ele>602.1666666666666</ele><time>2026-03-29T07:48:30.496Z</time></trkpt><trkpt lat="42.9586683" lon="12.1539017"><ele>602.0</ele><time>2026-03-29T07:48:31.496Z</time></trkpt><trkpt lat="42.9586452" lon="12.1540144"><ele>602.1666666666666</ele><time>2026-03-29T07:48:32.496Z</time></trkpt><trkpt lat="42.9586281" lon="12.1541224"><ele>602.3333333333333</ele><time>2026-03-29T07:48:33.494Z</time></trkpt><trkpt lat="42.9586077" lon="12.1542266"><ele>602.5</ele><time>2026-03-29T07:48:34.495Z</time></trkpt><trkpt lat="42.9585847" lon="12.1543327"><ele>602.6666666666666</ele><time>2026-03-29T07:48:35.495Z</time></trkpt><trkpt lat="42.9585552" lon="12.154442"><ele>602.8333333333334</ele><time>2026-03-29T07:48:36.493Z</time></trkpt><trkpt lat="42.9585174" lon="12.1545449"><ele>603.0</ele><time>2026-03-29T07:48:37.494Z</time></trkpt><trkpt lat="42.9584673" lon="12.1546321"><ele>603.0</ele><time>2026-03-29T07:48:38.499Z</time></trkpt><trkpt lat="42.9584021" lon="12.1547075"><ele>603.0</ele><time>2026-03-29T07:48:39.512Z</time></trkpt><trkpt lat="42.9583267" lon="12.1547739"><ele>603.0</ele><time>2026-03-29T07:48:40.505Z</time></trkpt><trkpt lat="42.9582617" lon="12.1548409"><ele>603.0</ele><time>2026-03-29T07:48:41.493Z</time></trkpt><trkpt lat="42.9582075" lon="12.1549171"><ele>603.0</ele><time>2026-03-29T07:48:42.508Z</time></trkpt><trkpt lat="42.9581692" lon="12.1550038"><ele>603.0</ele><time>2026-03-29T07:48:43.498Z</time></trkpt><trkpt lat="42.9581496" lon="12.1551142"><ele>600.0</ele><time>2026-03-29T07:48:44.496Z</time></trkpt><trkpt lat="42.9581562" lon="12.1552501"><ele>597.0</ele><time>2026-03-29T07:48:45.503Z</time></trkpt><trkpt lat="42.9581822" lon="12.1554057"><ele>594.0</ele><time>2026-03-29T07:48:46.502Z</time></trkpt><trkpt lat="42.9582113" lon="12.1555803"><ele>591.0</ele><time>2026-03-29T07:48:47.528Z</time></trkpt><trkpt lat="42.9582233" lon="12.1557463"><ele>590.6</ele><time>2026-03-29T07:48:48.499Z</time></trkpt><trkpt lat="42.9582109" lon="12.1558958"><ele>590.2</ele><time>2026-03-29T07:48:49.502Z</time></trkpt><trkpt lat="42.9581773" lon="12.1560335"><ele>589.8</ele><time>2026-03-29T07:48:50.501Z</time></trkpt><trkpt lat="42.9581236" lon="12.1561617"><ele>589.4</ele><time>2026-03-29T07:48:51.501Z</time></trkpt><trkpt lat="42.9580541" lon="12.1562813"><ele>589.0</ele><time>2026-03-29T07:48:52.513Z</time></trkpt><trkpt lat="42.9579926" lon="12.156393"><ele>589.0</ele><time>2026-03-29T07:48:53.51Z</time></trkpt><trkpt lat="42.9579253" lon="12.156492"><ele>589.0</ele><time>2026-03-29T07:48:54.504Z</time></trkpt><trkpt lat="42.9578493" lon="12.1565639"><ele>589.0</ele><time>2026-03-29T07:48:55.501Z</time></trkpt><trkpt lat="42.957766" lon="12.156607"><ele>589.0</ele><time>2026-03-29T07:48:56.501Z</time></trkpt><trkpt lat="42.9576794" lon="12.1566107"><ele>589.0</ele><time>2026-03-29T07:48:57.505Z</time></trkpt><trkpt lat="42.9575825" lon="12.1565692"><ele>584.8</ele><time>2026-03-29T07:48:58.496Z</time></trkpt><trkpt lat="42.9574743" lon="12.1564938"><ele>580.5999999999999</ele><time>2026-03-29T07:48:59.504Z</time></trkpt><trkpt lat="42.9573769" lon="12.156429"><ele>576.4</ele><time>2026-03-29T07:49:00.501Z</time></trkpt><trkpt lat="42.9572879" lon="12.1563842"><ele>572.1999999999999</ele><time>2026-03-29T07:49:01.493Z</time></trkpt><trkpt lat="42.9571936" lon="12.1563618"><ele>568.0</ele><time>2026-03-29T07:49:02.493Z</time></trkpt><trkpt lat="42.9570865" lon="12.156359"><ele>568.0</ele><time>2026-03-29T07:49:03.493Z</time></trkpt><trkpt lat="42.956967" lon="12.1563755"><ele>568.0</ele><time>2026-03-29T07:49:04.492Z</time></trkpt><trkpt lat="42.9568431" lon="12.1563884"><ele>568.0</ele><time>2026-03-29T07:49:05.497Z</time></trkpt><trkpt lat="42.9567306" lon="12.1563685"><ele>568.0</ele><time>2026-03-29T07:49:06.496Z</time></trkpt><trkpt lat="42.9566327" lon="12.1563237"><ele>565.75</ele><time>2026-03-29T07:49:07.498Z</time></trkpt><trkpt lat="42.956537" lon="12.1562541"><ele>563.5</ele><time>2026-03-29T07:49:08.496Z</time></trkpt><trkpt lat="42.956436" lon="12.1561534"><ele>561.25</ele><time>2026-03-29T07:49:09.497Z</time></trkpt><trkpt lat="42.9563338" lon="12.156045"><ele>559.0</ele><time>2026-03-29T07:49:10.494Z</time></trkpt><trkpt lat="42.956238" lon="12.1559329"><ele>559.0</ele><time>2026-03-29T07:49:11.498Z</time></trkpt><trkpt lat="42.9561512" lon="12.1558113"><ele>559.0</ele><time>2026-03-29T07:49:12.498Z</time></trkpt><trkpt lat="42.9560681" lon="12.1556827"><ele>559.0</ele><time>2026-03-29T07:49:13.498Z</time></trkpt><trkpt lat="42.9559828" lon="12.155551"><ele>559.0</ele><time>2026-03-29T07:49:14.492Z</time></trkpt><trkpt lat="42.9559008" lon="12.1554182"><ele>558.0</ele><time>2026-03-29T07:49:15.5Z</time></trkpt><trkpt lat="42.9558179" lon="12.1552909"><ele>557.0</ele><time>2026-03-29T07:49:16.505Z</time></trkpt><trkpt lat="42.955737" lon="12.1551585"><ele>556.0</ele><time>2026-03-29T07:49:17.51Z</time></trkpt><trkpt lat="42.9556531" lon="12.1550267"><ele>555.0</ele><time>2026-03-29T07:49:18.499Z</time></trkpt><trkpt lat="42.955565" lon="12.1549044"><ele>553.25</ele><time>2026-03-29T07:49:19.506Z</time></trkpt><trkpt lat="42.9554722" lon="12.1547918"><ele>551.5</ele><time>2026-03-29T07:49:20.506Z</time></trkpt><trkpt lat="42.9553736" lon="12.1546859"><ele>549.75</ele><time>2026-03-29T07:49:21.498Z</time></trkpt><trkpt lat="42.9552694" lon="12.1545809"><ele>548.0</ele><time>2026-03-29T07:49:22.504Z</time></trkpt><trkpt lat="42.9551599" lon="12.1544757"><ele>548.0</ele><time>2026-03-29T07:49:23.499Z</time></trkpt><trkpt lat="42.9550399" lon="12.1543712"><ele>548.0</ele><time>2026-03-29T07:49:24.498Z</time></trkpt><trkpt lat="42.9549107" lon="12.1542788"><ele>548.0</ele><time>2026-03-29T07:49:25.507Z</time></trkpt><trkpt lat="42.9547856" lon="12.1542086"><ele>548.0</ele><time>2026-03-29T07:49:26.498Z</time></trkpt><trkpt lat="42.9546558" lon="12.1541567"><ele>549.3333333333333</ele><time>2026-03-29T07:49:27.5Z</time></trkpt><trkpt lat="42.9545223" lon="12.154112"><ele>550.6666666666666</ele><time>2026-03-29T07:49:28.686Z</time></trkpt><trkpt lat="42.954379" lon="12.1540583"><ele>552.0</ele><time>2026-03-29T07:49:29.694Z</time></trkpt><trkpt lat="42.9542242" lon="12.1539864"><ele>558.0</ele><time>2026-03-29T07:49:30.694Z</time></trkpt><trkpt lat="42.9540673" lon="12.1539008"><ele>564.0</ele><time>2026-03-29T07:49:31.692Z</time></trkpt><trkpt lat="42.9539259" lon="12.1538106"><ele>570.0</ele><time>2026-03-29T07:49:32.69Z</time></trkpt><trkpt lat="42.9538063" lon="12.1537246"><ele>570.0</ele><time>2026-03-29T07:49:33.696Z</time></trkpt><trkpt lat="42.9536985" lon="12.1536406"><ele>570.0</ele><time>2026-03-29T07:49:34.688Z</time></trkpt><trkpt lat="42.9535811" lon="12.1535605"><ele>570.0</ele><time>2026-03-29T07:49:35.701Z</time></trkpt><trkpt lat="42.9534601" lon="12.1534858"><ele>570.0</ele><time>2026-03-29T07:49:36.693Z</time></trkpt><trkpt lat="42.9533458" lon="12.1534162"><ele>571.0</ele><time>2026-03-29T07:49:37.687Z</time></trkpt><trkpt lat="42.9532376" lon="12.1533633"><ele>572.0</ele><time>2026-03-29T07:49:38.693Z</time></trkpt><trkpt lat="42.9531427" lon="12.1533364"><ele>573.0</ele><time>2026-03-29T07:49:39.695Z</time></trkpt><trkpt lat="42.953052" lon="12.1533519"><ele>574.0</ele><time>2026-03-29T07:49:40.697Z</time></trkpt><trkpt lat="42.952965" lon="12.1534195"><ele>575.0</ele><time>2026-03-29T07:49:41.69Z</time></trkpt><trkpt lat="42.9528928" lon="12.1535325"><ele>575.0</ele><time>2026-03-29T07:49:42.689Z</time></trkpt><trkpt lat="42.9528256" lon="12.1536677"><ele>575.0</ele><time>2026-03-29T07:49:43.696Z</time></trkpt><trkpt lat="42.9527767" lon="12.1537865"><ele>575.0</ele><time>2026-03-29T07:49:44.73Z</time></trkpt><trkpt lat="42.9526954" lon="12.1538927"><ele>575.0</ele><time>2026-03-29T07:49:45.69Z</time></trkpt><trkpt lat="42.9526088" lon="12.1539658"><ele>575.0</ele><time>2026-03-29T07:49:46.698Z</time></trkpt><trkpt lat="42.9525336" lon="12.1539804"><ele>577.3333333333333</ele><time>2026-03-29T07:49:47.694Z</time></trkpt><trkpt lat="42.9524577" lon="12.1539329"><ele>579.6666666666666</ele><time>2026-03-29T07:49:48.701Z</time></trkpt><trkpt lat="42.9523942" lon="12.1538535"><ele>582.0</ele><time>2026-03-29T07:49:49.69Z</time></trkpt><trkpt lat="42.9523149" lon="12.1537732"><ele>584.3333333333334</ele><time>2026-03-29T07:49:50.692Z</time></trkpt><trkpt lat="42.9522404" lon="12.1537237"><ele>586.6666666666667</ele><time>2026-03-29T07:49:51.692Z</time></trkpt><trkpt lat="42.9521667" lon="12.1537213"><ele>589.0</ele><time>2026-03-29T07:49:52.691Z</time></trkpt><trkpt lat="42.9520929" lon="12.1537681"><ele>589.0</ele><time>2026-03-29T07:49:53.691Z</time></trkpt><trkpt lat="42.9519996" lon="12.153853"><ele>589.0</ele><time>2026-03-29T07:49:54.693Z</time></trkpt><trkpt lat="42.9519016" lon="12.1539389"><ele>589.0</ele><time>2026-03-29T07:49:55.688Z</time></trkpt><trkpt lat="42.9517999" lon="12.1540169"><ele>589.0</ele><time>2026-03-29T07:49:56.697Z</time></trkpt><trkpt lat="42.9516964" lon="12.15409"><ele>589.8</ele><time>2026-03-29T07:49:57.692Z</time></trkpt><trkpt lat="42.9515934" lon="12.1541591"><ele>590.5999999999999</ele><time>2026-03-29T07:49:58.687Z</time></trkpt><trkpt lat="42.9514954" lon="12.1542304"><ele>591.4</ele><time>2026-03-29T07:49:59.688Z</time></trkpt><trkpt lat="42.9513961" lon="12.154298"><ele>592.1999999999999</ele><time>2026-03-29T07:50:00.715Z</time></trkpt><trkpt lat="42.9512954" lon="12.1543654"><ele>593.0</ele><time>2026-03-29T07:50:01.688Z</time></trkpt><trkpt lat="42.9511963" lon="12.1544301"><ele>593.0</ele><time>2026-03-29T07:50:02.686Z</time></trkpt><trkpt lat="42.9510968" lon="12.1544856"><ele>593.0</ele><time>2026-03-29T07:50:03.691Z</time></trkpt><trkpt lat="42.9509929" lon="12.1545066"><ele>593.0</ele><time>2026-03-29T07:50:04.686Z</time></trkpt><trkpt lat="42.9508946" lon="12.1544969"><ele>593.0</ele><time>2026-03-29T07:50:05.688Z</time></trkpt><trkpt lat="42.9507992" lon="12.1544478"><ele>593.0</ele><time>2026-03-29T07:50:06.69Z</time></trkpt><trkpt lat="42.9507093" lon="12.1543601"><ele>594.75</ele><time>2026-03-29T07:50:07.689Z</time></trkpt><trkpt lat="42.9506241" lon="12.154268"><ele>596.5</ele><time>2026-03-29T07:50:08.685Z</time></trkpt><trkpt lat="42.9505229" lon="12.154184"><ele>598.25</ele><time>2026-03-29T07:50:09.686Z</time></trkpt><trkpt lat="42.9504044" lon="12.1541216"><ele>600.0</ele><time>2026-03-29T07:50:10.69Z</time></trkpt><trkpt lat="42.9502706" lon="12.1540779"><ele>600.0</ele><time>2026-03-29T07:50:11.687Z</time></trkpt><trkpt lat="42.9501324" lon="12.154059"><ele>600.0</ele><time>2026-03-29T07:50:12.694Z</time></trkpt><trkpt lat="42.950002" lon="12.154061"><ele>600.0</ele><time>2026-03-29T07:50:13.689Z</time></trkpt><trkpt lat="42.9498812" lon="12.1540721"><ele>600.0</ele><time>2026-03-29T07:50:14.685Z</time></trkpt><trkpt lat="42.9497752" lon="12.1540861"><ele>601.1666666666666</ele><time>2026-03-29T07:50:15.687Z</time></trkpt><trkpt lat="42.9496939" lon="12.1541052"><ele>602.3333333333334</ele><time>2026-03-29T07:50:16.69Z</time></trkpt><trkpt lat="42.9496206" lon="12.1541314"><ele>603.5</ele><time>2026-03-29T07:50:17.688Z</time></trkpt><trkpt lat="42.9495341" lon="12.1541691"><ele>604.6666666666667</ele><time>2026-03-29T07:50:18.687Z</time></trkpt><trkpt lat="42.9494602" lon="12.1542118"><ele>605.8333333333334</ele><time>2026-03-29T07:50:19.686Z</time></trkpt><trkpt lat="42.9493972" lon="12.1542514"><ele>607.0</ele><time>2026-03-29T07:50:20.689Z</time></trkpt><trkpt lat="42.9493394" lon="12.1542891"><ele>606.9999999999999</ele><time>2026-03-29T07:50:21.685Z</time></trkpt><trkpt lat="42.9492806" lon="12.1543262"><ele>607.0</ele><time>2026-03-29T07:50:22.688Z</time></trkpt><trkpt lat="42.949222" lon="12.1543645"><ele>607.0</ele><time>2026-03-29T07:50:23.687Z</time></trkpt><trkpt lat="42.9491539" lon="12.1544166"><ele>607.0</ele><time>2026-03-29T07:50:24.687Z</time></trkpt><trkpt lat="42.9490874" lon="12.1544669"><ele>607.0</ele><time>2026-03-29T07:50:25.69Z</time></trkpt><trkpt lat="42.9490233" lon="12.1545217"><ele>606.9999999999999</ele><time>2026-03-29T07:50:26.689Z</time></trkpt><trkpt lat="42.9489581" lon="12.1545741"><ele>607.0</ele><time>2026-03-29T07:50:27.69Z</time></trkpt><trkpt lat="42.9489008" lon="12.1546119"><ele>608.6</ele><time>2026-03-29T07:50:28.699Z</time></trkpt><trkpt lat="42.9487701" lon="12.1546141"><ele>610.2</ele><time>2026-03-29T07:50:30.69Z</time></trkpt><trkpt lat="42.9486902" lon="12.15459"><ele>611.8</ele><time>2026-03-29T07:50:31.692Z</time></trkpt><trkpt lat="42.9486143" lon="12.1545707"><ele>613.4</ele><time>2026-03-29T07:50:32.686Z</time></trkpt><trkpt lat="42.9484925" lon="12.1545471"><ele>615.0</ele><time>2026-03-29T07:50:34.692Z</time></trkpt><trkpt lat="42.9484279" lon="12.1545264"><ele>616.2857142857142</ele><time>2026-03-29T07:50:35.693Z</time></trkpt><trkpt lat="42.9483639" lon="12.154505"><ele>617.5714285714287</ele><time>2026-03-29T07:50:36.687Z</time></trkpt><trkpt lat="42.9482959" lon="12.1544872"><ele>618.8571428571429</ele><time>2026-03-29T07:50:37.691Z</time></trkpt><trkpt lat="42.9482189" lon="12.1544662"><ele>620.1428571428571</ele><time>2026-03-29T07:50:38.695Z</time></trkpt><trkpt lat="42.9481406" lon="12.1544425"><ele>621.4285714285713</ele><time>2026-03-29T07:50:39.696Z</time></trkpt><trkpt lat="42.9480743" lon="12.1544338"><ele>622.7142857142858</ele><time>2026-03-29T07:50:40.691Z</time></trkpt><trkpt lat="42.9480087" lon="12.1544345"><ele>624.0</ele><time>2026-03-29T07:50:41.691Z</time></trkpt><trkpt lat="42.9479431" lon="12.1544297"><ele>624.0</ele><time>2026-03-29T07:50:42.69Z</time></trkpt><trkpt lat="42.9478707" lon="12.1544072"><ele>624.0</ele><time>2026-03-29T07:50:43.686Z</time></trkpt><trkpt lat="42.9477924" lon="12.1543795"><ele>624.0</ele><time>2026-03-29T07:50:44.719Z</time></trkpt><trkpt lat="42.9477113" lon="12.1543612"><ele>624.0</ele><time>2026-03-29T07:50:45.691Z</time></trkpt><trkpt lat="42.9476301" lon="12.1543406"><ele>624.0</ele><time>2026-03-29T07:50:46.691Z</time></trkpt><trkpt lat="42.9475517" lon="12.1543117"><ele>624.0</ele><time>2026-03-29T07:50:47.703Z</time></trkpt><trkpt lat="42.9474787" lon="12.1542767"><ele>624.0</ele><time>2026-03-29T07:50:48.691Z</time></trkpt><trkpt lat="42.9473995" lon="12.1542345"><ele>624.0</ele><time>2026-03-29T07:50:49.709Z</time></trkpt><trkpt lat="42.9473137" lon="12.1541842"><ele>624.0</ele><time>2026-03-29T07:50:50.688Z</time></trkpt><trkpt lat="42.9472398" lon="12.1541273"><ele>624.0</ele><time>2026-03-29T07:50:51.69Z</time></trkpt><trkpt lat="42.9471794" lon="12.154065"><ele>624.0</ele><time>2026-03-29T07:50:52.687Z</time></trkpt><trkpt lat="42.9471109" lon="12.1540015"><ele>624.0</ele><time>2026-03-29T07:50:53.691Z</time></trkpt><trkpt lat="42.947033" lon="12.1539365"><ele>624.0</ele><time>2026-03-29T07:50:54.688Z</time></trkpt><trkpt lat="42.94696" lon="12.1538722"><ele>624.0</ele><time>2026-03-29T07:50:55.69Z</time></trkpt><trkpt lat="42.9468906" lon="12.1538153"><ele>624.0</ele><time>2026-03-29T07:50:56.692Z</time></trkpt><trkpt lat="42.9468296" lon="12.153755"><ele>624.0</ele><time>2026-03-29T07:50:57.692Z</time></trkpt><trkpt lat="42.9467791" lon="12.1536871"><ele>624.0</ele><time>2026-03-29T07:50:58.688Z</time></trkpt><trkpt lat="42.9467277" lon="12.1536237"><ele>624.0</ele><time>2026-03-29T07:50:59.691Z</time></trkpt><trkpt lat="42.9466724" lon="12.1535655"><ele>624.0</ele><time>2026-03-29T07:51:00.687Z</time></trkpt><trkpt lat="42.9466077" lon="12.1535026"><ele>624.0</ele><time>2026-03-29T07:51:01.689Z</time></trkpt><trkpt lat="42.94654" lon="12.15344"><ele>624.0</ele><time>2026-03-29T07:51:02.717Z</time></trkpt><trkpt lat="42.9464792" lon="12.1533746"><ele>624.0</ele><time>2026-03-29T07:51:03.69Z</time></trkpt><trkpt lat="42.9464305" lon="12.1533063"><ele>624.0</ele><time>2026-03-29T07:51:04.692Z</time></trkpt><trkpt lat="42.9463871" lon="12.153231"><ele>624.0</ele><time>2026-03-29T07:51:05.694Z</time></trkpt><trkpt lat="42.9463358" lon="12.1531434"><ele>624.0</ele><time>2026-03-29T07:51:06.688Z</time></trkpt><trkpt lat="42.9462877" lon="12.1530536"><ele>624.0</ele><time>2026-03-29T07:51:07.686Z</time></trkpt><trkpt lat="42.9462441" lon="12.1529732"><ele>624.0</ele><time>2026-03-29T07:51:08.686Z</time></trkpt><trkpt lat="42.9461933" lon="12.1529082"><ele>624.0</ele><time>2026-03-29T07:51:09.687Z</time></trkpt><trkpt lat="42.9461154" lon="12.1528018"><ele>624.0</ele><time>2026-03-29T07:51:11.686Z</time></trkpt><trkpt lat="42.946078" lon="12.1526854"><ele>624.0</ele><time>2026-03-29T07:51:13.753Z</time></trkpt><trkpt lat="42.9460663" lon="12.1525986"><ele>624.0</ele><time>2026-03-29T07:51:14.697Z</time></trkpt><trkpt lat="42.9460642" lon="12.1524922"><ele>624.0</ele><time>2026-03-29T07:51:15.686Z</time></trkpt><trkpt lat="42.9460555" lon="12.1523711"><ele>624.0</ele><time>2026-03-29T07:51:16.69Z</time></trkpt><trkpt lat="42.9460343" lon="12.1522524"><ele>624.0</ele><time>2026-03-29T07:51:17.691Z</time></trkpt><trkpt lat="42.9459954" lon="12.1521528"><ele>624.0</ele><time>2026-03-29T07:51:18.687Z</time></trkpt><trkpt lat="42.9459379" lon="12.1520634"><ele>624.0</ele><time>2026-03-29T07:51:19.689Z</time></trkpt><trkpt lat="42.9458651" lon="12.1519767"><ele>625.4</ele><time>2026-03-29T07:51:20.696Z</time></trkpt><trkpt lat="42.945785" lon="12.1518822"><ele>626.8</ele><time>2026-03-29T07:51:21.691Z</time></trkpt><trkpt lat="42.9457086" lon="12.1517874"><ele>628.2</ele><time>2026-03-29T07:51:22.691Z</time></trkpt><trkpt lat="42.9456375" lon="12.1516879"><ele>629.6</ele><time>2026-03-29T07:51:23.686Z</time></trkpt><trkpt lat="42.9455762" lon="12.1515746"><ele>631.0</ele><time>2026-03-29T07:51:24.688Z</time></trkpt><trkpt lat="42.9455187" lon="12.1514557"><ele>631.0</ele><time>2026-03-29T07:51:25.691Z</time></trkpt><trkpt lat="42.9454637" lon="12.1513511"><ele>631.0</ele><time>2026-03-29T07:51:26.699Z</time></trkpt><trkpt lat="42.9454205" lon="12.1512583"><ele>631.0</ele><time>2026-03-29T07:51:27.691Z</time></trkpt><trkpt lat="42.9453976" lon="12.1511562"><ele>631.0</ele><time>2026-03-29T07:51:28.686Z</time></trkpt><trkpt lat="42.9453954" lon="12.1510343"><ele>631.0</ele><time>2026-03-29T07:51:29.692Z</time></trkpt><trkpt lat="42.9454133" lon="12.1508816"><ele>631.0</ele><time>2026-03-29T07:51:30.69Z</time></trkpt><trkpt lat="42.9454447" lon="12.1507231"><ele>631.0</ele><time>2026-03-29T07:51:31.688Z</time></trkpt><trkpt lat="42.9454793" lon="12.150581"><ele>631.0</ele><time>2026-03-29T07:51:32.692Z</time></trkpt><trkpt lat="42.9455006" lon="12.1504516"><ele>631.0</ele><time>2026-03-29T07:51:33.689Z</time></trkpt><trkpt lat="42.9455142" lon="12.1503322"><ele>631.0</ele><time>2026-03-29T07:51:34.688Z</time></trkpt><trkpt lat="42.945519" lon="12.1502172"><ele>631.0</ele><time>2026-03-29T07:51:35.688Z</time></trkpt><trkpt lat="42.9455146" lon="12.1501024"><ele>631.0</ele><time>2026-03-29T07:51:36.688Z</time></trkpt><trkpt lat="42.9454969" lon="12.1499755"><ele>631.0</ele><time>2026-03-29T07:51:37.689Z</time></trkpt><trkpt lat="42.9454594" lon="12.1498402"><ele>631.0</ele><time>2026-03-29T07:51:38.718Z</time></trkpt><trkpt lat="42.9454147" lon="12.1496977"><ele>631.0</ele><time>2026-03-29T07:51:39.696Z</time></trkpt><trkpt lat="42.9453745" lon="12.1495467"><ele>631.0</ele><time>2026-03-29T07:51:40.689Z</time></trkpt><trkpt lat="42.9453403" lon="12.1493873"><ele>631.0</ele><time>2026-03-29T07:51:41.693Z</time></trkpt><trkpt lat="42.945317" lon="12.1492174"><ele>631.0</ele><time>2026-03-29T07:51:42.721Z</time></trkpt><trkpt lat="42.9453052" lon="12.1490493"><ele>631.0</ele><time>2026-03-29T07:51:43.689Z</time></trkpt><trkpt lat="42.9452878" lon="12.1488907"><ele>628.5</ele><time>2026-03-29T07:51:44.694Z</time></trkpt><trkpt lat="42.94526" lon="12.1487386"><ele>626.0</ele><time>2026-03-29T07:51:45.689Z</time></trkpt><trkpt lat="42.945231" lon="12.1485873"><ele>623.5</ele><time>2026-03-29T07:51:46.689Z</time></trkpt><trkpt lat="42.9451905" lon="12.1484481"><ele>621.0</ele><time>2026-03-29T07:51:47.686Z</time></trkpt><trkpt lat="42.9451382" lon="12.1483065"><ele>623.5</ele><time>2026-03-29T07:51:48.687Z</time></trkpt><trkpt lat="42.94508" lon="12.1481679"><ele>626.0</ele><time>2026-03-29T07:51:49.69Z</time></trkpt><trkpt lat="42.9450214" lon="12.1480256"><ele>628.5</ele><time>2026-03-29T07:51:50.687Z</time></trkpt><trkpt lat="42.9449627" lon="12.1478844"><ele>631.0</ele><time>2026-03-29T07:51:51.688Z</time></trkpt><trkpt lat="42.944899" lon="12.1477518"><ele>631.0</ele><time>2026-03-29T07:51:52.689Z</time></trkpt><trkpt lat="42.9448318" lon="12.1476352"><ele>631.0</ele><time>2026-03-29T07:51:53.692Z</time></trkpt><trkpt lat="42.9447593" lon="12.1475451"><ele>631.0</ele><time>2026-03-29T07:51:54.689Z</time></trkpt><trkpt lat="42.944672" lon="12.1474783"><ele>631.0</ele><time>2026-03-29T07:51:55.686Z</time></trkpt><trkpt lat="42.9445705" lon="12.1474345"><ele>631.0</ele><time>2026-03-29T07:51:56.69Z</time></trkpt><trkpt lat="42.9444713" lon="12.1473848"><ele>630.3333333333334</ele><time>2026-03-29T07:51:57.692Z</time></trkpt><trkpt lat="42.9443845" lon="12.1473276"><ele>629.6666666666667</ele><time>2026-03-29T07:51:58.69Z</time></trkpt><trkpt lat="42.944324" lon="12.1472558"><ele>629.0</ele><time>2026-03-29T07:51:59.685Z</time></trkpt><trkpt lat="42.9442856" lon="12.1471701"><ele>628.3333333333334</ele><time>2026-03-29T07:52:00.692Z</time></trkpt><trkpt lat="42.9442673" lon="12.147065"><ele>627.6666666666666</ele><time>2026-03-29T07:52:01.686Z</time></trkpt><trkpt lat="42.9442651" lon="12.1469393"><ele>627.0</ele><time>2026-03-29T07:52:02.689Z</time></trkpt><trkpt lat="42.9442643" lon="12.1468056"><ele>627.0</ele><time>2026-03-29T07:52:03.688Z</time></trkpt><trkpt lat="42.9442689" lon="12.146672"><ele>627.0</ele><time>2026-03-29T07:52:04.689Z</time></trkpt><trkpt lat="42.9442675" lon="12.1465446"><ele>627.0</ele><time>2026-03-29T07:52:05.688Z</time></trkpt><trkpt lat="42.9442512" lon="12.1464153"><ele>627.0</ele><time>2026-03-29T07:52:06.694Z</time></trkpt><trkpt lat="42.9442233" lon="12.1462827"><ele>627.0</ele><time>2026-03-29T07:52:07.687Z</time></trkpt><trkpt lat="42.944177" lon="12.1461405"><ele>628.75</ele><time>2026-03-29T07:52:08.689Z</time></trkpt><trkpt lat="42.9441151" lon="12.1459966"><ele>630.5</ele><time>2026-03-29T07:52:09.71Z</time></trkpt><trkpt lat="42.9440453" lon="12.1458511"><ele>632.25</ele><time>2026-03-29T07:52:10.687Z</time></trkpt><trkpt lat="42.9439765" lon="12.1457081"><ele>634.0</ele><time>2026-03-29T07:52:11.689Z</time></trkpt><trkpt lat="42.9439113" lon="12.1455696"><ele>634.0</ele><time>2026-03-29T07:52:12.687Z</time></trkpt><trkpt lat="42.9438517" lon="12.1454326"><ele>634.0</ele><time>2026-03-29T07:52:13.696Z</time></trkpt><trkpt lat="42.9437948" lon="12.1452946"><ele>634.0</ele><time>2026-03-29T07:52:14.688Z</time></trkpt><trkpt lat="42.9437311" lon="12.1451624"><ele>634.0</ele><time>2026-03-29T07:52:15.688Z</time></trkpt><trkpt lat="42.9436698" lon="12.1450288"><ele>634.0</ele><time>2026-03-29T07:52:16.69Z</time></trkpt><trkpt lat="42.9436159" lon="12.1448897"><ele>634.0</ele><time>2026-03-29T07:52:17.689Z</time></trkpt><trkpt lat="42.9435707" lon="12.144745"><ele>634.0</ele><time>2026-03-29T07:52:18.694Z</time></trkpt><trkpt lat="42.9435286" lon="12.1445926"><ele>634.0</ele><time>2026-03-29T07:52:19.687Z</time></trkpt><trkpt lat="42.9434959" lon="12.1444313"><ele>631.75</ele><time>2026-03-29T07:52:20.687Z</time></trkpt><trkpt lat="42.9434762" lon="12.1442567"><ele>629.5</ele><time>2026-03-29T07:52:21.685Z</time></trkpt><trkpt lat="42.9434558" lon="12.1440741"><ele>627.25</ele><time>2026-03-29T07:52:22.686Z</time></trkpt><trkpt lat="42.9434327" lon="12.1439077"><ele>625.0</ele><time>2026-03-29T07:52:23.686Z</time></trkpt><trkpt lat="42.943402" lon="12.1437615"><ele>626.0</ele><time>2026-03-29T07:52:24.688Z</time></trkpt><trkpt lat="42.9433602" lon="12.1436408"><ele>627.0</ele><time>2026-03-29T07:52:25.692Z</time></trkpt><trkpt lat="42.9433031" lon="12.1435303"><ele>628.0</ele><time>2026-03-29T07:52:26.685Z</time></trkpt><trkpt lat="42.9432357" lon="12.1434109"><ele>629.0</ele><time>2026-03-29T07:52:27.693Z</time></trkpt><trkpt lat="42.9431697" lon="12.1432838"><ele>630.0</ele><time>2026-03-29T07:52:28.687Z</time></trkpt><trkpt lat="42.9431161" lon="12.1431515"><ele>630.0</ele><time>2026-03-29T07:52:29.689Z</time></trkpt><trkpt lat="42.9430851" lon="12.1430089"><ele>630.0</ele><time>2026-03-29T07:52:30.687Z</time></trkpt><trkpt lat="42.9430773" lon="12.142855"><ele>630.0</ele><time>2026-03-29T07:52:31.688Z</time></trkpt><trkpt lat="42.9430785" lon="12.1427075"><ele>630.0</ele><time>2026-03-29T07:52:32.692Z</time></trkpt><trkpt lat="42.9430758" lon="12.1425713"><ele>630.0</ele><time>2026-03-29T07:52:33.689Z</time></trkpt><trkpt lat="42.9430566" lon="12.1424482"><ele>630.1666666666666</ele><time>2026-03-29T07:52:34.688Z</time></trkpt><trkpt lat="42.9430191" lon="12.1423396"><ele>630.3333333333334</ele><time>2026-03-29T07:52:35.688Z</time></trkpt><trkpt lat="42.9429726" lon="12.1422378"><ele>630.5</ele><time>2026-03-29T07:52:36.686Z</time></trkpt><trkpt lat="42.9429314" lon="12.1421445"><ele>630.6666666666667</ele><time>2026-03-29T07:52:37.687Z</time></trkpt><trkpt lat="42.942908" lon="12.1420553"><ele>630.8333333333334</ele><time>2026-03-29T07:52:38.688Z</time></trkpt><trkpt lat="42.9429471" lon="12.1419141"><ele>631.0</ele><time>2026-03-29T07:52:40.688Z</time></trkpt><trkpt lat="42.9430117" lon="12.1418609"><ele>631.0</ele><time>2026-03-29T07:52:41.685Z</time></trkpt><trkpt lat="42.9430863" lon="12.1418285"><ele>631.0</ele><time>2026-03-29T07:52:42.692Z</time></trkpt><trkpt lat="42.9431581" lon="12.1417937"><ele>631.0</ele><time>2026-03-29T07:52:43.686Z</time></trkpt><trkpt lat="42.9432183" lon="12.1417451"><ele>631.0</ele><time>2026-03-29T07:52:44.689Z</time></trkpt><trkpt lat="42.9432524" lon="12.1416623"><ele>631.0</ele><time>2026-03-29T07:52:45.688Z</time></trkpt><trkpt lat="42.9432654" lon="12.1415597"><ele>631.0</ele><time>2026-03-29T07:52:46.686Z</time></trkpt><trkpt lat="42.9432623" lon="12.1414536"><ele>631.0</ele><time>2026-03-29T07:52:47.689Z</time></trkpt><trkpt lat="42.9432426" lon="12.1413442"><ele>632.75</ele><time>2026-03-29T07:52:48.686Z</time></trkpt><trkpt lat="42.9432032" lon="12.1412269"><ele>634.5</ele><time>2026-03-29T07:52:49.691Z</time></trkpt><trkpt lat="42.9431385" lon="12.1411088"><ele>636.25</ele><time>2026-03-29T07:52:50.687Z</time></trkpt><trkpt lat="42.9430428" lon="12.1409802"><ele>638.0</ele><time>2026-03-29T07:52:51.698Z</time></trkpt><trkpt lat="42.9429385" lon="12.1408343"><ele>640.6666666666666</ele><time>2026-03-29T07:52:52.691Z</time></trkpt><trkpt lat="42.9428333" lon="12.1406901"><ele>643.3333333333334</ele><time>2026-03-29T07:52:53.689Z</time></trkpt><trkpt lat="42.9427209" lon="12.1405435"><ele>646.0</ele><time>2026-03-29T07:52:54.688Z</time></trkpt><trkpt lat="42.942605" lon="12.1404004"><ele>641.5</ele><time>2026-03-29T07:52:55.71Z</time></trkpt><trkpt lat="42.94249" lon="12.1402728"><ele>637.0</ele><time>2026-03-29T07:52:56.709Z</time></trkpt><trkpt lat="42.9423813" lon="12.1401541"><ele>632.5</ele><time>2026-03-29T07:52:57.687Z</time></trkpt><trkpt lat="42.9422708" lon="12.140033"><ele>628.0</ele><time>2026-03-29T07:52:58.694Z</time></trkpt><trkpt lat="42.9421561" lon="12.1399077"><ele>630.25</ele><time>2026-03-29T07:52:59.687Z</time></trkpt><trkpt lat="42.9420431" lon="12.1397794"><ele>632.5</ele><time>2026-03-29T07:53:00.687Z</time></trkpt><trkpt lat="42.9419415" lon="12.1396451"><ele>634.75</ele><time>2026-03-29T07:53:01.689Z</time></trkpt><trkpt lat="42.9418434" lon="12.1395064"><ele>637.0</ele><time>2026-03-29T07:53:02.687Z</time></trkpt><trkpt lat="42.9417559" lon="12.1393706"><ele>634.5</ele><time>2026-03-29T07:53:03.687Z</time></trkpt><trkpt lat="42.9416721" lon="12.1392482"><ele>632.0</ele><time>2026-03-29T07:53:04.688Z</time></trkpt><trkpt lat="42.9415802" lon="12.1391393"><ele>629.5</ele><time>2026-03-29T07:53:05.69Z</time></trkpt><trkpt lat="42.9414799" lon="12.1390405"><ele>627.0</ele><time>2026-03-29T07:53:06.688Z</time></trkpt><trkpt lat="42.9413926" lon="12.1389471"><ele>627.0</ele><time>2026-03-29T07:53:07.688Z</time></trkpt><trkpt lat="42.941321" lon="12.1388516"><ele>627.0</ele><time>2026-03-29T07:53:08.691Z</time></trkpt><trkpt lat="42.941261" lon="12.138746"><ele>627.0</ele><time>2026-03-29T07:53:09.688Z</time></trkpt><trkpt lat="42.9412143" lon="12.1386167"><ele>627.0</ele><time>2026-03-29T07:53:10.687Z</time></trkpt><trkpt lat="42.9411856" lon="12.1384666"><ele>627.0</ele><time>2026-03-29T07:53:11.685Z</time></trkpt><trkpt lat="42.9411693" lon="12.1382989"><ele>627.4</ele><time>2026-03-29T07:53:12.688Z</time></trkpt><trkpt lat="42.9411738" lon="12.1381335"><ele>627.8000000000001</ele><time>2026-03-29T07:53:13.685Z</time></trkpt><trkpt lat="42.9411795" lon="12.1379757"><ele>628.2</ele><time>2026-03-29T07:53:14.689Z</time></trkpt><trkpt lat="42.9411738" lon="12.1378268"><ele>628.6</ele><time>2026-03-29T07:53:15.69Z</time></trkpt><trkpt lat="42.9411474" lon="12.1377045"><ele>629.0</ele><time>2026-03-29T07:53:16.693Z</time></trkpt><trkpt lat="42.9410919" lon="12.1375989"><ele>629.0</ele><time>2026-03-29T07:53:17.695Z</time></trkpt><trkpt lat="42.9410365" lon="12.1375092"><ele>629.0</ele><time>2026-03-29T07:53:18.689Z</time></trkpt><trkpt lat="42.9409839" lon="12.1374374"><ele>629.0</ele><time>2026-03-29T07:53:19.695Z</time></trkpt><trkpt lat="42.9409446" lon="12.1373261"><ele>629.0</ele><time>2026-03-29T07:53:21.687Z</time></trkpt><trkpt lat="42.9409748" lon="12.1372249"><ele>629.0</ele><time>2026-03-29T07:53:23.689Z</time></trkpt><trkpt lat="42.9410157" lon="12.1371174"><ele>629.0</ele><time>2026-03-29T07:53:25.691Z</time></trkpt><trkpt lat="42.9410515" lon="12.1370354"><ele>629.2</ele><time>2026-03-29T07:53:27.691Z</time></trkpt><trkpt lat="42.9411081" lon="12.1369389"><ele>629.4</ele><time>2026-03-29T07:53:29.689Z</time></trkpt><trkpt lat="42.9411827" lon="12.1368475"><ele>629.6</ele><time>2026-03-29T07:53:31.692Z</time></trkpt><trkpt lat="42.9412648" lon="12.1367621"><ele>629.8</ele><time>2026-03-29T07:53:33.689Z</time></trkpt><trkpt lat="42.9413316" lon="12.1366853"><ele>630.0</ele><time>2026-03-29T07:53:35.689Z</time></trkpt><trkpt lat="42.9414217" lon="12.1366169"><ele>630.0</ele><time>2026-03-29T07:53:37.689Z</time></trkpt><trkpt lat="42.9415047" lon="12.1365898"><ele>630.0</ele><time>2026-03-29T07:53:39.686Z</time></trkpt><trkpt lat="42.941601" lon="12.1365232"><ele>630.0</ele><time>2026-03-29T07:53:41.686Z</time></trkpt><trkpt lat="42.9416514" lon="12.136465"><ele>630.0</ele><time>2026-03-29T07:53:42.688Z</time></trkpt><trkpt lat="42.9417469" lon="12.1363525"><ele>630.0</ele><time>2026-03-29T07:53:44.69Z</time></trkpt><trkpt lat="42.9418453" lon="12.136262"><ele>632.5</ele><time>2026-03-29T07:53:46.686Z</time></trkpt><trkpt lat="42.9419228" lon="12.1361837"><ele>635.0</ele><time>2026-03-29T07:53:48.687Z</time></trkpt><trkpt lat="42.9419696" lon="12.1361259"><ele>637.5</ele><time>2026-03-29T07:53:49.689Z</time></trkpt><trkpt lat="42.9420279" lon="12.1360678"><ele>640.0</ele><time>2026-03-29T07:53:50.69Z</time></trkpt><trkpt lat="42.9420942" lon="12.1360048"><ele>642.5</ele><time>2026-03-29T07:53:51.692Z</time></trkpt><trkpt lat="42.942158" lon="12.1359386"><ele>645.0</ele><time>2026-03-29T07:53:52.686Z</time></trkpt><trkpt lat="42.9422132" lon="12.1358847"><ele>645.0</ele><time>2026-03-29T07:53:53.687Z</time></trkpt><trkpt lat="42.9422656" lon="12.1358341"><ele>645.0</ele><time>2026-03-29T07:53:54.691Z</time></trkpt><trkpt lat="42.9423204" lon="12.1357914"><ele>645.0</ele><time>2026-03-29T07:53:55.689Z</time></trkpt><trkpt lat="42.9423814" lon="12.1357404"><ele>645.0</ele><time>2026-03-29T07:53:56.691Z</time></trkpt><trkpt lat="42.9424432" lon="12.1356739"><ele>645.0</ele><time>2026-03-29T07:53:57.69Z</time></trkpt><trkpt lat="42.9424908" lon="12.1355979"><ele>645.0</ele><time>2026-03-29T07:53:58.687Z</time></trkpt><trkpt lat="42.9425309" lon="12.1355066"><ele>645.0</ele><time>2026-03-29T07:53:59.689Z</time></trkpt><trkpt lat="42.9425571" lon="12.1354139"><ele>644.6666666666666</ele><time>2026-03-29T07:54:00.688Z</time></trkpt><trkpt lat="42.9425819" lon="12.1353231"><ele>644.3333333333334</ele><time>2026-03-29T07:54:01.7Z</time></trkpt><trkpt lat="42.942607" lon="12.1352321"><ele>644.0</ele><time>2026-03-29T07:54:02.691Z</time></trkpt><trkpt lat="42.9426316" lon="12.1351495"><ele>643.6666666666667</ele><time>2026-03-29T07:54:03.688Z</time></trkpt><trkpt lat="42.9426677" lon="12.1350005"><ele>643.3333333333334</ele><time>2026-03-29T07:54:05.688Z</time></trkpt><trkpt lat="42.9427011" lon="12.1348489"><ele>643.0</ele><time>2026-03-29T07:54:07.694Z</time></trkpt><trkpt lat="42.9427381" lon="12.1346818"><ele>643.0</ele><time>2026-03-29T07:54:09.687Z</time></trkpt><trkpt lat="42.9427388" lon="12.134587"><ele>643.0</ele><time>2026-03-29T07:54:10.701Z</time></trkpt><trkpt lat="42.9427263" lon="12.1344944"><ele>643.0</ele><time>2026-03-29T07:54:11.69Z</time></trkpt><trkpt lat="42.9427007" lon="12.1344089"><ele>643.0</ele><time>2026-03-29T07:54:12.686Z</time></trkpt><trkpt lat="42.9426676" lon="12.1343337"><ele>643.0</ele><time>2026-03-29T07:54:13.688Z</time></trkpt><trkpt lat="42.9426443" lon="12.1342242"><ele>643.0</ele><time>2026-03-29T07:54:15.739Z</time></trkpt><trkpt lat="42.9426446" lon="12.1341276"><ele>643.0</ele><time>2026-03-29T07:54:17.692Z</time></trkpt><trkpt lat="42.9426405" lon="12.1340081"><ele>646.5999999999999</ele><time>2026-03-29T07:54:19.689Z</time></trkpt><trkpt lat="42.9426255" lon="12.133887"><ele>650.1999999999999</ele><time>2026-03-29T07:54:21.695Z</time></trkpt><trkpt lat="42.9425981" lon="12.1337662"><ele>653.8</ele><time>2026-03-29T07:54:23.686Z</time></trkpt><trkpt lat="42.942588" lon="12.1336406"><ele>657.4</ele><time>2026-03-29T07:54:25.685Z</time></trkpt><trkpt lat="42.9425708" lon="12.1334913"><ele>661.0</ele><time>2026-03-29T07:54:27.69Z</time></trkpt><trkpt lat="42.9425741" lon="12.1333297"><ele>664.8</ele><time>2026-03-29T07:54:29.685Z</time></trkpt><trkpt lat="42.9425968" lon="12.1331939"><ele>668.5999999999999</ele><time>2026-03-29T07:54:31.687Z</time></trkpt><trkpt lat="42.942608" lon="12.1330628"><ele>672.4</ele><time>2026-03-29T07:54:33.69Z</time></trkpt><trkpt lat="42.9426148" lon="12.1329179"><ele>676.2</ele><time>2026-03-29T07:54:35.69Z</time></trkpt><trkpt lat="42.9426222" lon="12.1328304"><ele>680.0</ele><time>2026-03-29T07:54:36.686Z</time></trkpt><trkpt lat="42.9426588" lon="12.1326879"><ele>680.0</ele><time>2026-03-29T07:54:38.689Z</time></trkpt><trkpt lat="42.9427347" lon="12.132597"><ele>680.0</ele><time>2026-03-29T07:54:40.69Z</time></trkpt><trkpt lat="42.9428233" lon="12.1325409"><ele>680.0</ele><time>2026-03-29T07:54:42.687Z</time></trkpt><trkpt lat="42.9429571" lon="12.1324931"><ele>680.0</ele><time>2026-03-29T07:54:44.686Z</time></trkpt><trkpt lat="42.9430347" lon="12.1324832"><ele>680.0</ele><time>2026-03-29T07:54:45.686Z</time></trkpt><trkpt lat="42.9430988" lon="12.1324664"><ele>681.0</ele><time>2026-03-29T07:54:46.687Z</time></trkpt><trkpt lat="42.9431828" lon="12.1323889"><ele>682.0</ele><time>2026-03-29T07:54:48.693Z</time></trkpt><trkpt lat="42.943271" lon="12.132264"><ele>683.0</ele><time>2026-03-29T07:54:50.689Z</time></trkpt><trkpt lat="42.943335" lon="12.132206"><ele>684.0</ele><time>2026-03-29T07:54:51.685Z</time></trkpt><trkpt lat="42.9433997" lon="12.1321668"><ele>685.0</ele><time>2026-03-29T07:54:52.687Z</time></trkpt><trkpt lat="42.9434668" lon="12.1321331"><ele>686.0</ele><time>2026-03-29T07:54:53.686Z</time></trkpt><trkpt lat="42.9435321" lon="12.1320883"><ele>686.0</ele><time>2026-03-29T07:54:54.686Z</time></trkpt><trkpt lat="42.9436058" lon="12.1320294"><ele>686.0</ele><time>2026-03-29T07:54:55.689Z</time></trkpt><trkpt lat="42.9436771" lon="12.1319665"><ele>686.0</ele><time>2026-03-29T07:54:56.696Z</time></trkpt><trkpt lat="42.9437399" lon="12.1319106"><ele>686.0</ele><time>2026-03-29T07:54:57.698Z</time></trkpt><trkpt lat="42.9438039" lon="12.1318539"><ele>686.0</ele><time>2026-03-29T07:54:58.688Z</time></trkpt><trkpt lat="42.9438681" lon="12.1318066"><ele>686.0</ele><time>2026-03-29T07:54:59.688Z</time></trkpt><trkpt lat="42.9439699" lon="12.1317292"><ele>686.0</ele><time>2026-03-29T07:55:01.689Z</time></trkpt><trkpt lat="42.9440572" lon="12.1316326"><ele>686.0</ele><time>2026-03-29T07:55:03.692Z</time></trkpt><trkpt lat="42.9441299" lon="12.1315558"><ele>686.0</ele><time>2026-03-29T07:55:05.694Z</time></trkpt><trkpt lat="42.9442316" lon="12.1314721"><ele>686.0</ele><time>2026-03-29T07:55:07.69Z</time></trkpt><trkpt lat="42.9443006" lon="12.1314143"><ele>686.0</ele><time>2026-03-29T07:55:08.688Z</time></trkpt><trkpt lat="42.9443587" lon="12.1313545"><ele>685.4</ele><time>2026-03-29T07:55:09.692Z</time></trkpt><trkpt lat="42.9444403" lon="12.131259"><ele>684.8</ele><time>2026-03-29T07:55:11.689Z</time></trkpt><trkpt lat="42.9445539" lon="12.131192"><ele>684.1999999999999</ele><time>2026-03-29T07:55:13.69Z</time></trkpt><trkpt lat="42.9446744" lon="12.1311115"><ele>683.5999999999999</ele><time>2026-03-29T07:55:15.687Z</time></trkpt><trkpt lat="42.9447372" lon="12.1310444"><ele>683.0</ele><time>2026-03-29T07:55:16.689Z</time></trkpt><trkpt lat="42.9448007" lon="12.1309553"><ele>683.0</ele><time>2026-03-29T07:55:17.687Z</time></trkpt><trkpt lat="42.9448852" lon="12.1308504"><ele>683.0</ele><time>2026-03-29T07:55:18.689Z</time></trkpt><trkpt lat="42.9449773" lon="12.130741"><ele>683.0</ele><time>2026-03-29T07:55:19.69Z</time></trkpt><trkpt lat="42.9450602" lon="12.1306406"><ele>683.0</ele><time>2026-03-29T07:55:20.687Z</time></trkpt><trkpt lat="42.9451241" lon="12.1305455"><ele>683.0</ele><time>2026-03-29T07:55:21.695Z</time></trkpt><trkpt lat="42.9451888" lon="12.1304598"><ele>684.6666666666666</ele><time>2026-03-29T07:55:22.691Z</time></trkpt><trkpt lat="42.945259" lon="12.1303911"><ele>686.3333333333333</ele><time>2026-03-29T07:55:23.686Z</time></trkpt><trkpt lat="42.9453163" lon="12.1303392"><ele>688.0</ele><time>2026-03-29T07:55:24.695Z</time></trkpt><trkpt lat="42.9453868" lon="12.1302319"><ele>689.6666666666666</ele><time>2026-03-29T07:55:26.688Z</time></trkpt><trkpt lat="42.9454165" lon="12.1301386"><ele>691.3333333333334</ele><time>2026-03-29T07:55:28.69Z</time></trkpt><trkpt lat="42.9454385" lon="12.1300487"><ele>693.0</ele><time>2026-03-29T07:55:30.692Z</time></trkpt><trkpt lat="42.9454807" lon="12.1299644"><ele>695.5999999999999</ele><time>2026-03-29T07:55:32.686Z</time></trkpt><trkpt lat="42.945548" lon="12.129881"><ele>698.1999999999999</ele><time>2026-03-29T07:55:34.686Z</time></trkpt><trkpt lat="42.9456355" lon="12.1298366"><ele>700.8</ele><time>2026-03-29T07:55:36.694Z</time></trkpt><trkpt lat="42.9456993" lon="12.1297722"><ele>703.4</ele><time>2026-03-29T07:55:38.686Z</time></trkpt><trkpt lat="42.9457399" lon="12.1296233"><ele>706.0</ele><time>2026-03-29T07:55:40.686Z</time></trkpt><trkpt lat="42.9457402" lon="12.129488"><ele>706.0</ele><time>2026-03-29T07:55:42.688Z</time></trkpt><trkpt lat="42.9457057" lon="12.1293756"><ele>706.0</ele><time>2026-03-29T07:55:44.687Z</time></trkpt><trkpt lat="42.9456572" lon="12.1292483"><ele>706.0</ele><time>2026-03-29T07:55:46.696Z</time></trkpt><trkpt lat="42.9456071" lon="12.1290991"><ele>706.0</ele><time>2026-03-29T07:55:48.689Z</time></trkpt><trkpt lat="42.9455659" lon="12.1289486"><ele>706.0</ele><time>2026-03-29T07:55:50.687Z</time></trkpt><trkpt lat="42.9455748" lon="12.1287787"><ele>706.7142857142857</ele><time>2026-03-29T07:55:52.69Z</time></trkpt><trkpt lat="42.9455897" lon="12.128694"><ele>707.4285714285714</ele><time>2026-03-29T07:55:53.689Z</time></trkpt><trkpt lat="42.9456116" lon="12.1286088"><ele>708.1428571428571</ele><time>2026-03-29T07:55:54.718Z</time></trkpt><trkpt lat="42.9456413" lon="12.1285206"><ele>708.8571428571429</ele><time>2026-03-29T07:55:55.687Z</time></trkpt><trkpt lat="42.9456832" lon="12.1284239"><ele>709.5714285714286</ele><time>2026-03-29T07:55:56.688Z</time></trkpt><trkpt lat="42.9457285" lon="12.128333"><ele>710.2857142857143</ele><time>2026-03-29T07:55:57.689Z</time></trkpt><trkpt lat="42.9457751" lon="12.1282544"><ele>711.0</ele><time>2026-03-29T07:55:58.688Z</time></trkpt><trkpt lat="42.945821" lon="12.1281794"><ele>711.1999999999999</ele><time>2026-03-29T07:55:59.69Z</time></trkpt><trkpt lat="42.9458612" lon="12.1280727"><ele>711.4</ele><time>2026-03-29T07:56:00.696Z</time></trkpt><trkpt lat="42.9458968" lon="12.1279299"><ele>711.6</ele><time>2026-03-29T07:56:01.693Z</time></trkpt><trkpt lat="42.9459231" lon="12.1277953"><ele>711.8</ele><time>2026-03-29T07:56:02.688Z</time></trkpt><trkpt lat="42.9459478" lon="12.127692"><ele>712.0</ele><time>2026-03-29T07:56:03.687Z</time></trkpt><trkpt lat="42.9459671" lon="12.1275469"><ele>710.8333333333334</ele><time>2026-03-29T07:56:05.688Z</time></trkpt><trkpt lat="42.9459546" lon="12.1273991"><ele>709.6666666666667</ele><time>2026-03-29T07:56:07.69Z</time></trkpt><trkpt lat="42.9459455" lon="12.1273099"><ele>708.5</ele><time>2026-03-29T07:56:08.686Z</time></trkpt><trkpt lat="42.9459365" lon="12.1272209"><ele>707.3333333333334</ele><time>2026-03-29T07:56:09.688Z</time></trkpt><trkpt lat="42.9459215" lon="12.127119"><ele>706.1666666666666</ele><time>2026-03-29T07:56:10.689Z</time></trkpt><trkpt lat="42.9458993" lon="12.127016"><ele>705.0</ele><time>2026-03-29T07:56:11.684Z</time></trkpt><trkpt lat="42.9458893" lon="12.1269251"><ele>707.3333333333334</ele><time>2026-03-29T07:56:12.688Z</time></trkpt><trkpt lat="42.9458935" lon="12.1268384"><ele>709.6666666666666</ele><time>2026-03-29T07:56:13.687Z</time></trkpt><trkpt lat="42.9458928" lon="12.1266862"><ele>712.0</ele><time>2026-03-29T07:56:15.707Z</time></trkpt><trkpt lat="42.9458758" lon="12.1265601"><ele>714.3333333333333</ele><time>2026-03-29T07:56:17.691Z</time></trkpt><trkpt lat="42.9459038" lon="12.1264461"><ele>716.6666666666666</ele><time>2026-03-29T07:56:19.689Z</time></trkpt><trkpt lat="42.9459535" lon="12.1263615"><ele>719.0</ele><time>2026-03-29T07:56:21.687Z</time></trkpt><trkpt lat="42.9459749" lon="12.1262667"><ele>720.7142857142857</ele><time>2026-03-29T07:56:23.689Z</time></trkpt><trkpt lat="42.9459885" lon="12.1261821"><ele>722.4285714285714</ele><time>2026-03-29T07:56:25.693Z</time></trkpt><trkpt lat="42.9460527" lon="12.1261817"><ele>724.1428571428571</ele><time>2026-03-29T07:56:29.69Z</time></trkpt><trkpt lat="42.9460667" lon="12.1262751"><ele>725.8571428571429</ele><time>2026-03-29T07:57:28.686Z</time></trkpt><trkpt lat="42.9461406" lon="12.1263028"><ele>727.5714285714286</ele><time>2026-03-29T07:57:32.688Z</time></trkpt><trkpt lat="42.9461946" lon="12.1263568"><ele>729.2857142857142</ele><time>2026-03-29T07:57:35.688Z</time></trkpt><trkpt lat="42.9462719" lon="12.126332"><ele>731.0</ele><time>2026-03-29T07:57:39.689Z</time></trkpt><trkpt lat="42.9463259" lon="12.1262333"><ele>731.0</ele><time>2026-03-29T07:57:42.699Z</time></trkpt><trkpt lat="42.9463726" lon="12.126132"><ele>731.0</ele><time>2026-03-29T07:57:44.689Z</time></trkpt><trkpt lat="42.9464321" lon="12.1259902"><ele>731.0</ele><time>2026-03-29T07:57:46.69Z</time></trkpt><trkpt lat="42.9465082" lon="12.1258828"><ele>731.0</ele><time>2026-03-29T07:57:48.689Z</time></trkpt><trkpt lat="42.9465891" lon="12.1258718"><ele>731.0</ele><time>2026-03-29T07:57:50.687Z</time></trkpt><trkpt lat="42.9466708" lon="12.1257976"><ele>733.5999999999999</ele><time>2026-03-29T07:57:53.688Z</time></trkpt><trkpt lat="42.9467179" lon="12.1256947"><ele>736.2</ele><time>2026-03-29T07:57:55.72Z</time></trkpt><trkpt lat="42.9467875" lon="12.1256118"><ele>738.8</ele><time>2026-03-29T07:57:57.69Z</time></trkpt><trkpt lat="42.9468751" lon="12.1255648"><ele>741.4000000000001</ele><time>2026-03-29T07:57:59.691Z</time></trkpt><trkpt lat="42.9469727" lon="12.1255187"><ele>744.0</ele><time>2026-03-29T07:58:01.723Z</time></trkpt><trkpt lat="42.9470657" lon="12.1254719"><ele>744.0</ele><time>2026-03-29T07:58:03.688Z</time></trkpt><trkpt lat="42.9471424" lon="12.1254202"><ele>744.0</ele><time>2026-03-29T07:58:05.687Z</time></trkpt><trkpt lat="42.9472066" lon="12.1253583"><ele>744.0</ele><time>2026-03-29T07:58:07.688Z</time></trkpt><trkpt lat="42.9472601" lon="12.125282"><ele>744.0</ele><time>2026-03-29T07:58:09.72Z</time></trkpt><trkpt lat="42.9473062" lon="12.1252136"><ele>744.0</ele><time>2026-03-29T07:58:11.695Z</time></trkpt><trkpt lat="42.9473287" lon="12.1251032"><ele>744.0</ele><time>2026-03-29T07:58:14.691Z</time></trkpt><trkpt lat="42.947306" lon="12.1250108"><ele>744.0</ele><time>2026-03-29T07:58:17.69Z</time></trkpt><trkpt lat="42.9472322" lon="12.1249579"><ele>744.0</ele><time>2026-03-29T07:58:19.688Z</time></trkpt><trkpt lat="42.9471501" lon="12.1249234"><ele>744.0</ele><time>2026-03-29T07:58:21.69Z</time></trkpt><trkpt lat="42.9470852" lon="12.1248724"><ele>744.0</ele><time>2026-03-29T07:58:23.687Z</time></trkpt><trkpt lat="42.9470366" lon="12.1247642"><ele>744.0</ele><time>2026-03-29T07:58:26.688Z</time></trkpt><trkpt lat="42.9470503" lon="12.1246709"><ele>744.0</ele><time>2026-03-29T07:58:28.687Z</time></trkpt><trkpt lat="42.9471011" lon="12.1245971"><ele>747.8333333333334</ele><time>2026-03-29T07:58:30.687Z</time></trkpt><trkpt lat="42.947165" lon="12.1245061"><ele>751.6666666666666</ele><time>2026-03-29T07:58:33.692Z</time></trkpt><trkpt lat="42.9472283" lon="12.1244292"><ele>755.5</ele><time>2026-03-29T07:58:36.754Z</time></trkpt><trkpt lat="42.9472848" lon="12.1243663"><ele>759.3333333333333</ele><time>2026-03-29T07:58:38.69Z</time></trkpt><trkpt lat="42.94736" lon="12.1242934"><ele>763.1666666666666</ele><time>2026-03-29T07:58:40.691Z</time></trkpt><trkpt lat="42.9474443" lon="12.1242347"><ele>767.0</ele><time>2026-03-29T07:58:42.689Z</time></trkpt><trkpt lat="42.9475428" lon="12.1241896"><ele>767.5</ele><time>2026-03-29T07:58:44.703Z</time></trkpt><trkpt lat="42.9476382" lon="12.1241498"><ele>768.0</ele><time>2026-03-29T07:58:46.687Z</time></trkpt><trkpt lat="42.9476967" lon="12.1240657"><ele>768.5</ele><time>2026-03-29T07:58:49.691Z</time></trkpt><trkpt lat="42.9477021" lon="12.1239656"><ele>769.0</ele><time>2026-03-29T07:58:52.688Z</time></trkpt><trkpt lat="42.9476761" lon="12.1238832"><ele>769.5000000000001</ele><time>2026-03-29T07:58:54.69Z</time></trkpt><trkpt lat="42.9476026" lon="12.1237966"><ele>770.0</ele><time>2026-03-29T07:58:57.689Z</time></trkpt><trkpt lat="42.9475294" lon="12.1237377"><ele>770.0000000000001</ele><time>2026-03-29T07:58:59.692Z</time></trkpt><trkpt lat="42.9474702" lon="12.1236881"><ele>770.0</ele><time>2026-03-29T07:59:01.692Z</time></trkpt><trkpt lat="42.9473979" lon="12.1236635"><ele>770.0</ele><time>2026-03-29T07:59:03.687Z</time></trkpt><trkpt lat="42.9473134" lon="12.1236697"><ele>770.0</ele><time>2026-03-29T07:59:05.689Z</time></trkpt><trkpt lat="42.9472381" lon="12.1236731"><ele>770.0000000000001</ele><time>2026-03-29T07:59:07.688Z</time></trkpt><trkpt lat="42.9471785" lon="12.1236241"><ele>770.0</ele><time>2026-03-29T07:59:09.686Z</time></trkpt><trkpt lat="42.9471163" lon="12.1235591"><ele>770.0</ele><time>2026-03-29T07:59:12.686Z</time></trkpt><trkpt lat="42.9470474" lon="12.1236361"><ele>770.0</ele><time>2026-03-29T07:59:14.685Z</time></trkpt><trkpt lat="42.9469678" lon="12.1237202"><ele>770.0</ele><time>2026-03-29T07:59:16.718Z</time></trkpt><trkpt lat="42.9469046" lon="12.1237728"><ele>770.0</ele><time>2026-03-29T07:59:19.686Z</time></trkpt><trkpt lat="42.94685" lon="12.1237056"><ele>770.0</ele><time>2026-03-29T07:59:22.689Z</time></trkpt><trkpt lat="42.9467535" lon="12.1235848"><ele>770.0</ele><time>2026-03-29T07:59:24.691Z</time></trkpt><trkpt lat="42.9467124" lon="12.1235076"><ele>770.0</ele><time>2026-03-29T07:59:25.694Z</time></trkpt><trkpt lat="42.9466784" lon="12.123364"><ele>770.0</ele><time>2026-03-29T07:59:27.688Z</time></trkpt><trkpt lat="42.946671" lon="12.123259"><ele>770.0</ele><time>2026-03-29T07:59:29.697Z</time></trkpt><trkpt lat="42.946684" lon="12.1231718"><ele>770.0</ele><time>2026-03-29T07:59:31.688Z</time></trkpt><trkpt lat="42.9466527" lon="12.1229883"><ele>772.3333333333334</ele><time>2026-03-29T07:59:33.686Z</time></trkpt><trkpt lat="42.9466186" lon="12.1228801"><ele>774.6666666666667</ele><time>2026-03-29T07:59:34.69Z</time></trkpt><trkpt lat="42.9465738" lon="12.1227736"><ele>777.0</ele><time>2026-03-29T07:59:35.69Z</time></trkpt><trkpt lat="42.9465247" lon="12.1226707"><ele>779.3333333333333</ele><time>2026-03-29T07:59:36.69Z</time></trkpt><trkpt lat="42.9464739" lon="12.1225818"><ele>781.6666666666666</ele><time>2026-03-29T07:59:37.688Z</time></trkpt><trkpt lat="42.9464244" lon="12.1225128"><ele>784.0</ele><time>2026-03-29T07:59:38.688Z</time></trkpt><trkpt lat="42.9463515" lon="12.1224124"><ele>785.3333333333333</ele><time>2026-03-29T07:59:40.686Z</time></trkpt><trkpt lat="42.9462984" lon="12.122304"><ele>786.6666666666666</ele><time>2026-03-29T07:59:43.688Z</time></trkpt><trkpt lat="42.9462626" lon="12.1221812"><ele>788.0</ele><time>2026-03-29T07:59:45.686Z</time></trkpt><trkpt lat="42.9462347" lon="12.1220496"><ele>789.3333333333333</ele><time>2026-03-29T07:59:47.687Z</time></trkpt><trkpt lat="42.9462125" lon="12.1219548"><ele>790.6666666666666</ele><time>2026-03-29T07:59:49.691Z</time></trkpt><trkpt lat="42.9462028" lon="12.1218531"><ele>792.0</ele><time>2026-03-29T07:59:51.688Z</time></trkpt><trkpt lat="42.9462039" lon="12.121763"><ele>792.0</ele><time>2026-03-29T07:59:53.688Z</time></trkpt><trkpt lat="42.9461854" lon="12.121656"><ele>792.0</ele><time>2026-03-29T07:59:55.685Z</time></trkpt><trkpt lat="42.9461694" lon="12.1215261"><ele>792.0</ele><time>2026-03-29T07:59:57.691Z</time></trkpt><trkpt lat="42.9461299" lon="12.121368"><ele>792.0</ele><time>2026-03-29T07:59:59.687Z</time></trkpt><trkpt lat="42.9461002" lon="12.121274"><ele>792.0</ele><time>2026-03-29T08:00:00.69Z</time></trkpt><trkpt lat="42.94607" lon="12.1211722"><ele>792.8333333333334</ele><time>2026-03-29T08:00:01.687Z</time></trkpt><trkpt lat="42.9460391" lon="12.1210861"><ele>793.6666666666667</ele><time>2026-03-29T08:00:02.687Z</time></trkpt><trkpt lat="42.9459477" lon="12.1209673"><ele>794.5</ele><time>2026-03-29T08:00:04.686Z</time></trkpt><trkpt lat="42.9458857" lon="12.120924"><ele>795.3333333333334</ele><time>2026-03-29T08:00:05.687Z</time></trkpt><trkpt lat="42.9458326" lon="12.1208635"><ele>796.1666666666667</ele><time>2026-03-29T08:00:06.69Z</time></trkpt><trkpt lat="42.9457906" lon="12.1207911"><ele>797.0</ele><time>2026-03-29T08:00:07.702Z</time></trkpt><trkpt lat="42.9457565" lon="12.1206381"><ele>803.2</ele><time>2026-03-29T08:00:09.69Z</time></trkpt><trkpt lat="42.9457163" lon="12.1204824"><ele>809.4000000000001</ele><time>2026-03-29T08:00:11.691Z</time></trkpt><trkpt lat="42.9456841" lon="12.1203598"><ele>815.5999999999999</ele><time>2026-03-29T08:00:13.688Z</time></trkpt><trkpt lat="42.9456573" lon="12.1202531"><ele>821.8</ele><time>2026-03-29T08:00:15.687Z</time></trkpt><trkpt lat="42.9456429" lon="12.1200954"><ele>828.0</ele><time>2026-03-29T08:00:17.688Z</time></trkpt><trkpt lat="42.9456556" lon="12.1199753"><ele>828.8333333333334</ele><time>2026-03-29T08:00:19.687Z</time></trkpt><trkpt lat="42.9456796" lon="12.1198768"><ele>829.6666666666667</ele><time>2026-03-29T08:00:21.691Z</time></trkpt><trkpt lat="42.9457026" lon="12.1197804"><ele>830.5</ele><time>2026-03-29T08:00:23.703Z</time></trkpt><trkpt lat="42.9457126" lon="12.1196821"><ele>831.3333333333334</ele><time>2026-03-29T08:00:25.689Z</time></trkpt><trkpt lat="42.9456984" lon="12.1195895"><ele>832.1666666666667</ele><time>2026-03-29T08:00:46.686Z</time></trkpt><trkpt lat="42.9456284" lon="12.1195263"><ele>833.0</ele><time>2026-03-29T08:00:48.689Z</time></trkpt><trkpt lat="42.9455379" lon="12.1194811"><ele>833.0000000000001</ele><time>2026-03-29T08:00:50.692Z</time></trkpt><trkpt lat="42.9454396" lon="12.1194058"><ele>833.0</ele><time>2026-03-29T08:00:52.692Z</time></trkpt><trkpt lat="42.9453865" lon="12.1193582"><ele>833.0</ele><time>2026-03-29T08:00:53.689Z</time></trkpt><trkpt lat="42.9453246" lon="12.1193099"><ele>833.0</ele><time>2026-03-29T08:00:54.689Z</time></trkpt><trkpt lat="42.9452604" lon="12.1192661"><ele>833.0000000000001</ele><time>2026-03-29T08:00:55.693Z</time></trkpt><trkpt lat="42.9451997" lon="12.1192263"><ele>833.0</ele><time>2026-03-29T08:00:56.688Z</time></trkpt><trkpt lat="42.9450883" lon="12.1191582"><ele>835.0000000000001</ele><time>2026-03-29T08:00:58.698Z</time></trkpt><trkpt lat="42.945024" lon="12.1191358"><ele>837.0</ele><time>2026-03-29T08:00:59.689Z</time></trkpt><trkpt lat="42.944958" lon="12.1191211"><ele>839.0</ele><time>2026-03-29T08:01:00.692Z</time></trkpt><trkpt lat="42.9448566" lon="12.1190672"><ele>841.0</ele><time>2026-03-29T08:01:02.697Z</time></trkpt><trkpt lat="42.9448126" lon="12.1190052"><ele>843.0000000000001</ele><time>2026-03-29T08:01:03.692Z</time></trkpt><trkpt lat="42.9447625" lon="12.1189265"><ele>845.0</ele><time>2026-03-29T08:01:04.719Z</time></trkpt><trkpt lat="42.9447054" lon="12.1188391"><ele>845.0</ele><time>2026-03-29T08:01:05.688Z</time></trkpt><trkpt lat="42.9446438" lon="12.118752"><ele>845.0</ele><time>2026-03-29T08:01:06.703Z</time></trkpt><trkpt lat="42.9445851" lon="12.1186688"><ele>845.0</ele><time>2026-03-29T08:01:07.714Z</time></trkpt><trkpt lat="42.9445218" lon="12.1185826"><ele>845.0</ele><time>2026-03-29T08:01:08.693Z</time></trkpt><trkpt lat="42.9444519" lon="12.1184887"><ele>845.0</ele><time>2026-03-29T08:01:09.69Z</time></trkpt><trkpt lat="42.9443831" lon="12.1184043"><ele>845.0000000000001</ele><time>2026-03-29T08:01:10.696Z</time></trkpt><trkpt lat="42.9443172" lon="12.1183296"><ele>845.0</ele><time>2026-03-29T08:01:11.69Z</time></trkpt><trkpt lat="42.9442499" lon="12.1182509"><ele>845.0</ele><time>2026-03-29T08:01:12.696Z</time></trkpt><trkpt lat="42.9441759" lon="12.1181754"><ele>845.0</ele><time>2026-03-29T08:01:13.698Z</time></trkpt><trkpt lat="42.9441042" lon="12.1181092"><ele>845.0000000000001</ele><time>2026-03-29T08:01:14.699Z</time></trkpt><trkpt lat="42.9440319" lon="12.1180574"><ele>845.0</ele><time>2026-03-29T08:01:15.697Z</time></trkpt><trkpt lat="42.94395" lon="12.1180087"><ele>845.4</ele><time>2026-03-29T08:01:16.723Z</time></trkpt><trkpt lat="42.94387" lon="12.1179621"><ele>845.8</ele><time>2026-03-29T08:01:17.694Z</time></trkpt><trkpt lat="42.943795" lon="12.1179304"><ele>846.2</ele><time>2026-03-29T08:01:18.697Z</time></trkpt><trkpt lat="42.9437093" lon="12.1179079"><ele>846.6</ele><time>2026-03-29T08:01:19.694Z</time></trkpt><trkpt lat="42.9435932" lon="12.1178856"><ele>847.0</ele><time>2026-03-29T08:01:20.699Z</time></trkpt><trkpt lat="42.9434658" lon="12.117869"><ele>847.2</ele><time>2026-03-29T08:01:21.695Z</time></trkpt><trkpt lat="42.9433505" lon="12.1178641"><ele>847.4000000000001</ele><time>2026-03-29T08:01:22.693Z</time></trkpt><trkpt lat="42.9432433" lon="12.1178727"><ele>847.5999999999999</ele><time>2026-03-29T08:01:23.696Z</time></trkpt><trkpt lat="42.9431378" lon="12.1178892"><ele>847.8</ele><time>2026-03-29T08:01:24.755Z</time></trkpt><trkpt lat="42.943028" lon="12.1179093"><ele>848.0</ele><time>2026-03-29T08:01:25.693Z</time></trkpt><trkpt lat="42.9429242" lon="12.117928"><ele>848.0</ele><time>2026-03-29T08:01:26.693Z</time></trkpt><trkpt lat="42.9428249" lon="12.1179502"><ele>848.0</ele><time>2026-03-29T08:01:27.698Z</time></trkpt><trkpt lat="42.9427276" lon="12.117967"><ele>848.0</ele><time>2026-03-29T08:01:28.697Z</time></trkpt><trkpt lat="42.9426345" lon="12.1179865"><ele>848.0</ele><time>2026-03-29T08:01:29.687Z</time></trkpt><trkpt lat="42.9425335" lon="12.1180089"><ele>848.0</ele><time>2026-03-29T08:01:30.698Z</time></trkpt><trkpt lat="42.9424254" lon="12.1180251"><ele>847.0</ele><time>2026-03-29T08:01:31.692Z</time></trkpt><trkpt lat="42.9423155" lon="12.1180294"><ele>846.0</ele><time>2026-03-29T08:01:32.689Z</time></trkpt><trkpt lat="42.9422062" lon="12.1180177"><ele>845.0</ele><time>2026-03-29T08:01:33.692Z</time></trkpt><trkpt lat="42.9420963" lon="12.1179939"><ele>844.0</ele><time>2026-03-29T08:01:34.689Z</time></trkpt><trkpt lat="42.9419816" lon="12.1179514"><ele>844.0</ele><time>2026-03-29T08:01:35.688Z</time></trkpt><trkpt lat="42.941866" lon="12.1178821"><ele>844.0</ele><time>2026-03-29T08:01:36.691Z</time></trkpt><trkpt lat="42.9417581" lon="12.1177907"><ele>844.0</ele><time>2026-03-29T08:01:37.692Z</time></trkpt><trkpt lat="42.9416613" lon="12.1176923"><ele>844.0</ele><time>2026-03-29T08:01:38.691Z</time></trkpt><trkpt lat="42.9415736" lon="12.1176022"><ele>843.0</ele><time>2026-03-29T08:01:39.686Z</time></trkpt><trkpt lat="42.9414839" lon="12.1175243"><ele>842.0</ele><time>2026-03-29T08:01:40.693Z</time></trkpt><trkpt lat="42.9413859" lon="12.1174638"><ele>841.0</ele><time>2026-03-29T08:01:41.689Z</time></trkpt><trkpt lat="42.9412834" lon="12.1174331"><ele>840.0</ele><time>2026-03-29T08:01:42.691Z</time></trkpt><trkpt lat="42.9411787" lon="12.1174403"><ele>839.0</ele><time>2026-03-29T08:01:43.692Z</time></trkpt><trkpt lat="42.9410747" lon="12.1174701"><ele>839.0</ele><time>2026-03-29T08:01:44.688Z</time></trkpt><trkpt lat="42.9409719" lon="12.1175096"><ele>839.0</ele><time>2026-03-29T08:01:45.686Z</time></trkpt><trkpt lat="42.9408618" lon="12.1175499"><ele>839.0</ele><time>2026-03-29T08:01:46.699Z</time></trkpt><trkpt lat="42.9407536" lon="12.1175839"><ele>839.0</ele><time>2026-03-29T08:01:47.685Z</time></trkpt><trkpt lat="42.9406501" lon="12.1176136"><ele>839.0</ele><time>2026-03-29T08:01:48.688Z</time></trkpt><trkpt lat="42.9405653" lon="12.1176434"><ele>838.0000000000001</ele><time>2026-03-29T08:01:49.691Z</time></trkpt><trkpt lat="42.9404905" lon="12.1176883"><ele>837.0</ele><time>2026-03-29T08:01:50.688Z</time></trkpt><trkpt lat="42.9404242" lon="12.1177575"><ele>836.0</ele><time>2026-03-29T08:01:51.688Z</time></trkpt><trkpt lat="42.9403687" lon="12.1178346"><ele>835.0</ele><time>2026-03-29T08:01:52.568Z</time></trkpt><trkpt lat="42.9403215" lon="12.1179082"><ele>834.0000000000001</ele><time>2026-03-29T08:01:53.567Z</time></trkpt><trkpt lat="42.9402374" lon="12.1179844"><ele>833.0</ele><time>2026-03-29T08:01:55.572Z</time></trkpt><trkpt lat="42.9401726" lon="12.1180495"><ele>833.0</ele><time>2026-03-29T08:01:57.569Z</time></trkpt><trkpt lat="42.9401484" lon="12.1181714"><ele>833.0</ele><time>2026-03-29T08:01:59.569Z</time></trkpt><trkpt lat="42.9401664" lon="12.1183237"><ele>833.0</ele><time>2026-03-29T08:02:01.567Z</time></trkpt><trkpt lat="42.9402232" lon="12.1184385"><ele>833.0</ele><time>2026-03-29T08:02:03.569Z</time></trkpt><trkpt lat="42.940316" lon="12.1185255"><ele>833.0</ele><time>2026-03-29T08:02:05.567Z</time></trkpt><trkpt lat="42.9404186" lon="12.1185919"><ele>832.1666666666667</ele><time>2026-03-29T08:02:07.568Z</time></trkpt><trkpt lat="42.9405319" lon="12.118625"><ele>831.3333333333334</ele><time>2026-03-29T08:02:09.571Z</time></trkpt><trkpt lat="42.9406119" lon="12.1186479"><ele>830.5</ele><time>2026-03-29T08:02:10.564Z</time></trkpt><trkpt lat="42.9406963" lon="12.1186822"><ele>829.6666666666667</ele><time>2026-03-29T08:02:11.566Z</time></trkpt><trkpt lat="42.9407682" lon="12.1187332"><ele>828.8333333333334</ele><time>2026-03-29T08:02:12.567Z</time></trkpt><trkpt lat="42.9408312" lon="12.1187998"><ele>828.0</ele><time>2026-03-29T08:02:13.57Z</time></trkpt><trkpt lat="42.940885" lon="12.1188618"><ele>826.75</ele><time>2026-03-29T08:02:14.571Z</time></trkpt><trkpt lat="42.9409806" lon="12.1189654"><ele>825.5</ele><time>2026-03-29T08:02:16.57Z</time></trkpt><trkpt lat="42.9410566" lon="12.1190818"><ele>824.25</ele><time>2026-03-29T08:02:18.576Z</time></trkpt><trkpt lat="42.941124" lon="12.1191874"><ele>823.0</ele><time>2026-03-29T08:02:20.563Z</time></trkpt><trkpt lat="42.9412124" lon="12.1193012"><ele>823.0</ele><time>2026-03-29T08:02:22.567Z</time></trkpt><trkpt lat="42.9412632" lon="12.119366"><ele>823.0</ele><time>2026-03-29T08:02:23.567Z</time></trkpt><trkpt lat="42.9413185" lon="12.1194419"><ele>823.0</ele><time>2026-03-29T08:02:24.567Z</time></trkpt><trkpt lat="42.9413728" lon="12.1195299"><ele>823.0</ele><time>2026-03-29T08:02:25.567Z</time></trkpt><trkpt lat="42.9414084" lon="12.119613"><ele>823.0</ele><time>2026-03-29T08:02:26.568Z</time></trkpt><trkpt lat="42.9414365" lon="12.1197008"><ele>823.0</ele><time>2026-03-29T08:02:27.567Z</time></trkpt><trkpt lat="42.94144" lon="12.1197897"><ele>823.0</ele><time>2026-03-29T08:02:28.564Z</time></trkpt><trkpt lat="42.9414078" lon="12.1199479"><ele>818.6666666666666</ele><time>2026-03-29T08:02:30.568Z</time></trkpt><trkpt lat="42.9413618" lon="12.120102"><ele>814.3333333333333</ele><time>2026-03-29T08:02:32.564Z</time></trkpt><trkpt lat="42.9413485" lon="12.1201875"><ele>810.0</ele><time>2026-03-29T08:02:33.567Z</time></trkpt><trkpt lat="42.9413384" lon="12.1202749"><ele>805.6666666666667</ele><time>2026-03-29T08:02:34.567Z</time></trkpt><trkpt lat="42.9413339" lon="12.1204214"><ele>801.3333333333334</ele><time>2026-03-29T08:02:36.567Z</time></trkpt><trkpt lat="42.9413509" lon="12.120533"><ele>797.0</ele><time>2026-03-29T08:02:38.565Z</time></trkpt><trkpt lat="42.9413863" lon="12.1206681"><ele>794.6666666666667</ele><time>2026-03-29T08:02:40.567Z</time></trkpt><trkpt lat="42.9414007" lon="12.120807"><ele>792.3333333333334</ele><time>2026-03-29T08:02:42.566Z</time></trkpt><trkpt lat="42.9413768" lon="12.1209814"><ele>790.0</ele><time>2026-03-29T08:02:44.568Z</time></trkpt><trkpt lat="42.9413538" lon="12.12108"><ele>787.6666666666667</ele><time>2026-03-29T08:02:45.567Z</time></trkpt><trkpt lat="42.9413374" lon="12.1211768"><ele>785.3333333333334</ele><time>2026-03-29T08:02:46.568Z</time></trkpt><trkpt lat="42.9413261" lon="12.1212628"><ele>783.0</ele><time>2026-03-29T08:02:47.564Z</time></trkpt><trkpt lat="42.9412951" lon="12.1214022"><ele>783.0</ele><time>2026-03-29T08:02:49.568Z</time></trkpt><trkpt lat="42.9412667" lon="12.1215492"><ele>783.0</ele><time>2026-03-29T08:02:51.566Z</time></trkpt><trkpt lat="42.9412627" lon="12.1216469"><ele>783.0</ele><time>2026-03-29T08:02:52.566Z</time></trkpt><trkpt lat="42.9412599" lon="12.1217545"><ele>783.0</ele><time>2026-03-29T08:02:53.568Z</time></trkpt><trkpt lat="42.9412535" lon="12.1218589"><ele>783.0</ele><time>2026-03-29T08:02:54.567Z</time></trkpt><trkpt lat="42.9412391" lon="12.121947"><ele>783.0</ele><time>2026-03-29T08:02:55.569Z</time></trkpt><trkpt lat="42.9412049" lon="12.12209"><ele>781.0</ele><time>2026-03-29T08:02:57.556Z</time></trkpt><trkpt lat="42.9411775" lon="12.1222018"><ele>779.0</ele><time>2026-03-29T08:02:59.564Z</time></trkpt><trkpt lat="42.9411267" lon="12.1222609"><ele>777.0</ele><time>2026-03-29T08:03:01.568Z</time></trkpt><trkpt lat="42.9410395" lon="12.1223077"><ele>775.0</ele><time>2026-03-29T08:03:03.565Z</time></trkpt><trkpt lat="42.9409323" lon="12.1223047"><ele>773.0</ele><time>2026-03-29T08:03:05.569Z</time></trkpt><trkpt lat="42.9408405" lon="12.1222876"><ele>771.0</ele><time>2026-03-29T08:03:07.568Z</time></trkpt><trkpt lat="42.9407627" lon="12.1222832"><ele>769.8333333333334</ele><time>2026-03-29T08:03:09.566Z</time></trkpt><trkpt lat="42.9406847" lon="12.1222979"><ele>768.6666666666666</ele><time>2026-03-29T08:03:11.567Z</time></trkpt><trkpt lat="42.9406031" lon="12.1223135"><ele>767.5</ele><time>2026-03-29T08:03:13.564Z</time></trkpt><trkpt lat="42.9405381" lon="12.1223126"><ele>766.3333333333333</ele><time>2026-03-29T08:04:02.573Z</time></trkpt><trkpt lat="42.9404619" lon="12.122355"><ele>765.1666666666666</ele><time>2026-03-29T08:04:07.565Z</time></trkpt><trkpt lat="42.9403917" lon="12.122357"><ele>764.0</ele><time>2026-03-29T08:06:17.568Z</time></trkpt><trkpt lat="42.9403174" lon="12.1223798"><ele>764.0</ele><time>2026-03-29T08:06:20.565Z</time></trkpt><trkpt lat="42.9402327" lon="12.1223985"><ele>764.0</ele><time>2026-03-29T08:06:24.571Z</time></trkpt><trkpt lat="42.9401561" lon="12.1223942"><ele>764.0</ele><time>2026-03-29T08:06:27.567Z</time></trkpt><trkpt lat="42.9400839" lon="12.1223951"><ele>764.0</ele><time>2026-03-29T08:06:29.568Z</time></trkpt><trkpt lat="42.9400193" lon="12.1223978"><ele>764.0</ele><time>2026-03-29T08:06:31.569Z</time></trkpt><trkpt lat="42.9399332" lon="12.1224003"><ele>764.0</ele><time>2026-03-29T08:06:34.566Z</time></trkpt><trkpt lat="42.9398514" lon="12.122416"><ele>763.2</ele><time>2026-03-29T08:06:36.566Z</time></trkpt><trkpt lat="42.9397618" lon="12.1224444"><ele>762.4000000000001</ele><time>2026-03-29T08:06:38.566Z</time></trkpt><trkpt lat="42.9396327" lon="12.1224573"><ele>761.6</ele><time>2026-03-29T08:06:40.566Z</time></trkpt><trkpt lat="42.9395543" lon="12.1224667"><ele>760.8</ele><time>2026-03-29T08:06:41.568Z</time></trkpt><trkpt lat="42.9394904" lon="12.1224824"><ele>760.0</ele><time>2026-03-29T08:06:42.568Z</time></trkpt><trkpt lat="42.9393767" lon="12.1225315"><ele>760.0</ele><time>2026-03-29T08:06:44.567Z</time></trkpt><trkpt lat="42.9393129" lon="12.1225512"><ele>760.0</ele><time>2026-03-29T08:06:45.566Z</time></trkpt><trkpt lat="42.9392371" lon="12.1225791"><ele>760.0</ele><time>2026-03-29T08:06:46.566Z</time></trkpt><trkpt lat="42.9391534" lon="12.1226023"><ele>760.0</ele><time>2026-03-29T08:06:47.564Z</time></trkpt><trkpt lat="42.9390747" lon="12.1226326"><ele>760.0</ele><time>2026-03-29T08:06:48.567Z</time></trkpt><trkpt lat="42.939011" lon="12.1226602"><ele>760.0</ele><time>2026-03-29T08:06:49.574Z</time></trkpt><trkpt lat="42.938923" lon="12.1227221"><ele>759.1666666666667</ele><time>2026-03-29T08:06:51.568Z</time></trkpt><trkpt lat="42.938848" lon="12.122777"><ele>758.3333333333334</ele><time>2026-03-29T08:06:53.567Z</time></trkpt><trkpt lat="42.9387694" lon="12.1228586"><ele>757.5</ele><time>2026-03-29T08:06:55.577Z</time></trkpt><trkpt lat="42.9387191" lon="12.1229181"><ele>756.6666666666666</ele><time>2026-03-29T08:06:56.567Z</time></trkpt><trkpt lat="42.9386653" lon="12.1229657"><ele>755.8333333333333</ele><time>2026-03-29T08:06:57.564Z</time></trkpt><trkpt lat="42.9385635" lon="12.1230103"><ele>755.0</ele><time>2026-03-29T08:06:59.572Z</time></trkpt><trkpt lat="42.9384827" lon="12.1230315"><ele>755.0</ele><time>2026-03-29T08:07:01.568Z</time></trkpt><trkpt lat="42.9383923" lon="12.1230218"><ele>755.0</ele><time>2026-03-29T08:07:04.567Z</time></trkpt><trkpt lat="42.9383159" lon="12.1230808"><ele>755.0</ele><time>2026-03-29T08:07:07.569Z</time></trkpt><trkpt lat="42.9382378" lon="12.1231587"><ele>755.0</ele><time>2026-03-29T08:07:09.575Z</time></trkpt><trkpt lat="42.9381688" lon="12.1231758"><ele>755.0</ele><time>2026-03-29T08:07:10.567Z</time></trkpt><trkpt lat="42.9380789" lon="12.1231772"><ele>755.0</ele><time>2026-03-29T08:07:11.569Z</time></trkpt><trkpt lat="42.9379784" lon="12.1231783"><ele>755.5</ele><time>2026-03-29T08:07:12.566Z</time></trkpt><trkpt lat="42.9378845" lon="12.1231874"><ele>756.0</ele><time>2026-03-29T08:07:13.595Z</time></trkpt><trkpt lat="42.9377901" lon="12.1232078"><ele>756.5</ele><time>2026-03-29T08:07:14.595Z</time></trkpt><trkpt lat="42.937703" lon="12.123235"><ele>757.0</ele><time>2026-03-29T08:07:15.599Z</time></trkpt><trkpt lat="42.9376269" lon="12.123276"><ele>757.5</ele><time>2026-03-29T08:07:16.565Z</time></trkpt><trkpt lat="42.9375552" lon="12.123326"><ele>758.0</ele><time>2026-03-29T08:07:17.563Z</time></trkpt><trkpt lat="42.9374848" lon="12.1233707"><ele>756.6666666666666</ele><time>2026-03-29T08:07:18.563Z</time></trkpt><trkpt lat="42.9374123" lon="12.1234066"><ele>755.3333333333333</ele><time>2026-03-29T08:07:19.565Z</time></trkpt><trkpt lat="42.9373382" lon="12.1234345"><ele>754.0</ele><time>2026-03-29T08:07:20.566Z</time></trkpt><trkpt lat="42.937267" lon="12.1234755"><ele>752.6666666666666</ele><time>2026-03-29T08:07:21.568Z</time></trkpt><trkpt lat="42.9371967" lon="12.1235349"><ele>751.3333333333334</ele><time>2026-03-29T08:07:22.565Z</time></trkpt><trkpt lat="42.9371383" lon="12.123599"><ele>750.0</ele><time>2026-03-29T08:07:23.593Z</time></trkpt><trkpt lat="42.937091" lon="12.1236739"><ele>750.0</ele><time>2026-03-29T08:07:24.566Z</time></trkpt><trkpt lat="42.937055" lon="12.1237471"><ele>750.0</ele><time>2026-03-29T08:07:25.568Z</time></trkpt><trkpt lat="42.9370076" lon="12.1238455"><ele>750.0</ele><time>2026-03-29T08:07:27.567Z</time></trkpt><trkpt lat="42.9369509" lon="12.1238955"><ele>750.0</ele><time>2026-03-29T08:07:29.565Z</time></trkpt><trkpt lat="42.9368859" lon="12.1239784"><ele>750.0</ele><time>2026-03-29T08:07:31.569Z</time></trkpt><trkpt lat="42.9368432" lon="12.1240418"><ele>750.0</ele><time>2026-03-29T08:07:32.564Z</time></trkpt><trkpt lat="42.9367914" lon="12.1241146"><ele>750.0</ele><time>2026-03-29T08:07:33.571Z</time></trkpt><trkpt lat="42.9367433" lon="12.1241889"><ele>749.8333333333334</ele><time>2026-03-29T08:07:34.567Z</time></trkpt><trkpt lat="42.9366943" lon="12.1242534"><ele>749.6666666666666</ele><time>2026-03-29T08:07:35.566Z</time></trkpt><trkpt lat="42.9366107" lon="12.1243485"><ele>749.5</ele><time>2026-03-29T08:07:37.569Z</time></trkpt><trkpt lat="42.93649" lon="12.1243779"><ele>749.3333333333333</ele><time>2026-03-29T08:07:39.568Z</time></trkpt><trkpt lat="42.9364125" lon="12.124397"><ele>749.1666666666666</ele><time>2026-03-29T08:07:40.569Z</time></trkpt><trkpt lat="42.9363434" lon="12.1244161"><ele>749.0</ele><time>2026-03-29T08:07:41.566Z</time></trkpt><trkpt lat="42.9362418" lon="12.1244725"><ele>749.0</ele><time>2026-03-29T08:07:43.565Z</time></trkpt><trkpt lat="42.9361678" lon="12.1245003"><ele>749.0</ele><time>2026-03-29T08:07:45.569Z</time></trkpt><trkpt lat="42.9361077" lon="12.124547"><ele>749.0</ele><time>2026-03-29T08:07:49.567Z</time></trkpt><trkpt lat="42.9360065" lon="12.1245887"><ele>749.0</ele><time>2026-03-29T08:07:52.601Z</time></trkpt><trkpt lat="42.9358953" lon="12.1246615"><ele>749.0</ele><time>2026-03-29T08:07:54.565Z</time></trkpt><trkpt lat="42.9357817" lon="12.1246971"><ele>749.2857142857143</ele><time>2026-03-29T08:07:56.566Z</time></trkpt><trkpt lat="42.9357196" lon="12.1247146"><ele>749.5714285714286</ele><time>2026-03-29T08:07:57.565Z</time></trkpt><trkpt lat="42.93566" lon="12.1247506"><ele>749.8571428571429</ele><time>2026-03-29T08:07:58.567Z</time></trkpt><trkpt lat="42.9356017" lon="12.1248071"><ele>750.1428571428571</ele><time>2026-03-29T08:07:59.564Z</time></trkpt><trkpt lat="42.9355397" lon="12.124878"><ele>750.4285714285714</ele><time>2026-03-29T08:08:00.565Z</time></trkpt><trkpt lat="42.9354799" lon="12.1249385"><ele>750.7142857142858</ele><time>2026-03-29T08:08:01.57Z</time></trkpt><trkpt lat="42.9354039" lon="12.1249998"><ele>751.0</ele><time>2026-03-29T08:08:03.566Z</time></trkpt><trkpt lat="42.9353105" lon="12.1249807"><ele>751.0</ele><time>2026-03-29T08:08:05.566Z</time></trkpt><trkpt lat="42.9352496" lon="12.1249575"><ele>751.0</ele><time>2026-03-29T08:08:06.568Z</time></trkpt><trkpt lat="42.935138" lon="12.1249148"><ele>751.0</ele><time>2026-03-29T08:08:08.57Z</time></trkpt><trkpt lat="42.9350377" lon="12.1248721"><ele>751.0</ele><time>2026-03-29T08:08:10.573Z</time></trkpt><trkpt lat="42.9349569" lon="12.1248171"><ele>751.0</ele><time>2026-03-29T08:08:12.567Z</time></trkpt><trkpt lat="42.934868" lon="12.1247446"><ele>748.6666666666667</ele><time>2026-03-29T08:08:14.566Z</time></trkpt><trkpt lat="42.9347692" lon="12.1246642"><ele>746.3333333333334</ele><time>2026-03-29T08:08:16.576Z</time></trkpt><trkpt lat="42.9347063" lon="12.1246168"><ele>744.0</ele><time>2026-03-29T08:08:17.576Z</time></trkpt><trkpt lat="42.934635" lon="12.1245739"><ele>741.6666666666666</ele><time>2026-03-29T08:08:18.573Z</time></trkpt><trkpt lat="42.9345655" lon="12.1245419"><ele>739.3333333333333</ele><time>2026-03-29T08:08:19.565Z</time></trkpt><trkpt lat="42.9344976" lon="12.124513"><ele>737.0</ele><time>2026-03-29T08:08:20.57Z</time></trkpt><trkpt lat="42.934441" lon="12.1244732"><ele>737.0</ele><time>2026-03-29T08:08:21.569Z</time></trkpt><trkpt lat="42.9343488" lon="12.124367"><ele>737.0</ele><time>2026-03-29T08:08:23.597Z</time></trkpt><trkpt lat="42.9342262" lon="12.1242873"><ele>737.0</ele><time>2026-03-29T08:08:25.568Z</time></trkpt><trkpt lat="42.9341572" lon="12.1242464"><ele>737.0</ele><time>2026-03-29T08:08:26.569Z</time></trkpt><trkpt lat="42.934094" lon="12.1242101"><ele>737.0</ele><time>2026-03-29T08:08:27.577Z</time></trkpt><trkpt lat="42.933994" lon="12.1241299"><ele>734.0</ele><time>2026-03-29T08:08:29.569Z</time></trkpt><trkpt lat="42.9338988" lon="12.1240322"><ele>731.0</ele><time>2026-03-29T08:08:31.569Z</time></trkpt><trkpt lat="42.9337949" lon="12.1239634"><ele>728.0</ele><time>2026-03-29T08:08:33.565Z</time></trkpt><trkpt lat="42.9336996" lon="12.1239551"><ele>725.0</ele><time>2026-03-29T08:08:35.565Z</time></trkpt><trkpt lat="42.9336332" lon="12.1239693"><ele>722.0</ele><time>2026-03-29T08:08:37.567Z</time></trkpt><trkpt lat="42.933569" lon="12.123996"><ele>722.0</ele><time>2026-03-29T08:08:48.567Z</time></trkpt><trkpt lat="42.9335117" lon="12.1239519"><ele>722.0</ele><time>2026-03-29T08:08:50.566Z</time></trkpt><trkpt lat="42.9334175" lon="12.1238924"><ele>722.0</ele><time>2026-03-29T08:08:52.568Z</time></trkpt><trkpt lat="42.9333142" lon="12.1238522"><ele>722.0</ele><time>2026-03-29T08:08:54.565Z</time></trkpt><trkpt lat="42.933234" lon="12.1238522"><ele>722.0</ele><time>2026-03-29T08:08:56.57Z</time></trkpt><trkpt lat="42.9331553" lon="12.1238746"><ele>722.0</ele><time>2026-03-29T08:08:58.565Z</time></trkpt><trkpt lat="42.933067" lon="12.1239323"><ele>722.2</ele><time>2026-03-29T08:09:00.563Z</time></trkpt><trkpt lat="42.9329852" lon="12.1240589"><ele>722.4000000000001</ele><time>2026-03-29T08:09:02.565Z</time></trkpt><trkpt lat="42.9329011" lon="12.1241089"><ele>722.5999999999999</ele><time>2026-03-29T08:09:04.563Z</time></trkpt><trkpt lat="42.93283" lon="12.1240596"><ele>722.8</ele><time>2026-03-29T08:09:06.565Z</time></trkpt><trkpt lat="42.9327589" lon="12.1239654"><ele>723.0</ele><time>2026-03-29T08:09:08.568Z</time></trkpt><trkpt lat="42.9327007" lon="12.123912"><ele>722.4285714285714</ele><time>2026-03-29T08:09:10.562Z</time></trkpt><trkpt lat="42.9326338" lon="12.123874"><ele>721.8571428571429</ele><time>2026-03-29T08:09:13.568Z</time></trkpt><trkpt lat="42.9325501" lon="12.1238816"><ele>721.2857142857142</ele><time>2026-03-29T08:09:16.561Z</time></trkpt><trkpt lat="42.9324677" lon="12.1238798"><ele>720.7142857142858</ele><time>2026-03-29T08:09:18.565Z</time></trkpt><trkpt lat="42.9324012" lon="12.1238648"><ele>720.1428571428571</ele><time>2026-03-29T08:09:20.579Z</time></trkpt><trkpt lat="42.9323338" lon="12.1238406"><ele>719.5714285714286</ele><time>2026-03-29T08:09:22.563Z</time></trkpt><trkpt lat="42.9322666" lon="12.1238145"><ele>719.0</ele><time>2026-03-29T08:09:24.594Z</time></trkpt><trkpt lat="42.9322021" lon="12.1237756"><ele>716.1666666666666</ele><time>2026-03-29T08:09:26.568Z</time></trkpt><trkpt lat="42.9321346" lon="12.1237216"><ele>713.3333333333333</ele><time>2026-03-29T08:09:28.571Z</time></trkpt><trkpt lat="42.9320781" lon="12.1236695"><ele>710.5</ele><time>2026-03-29T08:09:30.566Z</time></trkpt><trkpt lat="42.9320119" lon="12.1235989"><ele>707.6666666666666</ele><time>2026-03-29T08:09:33.582Z</time></trkpt><trkpt lat="42.931951" lon="12.123546"><ele>704.8333333333334</ele><time>2026-03-29T08:09:35.564Z</time></trkpt><trkpt lat="42.9318794" lon="12.1234663"><ele>702.0</ele><time>2026-03-29T08:09:37.568Z</time></trkpt><trkpt lat="42.9318254" lon="12.1233845"><ele>702.0</ele><time>2026-03-29T08:09:40.569Z</time></trkpt><trkpt lat="42.9317675" lon="12.1232945"><ele>702.0</ele><time>2026-03-29T08:09:43.569Z</time></trkpt><trkpt lat="42.9317175" lon="12.1231979"><ele>702.0</ele><time>2026-03-29T08:09:45.566Z</time></trkpt><trkpt lat="42.9316815" lon="12.1230874"><ele>702.0</ele><time>2026-03-29T08:09:47.572Z</time></trkpt><trkpt lat="42.9316573" lon="12.1229691"><ele>702.0</ele><time>2026-03-29T08:09:49.565Z</time></trkpt><trkpt lat="42.9316413" lon="12.1228524"><ele>702.0</ele><time>2026-03-29T08:09:51.566Z</time></trkpt><trkpt lat="42.9316389" lon="12.1227263"><ele>697.5</ele><time>2026-03-29T08:09:53.57Z</time></trkpt><trkpt lat="42.9316334" lon="12.1226019"><ele>693.0</ele><time>2026-03-29T08:09:55.565Z</time></trkpt><trkpt lat="42.9316076" lon="12.122495"><ele>688.5</ele><time>2026-03-29T08:09:57.569Z</time></trkpt><trkpt lat="42.9315604" lon="12.1223923"><ele>684.0</ele><time>2026-03-29T08:09:59.568Z</time></trkpt><trkpt lat="42.9314975" lon="12.122297"><ele>679.5</ele><time>2026-03-29T08:10:01.57Z</time></trkpt><trkpt lat="42.931433" lon="12.1222488"><ele>675.0</ele><time>2026-03-29T08:10:03.567Z</time></trkpt><trkpt lat="42.9313625" lon="12.1223612"><ele>675.0</ele><time>2026-03-29T08:10:06.567Z</time></trkpt><trkpt lat="42.931333" lon="12.1224403"><ele>675.0</ele><time>2026-03-29T08:10:07.569Z</time></trkpt><trkpt lat="42.9312917" lon="12.1225186"><ele>675.0</ele><time>2026-03-29T08:10:08.567Z</time></trkpt><trkpt lat="42.9312472" lon="12.1225914"><ele>675.0</ele><time>2026-03-29T08:10:09.6Z</time></trkpt><trkpt lat="42.9312024" lon="12.1226611"><ele>675.0</ele><time>2026-03-29T08:10:10.57Z</time></trkpt><trkpt lat="42.9311258" lon="12.1227783"><ele>675.0</ele><time>2026-03-29T08:10:12.567Z</time></trkpt><trkpt lat="42.9310686" lon="12.1228754"><ele>675.0</ele><time>2026-03-29T08:10:14.566Z</time></trkpt><trkpt lat="42.9310097" lon="12.1229615"><ele>675.0</ele><time>2026-03-29T08:10:16.597Z</time></trkpt><trkpt lat="42.9309466" lon="12.1230272"><ele>675.0</ele><time>2026-03-29T08:10:18.592Z</time></trkpt><trkpt lat="42.9308548" lon="12.1230711"><ele>675.0</ele><time>2026-03-29T08:10:20.564Z</time></trkpt><trkpt lat="42.9307719" lon="12.1231213"><ele>675.0</ele><time>2026-03-29T08:10:22.565Z</time></trkpt><trkpt lat="42.9307245" lon="12.123187"><ele>675.0</ele><time>2026-03-29T08:10:24.57Z</time></trkpt><trkpt lat="42.9306937" lon="12.1232694"><ele>672.8</ele><time>2026-03-29T08:10:26.568Z</time></trkpt><trkpt lat="42.9306335" lon="12.12336"><ele>670.6</ele><time>2026-03-29T08:10:28.565Z</time></trkpt><trkpt lat="42.9305449" lon="12.1234327"><ele>668.4000000000001</ele><time>2026-03-29T08:10:30.569Z</time></trkpt><trkpt lat="42.930451" lon="12.1234311"><ele>666.2</ele><time>2026-03-29T08:10:32.565Z</time></trkpt><trkpt lat="42.9303692" lon="12.1233504"><ele>664.0</ele><time>2026-03-29T08:10:34.57Z</time></trkpt><trkpt lat="42.9303167" lon="12.1232668"><ele>663.1666666666667</ele><time>2026-03-29T08:10:36.562Z</time></trkpt><trkpt lat="42.9302799" lon="12.1231937"><ele>662.3333333333334</ele><time>2026-03-29T08:10:38.566Z</time></trkpt><trkpt lat="42.9302615" lon="12.1230999"><ele>661.5</ele><time>2026-03-29T08:10:40.566Z</time></trkpt><trkpt lat="42.9302451" lon="12.1229947"><ele>660.6666666666666</ele><time>2026-03-29T08:10:42.563Z</time></trkpt><trkpt lat="42.9301991" lon="12.1229072"><ele>659.8333333333333</ele><time>2026-03-29T08:10:44.569Z</time></trkpt><trkpt lat="42.9301185" lon="12.1228192"><ele>659.0</ele><time>2026-03-29T08:10:46.564Z</time></trkpt><trkpt lat="42.930027" lon="12.1227292"><ele>656.5</ele><time>2026-03-29T08:10:48.564Z</time></trkpt><trkpt lat="42.9299524" lon="12.1226552"><ele>654.0</ele><time>2026-03-29T08:10:50.563Z</time></trkpt><trkpt lat="42.9298871" lon="12.122595"><ele>651.5</ele><time>2026-03-29T08:10:52.563Z</time></trkpt><trkpt lat="42.9298102" lon="12.1225798"><ele>649.0</ele><time>2026-03-29T08:10:54.563Z</time></trkpt><trkpt lat="42.9297191" lon="12.1225929"><ele>646.5</ele><time>2026-03-29T08:10:56.561Z</time></trkpt><trkpt lat="42.9296393" lon="12.1225897"><ele>644.0</ele><time>2026-03-29T08:10:58.563Z</time></trkpt><trkpt lat="42.9295281" lon="12.122549"><ele>644.0</ele><time>2026-03-29T08:11:00.569Z</time></trkpt><trkpt lat="42.9294607" lon="12.1225096"><ele>644.0</ele><time>2026-03-29T08:11:01.566Z</time></trkpt><trkpt lat="42.9293918" lon="12.1224619"><ele>644.0</ele><time>2026-03-29T08:11:02.563Z</time></trkpt><trkpt lat="42.9293209" lon="12.1224131"><ele>644.0</ele><time>2026-03-29T08:11:03.561Z</time></trkpt><trkpt lat="42.9292475" lon="12.1223675"><ele>644.0</ele><time>2026-03-29T08:11:04.567Z</time></trkpt><trkpt lat="42.9291685" lon="12.122335"><ele>644.0</ele><time>2026-03-29T08:11:05.562Z</time></trkpt><trkpt lat="42.9290894" lon="12.122326"><ele>640.8333333333333</ele><time>2026-03-29T08:11:06.563Z</time></trkpt><trkpt lat="42.929015" lon="12.1223354"><ele>637.6666666666666</ele><time>2026-03-29T08:11:07.562Z</time></trkpt><trkpt lat="42.928949" lon="12.1223505"><ele>634.5</ele><time>2026-03-29T08:11:08.563Z</time></trkpt><trkpt lat="42.9288775" lon="12.1223663"><ele>631.3333333333334</ele><time>2026-03-29T08:11:09.562Z</time></trkpt><trkpt lat="42.9288052" lon="12.1223769"><ele>628.1666666666667</ele><time>2026-03-29T08:11:10.563Z</time></trkpt><trkpt lat="42.928741" lon="12.1223733"><ele>625.0</ele><time>2026-03-29T08:11:11.577Z</time></trkpt><trkpt lat="42.9286239" lon="12.1223609"><ele>625.0</ele><time>2026-03-29T08:11:13.563Z</time></trkpt><trkpt lat="42.9285215" lon="12.1223603"><ele>625.0</ele><time>2026-03-29T08:11:15.564Z</time></trkpt><trkpt lat="42.9284299" lon="12.1223535"><ele>625.0</ele><time>2026-03-29T08:11:17.566Z</time></trkpt><trkpt lat="42.9283346" lon="12.1223647"><ele>625.0</ele><time>2026-03-29T08:11:19.564Z</time></trkpt><trkpt lat="42.9282234" lon="12.122361"><ele>625.0</ele><time>2026-03-29T08:11:21.564Z</time></trkpt><trkpt lat="42.9280997" lon="12.1223399"><ele>623.6</ele><time>2026-03-29T08:11:23.567Z</time></trkpt><trkpt lat="42.9279897" lon="12.1223067"><ele>622.2</ele><time>2026-03-29T08:11:25.599Z</time></trkpt><trkpt lat="42.9278769" lon="12.1222822"><ele>620.8</ele><time>2026-03-29T08:11:27.565Z</time></trkpt><trkpt lat="42.9277927" lon="12.1222546"><ele>619.4</ele><time>2026-03-29T08:11:29.564Z</time></trkpt><trkpt lat="42.9277005" lon="12.1222217"><ele>618.0</ele><time>2026-03-29T08:11:31.596Z</time></trkpt><trkpt lat="42.9275934" lon="12.1221163"><ele>615.8</ele><time>2026-03-29T08:11:33.562Z</time></trkpt><trkpt lat="42.9275478" lon="12.1220452"><ele>613.5999999999999</ele><time>2026-03-29T08:11:34.563Z</time></trkpt><trkpt lat="42.9275095" lon="12.121973"><ele>611.4000000000001</ele><time>2026-03-29T08:11:35.567Z</time></trkpt><trkpt lat="42.9274378" lon="12.1218537"><ele>609.2</ele><time>2026-03-29T08:11:37.576Z</time></trkpt><trkpt lat="42.9273506" lon="12.1217554"><ele>607.0</ele><time>2026-03-29T08:11:39.566Z</time></trkpt><trkpt lat="42.9272643" lon="12.1216825"><ele>607.0</ele><time>2026-03-29T08:11:41.565Z</time></trkpt><trkpt lat="42.9271713" lon="12.1216756"><ele>607.0</ele><time>2026-03-29T08:11:43.564Z</time></trkpt><trkpt lat="42.9270832" lon="12.1218023"><ele>607.0</ele><time>2026-03-29T08:11:45.565Z</time></trkpt><trkpt lat="42.9270433" lon="12.1219234"><ele>607.0</ele><time>2026-03-29T08:11:46.566Z</time></trkpt><trkpt lat="42.9270137" lon="12.1220473"><ele>607.0</ele><time>2026-03-29T08:11:47.564Z</time></trkpt><trkpt lat="42.9269822" lon="12.122142"><ele>606.9999999999999</ele><time>2026-03-29T08:11:48.561Z</time></trkpt><trkpt lat="42.9269363" lon="12.1222129"><ele>607.0</ele><time>2026-03-29T08:11:49.564Z</time></trkpt><trkpt lat="42.9268711" lon="12.1222602"><ele>607.0</ele><time>2026-03-29T08:11:50.566Z</time></trkpt><trkpt lat="42.9267964" lon="12.1222856"><ele>607.0</ele><time>2026-03-29T08:11:51.57Z</time></trkpt><trkpt lat="42.9267263" lon="12.1222901"><ele>607.0</ele><time>2026-03-29T08:11:52.565Z</time></trkpt><trkpt lat="42.9266544" lon="12.122277"><ele>606.9999999999999</ele><time>2026-03-29T08:11:53.564Z</time></trkpt><trkpt lat="42.9265794" lon="12.1222517"><ele>607.0</ele><time>2026-03-29T08:11:54.563Z</time></trkpt><trkpt lat="42.926504" lon="12.1222266"><ele>604.5</ele><time>2026-03-29T08:11:55.569Z</time></trkpt><trkpt lat="42.9264367" lon="12.1222016"><ele>602.0</ele><time>2026-03-29T08:11:56.563Z</time></trkpt><trkpt lat="42.9263242" lon="12.1221466"><ele>599.5</ele><time>2026-03-29T08:11:58.566Z</time></trkpt><trkpt lat="42.9262631" lon="12.1221217"><ele>597.0</ele><time>2026-03-29T08:11:59.564Z</time></trkpt><trkpt lat="42.9261905" lon="12.1221122"><ele>594.5</ele><time>2026-03-29T08:12:00.563Z</time></trkpt><trkpt lat="42.9260942" lon="12.1221034"><ele>592.0</ele><time>2026-03-29T08:12:01.566Z</time></trkpt><trkpt lat="42.9259889" lon="12.122096"><ele>592.0</ele><time>2026-03-29T08:12:02.565Z</time></trkpt><trkpt lat="42.9258952" lon="12.1220888"><ele>592.0</ele><time>2026-03-29T08:12:03.563Z</time></trkpt><trkpt lat="42.9258207" lon="12.1220755"><ele>592.0</ele><time>2026-03-29T08:12:04.569Z</time></trkpt><trkpt lat="42.925718" lon="12.1220197"><ele>592.0</ele><time>2026-03-29T08:12:06.566Z</time></trkpt><trkpt lat="42.9256506" lon="12.1219162"><ele>592.0</ele><time>2026-03-29T08:12:08.562Z</time></trkpt><trkpt lat="42.9256127" lon="12.1217705"><ele>590.0</ele><time>2026-03-29T08:12:10.569Z</time></trkpt><trkpt lat="42.9256008" lon="12.1216841"><ele>588.0</ele><time>2026-03-29T08:12:11.562Z</time></trkpt><trkpt lat="42.9255849" lon="12.1215949"><ele>586.0</ele><time>2026-03-29T08:12:12.568Z</time></trkpt><trkpt lat="42.9255662" lon="12.1215069"><ele>584.0</ele><time>2026-03-29T08:12:13.564Z</time></trkpt><trkpt lat="42.9255201" lon="12.1213543"><ele>582.0</ele><time>2026-03-29T08:12:15.562Z</time></trkpt><trkpt lat="42.9254349" lon="12.1212518"><ele>580.0</ele><time>2026-03-29T08:12:17.568Z</time></trkpt><trkpt lat="42.9253714" lon="12.1212033"><ele>578.6</ele><time>2026-03-29T08:12:18.57Z</time></trkpt><trkpt lat="42.9252903" lon="12.121135"><ele>577.2</ele><time>2026-03-29T08:12:19.566Z</time></trkpt><trkpt lat="42.9251893" lon="12.1210463"><ele>575.8</ele><time>2026-03-29T08:12:20.562Z</time></trkpt><trkpt lat="42.9250878" lon="12.1209658"><ele>574.4</ele><time>2026-03-29T08:12:21.564Z</time></trkpt><trkpt lat="42.9250012" lon="12.1208899"><ele>573.0</ele><time>2026-03-29T08:12:22.564Z</time></trkpt><trkpt lat="42.9249343" lon="12.120815"><ele>572.8571428571429</ele><time>2026-03-29T08:12:23.562Z</time></trkpt><trkpt lat="42.9248901" lon="12.120735"><ele>572.7142857142858</ele><time>2026-03-29T08:12:24.564Z</time></trkpt><trkpt lat="42.9248577" lon="12.1206561"><ele>572.5714285714286</ele><time>2026-03-29T08:12:25.566Z</time></trkpt><trkpt lat="42.9248198" lon="12.1205708"><ele>572.4285714285714</ele><time>2026-03-29T08:12:26.563Z</time></trkpt><trkpt lat="42.9247778" lon="12.1204818"><ele>572.2857142857142</ele><time>2026-03-29T08:12:27.567Z</time></trkpt><trkpt lat="42.924736" lon="12.1203988"><ele>572.1428571428571</ele><time>2026-03-29T08:12:28.564Z</time></trkpt><trkpt lat="42.9246947" lon="12.1203231"><ele>572.0</ele><time>2026-03-29T08:12:29.571Z</time></trkpt><trkpt lat="42.9246546" lon="12.1202495"><ele>570.8333333333333</ele><time>2026-03-29T08:12:30.562Z</time></trkpt><trkpt lat="42.9246122" lon="12.120182"><ele>569.6666666666666</ele><time>2026-03-29T08:12:31.562Z</time></trkpt><trkpt lat="42.9245624" lon="12.1201163"><ele>568.5</ele><time>2026-03-29T08:12:32.566Z</time></trkpt><trkpt lat="42.9245107" lon="12.1200477"><ele>567.3333333333334</ele><time>2026-03-29T08:12:33.567Z</time></trkpt><trkpt lat="42.9244593" lon="12.119974"><ele>566.1666666666667</ele><time>2026-03-29T08:12:34.563Z</time></trkpt><trkpt lat="42.9244138" lon="12.1199106"><ele>565.0</ele><time>2026-03-29T08:12:35.572Z</time></trkpt><trkpt lat="42.9243004" lon="12.1198151"><ele>563.5</ele><time>2026-03-29T08:12:37.562Z</time></trkpt><trkpt lat="42.9242243" lon="12.1197662"><ele>562.0</ele><time>2026-03-29T08:12:38.568Z</time></trkpt><trkpt lat="42.9241486" lon="12.1197033"><ele>560.5</ele><time>2026-03-29T08:12:39.563Z</time></trkpt><trkpt lat="42.9240749" lon="12.1196314"><ele>559.0</ele><time>2026-03-29T08:12:40.566Z</time></trkpt><trkpt lat="42.9240143" lon="12.1195549"><ele>557.5</ele><time>2026-03-29T08:12:41.562Z</time></trkpt><trkpt lat="42.9239752" lon="12.1194838"><ele>556.0</ele><time>2026-03-29T08:12:42.565Z</time></trkpt><trkpt lat="42.9239425" lon="12.1193272"><ele>556.0</ele><time>2026-03-29T08:12:44.565Z</time></trkpt><trkpt lat="42.9238945" lon="12.1191931"><ele>556.0</ele><time>2026-03-29T08:12:46.562Z</time></trkpt><trkpt lat="42.9237816" lon="12.1191301"><ele>556.0</ele><time>2026-03-29T08:12:48.562Z</time></trkpt><trkpt lat="42.9237107" lon="12.1191164"><ele>556.0</ele><time>2026-03-29T08:12:49.564Z</time></trkpt><trkpt lat="42.9236409" lon="12.1191036"><ele>556.0</ele><time>2026-03-29T08:12:50.567Z</time></trkpt><trkpt lat="42.9235718" lon="12.1190817"><ele>556.0</ele><time>2026-03-29T08:12:51.565Z</time></trkpt><trkpt lat="42.9234666" lon="12.1190297"><ele>554.4</ele><time>2026-03-29T08:12:53.569Z</time></trkpt><trkpt lat="42.9233716" lon="12.1189947"><ele>552.8</ele><time>2026-03-29T08:12:55.561Z</time></trkpt><trkpt lat="42.9232748" lon="12.1189618"><ele>551.1999999999999</ele><time>2026-03-29T08:12:57.566Z</time></trkpt><trkpt lat="42.9232107" lon="12.1189187"><ele>549.6</ele><time>2026-03-29T08:12:59.575Z</time></trkpt><trkpt lat="42.9232238" lon="12.1188198"><ele>548.0</ele><time>2026-03-29T08:13:05.581Z</time></trkpt><trkpt lat="42.9232568" lon="12.1186777"><ele>548.0</ele><time>2026-03-29T08:13:07.57Z</time></trkpt><trkpt lat="42.9233536" lon="12.1185616"><ele>548.0</ele><time>2026-03-29T08:13:09.567Z</time></trkpt><trkpt lat="42.923421" lon="12.1185379"><ele>548.0</ele><time>2026-03-29T08:13:10.566Z</time></trkpt><trkpt lat="42.9235044" lon="12.1185339"><ele>548.0</ele><time>2026-03-29T08:13:11.562Z</time></trkpt><trkpt lat="42.9235874" lon="12.1185557"><ele>548.0</ele><time>2026-03-29T08:13:12.564Z</time></trkpt><trkpt lat="42.9236639" lon="12.118592"><ele>548.0</ele><time>2026-03-29T08:13:13.567Z</time></trkpt><trkpt lat="42.9237374" lon="12.1186234"><ele>548.0</ele><time>2026-03-29T08:13:14.597Z</time></trkpt><trkpt lat="42.9238091" lon="12.1186503"><ele>548.0</ele><time>2026-03-29T08:13:15.564Z</time></trkpt><trkpt lat="42.9238848" lon="12.1186727"><ele>548.0</ele><time>2026-03-29T08:13:16.567Z</time></trkpt><trkpt lat="42.9239684" lon="12.1186965"><ele>548.0</ele><time>2026-03-29T08:13:17.565Z</time></trkpt><trkpt lat="42.9240617" lon="12.1187275"><ele>548.0</ele><time>2026-03-29T08:13:18.565Z</time></trkpt><trkpt lat="42.9241501" lon="12.1187589"><ele>548.0</ele><time>2026-03-29T08:13:19.565Z</time></trkpt><trkpt lat="42.9242351" lon="12.1187924"><ele>548.0</ele><time>2026-03-29T08:13:20.564Z</time></trkpt><trkpt lat="42.9243231" lon="12.1188319"><ele>548.0</ele><time>2026-03-29T08:13:21.569Z</time></trkpt><trkpt lat="42.9244157" lon="12.1188905"><ele>548.0</ele><time>2026-03-29T08:13:22.564Z</time></trkpt><trkpt lat="42.9245133" lon="12.1189556"><ele>548.0</ele><time>2026-03-29T08:13:23.56Z</time></trkpt><trkpt lat="42.9246064" lon="12.1190083"><ele>548.0</ele><time>2026-03-29T08:13:24.562Z</time></trkpt><trkpt lat="42.9247034" lon="12.1190408"><ele>548.0</ele><time>2026-03-29T08:13:25.565Z</time></trkpt><trkpt lat="42.9248058" lon="12.1190629"><ele>548.0</ele><time>2026-03-29T08:13:26.563Z</time></trkpt><trkpt lat="42.9249046" lon="12.1190879"><ele>548.0</ele><time>2026-03-29T08:13:27.559Z</time></trkpt><trkpt lat="42.9249919" lon="12.1191179"><ele>548.0</ele><time>2026-03-29T08:13:28.562Z</time></trkpt><trkpt lat="42.9250658" lon="12.1191576"><ele>548.0</ele><time>2026-03-29T08:13:29.564Z</time></trkpt><trkpt lat="42.9251356" lon="12.1191988"><ele>550.1999999999999</ele><time>2026-03-29T08:13:30.56Z</time></trkpt><trkpt lat="42.9252358" lon="12.1192398"><ele>552.4</ele><time>2026-03-29T08:13:32.566Z</time></trkpt><trkpt lat="42.925273" lon="12.1191606"><ele>554.5999999999999</ele><time>2026-03-29T08:13:34.561Z</time></trkpt><trkpt lat="42.925254" lon="12.1190212"><ele>556.8</ele><time>2026-03-29T08:13:36.566Z</time></trkpt><trkpt lat="42.9252161" lon="12.118925"><ele>559.0</ele><time>2026-03-29T08:13:37.563Z</time></trkpt><trkpt lat="42.9251636" lon="12.1188102"><ele>559.0</ele><time>2026-03-29T08:13:38.562Z</time></trkpt><trkpt lat="42.9251064" lon="12.1186831"><ele>559.0</ele><time>2026-03-29T08:13:39.564Z</time></trkpt><trkpt lat="42.9250673" lon="12.1185598"><ele>559.0</ele><time>2026-03-29T08:13:40.563Z</time></trkpt><trkpt lat="42.9250455" lon="12.1184431"><ele>559.0</ele><time>2026-03-29T08:13:41.571Z</time></trkpt><trkpt lat="42.9250494" lon="12.1183371"><ele>559.0</ele><time>2026-03-29T08:13:42.567Z</time></trkpt><trkpt lat="42.9250781" lon="12.1182462"><ele>559.0</ele><time>2026-03-29T08:13:43.568Z</time></trkpt><trkpt lat="42.9251344" lon="12.118168"><ele>559.0</ele><time>2026-03-29T08:13:44.565Z</time></trkpt><trkpt lat="42.9252052" lon="12.1180983"><ele>559.0</ele><time>2026-03-29T08:13:45.563Z</time></trkpt><trkpt lat="42.9252782" lon="12.1180375"><ele>559.0</ele><time>2026-03-29T08:13:46.596Z</time></trkpt><trkpt lat="42.9253482" lon="12.1179707"><ele>559.0</ele><time>2026-03-29T08:13:47.566Z</time></trkpt><trkpt lat="42.9254042" lon="12.117893"><ele>559.0</ele><time>2026-03-29T08:13:48.565Z</time></trkpt><trkpt lat="42.9254508" lon="12.1178098"><ele>559.0</ele><time>2026-03-29T08:13:49.563Z</time></trkpt><trkpt lat="42.9255029" lon="12.1177256"><ele>559.0</ele><time>2026-03-29T08:13:50.568Z</time></trkpt><trkpt lat="42.9255586" lon="12.1176536"><ele>559.0</ele><time>2026-03-29T08:13:51.563Z</time></trkpt><trkpt lat="42.9256212" lon="12.1175899"><ele>559.0</ele><time>2026-03-29T08:13:52.564Z</time></trkpt><trkpt lat="42.925686" lon="12.1175421"><ele>559.0</ele><time>2026-03-29T08:13:53.565Z</time></trkpt><trkpt lat="42.9257565" lon="12.117518"><ele>559.0</ele><time>2026-03-29T08:13:54.571Z</time></trkpt><trkpt lat="42.9258312" lon="12.1175201"><ele>559.0</ele><time>2026-03-29T08:13:55.566Z</time></trkpt><trkpt lat="42.9259044" lon="12.1175449"><ele>557.8</ele><time>2026-03-29T08:13:56.565Z</time></trkpt><trkpt lat="42.9259792" lon="12.11761"><ele>556.5999999999999</ele><time>2026-03-29T08:13:57.566Z</time></trkpt><trkpt lat="42.9260463" lon="12.1176993"><ele>555.4</ele><time>2026-03-29T08:13:58.57Z</time></trkpt><trkpt lat="42.9261252" lon="12.1178025"><ele>554.1999999999999</ele><time>2026-03-29T08:13:59.567Z</time></trkpt><trkpt lat="42.9262104" lon="12.1179037"><ele>553.0</ele><time>2026-03-29T08:14:00.562Z</time></trkpt><trkpt lat="42.9262927" lon="12.1180147"><ele>553.0</ele><time>2026-03-29T08:14:01.562Z</time></trkpt><trkpt lat="42.9263765" lon="12.1181352"><ele>553.0</ele><time>2026-03-29T08:14:02.563Z</time></trkpt><trkpt lat="42.9264609" lon="12.1182512"><ele>553.0</ele><time>2026-03-29T08:14:03.579Z</time></trkpt><trkpt lat="42.9265617" lon="12.118361"><ele>553.0</ele><time>2026-03-29T08:14:04.567Z</time></trkpt><trkpt lat="42.9266661" lon="12.1184621"><ele>555.1999999999999</ele><time>2026-03-29T08:14:05.564Z</time></trkpt><trkpt lat="42.9267465" lon="12.1185491"><ele>557.4</ele><time>2026-03-29T08:14:06.606Z</time></trkpt><trkpt lat="42.9268017" lon="12.1186451"><ele>559.5999999999999</ele><time>2026-03-29T08:14:07.568Z</time></trkpt><trkpt lat="42.9268477" lon="12.1187595"><ele>561.8</ele><time>2026-03-29T08:14:08.577Z</time></trkpt><trkpt lat="42.9268889" lon="12.1188815"><ele>564.0</ele><time>2026-03-29T08:14:09.567Z</time></trkpt><trkpt lat="42.9269413" lon="12.1189801"><ele>564.0</ele><time>2026-03-29T08:14:10.566Z</time></trkpt><trkpt lat="42.9270103" lon="12.1190491"><ele>564.0</ele><time>2026-03-29T08:14:11.562Z</time></trkpt><trkpt lat="42.9270989" lon="12.1190931"><ele>564.0</ele><time>2026-03-29T08:14:12.565Z</time></trkpt><trkpt lat="42.9272184" lon="12.1191281"><ele>564.0</ele><time>2026-03-29T08:14:13.563Z</time></trkpt><trkpt lat="42.9273525" lon="12.1191775"><ele>564.0</ele><time>2026-03-29T08:14:14.566Z</time></trkpt><trkpt lat="42.9274919" lon="12.1192509"><ele>568.5</ele><time>2026-03-29T08:14:15.563Z</time></trkpt><trkpt lat="42.9276276" lon="12.1193375"><ele>573.0</ele><time>2026-03-29T08:14:16.571Z</time></trkpt><trkpt lat="42.9277581" lon="12.11942"><ele>577.5</ele><time>2026-03-29T08:14:17.564Z</time></trkpt><trkpt lat="42.9278686" lon="12.1194772"><ele>582.0</ele><time>2026-03-29T08:14:18.564Z</time></trkpt><trkpt lat="42.9279758" lon="12.1194975"><ele>582.0</ele><time>2026-03-29T08:14:19.568Z</time></trkpt><trkpt lat="42.9280815" lon="12.1194812"><ele>582.0</ele><time>2026-03-29T08:14:20.567Z</time></trkpt><trkpt lat="42.9281836" lon="12.119428"><ele>582.0</ele><time>2026-03-29T08:14:21.565Z</time></trkpt><trkpt lat="42.9282742" lon="12.1193695"><ele>582.0</ele><time>2026-03-29T08:14:22.565Z</time></trkpt><trkpt lat="42.928358" lon="12.1193257"><ele>582.0</ele><time>2026-03-29T08:14:23.564Z</time></trkpt><trkpt lat="42.9284429" lon="12.1193081"><ele>582.4</ele><time>2026-03-29T08:14:24.564Z</time></trkpt><trkpt lat="42.9285397" lon="12.1193144"><ele>582.8000000000001</ele><time>2026-03-29T08:14:25.596Z</time></trkpt><trkpt lat="42.928652" lon="12.1193387"><ele>583.2</ele><time>2026-03-29T08:14:26.564Z</time></trkpt><trkpt lat="42.9287696" lon="12.1193681"><ele>583.6</ele><time>2026-03-29T08:14:27.565Z</time></trkpt><trkpt lat="42.928876" lon="12.1193993"><ele>584.0</ele><time>2026-03-29T08:14:28.563Z</time></trkpt><trkpt lat="42.9289626" lon="12.1194319"><ele>584.0</ele><time>2026-03-29T08:14:29.566Z</time></trkpt><trkpt lat="42.929031" lon="12.119472"><ele>584.0</ele><time>2026-03-29T08:14:30.565Z</time></trkpt><trkpt lat="42.9290936" lon="12.119531"><ele>584.0</ele><time>2026-03-29T08:14:31.563Z</time></trkpt><trkpt lat="42.9291581" lon="12.1196004"><ele>584.0</ele><time>2026-03-29T08:14:32.563Z</time></trkpt><trkpt lat="42.9292176" lon="12.1196652"><ele>584.0</ele><time>2026-03-29T08:14:33.57Z</time></trkpt><trkpt lat="42.9292802" lon="12.1197127"><ele>584.0</ele><time>2026-03-29T08:14:34.563Z</time></trkpt><trkpt lat="42.9293495" lon="12.119723"><ele>586.6666666666666</ele><time>2026-03-29T08:14:35.565Z</time></trkpt><trkpt lat="42.9294202" lon="12.1196894"><ele>589.3333333333333</ele><time>2026-03-29T08:14:36.565Z</time></trkpt><trkpt lat="42.9294902" lon="12.1196203"><ele>592.0</ele><time>2026-03-29T08:14:37.563Z</time></trkpt><trkpt lat="42.9295437" lon="12.1195267"><ele>594.6666666666666</ele><time>2026-03-29T08:14:38.566Z</time></trkpt><trkpt lat="42.9295712" lon="12.1194155"><ele>597.3333333333334</ele><time>2026-03-29T08:14:39.562Z</time></trkpt><trkpt lat="42.9295871" lon="12.1192959"><ele>600.0</ele><time>2026-03-29T08:14:40.564Z</time></trkpt><trkpt lat="42.9296066" lon="12.1191829"><ele>600.0</ele><time>2026-03-29T08:14:41.56Z</time></trkpt><trkpt lat="42.9296298" lon="12.1190856"><ele>600.0</ele><time>2026-03-29T08:14:42.567Z</time></trkpt><trkpt lat="42.9296722" lon="12.1189979"><ele>600.0</ele><time>2026-03-29T08:14:43.564Z</time></trkpt><trkpt lat="42.9297321" lon="12.1189147"><ele>600.0</ele><time>2026-03-29T08:14:44.568Z</time></trkpt><trkpt lat="42.9298118" lon="12.1188251"><ele>600.0</ele><time>2026-03-29T08:14:45.565Z</time></trkpt><trkpt lat="42.9299165" lon="12.1187488"><ele>597.8</ele><time>2026-03-29T08:14:46.564Z</time></trkpt><trkpt lat="42.9300264" lon="12.1187004"><ele>595.6</ele><time>2026-03-29T08:14:47.562Z</time></trkpt><trkpt lat="42.9301284" lon="12.1186571"><ele>593.4</ele><time>2026-03-29T08:14:48.564Z</time></trkpt><trkpt lat="42.9302245" lon="12.1185923"><ele>591.2</ele><time>2026-03-29T08:14:49.568Z</time></trkpt><trkpt lat="42.930319" lon="12.1185032"><ele>589.0</ele><time>2026-03-29T08:14:50.571Z</time></trkpt><trkpt lat="42.9304088" lon="12.1184177"><ele>589.0</ele><time>2026-03-29T08:14:51.562Z</time></trkpt><trkpt lat="42.9304968" lon="12.1183431"><ele>589.0</ele><time>2026-03-29T08:14:52.565Z</time></trkpt><trkpt lat="42.9305785" lon="12.1182746"><ele>589.0</ele><time>2026-03-29T08:14:53.567Z</time></trkpt><trkpt lat="42.9306591" lon="12.1182045"><ele>589.0</ele><time>2026-03-29T08:14:54.591Z</time></trkpt><trkpt lat="42.9307457" lon="12.1181283"><ele>589.0</ele><time>2026-03-29T08:14:55.567Z</time></trkpt><trkpt lat="42.9308338" lon="12.1180638"><ele>589.8333333333334</ele><time>2026-03-29T08:14:56.565Z</time></trkpt><trkpt lat="42.9309157" lon="12.1180206"><ele>590.6666666666667</ele><time>2026-03-29T08:14:57.566Z</time></trkpt><trkpt lat="42.9309944" lon="12.1180001"><ele>591.5</ele><time>2026-03-29T08:14:58.565Z</time></trkpt><trkpt lat="42.9310738" lon="12.1179949"><ele>592.3333333333334</ele><time>2026-03-29T08:14:59.565Z</time></trkpt><trkpt lat="42.9311481" lon="12.1180167"><ele>593.1666666666666</ele><time>2026-03-29T08:15:00.563Z</time></trkpt><trkpt lat="42.9312268" lon="12.1180813"><ele>594.0</ele><time>2026-03-29T08:15:01.565Z</time></trkpt><trkpt lat="42.9313088" lon="12.1181578"><ele>594.0</ele><time>2026-03-29T08:15:02.565Z</time></trkpt><trkpt lat="42.9313821" lon="12.1182205"><ele>594.0</ele><time>2026-03-29T08:15:03.565Z</time></trkpt><trkpt lat="42.9314482" lon="12.1182701"><ele>594.0</ele><time>2026-03-29T08:15:04.567Z</time></trkpt><trkpt lat="42.9315537" lon="12.1182796"><ele>594.0</ele><time>2026-03-29T08:15:06.563Z</time></trkpt><trkpt lat="42.9315879" lon="12.1182013"><ele>594.0</ele><time>2026-03-29T08:15:08.567Z</time></trkpt><trkpt lat="42.931575" lon="12.1180954"><ele>594.0</ele><time>2026-03-29T08:15:22.569Z</time></trkpt><trkpt lat="42.9315063" lon="12.1180066"><ele>594.0</ele><time>2026-03-29T08:15:25.563Z</time></trkpt><trkpt lat="42.9314569" lon="12.1179461"><ele>594.0</ele><time>2026-03-29T08:15:26.564Z</time></trkpt><trkpt lat="42.9314082" lon="12.1178748"><ele>594.0</ele><time>2026-03-29T08:15:27.564Z</time></trkpt><trkpt lat="42.9313595" lon="12.1177916"><ele>594.0</ele><time>2026-03-29T08:15:28.56Z</time></trkpt><trkpt lat="42.9313088" lon="12.1176928"><ele>594.0</ele><time>2026-03-29T08:15:29.561Z</time></trkpt><trkpt lat="42.9312513" lon="12.1175766"><ele>594.0</ele><time>2026-03-29T08:15:30.568Z</time></trkpt><trkpt lat="42.9311914" lon="12.1174499"><ele>594.0</ele><time>2026-03-29T08:15:31.563Z</time></trkpt><trkpt lat="42.9311321" lon="12.1173187"><ele>594.0</ele><time>2026-03-29T08:15:32.565Z</time></trkpt><trkpt lat="42.9310629" lon="12.1171938"><ele>594.0</ele><time>2026-03-29T08:15:33.565Z</time></trkpt><trkpt lat="42.9309771" lon="12.1170705"><ele>594.0</ele><time>2026-03-29T08:15:34.578Z</time></trkpt><trkpt lat="42.9308766" lon="12.116952"><ele>593.2</ele><time>2026-03-29T08:15:35.562Z</time></trkpt><trkpt lat="42.930787" lon="12.1168562"><ele>592.4</ele><time>2026-03-29T08:15:36.563Z</time></trkpt><trkpt lat="42.9307015" lon="12.1167826"><ele>591.6</ele><time>2026-03-29T08:15:37.566Z</time></trkpt><trkpt lat="42.9306202" lon="12.1167287"><ele>590.8</ele><time>2026-03-29T08:15:38.566Z</time></trkpt><trkpt lat="42.930536" lon="12.1166872"><ele>590.0</ele><time>2026-03-29T08:15:39.567Z</time></trkpt><trkpt lat="42.9304465" lon="12.1166498"><ele>590.0</ele><time>2026-03-29T08:15:40.564Z</time></trkpt><trkpt lat="42.9303604" lon="12.1166179"><ele>590.0</ele><time>2026-03-29T08:15:41.562Z</time></trkpt><trkpt lat="42.9302868" lon="12.1165872"><ele>590.0</ele><time>2026-03-29T08:15:42.567Z</time></trkpt><trkpt lat="42.9302162" lon="12.1165444"><ele>590.0</ele><time>2026-03-29T08:15:44.563Z</time></trkpt><trkpt lat="42.9302528" lon="12.1164742"><ele>590.0</ele><time>2026-03-29T08:15:46.564Z</time></trkpt><trkpt lat="42.930334" lon="12.1164524"><ele>590.0</ele><time>2026-03-29T08:15:48.567Z</time></trkpt><trkpt lat="42.9304198" lon="12.1165057"><ele>590.5714285714287</ele><time>2026-03-29T08:15:50.563Z</time></trkpt><trkpt lat="42.9304859" lon="12.1165229"><ele>591.1428571428571</ele><time>2026-03-29T08:15:51.569Z</time></trkpt><trkpt lat="42.9305656" lon="12.1165173"><ele>591.7142857142858</ele><time>2026-03-29T08:15:52.563Z</time></trkpt><trkpt lat="42.9306431" lon="12.1165063"><ele>592.2857142857143</ele><time>2026-03-29T08:15:53.562Z</time></trkpt><trkpt lat="42.9307137" lon="12.1165015"><ele>592.8571428571429</ele><time>2026-03-29T08:15:54.572Z</time></trkpt><trkpt lat="42.9307832" lon="12.1165129"><ele>593.4285714285714</ele><time>2026-03-29T08:15:55.568Z</time></trkpt><trkpt lat="42.9308574" lon="12.1165368"><ele>594.0</ele><time>2026-03-29T08:15:56.567Z</time></trkpt><trkpt lat="42.9309456" lon="12.1165705"><ele>594.0</ele><time>2026-03-29T08:15:57.573Z</time></trkpt><trkpt lat="42.9310364" lon="12.1166183"><ele>594.0</ele><time>2026-03-29T08:15:58.566Z</time></trkpt><trkpt lat="42.9311218" lon="12.1166728"><ele>594.0</ele><time>2026-03-29T08:15:59.563Z</time></trkpt><trkpt lat="42.9312114" lon="12.1167231"><ele>594.0</ele><time>2026-03-29T08:16:00.569Z</time></trkpt><trkpt lat="42.9312994" lon="12.1167647"><ele>594.0</ele><time>2026-03-29T08:16:01.564Z</time></trkpt><trkpt lat="42.9313843" lon="12.1168014"><ele>594.0</ele><time>2026-03-29T08:16:02.578Z</time></trkpt><trkpt lat="42.931471" lon="12.1168424"><ele>594.0</ele><time>2026-03-29T08:16:03.567Z</time></trkpt><trkpt lat="42.9315613" lon="12.1168958"><ele>594.0</ele><time>2026-03-29T08:16:04.594Z</time></trkpt><trkpt lat="42.9316516" lon="12.1169684"><ele>594.0</ele><time>2026-03-29T08:16:05.566Z</time></trkpt><trkpt lat="42.9317382" lon="12.1170547"><ele>594.0</ele><time>2026-03-29T08:16:06.599Z</time></trkpt><trkpt lat="42.9318148" lon="12.1171391"><ele>595.2</ele><time>2026-03-29T08:16:07.566Z</time></trkpt><trkpt lat="42.9318792" lon="12.1172008"><ele>596.4</ele><time>2026-03-29T08:16:08.563Z</time></trkpt><trkpt lat="42.931981" lon="12.1172808"><ele>597.6</ele><time>2026-03-29T08:16:10.572Z</time></trkpt><trkpt lat="42.932046" lon="12.1173301"><ele>598.8</ele><time>2026-03-29T08:16:11.568Z</time></trkpt><trkpt lat="42.9321318" lon="12.117387"><ele>600.0</ele><time>2026-03-29T08:16:12.571Z</time></trkpt><trkpt lat="42.9322459" lon="12.1174377"><ele>602.0</ele><time>2026-03-29T08:16:13.961Z</time></trkpt><trkpt lat="42.9323659" lon="12.1174687"><ele>604.0</ele><time>2026-03-29T08:16:14.95Z</time></trkpt><trkpt lat="42.9324652" lon="12.1174761"><ele>606.0</ele><time>2026-03-29T08:16:15.953Z</time></trkpt><trkpt lat="42.9325535" lon="12.1174583"><ele>608.0</ele><time>2026-03-29T08:16:16.952Z</time></trkpt><trkpt lat="42.9326319" lon="12.1174295"><ele>610.0</ele><time>2026-03-29T08:16:17.954Z</time></trkpt><trkpt lat="42.9327026" lon="12.1174039"><ele>610.4</ele><time>2026-03-29T08:16:18.965Z</time></trkpt><trkpt lat="42.9327657" lon="12.1173989"><ele>610.8</ele><time>2026-03-29T08:16:19.952Z</time></trkpt><trkpt lat="42.9328937" lon="12.1174461"><ele>611.2</ele><time>2026-03-29T08:16:21.965Z</time></trkpt><trkpt lat="42.9329552" lon="12.1174939"><ele>611.6</ele><time>2026-03-29T08:16:22.952Z</time></trkpt><trkpt lat="42.9330633" lon="12.1175516"><ele>612.0</ele><time>2026-03-29T08:16:24.955Z</time></trkpt><trkpt lat="42.9331354" lon="12.1175923"><ele>614.4</ele><time>2026-03-29T08:16:26.965Z</time></trkpt><trkpt lat="42.9332319" lon="12.1176262"><ele>616.8000000000001</ele><time>2026-03-29T08:16:28.965Z</time></trkpt><trkpt lat="42.9333212" lon="12.1176644"><ele>619.2</ele><time>2026-03-29T08:16:30.955Z</time></trkpt><trkpt lat="42.9333787" lon="12.1177119"><ele>621.6</ele><time>2026-03-29T08:16:46.959Z</time></trkpt><trkpt lat="42.9334612" lon="12.1177725"><ele>624.0</ele><time>2026-03-29T08:16:49.96Z</time></trkpt><trkpt lat="42.9335781" lon="12.117828"><ele>626.5</ele><time>2026-03-29T08:16:51.963Z</time></trkpt><trkpt lat="42.9336545" lon="12.1178444"><ele>629.0</ele><time>2026-03-29T08:16:52.951Z</time></trkpt><trkpt lat="42.9337246" lon="12.1178474"><ele>631.5</ele><time>2026-03-29T08:16:53.964Z</time></trkpt><trkpt lat="42.9337868" lon="12.1178332"><ele>634.0</ele><time>2026-03-29T08:16:54.95Z</time></trkpt><trkpt lat="42.9338488" lon="12.1178108"><ele>636.5</ele><time>2026-03-29T08:16:55.951Z</time></trkpt><trkpt lat="42.9339758" lon="12.1177731"><ele>639.0</ele><time>2026-03-29T08:16:57.96Z</time></trkpt><trkpt lat="42.9340426" lon="12.1177646"><ele>639.0</ele><time>2026-03-29T08:16:58.952Z</time></trkpt><trkpt lat="42.9341608" lon="12.117725"><ele>639.0</ele><time>2026-03-29T08:17:00.948Z</time></trkpt><trkpt lat="42.9342747" lon="12.1177022"><ele>639.0</ele><time>2026-03-29T08:17:02.951Z</time></trkpt><trkpt lat="42.9343705" lon="12.1177415"><ele>639.0</ele><time>2026-03-29T08:17:04.947Z</time></trkpt><trkpt lat="42.9344473" lon="12.1178112"><ele>639.0</ele><time>2026-03-29T08:17:06.949Z</time></trkpt><trkpt lat="42.9345287" lon="12.1178531"><ele>642.2</ele><time>2026-03-29T08:17:08.946Z</time></trkpt><trkpt lat="42.9346274" lon="12.1178619"><ele>645.4</ele><time>2026-03-29T08:17:10.947Z</time></trkpt><trkpt lat="42.9347428" lon="12.1178947"><ele>648.6</ele><time>2026-03-29T08:17:12.949Z</time></trkpt><trkpt lat="42.934838" lon="12.1178991"><ele>651.8</ele><time>2026-03-29T08:17:14.947Z</time></trkpt><trkpt lat="42.9349314" lon="12.1178906"><ele>655.0</ele><time>2026-03-29T08:17:16.983Z</time></trkpt><trkpt lat="42.9350169" lon="12.1178832"><ele>659.4</ele><time>2026-03-29T08:17:18.947Z</time></trkpt><trkpt lat="42.9351054" lon="12.1178845"><ele>663.8</ele><time>2026-03-29T08:17:20.949Z</time></trkpt><trkpt lat="42.9351961" lon="12.1178833"><ele>668.2</ele><time>2026-03-29T08:17:22.95Z</time></trkpt><trkpt lat="42.9352776" lon="12.1178824"><ele>672.6</ele><time>2026-03-29T08:17:24.945Z</time></trkpt><trkpt lat="42.9353725" lon="12.1178642"><ele>677.0</ele><time>2026-03-29T08:17:26.949Z</time></trkpt><trkpt lat="42.9354657" lon="12.1178493"><ele>677.0</ele><time>2026-03-29T08:17:28.949Z</time></trkpt><trkpt lat="42.9355417" lon="12.1178324"><ele>677.0</ele><time>2026-03-29T08:17:30.947Z</time></trkpt><trkpt lat="42.9356143" lon="12.1178127"><ele>677.0</ele><time>2026-03-29T08:17:32.947Z</time></trkpt><trkpt lat="42.9357055" lon="12.1178166"><ele>677.0</ele><time>2026-03-29T08:17:35.949Z</time></trkpt><trkpt lat="42.935783" lon="12.117808"><ele>677.0</ele><time>2026-03-29T08:17:37.949Z</time></trkpt><trkpt lat="42.9358749" lon="12.1178039"><ele>677.0</ele><time>2026-03-29T08:17:39.948Z</time></trkpt><trkpt lat="42.9359607" lon="12.1178113"><ele>679.6666666666666</ele><time>2026-03-29T08:17:41.947Z</time></trkpt><trkpt lat="42.9360414" lon="12.1178303"><ele>682.3333333333333</ele><time>2026-03-29T08:17:43.945Z</time></trkpt><trkpt lat="42.9361343" lon="12.1178366"><ele>685.0</ele><time>2026-03-29T08:17:45.954Z</time></trkpt><trkpt lat="42.9362225" lon="12.1178346"><ele>687.6666666666666</ele><time>2026-03-29T08:17:47.947Z</time></trkpt><trkpt lat="42.936303" lon="12.1178078"><ele>690.3333333333334</ele><time>2026-03-29T08:17:49.951Z</time></trkpt><trkpt lat="42.9363798" lon="12.1177621"><ele>693.0</ele><time>2026-03-29T08:17:51.95Z</time></trkpt><trkpt lat="42.9364559" lon="12.1177255"><ele>693.0</ele><time>2026-03-29T08:17:53.949Z</time></trkpt><trkpt lat="42.9365466" lon="12.117731"><ele>693.0</ele><time>2026-03-29T08:17:55.948Z</time></trkpt><trkpt lat="42.9366542" lon="12.1177557"><ele>693.0</ele><time>2026-03-29T08:17:57.946Z</time></trkpt><trkpt lat="42.9367521" lon="12.1178179"><ele>693.0</ele><time>2026-03-29T08:17:59.946Z</time></trkpt><trkpt lat="42.9368482" lon="12.1179195"><ele>693.0</ele><time>2026-03-29T08:18:01.949Z</time></trkpt><trkpt lat="42.9369358" lon="12.1180283"><ele>696.5999999999999</ele><time>2026-03-29T08:18:03.96Z</time></trkpt><trkpt lat="42.9370088" lon="12.1180801"><ele>700.1999999999999</ele><time>2026-03-29T08:18:05.946Z</time></trkpt><trkpt lat="42.9371022" lon="12.1180875"><ele>703.8</ele><time>2026-03-29T08:18:07.953Z</time></trkpt><trkpt lat="42.9371992" lon="12.1181016"><ele>707.4</ele><time>2026-03-29T08:18:09.951Z</time></trkpt><trkpt lat="42.937292" lon="12.1181361"><ele>711.0</ele><time>2026-03-29T08:18:11.945Z</time></trkpt><trkpt lat="42.9373962" lon="12.1181669"><ele>711.0</ele><time>2026-03-29T08:18:13.947Z</time></trkpt><trkpt lat="42.9374856" lon="12.1181711"><ele>711.0</ele><time>2026-03-29T08:18:15.945Z</time></trkpt><trkpt lat="42.9375651" lon="12.1181968"><ele>711.0</ele><time>2026-03-29T08:18:17.948Z</time></trkpt><trkpt lat="42.9376612" lon="12.1181976"><ele>711.0</ele><time>2026-03-29T08:18:19.946Z</time></trkpt><trkpt lat="42.9377737" lon="12.1181545"><ele>711.0</ele><time>2026-03-29T08:18:21.948Z</time></trkpt><trkpt lat="42.9378785" lon="12.1181074"><ele>716.8</ele><time>2026-03-29T08:18:23.953Z</time></trkpt><trkpt lat="42.937978" lon="12.1180577"><ele>722.5999999999999</ele><time>2026-03-29T08:18:25.95Z</time></trkpt><trkpt lat="42.9380681" lon="12.1179979"><ele>728.4</ele><time>2026-03-29T08:18:27.947Z</time></trkpt><trkpt lat="42.9381414" lon="12.117937"><ele>734.2</ele><time>2026-03-29T08:18:29.947Z</time></trkpt><trkpt lat="42.9382219" lon="12.117867"><ele>740.0</ele><time>2026-03-29T08:18:31.948Z</time></trkpt><trkpt lat="42.9382789" lon="12.1178176"><ele>740.0</ele><time>2026-03-29T08:18:33.951Z</time></trkpt><trkpt lat="42.9383505" lon="12.1177672"><ele>740.0</ele><time>2026-03-29T08:18:36.947Z</time></trkpt><trkpt lat="42.9384284" lon="12.1177171"><ele>740.0</ele><time>2026-03-29T08:18:39.945Z</time></trkpt><trkpt lat="42.9385178" lon="12.1176816"><ele>740.0</ele><time>2026-03-29T08:18:42.949Z</time></trkpt><trkpt lat="42.9385832" lon="12.1176546"><ele>740.0</ele><time>2026-03-29T08:18:44.945Z</time></trkpt><trkpt lat="42.9386535" lon="12.1176227"><ele>740.0</ele><time>2026-03-29T08:18:46.948Z</time></trkpt><trkpt lat="42.9387264" lon="12.11755"><ele>743.8333333333333</ele><time>2026-03-29T08:18:49.976Z</time></trkpt><trkpt lat="42.9387696" lon="12.1174791"><ele>747.6666666666666</ele><time>2026-03-29T08:18:51.947Z</time></trkpt><trkpt lat="42.9388179" lon="12.1173878"><ele>751.5</ele><time>2026-03-29T08:18:53.953Z</time></trkpt><trkpt lat="42.9388714" lon="12.1172868"><ele>755.3333333333334</ele><time>2026-03-29T08:18:55.953Z</time></trkpt><trkpt lat="42.9389366" lon="12.1171918"><ele>759.1666666666667</ele><time>2026-03-29T08:18:57.948Z</time></trkpt><trkpt lat="42.9390111" lon="12.1171123"><ele>763.0</ele><time>2026-03-29T08:18:59.951Z</time></trkpt><trkpt lat="42.9390819" lon="12.1170314"><ele>763.0</ele><time>2026-03-29T08:19:01.949Z</time></trkpt><trkpt lat="42.9391477" lon="12.1169722"><ele>763.0</ele><time>2026-03-29T08:19:03.953Z</time></trkpt><trkpt lat="42.9392344" lon="12.1169183"><ele>763.0</ele><time>2026-03-29T08:19:05.948Z</time></trkpt><trkpt lat="42.9393359" lon="12.1168743"><ele>763.0</ele><time>2026-03-29T08:19:07.951Z</time></trkpt><trkpt lat="42.9394262" lon="12.1167942"><ele>763.0</ele><time>2026-03-29T08:19:09.948Z</time></trkpt><trkpt lat="42.9394948" lon="12.1166677"><ele>768.5</ele><time>2026-03-29T08:19:11.952Z</time></trkpt><trkpt lat="42.939548" lon="12.1165341"><ele>774.0</ele><time>2026-03-29T08:19:13.947Z</time></trkpt><trkpt lat="42.9396233" lon="12.1164124"><ele>779.5</ele><time>2026-03-29T08:19:15.948Z</time></trkpt><trkpt lat="42.9396998" lon="12.1163028"><ele>785.0</ele><time>2026-03-29T08:19:17.945Z</time></trkpt><trkpt lat="42.9397814" lon="12.1161852"><ele>785.0000000000001</ele><time>2026-03-29T08:19:19.951Z</time></trkpt><trkpt lat="42.9398562" lon="12.1160723"><ele>785.0</ele><time>2026-03-29T08:19:21.947Z</time></trkpt><trkpt lat="42.9399171" lon="12.1159441"><ele>785.0</ele><time>2026-03-29T08:19:23.946Z</time></trkpt><trkpt lat="42.9399466" lon="12.1158569"><ele>785.0</ele><time>2026-03-29T08:19:24.952Z</time></trkpt><trkpt lat="42.9399689" lon="12.1157586"><ele>785.0000000000001</ele><time>2026-03-29T08:19:25.947Z</time></trkpt><trkpt lat="42.9399874" lon="12.1156579"><ele>785.0</ele><time>2026-03-29T08:19:26.948Z</time></trkpt><trkpt lat="42.9400032" lon="12.1155638"><ele>783.4</ele><time>2026-03-29T08:19:27.952Z</time></trkpt><trkpt lat="42.9400457" lon="12.1154387"><ele>781.8</ele><time>2026-03-29T08:19:29.946Z</time></trkpt><trkpt lat="42.9401074" lon="12.1153475"><ele>780.2</ele><time>2026-03-29T08:19:31.95Z</time></trkpt><trkpt lat="42.9401828" lon="12.1152214"><ele>778.6</ele><time>2026-03-29T08:19:33.947Z</time></trkpt><trkpt lat="42.9402039" lon="12.1150905"><ele>777.0</ele><time>2026-03-29T08:19:36.022Z</time></trkpt><trkpt lat="42.9401277" lon="12.1149489"><ele>777.8333333333334</ele><time>2026-03-29T08:19:37.948Z</time></trkpt><trkpt lat="42.9400807" lon="12.1148495"><ele>778.6666666666667</ele><time>2026-03-29T08:19:38.946Z</time></trkpt><trkpt lat="42.9400496" lon="12.1147545"><ele>779.5</ele><time>2026-03-29T08:19:39.947Z</time></trkpt><trkpt lat="42.9400299" lon="12.1146447"><ele>780.3333333333334</ele><time>2026-03-29T08:19:40.951Z</time></trkpt><trkpt lat="42.9400193" lon="12.1145273"><ele>781.1666666666667</ele><time>2026-03-29T08:19:41.948Z</time></trkpt><trkpt lat="42.9400211" lon="12.1144172"><ele>782.0</ele><time>2026-03-29T08:19:42.947Z</time></trkpt><trkpt lat="42.9400329" lon="12.1142892"><ele>782.2</ele><time>2026-03-29T08:19:44.947Z</time></trkpt><trkpt lat="42.9400987" lon="12.1142686"><ele>782.4000000000001</ele><time>2026-03-29T08:20:03.953Z</time></trkpt><trkpt lat="42.9401893" lon="12.1142753"><ele>782.5999999999999</ele><time>2026-03-29T08:20:09.947Z</time></trkpt><trkpt lat="42.9402743" lon="12.1142318"><ele>782.8</ele><time>2026-03-29T08:20:11.946Z</time></trkpt><trkpt lat="42.9403716" lon="12.1141933"><ele>783.0</ele><time>2026-03-29T08:20:13.951Z</time></trkpt><trkpt lat="42.9404731" lon="12.1141735"><ele>783.0</ele><time>2026-03-29T08:20:15.945Z</time></trkpt><trkpt lat="42.9405928" lon="12.1141914"><ele>783.0</ele><time>2026-03-29T08:20:17.954Z</time></trkpt><trkpt lat="42.9407138" lon="12.1141835"><ele>783.0</ele><time>2026-03-29T08:20:19.947Z</time></trkpt><trkpt lat="42.9408316" lon="12.114158"><ele>783.0</ele><time>2026-03-29T08:20:21.956Z</time></trkpt><trkpt lat="42.9409238" lon="12.1141637"><ele>781.6666666666666</ele><time>2026-03-29T08:20:23.948Z</time></trkpt><trkpt lat="42.9410123" lon="12.1142061"><ele>780.3333333333333</ele><time>2026-03-29T08:20:25.951Z</time></trkpt><trkpt lat="42.9410787" lon="12.1142357"><ele>779.0</ele><time>2026-03-29T08:20:26.951Z</time></trkpt><trkpt lat="42.9411638" lon="12.1142667"><ele>777.6666666666666</ele><time>2026-03-29T08:20:27.952Z</time></trkpt><trkpt lat="42.9412429" lon="12.1142836"><ele>776.3333333333333</ele><time>2026-03-29T08:20:28.945Z</time></trkpt><trkpt lat="42.9413065" lon="12.1142776"><ele>775.0</ele><time>2026-03-29T08:20:29.949Z</time></trkpt><trkpt lat="42.9414026" lon="12.1142391"><ele>775.0</ele><time>2026-03-29T08:20:31.949Z</time></trkpt><trkpt lat="42.9414907" lon="12.114193"><ele>775.0</ele><time>2026-03-29T08:20:33.948Z</time></trkpt><trkpt lat="42.9415896" lon="12.114144"><ele>775.0</ele><time>2026-03-29T08:20:35.948Z</time></trkpt><trkpt lat="42.9416847" lon="12.1141055"><ele>775.0</ele><time>2026-03-29T08:20:37.95Z</time></trkpt><trkpt lat="42.9417623" lon="12.1140346"><ele>775.0</ele><time>2026-03-29T08:20:39.949Z</time></trkpt><trkpt lat="42.9418299" lon="12.1139373"><ele>772.9999999999999</ele><time>2026-03-29T08:20:41.945Z</time></trkpt><trkpt lat="42.9418942" lon="12.1138396"><ele>771.0</ele><time>2026-03-29T08:20:43.948Z</time></trkpt><trkpt lat="42.9419551" lon="12.1137629"><ele>769.0</ele><time>2026-03-29T08:20:45.948Z</time></trkpt><trkpt lat="42.9420096" lon="12.1136874"><ele>767.0</ele><time>2026-03-29T08:20:47.946Z</time></trkpt><trkpt lat="42.9420359" lon="12.1135995"><ele>765.0</ele><time>2026-03-29T08:20:49.952Z</time></trkpt><trkpt lat="42.9420547" lon="12.1134924"><ele>763.0</ele><time>2026-03-29T08:20:52.95Z</time></trkpt><trkpt lat="42.9420877" lon="12.1134041"><ele>763.0</ele><time>2026-03-29T08:20:54.951Z</time></trkpt><trkpt lat="42.9421613" lon="12.1133164"><ele>763.0</ele><time>2026-03-29T08:20:56.947Z</time></trkpt><trkpt lat="42.9422815" lon="12.113306"><ele>763.0</ele><time>2026-03-29T08:20:58.944Z</time></trkpt><trkpt lat="42.9423716" lon="12.1133014"><ele>763.0</ele><time>2026-03-29T08:21:00.945Z</time></trkpt><trkpt lat="42.9424117" lon="12.1132194"><ele>763.0</ele><time>2026-03-29T08:21:02.947Z</time></trkpt><trkpt lat="42.9424524" lon="12.1131004"><ele>764.4</ele><time>2026-03-29T08:21:04.951Z</time></trkpt><trkpt lat="42.9425082" lon="12.1129762"><ele>765.8</ele><time>2026-03-29T08:21:06.946Z</time></trkpt><trkpt lat="42.9425941" lon="12.1128729"><ele>767.2</ele><time>2026-03-29T08:21:08.95Z</time></trkpt><trkpt lat="42.9427034" lon="12.1127817"><ele>768.6</ele><time>2026-03-29T08:21:10.951Z</time></trkpt><trkpt lat="42.942776" lon="12.1127071"><ele>770.0</ele><time>2026-03-29T08:21:11.951Z</time></trkpt><trkpt lat="42.9428522" lon="12.1126195"><ele>770.0000000000001</ele><time>2026-03-29T08:21:12.949Z</time></trkpt><trkpt lat="42.9429161" lon="12.1125435"><ele>770.0</ele><time>2026-03-29T08:21:13.948Z</time></trkpt><trkpt lat="42.942973" lon="12.1124777"><ele>770.0</ele><time>2026-03-29T08:21:14.947Z</time></trkpt><trkpt lat="42.9430266" lon="12.1124192"><ele>770.0</ele><time>2026-03-29T08:21:15.949Z</time></trkpt><trkpt lat="42.9431358" lon="12.1123673"><ele>770.0000000000001</ele><time>2026-03-29T08:21:17.947Z</time></trkpt><trkpt lat="42.9432292" lon="12.1123461"><ele>770.0</ele><time>2026-03-29T08:21:19.95Z</time></trkpt><trkpt lat="42.943335" lon="12.1123424"><ele>767.0000000000001</ele><time>2026-03-29T08:21:21.949Z</time></trkpt><trkpt lat="42.9434573" lon="12.1123438"><ele>764.0</ele><time>2026-03-29T08:21:23.951Z</time></trkpt><trkpt lat="42.9435259" lon="12.1123444"><ele>761.0</ele><time>2026-03-29T08:21:24.948Z</time></trkpt><trkpt lat="42.9435919" lon="12.112344"><ele>758.0</ele><time>2026-03-29T08:21:25.952Z</time></trkpt><trkpt lat="42.9436551" lon="12.1123423"><ele>755.0</ele><time>2026-03-29T08:21:26.945Z</time></trkpt><trkpt lat="42.9437653" lon="12.1123059"><ele>752.0</ele><time>2026-03-29T08:21:28.946Z</time></trkpt><trkpt lat="42.9438463" lon="12.112237"><ele>752.0</ele><time>2026-03-29T08:21:30.951Z</time></trkpt><trkpt lat="42.9439216" lon="12.1121826"><ele>752.0</ele><time>2026-03-29T08:21:32.949Z</time></trkpt><trkpt lat="42.9440166" lon="12.1121492"><ele>752.0</ele><time>2026-03-29T08:21:34.951Z</time></trkpt><trkpt lat="42.9441462" lon="12.1121099"><ele>752.0</ele><time>2026-03-29T08:21:36.952Z</time></trkpt><trkpt lat="42.9442126" lon="12.1120733"><ele>752.0</ele><time>2026-03-29T08:21:37.949Z</time></trkpt><trkpt lat="42.9442768" lon="12.1120375"><ele>753.2</ele><time>2026-03-29T08:21:38.948Z</time></trkpt><trkpt lat="42.9443398" lon="12.1120055"><ele>754.4000000000001</ele><time>2026-03-29T08:21:39.948Z</time></trkpt><trkpt lat="42.9444563" lon="12.1119748"><ele>755.5999999999999</ele><time>2026-03-29T08:21:41.946Z</time></trkpt><trkpt lat="42.9445928" lon="12.1119956"><ele>756.8</ele><time>2026-03-29T08:21:43.95Z</time></trkpt><trkpt lat="42.9446693" lon="12.1120361"><ele>758.0</ele><time>2026-03-29T08:21:44.952Z</time></trkpt><trkpt lat="42.9447345" lon="12.1120781"><ele>758.0000000000001</ele><time>2026-03-29T08:21:45.952Z</time></trkpt><trkpt lat="42.9447939" lon="12.112123"><ele>758.0</ele><time>2026-03-29T08:21:46.949Z</time></trkpt><trkpt lat="42.9448537" lon="12.1121565"><ele>758.0</ele><time>2026-03-29T08:21:47.951Z</time></trkpt><trkpt lat="42.9449612" lon="12.1121601"><ele>758.0</ele><time>2026-03-29T08:21:49.96Z</time></trkpt><trkpt lat="42.9450175" lon="12.1121028"><ele>758.0</ele><time>2026-03-29T08:21:51.949Z</time></trkpt><trkpt lat="42.9450371" lon="12.112017"><ele>758.0000000000001</ele><time>2026-03-29T08:21:53.95Z</time></trkpt><trkpt lat="42.9450547" lon="12.1119242"><ele>758.0</ele><time>2026-03-29T08:21:55.949Z</time></trkpt><trkpt lat="42.9450591" lon="12.1118031"><ele>757.0000000000001</ele><time>2026-03-29T08:21:57.961Z</time></trkpt><trkpt lat="42.9450644" lon="12.1117024"><ele>756.0</ele><time>2026-03-29T08:21:59.949Z</time></trkpt><trkpt lat="42.9450589" lon="12.1115866"><ele>755.0</ele><time>2026-03-29T08:22:02.947Z</time></trkpt><trkpt lat="42.9450322" lon="12.1115055"><ele>754.0</ele><time>2026-03-29T08:22:05.952Z</time></trkpt><trkpt lat="42.9450109" lon="12.1114108"><ele>753.0</ele><time>2026-03-29T08:22:08.949Z</time></trkpt><trkpt lat="42.9449749" lon="12.1113114"><ele>752.0000000000001</ele><time>2026-03-29T08:22:11.948Z</time></trkpt><trkpt lat="42.9449455" lon="12.1112294"><ele>751.0</ele><time>2026-03-29T08:22:13.949Z</time></trkpt><trkpt lat="42.9449021" lon="12.1111365"><ele>750.6666666666667</ele><time>2026-03-29T08:22:15.948Z</time></trkpt><trkpt lat="42.9448658" lon="12.1110443"><ele>750.3333333333334</ele><time>2026-03-29T08:22:17.951Z</time></trkpt><trkpt lat="42.9448381" lon="12.1109436"><ele>750.0</ele><time>2026-03-29T08:22:19.954Z</time></trkpt><trkpt lat="42.9448185" lon="12.1108593"><ele>749.6666666666666</ele><time>2026-03-29T08:22:21.95Z</time></trkpt><trkpt lat="42.9448158" lon="12.1107519"><ele>749.3333333333333</ele><time>2026-03-29T08:22:24.952Z</time></trkpt><trkpt lat="42.9448387" lon="12.1106533"><ele>749.0</ele><time>2026-03-29T08:22:26.95Z</time></trkpt><trkpt lat="42.9448816" lon="12.1105311"><ele>746.8333333333333</ele><time>2026-03-29T08:22:28.949Z</time></trkpt><trkpt lat="42.9449238" lon="12.1104357"><ele>744.6666666666666</ele><time>2026-03-29T08:22:30.949Z</time></trkpt><trkpt lat="42.9449605" lon="12.1103504"><ele>742.5</ele><time>2026-03-29T08:22:33.949Z</time></trkpt><trkpt lat="42.9450031" lon="12.1102643"><ele>740.3333333333334</ele><time>2026-03-29T08:22:37.948Z</time></trkpt><trkpt lat="42.9450486" lon="12.1102021"><ele>738.1666666666667</ele><time>2026-03-29T08:22:40.947Z</time></trkpt><trkpt lat="42.9451094" lon="12.1101255"><ele>736.0</ele><time>2026-03-29T08:22:44.95Z</time></trkpt><trkpt lat="42.9451747" lon="12.1100344"><ele>735.5</ele><time>2026-03-29T08:22:47.95Z</time></trkpt><trkpt lat="42.9452353" lon="12.1099346"><ele>735.0</ele><time>2026-03-29T08:22:50.951Z</time></trkpt><trkpt lat="42.945275" lon="12.1098553"><ele>734.5</ele><time>2026-03-29T08:22:52.952Z</time></trkpt><trkpt lat="42.9452769" lon="12.1097555"><ele>734.0</ele><time>2026-03-29T08:22:54.949Z</time></trkpt><trkpt lat="42.945247" lon="12.1096337"><ele>733.5</ele><time>2026-03-29T08:22:56.954Z</time></trkpt><trkpt lat="42.9452266" lon="12.1095273"><ele>733.0</ele><time>2026-03-29T08:22:58.948Z</time></trkpt><trkpt lat="42.9452069" lon="12.1094331"><ele>730.8333333333334</ele><time>2026-03-29T08:23:00.952Z</time></trkpt><trkpt lat="42.9451696" lon="12.1093198"><ele>728.6666666666667</ele><time>2026-03-29T08:23:03.98Z</time></trkpt><trkpt lat="42.9451255" lon="12.109214"><ele>726.5</ele><time>2026-03-29T08:23:05.95Z</time></trkpt><trkpt lat="42.945094" lon="12.1091144"><ele>724.3333333333334</ele><time>2026-03-29T08:23:07.951Z</time></trkpt><trkpt lat="42.9450853" lon="12.108993"><ele>722.1666666666666</ele><time>2026-03-29T08:23:10.958Z</time></trkpt><trkpt lat="42.945122" lon="12.1088963"><ele>720.0</ele><time>2026-03-29T08:23:13.954Z</time></trkpt><trkpt lat="42.9451619" lon="12.1088236"><ele>718.5714285714286</ele><time>2026-03-29T08:23:15.949Z</time></trkpt><trkpt lat="42.94521" lon="12.1087479"><ele>717.1428571428572</ele><time>2026-03-29T08:23:17.952Z</time></trkpt><trkpt lat="42.9452525" lon="12.1086703"><ele>715.7142857142858</ele><time>2026-03-29T08:23:19.953Z</time></trkpt><trkpt lat="42.9452915" lon="12.1086002"><ele>714.2857142857142</ele><time>2026-03-29T08:23:21.979Z</time></trkpt><trkpt lat="42.9453388" lon="12.1085259"><ele>712.8571428571429</ele><time>2026-03-29T08:23:24.977Z</time></trkpt><trkpt lat="42.9453817" lon="12.1084514"><ele>711.4285714285714</ele><time>2026-03-29T08:23:27.947Z</time></trkpt><trkpt lat="42.9454362" lon="12.1083656"><ele>710.0</ele><time>2026-03-29T08:23:30.951Z</time></trkpt><trkpt lat="42.9454772" lon="12.10829"><ele>709.5</ele><time>2026-03-29T08:23:33.947Z</time></trkpt><trkpt lat="42.9454431" lon="12.1082022"><ele>709.0</ele><time>2026-03-29T08:23:36.953Z</time></trkpt><trkpt lat="42.9453174" lon="12.1081671"><ele>708.5</ele><time>2026-03-29T08:23:38.949Z</time></trkpt><trkpt lat="42.9452418" lon="12.1081822"><ele>708.0</ele><time>2026-03-29T08:23:39.976Z</time></trkpt><trkpt lat="42.9451718" lon="12.1082101"><ele>707.5</ele><time>2026-03-29T08:23:40.95Z</time></trkpt><trkpt lat="42.9451001" lon="12.1082374"><ele>707.0</ele><time>2026-03-29T08:23:41.947Z</time></trkpt><trkpt lat="42.9450337" lon="12.108256"><ele>707.0</ele><time>2026-03-29T08:23:42.95Z</time></trkpt><trkpt lat="42.944929" lon="12.1082656"><ele>707.0</ele><time>2026-03-29T08:23:44.95Z</time></trkpt><trkpt lat="42.9448211" lon="12.1082758"><ele>707.0</ele><time>2026-03-29T08:23:46.955Z</time></trkpt><trkpt lat="42.9447101" lon="12.1083381"><ele>707.0</ele><time>2026-03-29T08:23:48.951Z</time></trkpt><trkpt lat="42.9446497" lon="12.1083835"><ele>707.0</ele><time>2026-03-29T08:23:49.95Z</time></trkpt><trkpt lat="42.944595" lon="12.108433"><ele>707.0</ele><time>2026-03-29T08:23:50.947Z</time></trkpt><trkpt lat="42.9445193" lon="12.1085213"><ele>707.0</ele><time>2026-03-29T08:23:52.948Z</time></trkpt><trkpt lat="42.9444392" lon="12.1086361"><ele>707.0</ele><time>2026-03-29T08:23:54.947Z</time></trkpt><trkpt lat="42.9443728" lon="12.1087685"><ele>707.0</ele><time>2026-03-29T08:23:56.951Z</time></trkpt><trkpt lat="42.9443312" lon="12.1089007"><ele>707.0</ele><time>2026-03-29T08:23:58.951Z</time></trkpt><trkpt lat="42.9442914" lon="12.1090129"><ele>707.0</ele><time>2026-03-29T08:24:00.949Z</time></trkpt><trkpt lat="42.9442455" lon="12.1090851"><ele>707.0</ele><time>2026-03-29T08:24:02.95Z</time></trkpt><trkpt lat="42.9441531" lon="12.1091117"><ele>707.0</ele><time>2026-03-29T08:24:04.949Z</time></trkpt><trkpt lat="42.9440649" lon="12.1091502"><ele>707.0</ele><time>2026-03-29T08:24:06.947Z</time></trkpt><trkpt lat="42.9440119" lon="12.1092351"><ele>707.0</ele><time>2026-03-29T08:24:09.951Z</time></trkpt><trkpt lat="42.9439594" lon="12.1093014"><ele>707.0</ele><time>2026-03-29T08:24:12.954Z</time></trkpt><trkpt lat="42.9438926" lon="12.1093727"><ele>707.0</ele><time>2026-03-29T08:24:15.949Z</time></trkpt><trkpt lat="42.943828" lon="12.1094513"><ele>707.0</ele><time>2026-03-29T08:24:18.951Z</time></trkpt><trkpt lat="42.9437753" lon="12.1095547"><ele>707.0</ele><time>2026-03-29T08:24:21.966Z</time></trkpt><trkpt lat="42.9437392" lon="12.1096654"><ele>707.0</ele><time>2026-03-29T08:24:24.948Z</time></trkpt><trkpt lat="42.9436448" lon="12.1096887"><ele>707.0</ele><time>2026-03-29T08:24:28.95Z</time></trkpt><trkpt lat="42.9435477" lon="12.109637"><ele>707.0</ele><time>2026-03-29T08:24:30.95Z</time></trkpt><trkpt lat="42.9434408" lon="12.1096257"><ele>707.0</ele><time>2026-03-29T08:24:32.946Z</time></trkpt><trkpt lat="42.9433468" lon="12.1096843"><ele>707.0</ele><time>2026-03-29T08:24:34.95Z</time></trkpt><trkpt lat="42.9432988" lon="12.1097413"><ele>707.0</ele><time>2026-03-29T08:24:35.948Z</time></trkpt><trkpt lat="42.9432501" lon="12.1098097"><ele>707.0</ele><time>2026-03-29T08:24:36.948Z</time></trkpt><trkpt lat="42.9431972" lon="12.1098888"><ele>707.0</ele><time>2026-03-29T08:24:37.946Z</time></trkpt><trkpt lat="42.9431509" lon="12.1099682"><ele>706.8333333333333</ele><time>2026-03-29T08:24:38.95Z</time></trkpt><trkpt lat="42.9431125" lon="12.1100413"><ele>706.6666666666666</ele><time>2026-03-29T08:24:39.953Z</time></trkpt><trkpt lat="42.9430573" lon="12.1100996"><ele>706.5</ele><time>2026-03-29T08:24:42.947Z</time></trkpt><trkpt lat="42.9430172" lon="12.1099804"><ele>706.3333333333334</ele><time>2026-03-29T08:24:45.949Z</time></trkpt><trkpt lat="42.9429791" lon="12.1098516"><ele>706.1666666666667</ele><time>2026-03-29T08:24:47.946Z</time></trkpt><trkpt lat="42.9429411" lon="12.1097718"><ele>706.0</ele><time>2026-03-29T08:24:48.949Z</time></trkpt><trkpt lat="42.9428999" lon="12.1096752"><ele>705.2857142857142</ele><time>2026-03-29T08:24:49.954Z</time></trkpt><trkpt lat="42.942862" lon="12.109577"><ele>704.5714285714287</ele><time>2026-03-29T08:24:50.954Z</time></trkpt><trkpt lat="42.942826" lon="12.1094998"><ele>703.8571428571429</ele><time>2026-03-29T08:24:51.946Z</time></trkpt><trkpt lat="42.9427814" lon="12.1094304"><ele>703.1428571428571</ele><time>2026-03-29T08:24:52.947Z</time></trkpt><trkpt lat="42.9427263" lon="12.1093623"><ele>702.4285714285713</ele><time>2026-03-29T08:24:53.956Z</time></trkpt><trkpt lat="42.9426646" lon="12.1093034"><ele>701.7142857142858</ele><time>2026-03-29T08:24:54.949Z</time></trkpt><trkpt lat="42.942612" lon="12.1092551"><ele>701.0</ele><time>2026-03-29T08:24:55.951Z</time></trkpt><trkpt lat="42.942534" lon="12.1091683"><ele>701.0</ele><time>2026-03-29T08:24:57.951Z</time></trkpt><trkpt lat="42.9424671" lon="12.1091509"><ele>701.0</ele><time>2026-03-29T08:24:59.951Z</time></trkpt><trkpt lat="42.9423545" lon="12.1091993"><ele>701.0</ele><time>2026-03-29T08:25:01.949Z</time></trkpt><trkpt lat="42.9422749" lon="12.1091644"><ele>701.0</ele><time>2026-03-29T08:25:04.948Z</time></trkpt><trkpt lat="42.9422621" lon="12.1090552"><ele>701.0</ele><time>2026-03-29T08:25:06.952Z</time></trkpt><trkpt lat="42.9422528" lon="12.1089401"><ele>701.0</ele><time>2026-03-29T08:25:08.954Z</time></trkpt><trkpt lat="42.9422342" lon="12.1088313"><ele>699.1999999999999</ele><time>2026-03-29T08:25:10.953Z</time></trkpt><trkpt lat="42.9421939" lon="12.1087511"><ele>697.4</ele><time>2026-03-29T08:25:12.947Z</time></trkpt><trkpt lat="42.9421316" lon="12.1086854"><ele>695.6</ele><time>2026-03-29T08:25:14.949Z</time></trkpt><trkpt lat="42.9420608" lon="12.1086162"><ele>693.8</ele><time>2026-03-29T08:25:16.948Z</time></trkpt><trkpt lat="42.9419703" lon="12.1085528"><ele>692.0</ele><time>2026-03-29T08:25:18.977Z</time></trkpt><trkpt lat="42.9418622" lon="12.1085094"><ele>692.0</ele><time>2026-03-29T08:25:20.973Z</time></trkpt><trkpt lat="42.9417786" lon="12.1084633"><ele>692.0</ele><time>2026-03-29T08:25:22.953Z</time></trkpt><trkpt lat="42.941724" lon="12.1083573"><ele>692.0</ele><time>2026-03-29T08:25:24.953Z</time></trkpt><trkpt lat="42.9416954" lon="12.1082608"><ele>692.0</ele><time>2026-03-29T08:25:25.957Z</time></trkpt><trkpt lat="42.9416559" lon="12.1081556"><ele>692.0</ele><time>2026-03-29T08:25:26.956Z</time></trkpt><trkpt lat="42.9416168" lon="12.1080751"><ele>692.0</ele><time>2026-03-29T08:25:27.946Z</time></trkpt><trkpt lat="42.9415779" lon="12.1079452"><ele>691.0</ele><time>2026-03-29T08:25:29.953Z</time></trkpt><trkpt lat="42.9416045" lon="12.1077768"><ele>690.0</ele><time>2026-03-29T08:25:31.953Z</time></trkpt><trkpt lat="42.9416383" lon="12.1076826"><ele>689.0</ele><time>2026-03-29T08:25:32.949Z</time></trkpt><trkpt lat="42.941682" lon="12.1075854"><ele>688.0</ele><time>2026-03-29T08:25:33.949Z</time></trkpt><trkpt lat="42.9417179" lon="12.1074835"><ele>687.0</ele><time>2026-03-29T08:25:34.948Z</time></trkpt><trkpt lat="42.9417417" lon="12.1073888"><ele>686.0</ele><time>2026-03-29T08:25:35.949Z</time></trkpt><trkpt lat="42.9417547" lon="12.1072922"><ele>685.4285714285714</ele><time>2026-03-29T08:25:36.947Z</time></trkpt><trkpt lat="42.941754" lon="12.107204"><ele>684.8571428571429</ele><time>2026-03-29T08:25:37.951Z</time></trkpt><trkpt lat="42.9417209" lon="12.1070776"><ele>684.2857142857142</ele><time>2026-03-29T08:25:39.95Z</time></trkpt><trkpt lat="42.9416884" lon="12.1070013"><ele>683.7142857142858</ele><time>2026-03-29T08:25:40.951Z</time></trkpt><trkpt lat="42.9416637" lon="12.1069145"><ele>683.1428571428571</ele><time>2026-03-29T08:25:41.948Z</time></trkpt><trkpt lat="42.9416426" lon="12.1068136"><ele>682.5714285714286</ele><time>2026-03-29T08:25:42.947Z</time></trkpt><trkpt lat="42.9416302" lon="12.1067132"><ele>682.0</ele><time>2026-03-29T08:25:43.946Z</time></trkpt><trkpt lat="42.941626" lon="12.1065577"><ele>682.0</ele><time>2026-03-29T08:25:45.947Z</time></trkpt><trkpt lat="42.9416537" lon="12.1064457"><ele>682.0</ele><time>2026-03-29T08:25:47.949Z</time></trkpt><trkpt lat="42.9416487" lon="12.1063278"><ele>682.0</ele><time>2026-03-29T08:25:49.952Z</time></trkpt><trkpt lat="42.9416011" lon="12.1061909"><ele>682.0</ele><time>2026-03-29T08:25:51.947Z</time></trkpt><trkpt lat="42.9415493" lon="12.1060504"><ele>682.0</ele><time>2026-03-29T08:25:53.949Z</time></trkpt><trkpt lat="42.9414969" lon="12.1059589"><ele>682.0</ele><time>2026-03-29T08:25:55.953Z</time></trkpt><trkpt lat="42.9414591" lon="12.1058712"><ele>682.0</ele><time>2026-03-29T08:25:57.948Z</time></trkpt><trkpt lat="42.941462" lon="12.1057794"><ele>682.0</ele><time>2026-03-29T08:25:59.951Z</time></trkpt><trkpt lat="42.9414998" lon="12.1056914"><ele>682.0</ele><time>2026-03-29T08:26:01.949Z</time></trkpt><trkpt lat="42.9415409" lon="12.1055733"><ele>682.0</ele><time>2026-03-29T08:26:03.955Z</time></trkpt><trkpt lat="42.9415611" lon="12.1054838"><ele>682.0</ele><time>2026-03-29T08:26:05.949Z</time></trkpt><trkpt lat="42.9415514" lon="12.1053883"><ele>680.5</ele><time>2026-03-29T08:26:08.983Z</time></trkpt><trkpt lat="42.9415436" lon="12.1052874"><ele>679.0</ele><time>2026-03-29T08:26:11.948Z</time></trkpt><trkpt lat="42.9415377" lon="12.1051968"><ele>677.5</ele><time>2026-03-29T08:26:13.949Z</time></trkpt><trkpt lat="42.9415579" lon="12.1050768"><ele>676.0</ele><time>2026-03-29T08:26:15.948Z</time></trkpt><trkpt lat="42.9415836" lon="12.1049819"><ele>674.5</ele><time>2026-03-29T08:26:17.951Z</time></trkpt><trkpt lat="42.9416171" lon="12.104901"><ele>673.0</ele><time>2026-03-29T08:26:21.951Z</time></trkpt><trkpt lat="42.9416368" lon="12.1047918"><ele>671.1666666666667</ele><time>2026-03-29T08:26:24.957Z</time></trkpt><trkpt lat="42.9416399" lon="12.1046862"><ele>669.3333333333334</ele><time>2026-03-29T08:26:30.014Z</time></trkpt><trkpt lat="42.9416045" lon="12.1045621"><ele>667.5</ele><time>2026-03-29T08:26:46.948Z</time></trkpt><trkpt lat="42.9415713" lon="12.1044766"><ele>665.6666666666666</ele><time>2026-03-29T08:26:49.949Z</time></trkpt><trkpt lat="42.9415432" lon="12.1043745"><ele>663.8333333333333</ele><time>2026-03-29T08:26:52.957Z</time></trkpt><trkpt lat="42.9415282" lon="12.1042636"><ele>662.0</ele><time>2026-03-29T08:26:55.949Z</time></trkpt><trkpt lat="42.9415334" lon="12.1041666"><ele>660.4285714285714</ele><time>2026-03-29T08:26:58.947Z</time></trkpt><trkpt lat="42.9415398" lon="12.1040566"><ele>658.8571428571429</ele><time>2026-03-29T08:27:02.948Z</time></trkpt><trkpt lat="42.941549" lon="12.1039591"><ele>657.2857142857142</ele><time>2026-03-29T08:27:06.953Z</time></trkpt><trkpt lat="42.9415823" lon="12.1038637"><ele>655.7142857142858</ele><time>2026-03-29T08:27:10.947Z</time></trkpt><trkpt lat="42.9415756" lon="12.1037718"><ele>654.1428571428571</ele><time>2026-03-29T08:27:15.949Z</time></trkpt><trkpt lat="42.9415884" lon="12.1036874"><ele>652.5714285714286</ele><time>2026-03-29T08:27:20.951Z</time></trkpt><trkpt lat="42.9415807" lon="12.103601"><ele>651.0</ele><time>2026-03-29T08:27:25.949Z</time></trkpt><trkpt lat="42.9416152" lon="12.1035265"><ele>651.0</ele><time>2026-03-29T08:27:29.952Z</time></trkpt><trkpt lat="42.9416603" lon="12.1034559"><ele>651.0</ele><time>2026-03-29T08:27:34.952Z</time></trkpt><trkpt lat="42.9417153" lon="12.1033924"><ele>651.0</ele><time>2026-03-29T08:27:38.948Z</time></trkpt><trkpt lat="42.9417803" lon="12.1033461"><ele>651.0</ele><time>2026-03-29T08:27:44.949Z</time></trkpt><trkpt lat="42.9418494" lon="12.1032938"><ele>651.0</ele><time>2026-03-29T08:27:49.949Z</time></trkpt><trkpt lat="42.9418598" lon="12.1032017"><ele>651.0</ele><time>2026-03-29T08:27:55.951Z</time></trkpt><trkpt lat="42.941854" lon="12.1030843"><ele>651.0</ele><time>2026-03-29T08:27:59.949Z</time></trkpt><trkpt lat="42.941827" lon="12.1029936"><ele>648.2857142857143</ele><time>2026-03-29T08:28:03.957Z</time></trkpt><trkpt lat="42.9417632" lon="12.1029407"><ele>645.5714285714286</ele><time>2026-03-29T08:28:06.953Z</time></trkpt><trkpt lat="42.9417" lon="12.1029038"><ele>642.8571428571429</ele><time>2026-03-29T08:28:08.946Z</time></trkpt><trkpt lat="42.9416357" lon="12.1028835"><ele>640.1428571428571</ele><time>2026-03-29T08:28:22.953Z</time></trkpt><trkpt lat="42.9415674" lon="12.1028811"><ele>637.4285714285714</ele><time>2026-03-29T08:31:45.967Z</time></trkpt><trkpt lat="42.9415359" lon="12.1027807"><ele>634.7142857142858</ele><time>2026-03-29T08:31:53.956Z</time></trkpt><trkpt lat="42.9414847" lon="12.102712"><ele>632.0</ele><time>2026-03-29T08:32:01.948Z</time></trkpt><trkpt lat="42.9414186" lon="12.1026773"><ele>632.0</ele><time>2026-03-29T08:32:11.946Z</time></trkpt><trkpt lat="42.9413533" lon="12.1026983"><ele>632.0</ele><time>2026-03-29T08:32:23.948Z</time></trkpt><trkpt lat="42.9412834" lon="12.1027475"><ele>632.0</ele><time>2026-03-29T08:33:14.953Z</time></trkpt><trkpt lat="42.9412003" lon="12.102718"><ele>632.0</ele><time>2026-03-29T08:33:18.95Z</time></trkpt><trkpt lat="42.9411137" lon="12.1026602"><ele>632.0</ele><time>2026-03-29T08:33:20.947Z</time></trkpt><trkpt lat="42.9410603" lon="12.1025577"><ele>632.0</ele><time>2026-03-29T08:33:22.953Z</time></trkpt><trkpt lat="42.941034" lon="12.1024654"><ele>629.4285714285714</ele><time>2026-03-29T08:33:25.951Z</time></trkpt><trkpt lat="42.9410313" lon="12.1023788"><ele>626.8571428571429</ele><time>2026-03-29T08:33:29.951Z</time></trkpt><trkpt lat="42.941005" lon="12.1022959"><ele>624.2857142857142</ele><time>2026-03-29T08:33:32.95Z</time></trkpt><trkpt lat="42.9409924" lon="12.102202"><ele>621.7142857142858</ele><time>2026-03-29T08:33:35.951Z</time></trkpt><trkpt lat="42.9409752" lon="12.1021171"><ele>619.1428571428571</ele><time>2026-03-29T08:33:37.951Z</time></trkpt><trkpt lat="42.9409649" lon="12.1020119"><ele>616.5714285714286</ele><time>2026-03-29T08:33:40.954Z</time></trkpt><trkpt lat="42.9409699" lon="12.1018759"><ele>614.0</ele><time>2026-03-29T08:33:43.946Z</time></trkpt><trkpt lat="42.940978" lon="12.1017657"><ele>614.0</ele><time>2026-03-29T08:33:45.952Z</time></trkpt><trkpt lat="42.941003" lon="12.1016849"><ele>614.0</ele><time>2026-03-29T08:33:47.949Z</time></trkpt><trkpt lat="42.9410702" lon="12.1016263"><ele>614.0</ele><time>2026-03-29T08:33:50.951Z</time></trkpt><trkpt lat="42.9411445" lon="12.1015841"><ele>614.0</ele><time>2026-03-29T08:33:53.978Z</time></trkpt><trkpt lat="42.9412295" lon="12.1015358"><ele>614.0</ele><time>2026-03-29T08:33:56.952Z</time></trkpt><trkpt lat="42.941283" lon="12.1014843"><ele>614.0</ele><time>2026-03-29T08:33:58.945Z</time></trkpt><trkpt lat="42.9413412" lon="12.1013993"><ele>610.3333333333333</ele><time>2026-03-29T08:34:01.948Z</time></trkpt><trkpt lat="42.9413629" lon="12.1012859"><ele>606.6666666666666</ele><time>2026-03-29T08:34:04.954Z</time></trkpt><trkpt lat="42.9413778" lon="12.101191"><ele>603.0</ele><time>2026-03-29T08:34:06.949Z</time></trkpt><trkpt lat="42.9413374" lon="12.1010985"><ele>599.3333333333334</ele><time>2026-03-29T08:34:08.946Z</time></trkpt><trkpt lat="42.9412713" lon="12.1010564"><ele>595.6666666666667</ele><time>2026-03-29T08:34:10.949Z</time></trkpt><trkpt lat="42.9412127" lon="12.101017"><ele>592.0</ele><time>2026-03-29T08:34:12.951Z</time></trkpt><trkpt lat="42.9411475" lon="12.1009605"><ele>592.0</ele><time>2026-03-29T08:34:14.95Z</time></trkpt><trkpt lat="42.9410998" lon="12.1008858"><ele>592.0</ele><time>2026-03-29T08:34:16.945Z</time></trkpt><trkpt lat="42.9410803" lon="12.1008029"><ele>592.0</ele><time>2026-03-29T08:34:18.949Z</time></trkpt><trkpt lat="42.9410775" lon="12.10071"><ele>592.0</ele><time>2026-03-29T08:34:20.947Z</time></trkpt><trkpt lat="42.9410676" lon="12.1005771"><ele>592.0</ele><time>2026-03-29T08:34:22.947Z</time></trkpt><trkpt lat="42.9410504" lon="12.1004302"><ele>592.0</ele><time>2026-03-29T08:34:24.957Z</time></trkpt><trkpt lat="42.9410486" lon="12.1003098"><ele>589.5</ele><time>2026-03-29T08:34:26.947Z</time></trkpt><trkpt lat="42.941052" lon="12.1002112"><ele>587.0</ele><time>2026-03-29T08:34:28.947Z</time></trkpt><trkpt lat="42.9410618" lon="12.1000853"><ele>584.5</ele><time>2026-03-29T08:34:31.95Z</time></trkpt><trkpt lat="42.9410631" lon="12.0999847"><ele>582.0</ele><time>2026-03-29T08:34:33.947Z</time></trkpt><trkpt lat="42.94106" lon="12.0998712"><ele>579.5</ele><time>2026-03-29T08:34:35.977Z</time></trkpt><trkpt lat="42.9410399" lon="12.0997639"><ele>577.0</ele><time>2026-03-29T08:34:37.95Z</time></trkpt><trkpt lat="42.9410407" lon="12.0996677"><ele>575.5</ele><time>2026-03-29T08:34:39.953Z</time></trkpt><trkpt lat="42.941061" lon="12.0995841"><ele>574.0</ele><time>2026-03-29T08:34:41.948Z</time></trkpt><trkpt lat="42.9410909" lon="12.0994964"><ele>572.5</ele><time>2026-03-29T08:34:43.995Z</time></trkpt><trkpt lat="42.9411352" lon="12.0993898"><ele>571.0</ele><time>2026-03-29T08:34:46.947Z</time></trkpt><trkpt lat="42.9411662" lon="12.0992917"><ele>569.5</ele><time>2026-03-29T08:34:49.952Z</time></trkpt><trkpt lat="42.9411944" lon="12.0991765"><ele>568.0</ele><time>2026-03-29T08:34:52.949Z</time></trkpt><trkpt lat="42.9411888" lon="12.0990776"><ele>567.1666666666667</ele><time>2026-03-29T08:34:54.949Z</time></trkpt><trkpt lat="42.9411811" lon="12.0989796"><ele>566.3333333333334</ele><time>2026-03-29T08:34:56.947Z</time></trkpt><trkpt lat="42.9412037" lon="12.0988574"><ele>565.5</ele><time>2026-03-29T08:34:59.957Z</time></trkpt><trkpt lat="42.9412168" lon="12.0987619"><ele>564.6666666666666</ele><time>2026-03-29T08:35:01.946Z</time></trkpt><trkpt lat="42.9412244" lon="12.0986053"><ele>563.8333333333333</ele><time>2026-03-29T08:35:03.956Z</time></trkpt><trkpt lat="42.9412336" lon="12.0985088"><ele>563.0</ele><time>2026-03-29T08:35:04.943Z</time></trkpt><trkpt lat="42.9412495" lon="12.098397"><ele>563.0</ele><time>2026-03-29T08:35:05.957Z</time></trkpt><trkpt lat="42.9412693" lon="12.0982875"><ele>563.0</ele><time>2026-03-29T08:35:06.945Z</time></trkpt><trkpt lat="42.9412838" lon="12.0981868"><ele>563.0</ele><time>2026-03-29T08:35:07.946Z</time></trkpt><trkpt lat="42.9412983" lon="12.0980982"><ele>563.0</ele><time>2026-03-29T08:35:08.946Z</time></trkpt><trkpt lat="42.9413274" lon="12.0979455"><ele>563.0</ele><time>2026-03-29T08:35:10.948Z</time></trkpt><trkpt lat="42.9413309" lon="12.0978111"><ele>563.0</ele><time>2026-03-29T08:35:12.947Z</time></trkpt><trkpt lat="42.9413211" lon="12.0976819"><ele>561.8</ele><time>2026-03-29T08:35:14.947Z</time></trkpt><trkpt lat="42.9413018" lon="12.0975409"><ele>560.5999999999999</ele><time>2026-03-29T08:35:16.945Z</time></trkpt><trkpt lat="42.9412891" lon="12.097393"><ele>559.4000000000001</ele><time>2026-03-29T08:35:18.945Z</time></trkpt><trkpt lat="42.9412871" lon="12.0972461"><ele>558.2</ele><time>2026-03-29T08:35:20.949Z</time></trkpt><trkpt lat="42.9412685" lon="12.0971024"><ele>557.0</ele><time>2026-03-29T08:35:22.945Z</time></trkpt><trkpt lat="42.9412455" lon="12.0969719"><ele>556.6666666666666</ele><time>2026-03-29T08:35:24.944Z</time></trkpt><trkpt lat="42.9412148" lon="12.0968287"><ele>556.3333333333333</ele><time>2026-03-29T08:35:26.945Z</time></trkpt><trkpt lat="42.9411993" lon="12.0967385"><ele>556.0</ele><time>2026-03-29T08:35:27.955Z</time></trkpt><trkpt lat="42.9411925" lon="12.0966469"><ele>555.6666666666666</ele><time>2026-03-29T08:35:28.95Z</time></trkpt><trkpt lat="42.9411921" lon="12.096557"><ele>555.3333333333334</ele><time>2026-03-29T08:35:29.957Z</time></trkpt><trkpt lat="42.9412001" lon="12.0964658"><ele>555.0</ele><time>2026-03-29T08:35:30.952Z</time></trkpt><trkpt lat="42.9412156" lon="12.096367"><ele>554.8333333333334</ele><time>2026-03-29T08:35:31.951Z</time></trkpt><trkpt lat="42.9412309" lon="12.0962715"><ele>554.6666666666666</ele><time>2026-03-29T08:35:32.945Z</time></trkpt><trkpt lat="42.9412531" lon="12.0961522"><ele>554.5</ele><time>2026-03-29T08:35:34.959Z</time></trkpt><trkpt lat="42.9412274" lon="12.0960501"><ele>554.3333333333333</ele><time>2026-03-29T08:35:36.948Z</time></trkpt><trkpt lat="42.94118" lon="12.0959633"><ele>554.1666666666666</ele><time>2026-03-29T08:35:39.944Z</time></trkpt><trkpt lat="42.9411658" lon="12.0958627"><ele>554.0</ele><time>2026-03-29T08:35:41.956Z</time></trkpt><trkpt lat="42.9411421" lon="12.0957724"><ele>554.4285714285714</ele><time>2026-03-29T08:35:42.95Z</time></trkpt><trkpt lat="42.9411111" lon="12.0956624"><ele>554.8571428571428</ele><time>2026-03-29T08:35:43.959Z</time></trkpt><trkpt lat="42.941093" lon="12.0955642"><ele>555.2857142857142</ele><time>2026-03-29T08:35:44.944Z</time></trkpt><trkpt lat="42.9410866" lon="12.0954747"><ele>555.7142857142857</ele><time>2026-03-29T08:35:45.951Z</time></trkpt><trkpt lat="42.9410822" lon="12.0953795"><ele>556.1428571428571</ele><time>2026-03-29T08:35:46.947Z</time></trkpt><trkpt lat="42.9410832" lon="12.0952769"><ele>556.5714285714286</ele><time>2026-03-29T08:35:47.946Z</time></trkpt><trkpt lat="42.9410955" lon="12.0951717"><ele>557.0</ele><time>2026-03-29T08:35:48.952Z</time></trkpt><trkpt lat="42.9411189" lon="12.0950658"><ele>557.0</ele><time>2026-03-29T08:35:49.947Z</time></trkpt><trkpt lat="42.9411497" lon="12.0949617"><ele>557.0</ele><time>2026-03-29T08:35:50.945Z</time></trkpt><trkpt lat="42.9411688" lon="12.0948761"><ele>557.0</ele><time>2026-03-29T08:35:51.955Z</time></trkpt><trkpt lat="42.9411819" lon="12.0947831"><ele>557.0</ele><time>2026-03-29T08:35:53.948Z</time></trkpt><trkpt lat="42.941177" lon="12.094689"><ele>557.0</ele><time>2026-03-29T08:35:55.954Z</time></trkpt><trkpt lat="42.9411358" lon="12.0945298"><ele>557.0</ele><time>2026-03-29T08:35:57.981Z</time></trkpt><trkpt lat="42.941114" lon="12.0944303"><ele>556.3333333333333</ele><time>2026-03-29T08:35:58.944Z</time></trkpt><trkpt lat="42.9411031" lon="12.0943294"><ele>555.6666666666666</ele><time>2026-03-29T08:35:59.947Z</time></trkpt><trkpt lat="42.9410986" lon="12.0942417"><ele>555.0</ele><time>2026-03-29T08:36:00.949Z</time></trkpt><trkpt lat="42.9410929" lon="12.0941143"><ele>554.3333333333334</ele><time>2026-03-29T08:36:02.946Z</time></trkpt><trkpt lat="42.9411055" lon="12.0940037"><ele>553.6666666666667</ele><time>2026-03-29T08:36:04.949Z</time></trkpt><trkpt lat="42.9411385" lon="12.0938629"><ele>553.0</ele><time>2026-03-29T08:36:06.953Z</time></trkpt><trkpt lat="42.9411867" lon="12.0937051"><ele>552.2857142857143</ele><time>2026-03-29T08:36:08.947Z</time></trkpt><trkpt lat="42.9412146" lon="12.0936256"><ele>551.5714285714286</ele><time>2026-03-29T08:36:09.949Z</time></trkpt><trkpt lat="42.9412382" lon="12.0935447"><ele>550.8571428571429</ele><time>2026-03-29T08:36:10.949Z</time></trkpt><trkpt lat="42.9412549" lon="12.0934562"><ele>550.1428571428571</ele><time>2026-03-29T08:36:11.948Z</time></trkpt><trkpt lat="42.9412656" lon="12.0933598"><ele>549.4285714285714</ele><time>2026-03-29T08:36:12.948Z</time></trkpt><trkpt lat="42.9412729" lon="12.093255"><ele>548.7142857142858</ele><time>2026-03-29T08:36:13.949Z</time></trkpt><trkpt lat="42.9412705" lon="12.0931535"><ele>548.0</ele><time>2026-03-29T08:36:14.945Z</time></trkpt><trkpt lat="42.9412659" lon="12.0930457"><ele>546.6666666666666</ele><time>2026-03-29T08:36:15.956Z</time></trkpt><trkpt lat="42.9412561" lon="12.0929295"><ele>545.3333333333333</ele><time>2026-03-29T08:36:16.946Z</time></trkpt><trkpt lat="42.9412389" lon="12.0928159"><ele>544.0</ele><time>2026-03-29T08:36:17.946Z</time></trkpt><trkpt lat="42.9412181" lon="12.0927093"><ele>542.6666666666666</ele><time>2026-03-29T08:36:18.951Z</time></trkpt><trkpt lat="42.9411943" lon="12.0926073"><ele>541.3333333333334</ele><time>2026-03-29T08:36:19.952Z</time></trkpt><trkpt lat="42.9411695" lon="12.0925191"><ele>540.0</ele><time>2026-03-29T08:36:20.953Z</time></trkpt><trkpt lat="42.9411423" lon="12.0924408"><ele>538.8333333333334</ele><time>2026-03-29T08:36:21.945Z</time></trkpt><trkpt lat="42.9410954" lon="12.0922866"><ele>537.6666666666666</ele><time>2026-03-29T08:36:23.949Z</time></trkpt><trkpt lat="42.9410777" lon="12.0921955"><ele>536.5</ele><time>2026-03-29T08:36:24.945Z</time></trkpt><trkpt lat="42.9410639" lon="12.0920966"><ele>535.3333333333333</ele><time>2026-03-29T08:36:25.949Z</time></trkpt><trkpt lat="42.9410553" lon="12.0920019"><ele>534.1666666666666</ele><time>2026-03-29T08:36:26.948Z</time></trkpt><trkpt lat="42.9410503" lon="12.0919153"><ele>533.0</ele><time>2026-03-29T08:36:27.945Z</time></trkpt><trkpt lat="42.9410543" lon="12.0917784"><ele>533.0</ele><time>2026-03-29T08:36:29.944Z</time></trkpt><trkpt lat="42.9410705" lon="12.091652"><ele>533.0</ele><time>2026-03-29T08:36:31.951Z</time></trkpt><trkpt lat="42.9410794" lon="12.0915147"><ele>533.0</ele><time>2026-03-29T08:36:33.945Z</time></trkpt><trkpt lat="42.9410693" lon="12.0913452"><ele>533.0</ele><time>2026-03-29T08:36:35.949Z</time></trkpt><trkpt lat="42.9410329" lon="12.0911975"><ele>533.0</ele><time>2026-03-29T08:36:37.95Z</time></trkpt><trkpt lat="42.9409661" lon="12.0910415"><ele>533.3333333333333</ele><time>2026-03-29T08:36:39.947Z</time></trkpt><trkpt lat="42.9409388" lon="12.0909522"><ele>533.6666666666666</ele><time>2026-03-29T08:36:40.975Z</time></trkpt><trkpt lat="42.9409175" lon="12.0908628"><ele>534.0</ele><time>2026-03-29T08:36:41.949Z</time></trkpt><trkpt lat="42.9408927" lon="12.0907736"><ele>534.3333333333334</ele><time>2026-03-29T08:36:42.95Z</time></trkpt><trkpt lat="42.9408612" lon="12.0906805"><ele>534.6666666666667</ele><time>2026-03-29T08:36:43.95Z</time></trkpt><trkpt lat="42.9408126" lon="12.0905788"><ele>535.0</ele><time>2026-03-29T08:36:44.946Z</time></trkpt><trkpt lat="42.9407571" lon="12.0904711"><ele>535.0</ele><time>2026-03-29T08:36:45.956Z</time></trkpt><trkpt lat="42.940715" lon="12.0903658"><ele>535.0</ele><time>2026-03-29T08:36:46.96Z</time></trkpt><trkpt lat="42.940682" lon="12.09027"><ele>535.0</ele><time>2026-03-29T08:36:47.957Z</time></trkpt><trkpt lat="42.9406506" lon="12.0901838"><ele>535.0</ele><time>2026-03-29T08:36:48.947Z</time></trkpt><trkpt lat="42.9406006" lon="12.0900314"><ele>535.0</ele><time>2026-03-29T08:36:50.951Z</time></trkpt><trkpt lat="42.9405804" lon="12.0899479"><ele>535.0</ele><time>2026-03-29T08:36:51.95Z</time></trkpt><trkpt lat="42.9405449" lon="12.0897912"><ele>534.0</ele><time>2026-03-29T08:36:53.947Z</time></trkpt><trkpt lat="42.9405445" lon="12.0896571"><ele>533.0</ele><time>2026-03-29T08:36:55.954Z</time></trkpt><trkpt lat="42.9405613" lon="12.0894894"><ele>532.0</ele><time>2026-03-29T08:36:57.947Z</time></trkpt><trkpt lat="42.9405411" lon="12.0893924"><ele>531.0</ele><time>2026-03-29T08:36:58.948Z</time></trkpt><trkpt lat="42.9404988" lon="12.089301"><ele>530.0</ele><time>2026-03-29T08:36:59.952Z</time></trkpt><trkpt lat="42.9404362" lon="12.0892207"><ele>530.0</ele><time>2026-03-29T08:37:00.944Z</time></trkpt><trkpt lat="42.940365" lon="12.0891542"><ele>530.0</ele><time>2026-03-29T08:37:01.949Z</time></trkpt><trkpt lat="42.9402941" lon="12.0890914"><ele>530.0</ele><time>2026-03-29T08:37:02.953Z</time></trkpt><trkpt lat="42.9402293" lon="12.0890348"><ele>530.0</ele><time>2026-03-29T08:37:03.951Z</time></trkpt><trkpt lat="42.9401747" lon="12.0889771"><ele>530.0</ele><time>2026-03-29T08:37:04.954Z</time></trkpt><trkpt lat="42.9401061" lon="12.0888411"><ele>530.0</ele><time>2026-03-29T08:37:06.949Z</time></trkpt><trkpt lat="42.9400802" lon="12.0887412"><ele>529.3333333333333</ele><time>2026-03-29T08:37:07.947Z</time></trkpt><trkpt lat="42.9400492" lon="12.0886267"><ele>528.6666666666666</ele><time>2026-03-29T08:37:08.952Z</time></trkpt><trkpt lat="42.9400163" lon="12.0885125"><ele>528.0</ele><time>2026-03-29T08:37:09.946Z</time></trkpt><trkpt lat="42.9399862" lon="12.0884091"><ele>527.3333333333334</ele><time>2026-03-29T08:37:10.947Z</time></trkpt><trkpt lat="42.9399542" lon="12.0883238"><ele>526.6666666666667</ele><time>2026-03-29T08:37:11.954Z</time></trkpt><trkpt lat="42.939919" lon="12.0882505"><ele>526.0</ele><time>2026-03-29T08:37:12.946Z</time></trkpt><trkpt lat="42.9398283" lon="12.0881446"><ele>525.2</ele><time>2026-03-29T08:37:14.95Z</time></trkpt><trkpt lat="42.9397994" lon="12.0880513"><ele>524.4000000000001</ele><time>2026-03-29T08:37:16.952Z</time></trkpt><trkpt lat="42.9398351" lon="12.0879436"><ele>523.6</ele><time>2026-03-29T08:37:18.952Z</time></trkpt><trkpt lat="42.9398921" lon="12.0878166"><ele>522.8000000000001</ele><time>2026-03-29T08:37:20.952Z</time></trkpt><trkpt lat="42.9399372" lon="12.0876975"><ele>522.0</ele><time>2026-03-29T08:37:22.947Z</time></trkpt><trkpt lat="42.9399745" lon="12.0875924"><ele>522.0</ele><time>2026-03-29T08:37:24.945Z</time></trkpt><trkpt lat="42.9400182" lon="12.0874674"><ele>522.0</ele><time>2026-03-29T08:37:26.947Z</time></trkpt><trkpt lat="42.9400591" lon="12.0873283"><ele>522.0</ele><time>2026-03-29T08:37:28.955Z</time></trkpt><trkpt lat="42.9400871" lon="12.0872488"><ele>522.0</ele><time>2026-03-29T08:37:29.953Z</time></trkpt><trkpt lat="42.9401163" lon="12.08716"><ele>522.0</ele><time>2026-03-29T08:37:30.955Z</time></trkpt><trkpt lat="42.9401386" lon="12.0870785"><ele>522.0</ele><time>2026-03-29T08:37:31.947Z</time></trkpt><trkpt lat="42.9401851" lon="12.086943"><ele>520.2</ele><time>2026-03-29T08:37:33.949Z</time></trkpt><trkpt lat="42.9402428" lon="12.0868079"><ele>518.4000000000001</ele><time>2026-03-29T08:37:35.945Z</time></trkpt><trkpt lat="42.9403205" lon="12.0866725"><ele>516.5999999999999</ele><time>2026-03-29T08:37:37.953Z</time></trkpt><trkpt lat="42.9403634" lon="12.0866055"><ele>514.8</ele><time>2026-03-29T08:37:38.952Z</time></trkpt><trkpt lat="42.9404346" lon="12.0864704"><ele>513.0</ele><time>2026-03-29T08:37:40.948Z</time></trkpt><trkpt lat="42.9404873" lon="12.0863365"><ele>512.4</ele><time>2026-03-29T08:37:42.945Z</time></trkpt><trkpt lat="42.9405344" lon="12.0862079"><ele>511.79999999999995</ele><time>2026-03-29T08:37:44.952Z</time></trkpt><trkpt lat="42.9405988" lon="12.0860896"><ele>511.2</ele><time>2026-03-29T08:37:46.954Z</time></trkpt><trkpt lat="42.9407078" lon="12.086013"><ele>510.6</ele><time>2026-03-29T08:37:48.946Z</time></trkpt><trkpt lat="42.940767" lon="12.0859834"><ele>510.0</ele><time>2026-03-29T08:37:49.947Z</time></trkpt><trkpt lat="42.9408603" lon="12.0859336"><ele>510.1666666666667</ele><time>2026-03-29T08:37:51.954Z</time></trkpt><trkpt lat="42.940924" lon="12.0858753"><ele>510.33333333333337</ele><time>2026-03-29T08:37:53.944Z</time></trkpt><trkpt lat="42.9409684" lon="12.0858002"><ele>510.5</ele><time>2026-03-29T08:37:55.741Z</time></trkpt><trkpt lat="42.9410054" lon="12.0857284"><ele>510.6666666666667</ele><time>2026-03-29T08:37:57.742Z</time></trkpt><trkpt lat="42.9410737" lon="12.0856831"><ele>510.83333333333337</ele><time>2026-03-29T08:37:59.74Z</time></trkpt><trkpt lat="42.9411668" lon="12.0856407"><ele>511.0</ele><time>2026-03-29T08:38:01.744Z</time></trkpt><trkpt lat="42.9412733" lon="12.0856029"><ele>511.0</ele><time>2026-03-29T08:38:03.742Z</time></trkpt><trkpt lat="42.9413386" lon="12.0855874"><ele>511.0</ele><time>2026-03-29T08:38:04.744Z</time></trkpt><trkpt lat="42.9414232" lon="12.0855737"><ele>511.0</ele><time>2026-03-29T08:38:05.745Z</time></trkpt><trkpt lat="42.9415405" lon="12.0855728"><ele>511.0</ele><time>2026-03-29T08:38:06.74Z</time></trkpt><trkpt lat="42.9416684" lon="12.0855818"><ele>511.0</ele><time>2026-03-29T08:38:07.746Z</time></trkpt><trkpt lat="42.9417997" lon="12.0856045"><ele>510.5</ele><time>2026-03-29T08:38:08.754Z</time></trkpt><trkpt lat="42.9419335" lon="12.0856387"><ele>510.0</ele><time>2026-03-29T08:38:09.747Z</time></trkpt><trkpt lat="42.9420564" lon="12.0856798"><ele>509.5</ele><time>2026-03-29T08:38:10.752Z</time></trkpt><trkpt lat="42.9421731" lon="12.0857177"><ele>509.0</ele><time>2026-03-29T08:38:11.745Z</time></trkpt><trkpt lat="42.9422857" lon="12.0857624"><ele>505.5</ele><time>2026-03-29T08:38:12.74Z</time></trkpt><trkpt lat="42.9423975" lon="12.0858137"><ele>502.0</ele><time>2026-03-29T08:38:13.746Z</time></trkpt><trkpt lat="42.9425052" lon="12.0858694"><ele>498.5</ele><time>2026-03-29T08:38:14.738Z</time></trkpt><trkpt lat="42.9426127" lon="12.0859345"><ele>495.0</ele><time>2026-03-29T08:38:15.777Z</time></trkpt><trkpt lat="42.9427169" lon="12.0860072"><ele>493.75</ele><time>2026-03-29T08:38:16.745Z</time></trkpt><trkpt lat="42.9428265" lon="12.0860615"><ele>492.5</ele><time>2026-03-29T08:38:17.741Z</time></trkpt><trkpt lat="42.9429425" lon="12.0860825"><ele>491.25</ele><time>2026-03-29T08:38:18.74Z</time></trkpt><trkpt lat="42.9430723" lon="12.0860797"><ele>490.0</ele><time>2026-03-29T08:38:19.742Z</time></trkpt><trkpt lat="42.9432041" lon="12.0860677"><ele>490.0</ele><time>2026-03-29T08:38:20.743Z</time></trkpt><trkpt lat="42.9433291" lon="12.0860448"><ele>490.0</ele><time>2026-03-29T08:38:21.745Z</time></trkpt><trkpt lat="42.9434495" lon="12.0860144"><ele>490.0</ele><time>2026-03-29T08:38:22.741Z</time></trkpt><trkpt lat="42.9435629" lon="12.0859574"><ele>490.0</ele><time>2026-03-29T08:38:23.739Z</time></trkpt><trkpt lat="42.9436799" lon="12.0858747"><ele>491.75</ele><time>2026-03-29T08:38:24.745Z</time></trkpt><trkpt lat="42.9438024" lon="12.0857671"><ele>493.5</ele><time>2026-03-29T08:38:25.739Z</time></trkpt><trkpt lat="42.9439277" lon="12.0856448"><ele>495.25</ele><time>2026-03-29T08:38:26.739Z</time></trkpt><trkpt lat="42.9440469" lon="12.0855296"><ele>497.0</ele><time>2026-03-29T08:38:27.776Z</time></trkpt><trkpt lat="42.9441656" lon="12.0854245"><ele>491.75</ele><time>2026-03-29T08:38:28.745Z</time></trkpt><trkpt lat="42.944284" lon="12.0853297"><ele>486.5</ele><time>2026-03-29T08:38:29.741Z</time></trkpt><trkpt lat="42.9444043" lon="12.0852403"><ele>481.25</ele><time>2026-03-29T08:38:30.745Z</time></trkpt><trkpt lat="42.9445263" lon="12.0851482"><ele>476.0</ele><time>2026-03-29T08:38:31.743Z</time></trkpt><trkpt lat="42.9446524" lon="12.0850466"><ele>476.0</ele><time>2026-03-29T08:38:32.739Z</time></trkpt><trkpt lat="42.9447864" lon="12.084942"><ele>476.0</ele><time>2026-03-29T08:38:33.743Z</time></trkpt><trkpt lat="42.944927" lon="12.0848532"><ele>476.0</ele><time>2026-03-29T08:38:34.754Z</time></trkpt><trkpt lat="42.9450633" lon="12.0847938"><ele>475.25</ele><time>2026-03-29T08:38:35.743Z</time></trkpt><trkpt lat="42.9451963" lon="12.0847594"><ele>474.5</ele><time>2026-03-29T08:38:36.743Z</time></trkpt><trkpt lat="42.9453267" lon="12.0847325"><ele>473.75</ele><time>2026-03-29T08:38:37.745Z</time></trkpt><trkpt lat="42.9454431" lon="12.0847056"><ele>473.0</ele><time>2026-03-29T08:38:38.749Z</time></trkpt><trkpt lat="42.9455572" lon="12.0846706"><ele>473.0</ele><time>2026-03-29T08:38:39.747Z</time></trkpt><trkpt lat="42.9456656" lon="12.0846219"><ele>473.0</ele><time>2026-03-29T08:38:40.747Z</time></trkpt><trkpt lat="42.9457685" lon="12.0845524"><ele>473.0</ele><time>2026-03-29T08:38:41.746Z</time></trkpt><trkpt lat="42.9458669" lon="12.0844586"><ele>473.0</ele><time>2026-03-29T08:38:42.745Z</time></trkpt><trkpt lat="42.9459571" lon="12.0843439"><ele>469.5</ele><time>2026-03-29T08:38:43.75Z</time></trkpt><trkpt lat="42.9460431" lon="12.0841994"><ele>466.0</ele><time>2026-03-29T08:38:44.758Z</time></trkpt><trkpt lat="42.9461312" lon="12.0840373"><ele>462.5</ele><time>2026-03-29T08:38:45.751Z</time></trkpt><trkpt lat="42.9462215" lon="12.0838705"><ele>459.0</ele><time>2026-03-29T08:38:46.737Z</time></trkpt><trkpt lat="42.9463193" lon="12.0837218"><ele>459.0</ele><time>2026-03-29T08:38:47.748Z</time></trkpt><trkpt lat="42.9464354" lon="12.0835957"><ele>459.0</ele><time>2026-03-29T08:38:48.757Z</time></trkpt><trkpt lat="42.9465582" lon="12.0834975"><ele>459.0</ele><time>2026-03-29T08:38:49.742Z</time></trkpt><trkpt lat="42.9466661" lon="12.0834141"><ele>459.0</ele><time>2026-03-29T08:38:50.745Z</time></trkpt><trkpt lat="42.9467529" lon="12.0833381"><ele>458.6666666666667</ele><time>2026-03-29T08:38:51.749Z</time></trkpt><trkpt lat="42.9468064" lon="12.0832604"><ele>458.33333333333337</ele><time>2026-03-29T08:38:52.743Z</time></trkpt><trkpt lat="42.9468298" lon="12.083174"><ele>458.0</ele><time>2026-03-29T08:38:53.74Z</time></trkpt><trkpt lat="42.9468248" lon="12.0830726"><ele>457.6666666666667</ele><time>2026-03-29T08:38:54.74Z</time></trkpt><trkpt lat="42.9467889" lon="12.082943"><ele>457.33333333333337</ele><time>2026-03-29T08:38:55.741Z</time></trkpt><trkpt lat="42.9467386" lon="12.0828149"><ele>457.0</ele><time>2026-03-29T08:38:56.739Z</time></trkpt><trkpt lat="42.9467133" lon="12.0827135"><ele>457.0</ele><time>2026-03-29T08:38:57.746Z</time></trkpt><trkpt lat="42.9467252" lon="12.0826165"><ele>457.00000000000006</ele><time>2026-03-29T08:38:58.739Z</time></trkpt><trkpt lat="42.9467884" lon="12.0825448"><ele>457.00000000000006</ele><time>2026-03-29T08:38:59.74Z</time></trkpt><trkpt lat="42.9468833" lon="12.0825105"><ele>457.0</ele><time>2026-03-29T08:39:00.738Z</time></trkpt><trkpt lat="42.9469842" lon="12.0825173"><ele>457.0</ele><time>2026-03-29T08:39:01.74Z</time></trkpt><trkpt lat="42.9470954" lon="12.0825511"><ele>457.0</ele><time>2026-03-29T08:39:02.738Z</time></trkpt><trkpt lat="42.9472084" lon="12.0825902"><ele>457.00000000000006</ele><time>2026-03-29T08:39:03.737Z</time></trkpt><trkpt lat="42.9473077" lon="12.0826207"><ele>457.00000000000006</ele><time>2026-03-29T08:39:04.739Z</time></trkpt><trkpt lat="42.9473906" lon="12.0826333"><ele>457.0</ele><time>2026-03-29T08:39:05.743Z</time></trkpt><trkpt lat="42.9474574" lon="12.082634"><ele>457.0</ele><time>2026-03-29T08:39:06.742Z</time></trkpt><trkpt lat="42.9475332" lon="12.0825868"><ele>457.8</ele><time>2026-03-29T08:39:08.743Z</time></trkpt><trkpt lat="42.9475739" lon="12.0824843"><ele>458.6</ele><time>2026-03-29T08:39:10.739Z</time></trkpt><trkpt lat="42.947541" lon="12.0823148"><ele>459.40000000000003</ele><time>2026-03-29T08:39:12.742Z</time></trkpt><trkpt lat="42.9475104" lon="12.0821967"><ele>460.20000000000005</ele><time>2026-03-29T08:39:13.739Z</time></trkpt><trkpt lat="42.9474892" lon="12.0820731"><ele>461.0</ele><time>2026-03-29T08:39:14.743Z</time></trkpt><trkpt lat="42.9474865" lon="12.0819435"><ele>461.0</ele><time>2026-03-29T08:39:15.743Z</time></trkpt><trkpt lat="42.9475059" lon="12.0818109"><ele>461.0</ele><time>2026-03-29T08:39:16.739Z</time></trkpt><trkpt lat="42.9475326" lon="12.0816843"><ele>461.0</ele><time>2026-03-29T08:39:17.74Z</time></trkpt><trkpt lat="42.9475526" lon="12.0815645"><ele>461.0</ele><time>2026-03-29T08:39:18.769Z</time></trkpt><trkpt lat="42.9475663" lon="12.0814438"><ele>461.0</ele><time>2026-03-29T08:39:19.737Z</time></trkpt><trkpt lat="42.9475714" lon="12.0813136"><ele>460.8</ele><time>2026-03-29T08:39:20.742Z</time></trkpt><trkpt lat="42.9475673" lon="12.0811763"><ele>460.6</ele><time>2026-03-29T08:39:21.737Z</time></trkpt><trkpt lat="42.9475573" lon="12.0810376"><ele>460.4</ele><time>2026-03-29T08:39:22.737Z</time></trkpt><trkpt lat="42.9475438" lon="12.0809037"><ele>460.2</ele><time>2026-03-29T08:39:23.739Z</time></trkpt><trkpt lat="42.9475273" lon="12.0807721"><ele>460.0</ele><time>2026-03-29T08:39:24.738Z</time></trkpt><trkpt lat="42.9475066" lon="12.080635"><ele>460.0</ele><time>2026-03-29T08:39:25.739Z</time></trkpt><trkpt lat="42.947483" lon="12.0804907"><ele>460.0</ele><time>2026-03-29T08:39:26.747Z</time></trkpt><trkpt lat="42.9474571" lon="12.0803468"><ele>460.0</ele><time>2026-03-29T08:39:27.736Z</time></trkpt><trkpt lat="42.947417" lon="12.0802144"><ele>460.0</ele><time>2026-03-29T08:39:28.744Z</time></trkpt><trkpt lat="42.947349" lon="12.0800973"><ele>460.0</ele><time>2026-03-29T08:39:29.74Z</time></trkpt><trkpt lat="42.9472571" lon="12.0799923"><ele>460.75</ele><time>2026-03-29T08:39:30.742Z</time></trkpt><trkpt lat="42.9471513" lon="12.0799143"><ele>461.5</ele><time>2026-03-29T08:39:31.739Z</time></trkpt><trkpt lat="42.9470432" lon="12.07986"><ele>462.25</ele><time>2026-03-29T08:39:32.737Z</time></trkpt><trkpt lat="42.9469353" lon="12.0798196"><ele>463.0</ele><time>2026-03-29T08:39:33.747Z</time></trkpt><trkpt lat="42.9468276" lon="12.0797898"><ele>463.00000000000006</ele><time>2026-03-29T08:39:34.741Z</time></trkpt><trkpt lat="42.9467355" lon="12.0797685"><ele>463.0</ele><time>2026-03-29T08:39:35.738Z</time></trkpt><trkpt lat="42.9466643" lon="12.0797549"><ele>463.0</ele><time>2026-03-29T08:39:36.736Z</time></trkpt><trkpt lat="42.9465726" lon="12.0796912"><ele>463.0</ele><time>2026-03-29T08:39:38.741Z</time></trkpt><trkpt lat="42.9465292" lon="12.0796252"><ele>463.00000000000006</ele><time>2026-03-29T08:39:40.74Z</time></trkpt><trkpt lat="42.9464816" lon="12.0795102"><ele>463.0</ele><time>2026-03-29T08:39:44.738Z</time></trkpt><trkpt lat="42.9464246" lon="12.0793474"><ele>464.83333333333337</ele><time>2026-03-29T08:39:46.737Z</time></trkpt><trkpt lat="42.9463953" lon="12.079242"><ele>466.6666666666667</ele><time>2026-03-29T08:39:47.743Z</time></trkpt><trkpt lat="42.9463666" lon="12.0791475"><ele>468.5</ele><time>2026-03-29T08:39:48.74Z</time></trkpt><trkpt lat="42.9463391" lon="12.0790467"><ele>470.33333333333337</ele><time>2026-03-29T08:39:50.739Z</time></trkpt><trkpt lat="42.9463906" lon="12.0789863"><ele>472.1666666666667</ele><time>2026-03-29T08:39:52.738Z</time></trkpt><trkpt lat="42.9464612" lon="12.0789229"><ele>474.0</ele><time>2026-03-29T08:39:54.741Z</time></trkpt><trkpt lat="42.9465522" lon="12.0788733"><ele>474.0</ele><time>2026-03-29T08:39:56.741Z</time></trkpt><trkpt lat="42.9466507" lon="12.0788574"><ele>474.0</ele><time>2026-03-29T08:39:58.743Z</time></trkpt><trkpt lat="42.9467483" lon="12.0788241"><ele>474.0</ele><time>2026-03-29T08:40:00.738Z</time></trkpt><trkpt lat="42.9468263" lon="12.0787949"><ele>474.0</ele><time>2026-03-29T08:40:02.743Z</time></trkpt><trkpt lat="42.9469041" lon="12.0787688"><ele>474.0</ele><time>2026-03-29T08:40:08.746Z</time></trkpt><trkpt lat="42.9470006" lon="12.0787419"><ele>471.6</ele><time>2026-03-29T08:40:10.744Z</time></trkpt><trkpt lat="42.9470985" lon="12.0787272"><ele>469.2</ele><time>2026-03-29T08:40:12.738Z</time></trkpt><trkpt lat="42.9471979" lon="12.0787181"><ele>466.80000000000007</ele><time>2026-03-29T08:40:14.766Z</time></trkpt><trkpt lat="42.9473065" lon="12.0787129"><ele>464.40000000000003</ele><time>2026-03-29T08:40:16.77Z</time></trkpt><trkpt lat="42.9474145" lon="12.0787058"><ele>462.0</ele><time>2026-03-29T08:40:18.738Z</time></trkpt><trkpt lat="42.947511" lon="12.0786931"><ele>459.40000000000003</ele><time>2026-03-29T08:40:20.735Z</time></trkpt><trkpt lat="42.9476111" lon="12.0787015"><ele>456.80000000000007</ele><time>2026-03-29T08:40:22.751Z</time></trkpt><trkpt lat="42.9477232" lon="12.078704"><ele>454.2</ele><time>2026-03-29T08:40:24.736Z</time></trkpt><trkpt lat="42.9478169" lon="12.0787131"><ele>451.6</ele><time>2026-03-29T08:40:26.744Z</time></trkpt><trkpt lat="42.9478953" lon="12.0787572"><ele>449.0</ele><time>2026-03-29T08:40:28.747Z</time></trkpt><trkpt lat="42.9479751" lon="12.0788442"><ele>449.0</ele><time>2026-03-29T08:40:30.743Z</time></trkpt><trkpt lat="42.948054" lon="12.0789363"><ele>449.0</ele><time>2026-03-29T08:40:32.743Z</time></trkpt><trkpt lat="42.9481338" lon="12.0790184"><ele>449.0</ele><time>2026-03-29T08:40:34.738Z</time></trkpt><trkpt lat="42.9482246" lon="12.0790714"><ele>449.0</ele><time>2026-03-29T08:40:36.738Z</time></trkpt><trkpt lat="42.9483154" lon="12.0790825"><ele>449.0</ele><time>2026-03-29T08:40:38.742Z</time></trkpt><trkpt lat="42.9484099" lon="12.0790464"><ele>446.8333333333333</ele><time>2026-03-29T08:40:40.737Z</time></trkpt><trkpt lat="42.9484916" lon="12.0790018"><ele>444.66666666666663</ele><time>2026-03-29T08:40:42.736Z</time></trkpt><trkpt lat="42.9485455" lon="12.0789349"><ele>442.5</ele><time>2026-03-29T08:40:44.739Z</time></trkpt><trkpt lat="42.9485695" lon="12.0788325"><ele>440.33333333333337</ele><time>2026-03-29T08:40:46.745Z</time></trkpt><trkpt lat="42.9485742" lon="12.0787393"><ele>438.1666666666667</ele><time>2026-03-29T08:40:48.746Z</time></trkpt><trkpt lat="42.9486094" lon="12.0786607"><ele>436.0</ele><time>2026-03-29T08:40:50.739Z</time></trkpt><trkpt lat="42.9486695" lon="12.0785823"><ele>436.00000000000006</ele><time>2026-03-29T08:40:52.773Z</time></trkpt><trkpt lat="42.9487407" lon="12.0784998"><ele>436.0</ele><time>2026-03-29T08:40:54.767Z</time></trkpt><trkpt lat="42.9488028" lon="12.0784267"><ele>436.0</ele><time>2026-03-29T08:40:56.737Z</time></trkpt><trkpt lat="42.9488544" lon="12.078376"><ele>436.0</ele><time>2026-03-29T08:40:58.738Z</time></trkpt><trkpt lat="42.9489122" lon="12.0783207"><ele>436.00000000000006</ele><time>2026-03-29T08:41:00.738Z</time></trkpt><trkpt lat="42.9489696" lon="12.0782827"><ele>436.0</ele><time>2026-03-29T08:41:02.745Z</time></trkpt><trkpt lat="42.9490476" lon="12.0782403"><ele>434.33333333333337</ele><time>2026-03-29T08:41:05.745Z</time></trkpt><trkpt lat="42.9491037" lon="12.0781961"><ele>432.6666666666667</ele><time>2026-03-29T08:41:07.743Z</time></trkpt><trkpt lat="42.9491663" lon="12.0781391"><ele>431.0</ele><time>2026-03-29T08:41:09.746Z</time></trkpt><trkpt lat="42.9492292" lon="12.0780535"><ele>429.33333333333337</ele><time>2026-03-29T08:41:11.738Z</time></trkpt><trkpt lat="42.9492937" lon="12.077962"><ele>427.6666666666667</ele><time>2026-03-29T08:41:13.74Z</time></trkpt><trkpt lat="42.949355" lon="12.0778875"><ele>426.0</ele><time>2026-03-29T08:41:15.74Z</time></trkpt><trkpt lat="42.9494054" lon="12.0778227"><ele>424.6666666666667</ele><time>2026-03-29T08:41:17.743Z</time></trkpt><trkpt lat="42.9494728" lon="12.0777422"><ele>423.33333333333337</ele><time>2026-03-29T08:41:19.772Z</time></trkpt><trkpt lat="42.9495355" lon="12.0776792"><ele>422.0</ele><time>2026-03-29T08:41:21.743Z</time></trkpt><trkpt lat="42.9496074" lon="12.0776325"><ele>420.6666666666667</ele><time>2026-03-29T08:41:23.778Z</time></trkpt><trkpt lat="42.949688" lon="12.0776069"><ele>419.33333333333337</ele><time>2026-03-29T08:41:25.744Z</time></trkpt><trkpt lat="42.9497651" lon="12.077587"><ele>418.0</ele><time>2026-03-29T08:41:27.744Z</time></trkpt><trkpt lat="42.9498318" lon="12.0775676"><ele>418.00000000000006</ele><time>2026-03-29T08:41:30.745Z</time></trkpt><trkpt lat="42.9499174" lon="12.0775435"><ele>418.0</ele><time>2026-03-29T08:41:35.753Z</time></trkpt><trkpt lat="42.9500042" lon="12.0775537"><ele>418.0</ele><time>2026-03-29T08:41:38.744Z</time></trkpt><trkpt lat="42.9500673" lon="12.0775614"><ele>418.0</ele><time>2026-03-29T08:41:40.743Z</time></trkpt><trkpt lat="42.9501507" lon="12.0776052"><ele>418.00000000000006</ele><time>2026-03-29T08:41:43.768Z</time></trkpt><trkpt lat="42.9502143" lon="12.0776934"><ele>418.0</ele><time>2026-03-29T08:41:46.743Z</time></trkpt><trkpt lat="42.950275" lon="12.0777645"><ele>415.50000000000006</ele><time>2026-03-29T08:41:48.746Z</time></trkpt><trkpt lat="42.9503436" lon="12.077816"><ele>413.0</ele><time>2026-03-29T08:41:50.744Z</time></trkpt><trkpt lat="42.950414" lon="12.0778241"><ele>410.5</ele><time>2026-03-29T08:41:52.744Z</time></trkpt><trkpt lat="42.950497" lon="12.0778072"><ele>408.0</ele><time>2026-03-29T08:41:55.747Z</time></trkpt><trkpt lat="42.9505904" lon="12.0777822"><ele>405.50000000000006</ele><time>2026-03-29T08:41:58.742Z</time></trkpt><trkpt lat="42.9506817" lon="12.0777478"><ele>403.0</ele><time>2026-03-29T08:42:00.738Z</time></trkpt><trkpt lat="42.9507596" lon="12.0776801"><ele>403.00000000000006</ele><time>2026-03-29T08:42:02.738Z</time></trkpt><trkpt lat="42.9508159" lon="12.0775914"><ele>403.0</ele><time>2026-03-29T08:42:04.739Z</time></trkpt><trkpt lat="42.950853" lon="12.0775148"><ele>403.0</ele><time>2026-03-29T08:42:06.74Z</time></trkpt><trkpt lat="42.9508962" lon="12.0774089"><ele>403.0</ele><time>2026-03-29T08:42:09.74Z</time></trkpt><trkpt lat="42.9509401" lon="12.0773086"><ele>403.00000000000006</ele><time>2026-03-29T08:42:12.738Z</time></trkpt><trkpt lat="42.9509926" lon="12.0772555"><ele>403.0</ele><time>2026-03-29T08:42:14.74Z</time></trkpt><trkpt lat="42.9510731" lon="12.0772346"><ele>400.6666666666667</ele><time>2026-03-29T08:42:17.775Z</time></trkpt><trkpt lat="42.9511467" lon="12.0772113"><ele>398.33333333333337</ele><time>2026-03-29T08:42:20.741Z</time></trkpt><trkpt lat="42.9512221" lon="12.077146"><ele>396.0</ele><time>2026-03-29T08:42:23.743Z</time></trkpt><trkpt lat="42.9512744" lon="12.0770942"><ele>393.66666666666663</ele><time>2026-03-29T08:42:25.739Z</time></trkpt><trkpt lat="42.9513153" lon="12.0770072"><ele>391.3333333333333</ele><time>2026-03-29T08:42:31.741Z</time></trkpt><trkpt lat="42.9513446" lon="12.0769293"><ele>389.0</ele><time>2026-03-29T08:42:37.741Z</time></trkpt><trkpt lat="42.9513873" lon="12.0768244"><ele>389.0</ele><time>2026-03-29T08:42:43.739Z</time></trkpt><trkpt lat="42.9514082" lon="12.076739"><ele>389.0</ele><time>2026-03-29T08:42:46.737Z</time></trkpt><trkpt lat="42.9513745" lon="12.0766593"><ele>389.0</ele><time>2026-03-29T08:42:48.748Z</time></trkpt><trkpt lat="42.9513595" lon="12.0765696"><ele>389.0</ele><time>2026-03-29T08:42:53.743Z</time></trkpt><trkpt lat="42.9514" lon="12.0764815"><ele>389.0</ele><time>2026-03-29T08:42:57.754Z</time></trkpt><trkpt lat="42.9514345" lon="12.0763809"><ele>389.0</ele><time>2026-03-29T08:43:10.739Z</time></trkpt><trkpt lat="42.9514798" lon="12.0762787"><ele>389.0</ele><time>2026-03-29T08:43:13.742Z</time></trkpt><trkpt lat="42.9515355" lon="12.0761712"><ele>388.7142857142857</ele><time>2026-03-29T08:43:16.743Z</time></trkpt><trkpt lat="42.9515634" lon="12.0760796"><ele>388.4285714285714</ele><time>2026-03-29T08:43:18.737Z</time></trkpt><trkpt lat="42.9515291" lon="12.0759604"><ele>388.1428571428571</ele><time>2026-03-29T08:43:21.767Z</time></trkpt><trkpt lat="42.9514636" lon="12.0759264"><ele>387.8571428571429</ele><time>2026-03-29T08:43:45.74Z</time></trkpt><trkpt lat="42.9514065" lon="12.0758786"><ele>387.57142857142856</ele><time>2026-03-29T08:43:48.746Z</time></trkpt><trkpt lat="42.9513808" lon="12.0757971"><ele>387.2857142857143</ele><time>2026-03-29T08:43:51.742Z</time></trkpt><trkpt lat="42.9514154" lon="12.0757246"><ele>387.0</ele><time>2026-03-29T08:43:53.735Z</time></trkpt><trkpt lat="42.9514357" lon="12.075611"><ele>386.6666666666667</ele><time>2026-03-29T08:43:56.739Z</time></trkpt><trkpt lat="42.9514367" lon="12.0754896"><ele>386.33333333333337</ele><time>2026-03-29T08:44:01.75Z</time></trkpt><trkpt lat="42.9514565" lon="12.0753749"><ele>386.0</ele><time>2026-03-29T08:44:03.738Z</time></trkpt><trkpt lat="42.9514784" lon="12.0752806"><ele>385.6666666666667</ele><time>2026-03-29T08:44:05.737Z</time></trkpt><trkpt lat="42.9514932" lon="12.0751916"><ele>385.33333333333337</ele><time>2026-03-29T08:44:07.74Z</time></trkpt><trkpt lat="42.9515112" lon="12.0750905"><ele>385.0</ele><time>2026-03-29T08:44:09.739Z</time></trkpt><trkpt lat="42.9515288" lon="12.0749846"><ele>384.6</ele><time>2026-03-29T08:44:11.741Z</time></trkpt><trkpt lat="42.9515412" lon="12.0748847"><ele>384.2</ele><time>2026-03-29T08:44:13.743Z</time></trkpt><trkpt lat="42.9515754" lon="12.0747739"><ele>383.79999999999995</ele><time>2026-03-29T08:44:15.738Z</time></trkpt><trkpt lat="42.9516246" lon="12.0746533"><ele>383.4</ele><time>2026-03-29T08:44:17.745Z</time></trkpt><trkpt lat="42.9516918" lon="12.0745442"><ele>383.0</ele><time>2026-03-29T08:44:19.74Z</time></trkpt><trkpt lat="42.9517542" lon="12.0744474"><ele>383.33333333333337</ele><time>2026-03-29T08:44:21.737Z</time></trkpt><trkpt lat="42.9518019" lon="12.074344"><ele>383.6666666666667</ele><time>2026-03-29T08:44:23.766Z</time></trkpt><trkpt lat="42.9518226" lon="12.0742356"><ele>384.0</ele><time>2026-03-29T08:44:25.738Z</time></trkpt><trkpt lat="42.9517969" lon="12.0741183"><ele>384.33333333333337</ele><time>2026-03-29T08:44:27.745Z</time></trkpt><trkpt lat="42.9517523" lon="12.0740221"><ele>384.6666666666667</ele><time>2026-03-29T08:44:29.741Z</time></trkpt><trkpt lat="42.9517047" lon="12.0739641"><ele>385.0</ele><time>2026-03-29T08:44:31.737Z</time></trkpt><trkpt lat="42.9516732" lon="12.0738849"><ele>382.00000000000006</ele><time>2026-03-29T08:44:35.737Z</time></trkpt><trkpt lat="42.9517224" lon="12.0738217"><ele>379.0</ele><time>2026-03-29T08:44:38.769Z</time></trkpt><trkpt lat="42.9517773" lon="12.0737785"><ele>376.0</ele><time>2026-03-29T08:44:40.741Z</time></trkpt><trkpt lat="42.9518491" lon="12.0737227"><ele>373.0</ele><time>2026-03-29T08:44:43.737Z</time></trkpt><trkpt lat="42.9519261" lon="12.0736916"><ele>370.0</ele><time>2026-03-29T08:44:46.735Z</time></trkpt><trkpt lat="42.951977" lon="12.0736049"><ele>367.0</ele><time>2026-03-29T08:44:51.739Z</time></trkpt><trkpt lat="42.9520371" lon="12.0735142"><ele>367.0</ele><time>2026-03-29T08:44:54.74Z</time></trkpt><trkpt lat="42.9520832" lon="12.0734477"><ele>367.0</ele><time>2026-03-29T08:44:56.769Z</time></trkpt><trkpt lat="42.9521251" lon="12.0733823"><ele>367.0</ele><time>2026-03-29T08:44:58.739Z</time></trkpt><trkpt lat="42.9521824" lon="12.0733027"><ele>367.0</ele><time>2026-03-29T08:45:01.735Z</time></trkpt><trkpt lat="42.9522293" lon="12.0732401"><ele>367.0</ele><time>2026-03-29T08:45:04.736Z</time></trkpt><trkpt lat="42.95225" lon="12.0731526"><ele>367.0</ele><time>2026-03-29T08:45:08.75Z</time></trkpt><trkpt lat="42.9523062" lon="12.0731082"><ele>367.0</ele><time>2026-03-29T08:45:11.748Z</time></trkpt><trkpt lat="42.9523739" lon="12.0731441"><ele>366.4285714285714</ele><time>2026-03-29T08:45:15.737Z</time></trkpt><trkpt lat="42.9523024" lon="12.073103"><ele>365.8571428571429</ele><time>2026-03-29T08:46:15.747Z</time></trkpt><trkpt lat="42.9522622" lon="12.073019"><ele>365.2857142857143</ele><time>2026-03-29T08:46:18.741Z</time></trkpt><trkpt lat="42.9522232" lon="12.0729285"><ele>364.71428571428567</ele><time>2026-03-29T08:46:21.739Z</time></trkpt><trkpt lat="42.9521989" lon="12.0728293"><ele>364.1428571428571</ele><time>2026-03-29T08:46:23.737Z</time></trkpt><trkpt lat="42.9521826" lon="12.072732"><ele>363.57142857142856</ele><time>2026-03-29T08:46:26.735Z</time></trkpt><trkpt lat="42.9521518" lon="12.0726513"><ele>363.0</ele><time>2026-03-29T08:46:29.739Z</time></trkpt><trkpt lat="42.9520858" lon="12.0725543"><ele>362.99999999999994</ele><time>2026-03-29T08:46:32.792Z</time></trkpt><trkpt lat="42.9520338" lon="12.0724891"><ele>363.0</ele><time>2026-03-29T08:46:35.741Z</time></trkpt><trkpt lat="42.9519503" lon="12.072464"><ele>363.0</ele><time>2026-03-29T08:46:39.738Z</time></trkpt><trkpt lat="42.9518893" lon="12.0724182"><ele>363.0</ele><time>2026-03-29T08:46:41.751Z</time></trkpt><trkpt lat="42.9518261" lon="12.0723721"><ele>363.0</ele><time>2026-03-29T08:46:43.739Z</time></trkpt><trkpt lat="42.9517569" lon="12.0723389"><ele>362.99999999999994</ele><time>2026-03-29T08:47:24.752Z</time></trkpt><trkpt lat="42.9516942" lon="12.0723179"><ele>363.0</ele><time>2026-03-29T08:47:27.769Z</time></trkpt><trkpt lat="42.9516306" lon="12.0722811"><ele>365.99999999999994</ele><time>2026-03-29T08:47:30.744Z</time></trkpt><trkpt lat="42.9515658" lon="12.0722416"><ele>369.0</ele><time>2026-03-29T08:47:33.736Z</time></trkpt><trkpt lat="42.9515047" lon="12.0722126"><ele>372.0</ele><time>2026-03-29T08:47:37.767Z</time></trkpt><trkpt lat="42.9514456" lon="12.0721775"><ele>375.0</ele><time>2026-03-29T08:47:40.747Z</time></trkpt><trkpt lat="42.951369" lon="12.0721608"><ele>378.0</ele><time>2026-03-29T08:47:46.737Z</time></trkpt><trkpt lat="42.9512842" lon="12.0721177"><ele>380.99999999999994</ele><time>2026-03-29T08:47:49.739Z</time></trkpt><trkpt lat="42.9512105" lon="12.0720893"><ele>384.0</ele><time>2026-03-29T08:47:51.737Z</time></trkpt><trkpt lat="42.9511443" lon="12.0720548"><ele>383.99999999999994</ele><time>2026-03-29T08:47:53.738Z</time></trkpt><trkpt lat="42.9510852" lon="12.0720061"><ele>384.0</ele><time>2026-03-29T08:47:55.738Z</time></trkpt><trkpt lat="42.951035" lon="12.0719371"><ele>384.0</ele><time>2026-03-29T08:47:57.738Z</time></trkpt><trkpt lat="42.9509855" lon="12.0718677"><ele>384.0</ele><time>2026-03-29T08:47:59.739Z</time></trkpt><trkpt lat="42.9509139" lon="12.0718538"><ele>384.0</ele><time>2026-03-29T08:48:02.744Z</time></trkpt><trkpt lat="42.9508499" lon="12.0718691"><ele>383.99999999999994</ele><time>2026-03-29T08:48:05.74Z</time></trkpt><trkpt lat="42.9507842" lon="12.0718783"><ele>384.0</ele><time>2026-03-29T08:48:11.745Z</time></trkpt><trkpt lat="42.9507001" lon="12.0718968"><ele>387.3333333333333</ele><time>2026-03-29T08:48:17.741Z</time></trkpt><trkpt lat="42.9506082" lon="12.0719021"><ele>390.66666666666663</ele><time>2026-03-29T08:48:20.736Z</time></trkpt><trkpt lat="42.9505395" lon="12.0719231"><ele>394.0</ele><time>2026-03-29T08:48:22.737Z</time></trkpt><trkpt lat="42.9504666" lon="12.0719875"><ele>397.3333333333333</ele><time>2026-03-29T08:48:24.737Z</time></trkpt><trkpt lat="42.9503949" lon="12.0720477"><ele>400.66666666666663</ele><time>2026-03-29T08:48:26.737Z</time></trkpt><trkpt lat="42.9503166" lon="12.0721017"><ele>404.0</ele><time>2026-03-29T08:48:28.74Z</time></trkpt><trkpt lat="42.9502301" lon="12.0721569"><ele>404.0</ele><time>2026-03-29T08:48:30.738Z</time></trkpt><trkpt lat="42.9501453" lon="12.072225"><ele>404.0</ele><time>2026-03-29T08:48:32.738Z</time></trkpt><trkpt lat="42.9500574" lon="12.0722642"><ele>404.0</ele><time>2026-03-29T08:48:34.736Z</time></trkpt><trkpt lat="42.9499488" lon="12.0722493"><ele>404.0</ele><time>2026-03-29T08:48:36.746Z</time></trkpt><trkpt lat="42.949841" lon="12.0722334"><ele>404.0</ele><time>2026-03-29T08:48:38.738Z</time></trkpt><trkpt lat="42.9497601" lon="12.0722132"><ele>408.2</ele><time>2026-03-29T08:48:40.743Z</time></trkpt><trkpt lat="42.9496716" lon="12.0721841"><ele>412.4</ele><time>2026-03-29T08:48:42.742Z</time></trkpt><trkpt lat="42.9495647" lon="12.0722057"><ele>416.6</ele><time>2026-03-29T08:48:44.74Z</time></trkpt><trkpt lat="42.9494763" lon="12.0722815"><ele>420.8</ele><time>2026-03-29T08:48:46.742Z</time></trkpt><trkpt lat="42.9493787" lon="12.0723518"><ele>425.0</ele><time>2026-03-29T08:48:48.741Z</time></trkpt><trkpt lat="42.9492765" lon="12.0723942"><ele>428.0</ele><time>2026-03-29T08:48:50.743Z</time></trkpt><trkpt lat="42.9491834" lon="12.0723963"><ele>431.0</ele><time>2026-03-29T08:48:52.742Z</time></trkpt><trkpt lat="42.9490721" lon="12.0723459"><ele>434.0</ele><time>2026-03-29T08:48:54.77Z</time></trkpt><trkpt lat="42.9489844" lon="12.072307"><ele>437.0</ele><time>2026-03-29T08:48:56.748Z</time></trkpt><trkpt lat="42.9489131" lon="12.0722719"><ele>440.0</ele><time>2026-03-29T08:48:58.75Z</time></trkpt><trkpt lat="42.9488464" lon="12.0722249"><ele>440.0</ele><time>2026-03-29T08:49:00.746Z</time></trkpt><trkpt lat="42.9487858" lon="12.0721838"><ele>440.0</ele><time>2026-03-29T08:49:02.743Z</time></trkpt><trkpt lat="42.948693" lon="12.0721271"><ele>440.0</ele><time>2026-03-29T08:49:05.741Z</time></trkpt><trkpt lat="42.9485863" lon="12.0720579"><ele>440.0</ele><time>2026-03-29T08:49:07.737Z</time></trkpt><trkpt lat="42.9484744" lon="12.0719802"><ele>440.0</ele><time>2026-03-29T08:49:09.745Z</time></trkpt><trkpt lat="42.9484177" lon="12.0719385"><ele>442.16666666666663</ele><time>2026-03-29T08:49:10.74Z</time></trkpt><trkpt lat="42.9483209" lon="12.071866"><ele>444.3333333333333</ele><time>2026-03-29T08:49:12.738Z</time></trkpt><trkpt lat="42.9482426" lon="12.0718376"><ele>446.5</ele><time>2026-03-29T08:49:14.738Z</time></trkpt><trkpt lat="42.9481732" lon="12.0718448"><ele>448.66666666666663</ele><time>2026-03-29T08:49:16.737Z</time></trkpt><trkpt lat="42.9480997" lon="12.0719049"><ele>450.8333333333333</ele><time>2026-03-29T08:49:18.434Z</time></trkpt><trkpt lat="42.9480382" lon="12.0719554"><ele>453.0</ele><time>2026-03-29T08:49:20.434Z</time></trkpt><trkpt lat="42.947964" lon="12.0720358"><ele>453.0</ele><time>2026-03-29T08:49:25.435Z</time></trkpt><trkpt lat="42.9479042" lon="12.0721088"><ele>453.0</ele><time>2026-03-29T08:49:27.434Z</time></trkpt><trkpt lat="42.9478461" lon="12.072192"><ele>453.0</ele><time>2026-03-29T08:49:30.438Z</time></trkpt><trkpt lat="42.9477865" lon="12.0722546"><ele>453.0</ele><time>2026-03-29T08:49:32.432Z</time></trkpt><trkpt lat="42.9477186" lon="12.0723141"><ele>453.0</ele><time>2026-03-29T08:49:34.438Z</time></trkpt><trkpt lat="42.9476671" lon="12.0723678"><ele>453.0</ele><time>2026-03-29T08:49:36.441Z</time></trkpt><trkpt lat="42.9475883" lon="12.0724486"><ele>455.2</ele><time>2026-03-29T08:49:38.467Z</time></trkpt><trkpt lat="42.9475058" lon="12.0725319"><ele>457.4</ele><time>2026-03-29T08:49:40.434Z</time></trkpt><trkpt lat="42.94739" lon="12.0726119"><ele>459.59999999999997</ele><time>2026-03-29T08:49:42.435Z</time></trkpt><trkpt lat="42.9473316" lon="12.0726477"><ele>461.79999999999995</ele><time>2026-03-29T08:49:43.436Z</time></trkpt><trkpt lat="42.9472248" lon="12.0726959"><ele>464.0</ele><time>2026-03-29T08:49:45.439Z</time></trkpt><trkpt lat="42.9471626" lon="12.0727187"><ele>463.99999999999994</ele><time>2026-03-29T08:49:46.433Z</time></trkpt><trkpt lat="42.9470969" lon="12.072732"><ele>464.0</ele><time>2026-03-29T08:49:47.435Z</time></trkpt><trkpt lat="42.9470326" lon="12.0727266"><ele>464.0</ele><time>2026-03-29T08:49:48.437Z</time></trkpt><trkpt lat="42.9469666" lon="12.0727101"><ele>464.0</ele><time>2026-03-29T08:49:49.434Z</time></trkpt><trkpt lat="42.9469019" lon="12.0726905"><ele>463.99999999999994</ele><time>2026-03-29T08:49:50.437Z</time></trkpt><trkpt lat="42.9467976" lon="12.0726913"><ele>464.0</ele><time>2026-03-29T08:49:52.432Z</time></trkpt><trkpt lat="42.9466868" lon="12.0727372"><ele>465.6</ele><time>2026-03-29T08:49:54.433Z</time></trkpt><trkpt lat="42.9465793" lon="12.0727866"><ele>467.2</ele><time>2026-03-29T08:49:56.439Z</time></trkpt><trkpt lat="42.9464936" lon="12.072848"><ele>468.80000000000007</ele><time>2026-03-29T08:49:58.437Z</time></trkpt><trkpt lat="42.9464149" lon="12.0729271"><ele>470.40000000000003</ele><time>2026-03-29T08:50:00.44Z</time></trkpt><trkpt lat="42.9463556" lon="12.0730224"><ele>472.0</ele><time>2026-03-29T08:50:02.431Z</time></trkpt><trkpt lat="42.9462971" lon="12.0731654"><ele>472.00000000000006</ele><time>2026-03-29T08:50:04.438Z</time></trkpt><trkpt lat="42.9462567" lon="12.0732483"><ele>472.0</ele><time>2026-03-29T08:50:05.433Z</time></trkpt><trkpt lat="42.9462209" lon="12.0733212"><ele>472.0</ele><time>2026-03-29T08:50:06.433Z</time></trkpt><trkpt lat="42.9461706" lon="12.0734521"><ele>472.0</ele><time>2026-03-29T08:50:08.435Z</time></trkpt><trkpt lat="42.9461284" lon="12.0736009"><ele>472.00000000000006</ele><time>2026-03-29T08:50:10.435Z</time></trkpt><trkpt lat="42.9460893" lon="12.0736846"><ele>472.0</ele><time>2026-03-29T08:50:11.434Z</time></trkpt><trkpt lat="42.946037" lon="12.0737701"><ele>473.1666666666667</ele><time>2026-03-29T08:50:12.436Z</time></trkpt><trkpt lat="42.9459866" lon="12.0738441"><ele>474.33333333333337</ele><time>2026-03-29T08:50:13.435Z</time></trkpt><trkpt lat="42.9459426" lon="12.0739077"><ele>475.5</ele><time>2026-03-29T08:50:14.432Z</time></trkpt><trkpt lat="42.945877" lon="12.0740055"><ele>476.66666666666663</ele><time>2026-03-29T08:50:16.435Z</time></trkpt><trkpt lat="42.9458457" lon="12.0741124"><ele>477.8333333333333</ele><time>2026-03-29T08:50:18.432Z</time></trkpt><trkpt lat="42.9457809" lon="12.0742292"><ele>479.0</ele><time>2026-03-29T08:50:20.432Z</time></trkpt><trkpt lat="42.9457034" lon="12.0743307"><ele>481.3333333333333</ele><time>2026-03-29T08:50:22.434Z</time></trkpt><trkpt lat="42.9456632" lon="12.0744046"><ele>483.66666666666663</ele><time>2026-03-29T08:50:27.436Z</time></trkpt><trkpt lat="42.9456401" lon="12.0745297"><ele>486.0</ele><time>2026-03-29T08:50:29.464Z</time></trkpt><trkpt lat="42.9456352" lon="12.0746634"><ele>488.33333333333337</ele><time>2026-03-29T08:50:31.434Z</time></trkpt><trkpt lat="42.9457104" lon="12.0746261"><ele>490.6666666666667</ele><time>2026-03-29T08:50:41.432Z</time></trkpt><trkpt lat="42.9457085" lon="12.0744998"><ele>493.0</ele><time>2026-03-29T08:50:43.462Z</time></trkpt><trkpt lat="42.9456607" lon="12.0743819"><ele>493.00000000000006</ele><time>2026-03-29T08:50:45.436Z</time></trkpt><trkpt lat="42.9456248" lon="12.0742815"><ele>493.0</ele><time>2026-03-29T08:50:48.433Z</time></trkpt><trkpt lat="42.9456021" lon="12.0741625"><ele>493.0</ele><time>2026-03-29T08:50:51.44Z</time></trkpt><trkpt lat="42.9455825" lon="12.0740775"><ele>493.0</ele><time>2026-03-29T08:50:53.436Z</time></trkpt><trkpt lat="42.9456111" lon="12.0739783"><ele>493.00000000000006</ele><time>2026-03-29T08:50:55.437Z</time></trkpt><trkpt lat="42.9456343" lon="12.0738728"><ele>493.0</ele><time>2026-03-29T08:50:57.451Z</time></trkpt><trkpt lat="42.945607" lon="12.0737641"><ele>492.00000000000006</ele><time>2026-03-29T08:50:59.431Z</time></trkpt><trkpt lat="42.9455435" lon="12.0736786"><ele>491.0</ele><time>2026-03-29T08:51:01.434Z</time></trkpt><trkpt lat="42.9454514" lon="12.0735919"><ele>490.0</ele><time>2026-03-29T08:51:03.435Z</time></trkpt><trkpt lat="42.9453975" lon="12.0735151"><ele>489.0</ele><time>2026-03-29T08:51:04.436Z</time></trkpt><trkpt lat="42.9453505" lon="12.0734273"><ele>488.00000000000006</ele><time>2026-03-29T08:51:05.432Z</time></trkpt><trkpt lat="42.9453167" lon="12.0733431"><ele>487.0</ele><time>2026-03-29T08:51:06.435Z</time></trkpt><trkpt lat="42.9452892" lon="12.0732607"><ele>485.8571428571429</ele><time>2026-03-29T08:51:07.438Z</time></trkpt><trkpt lat="42.9452591" lon="12.0731683"><ele>484.71428571428567</ele><time>2026-03-29T08:51:08.435Z</time></trkpt><trkpt lat="42.9452265" lon="12.0730798"><ele>483.57142857142856</ele><time>2026-03-29T08:51:09.434Z</time></trkpt><trkpt lat="42.9451929" lon="12.0730013"><ele>482.42857142857144</ele><time>2026-03-29T08:51:10.435Z</time></trkpt><trkpt lat="42.9451607" lon="12.0729256"><ele>481.28571428571433</ele><time>2026-03-29T08:51:11.437Z</time></trkpt><trkpt lat="42.9451365" lon="12.0728461"><ele>480.1428571428571</ele><time>2026-03-29T08:51:12.435Z</time></trkpt><trkpt lat="42.945115" lon="12.0727621"><ele>479.0</ele><time>2026-03-29T08:51:13.432Z</time></trkpt><trkpt lat="42.9450953" lon="12.0726709"><ele>478.99999999999994</ele><time>2026-03-29T08:51:14.432Z</time></trkpt><trkpt lat="42.9450726" lon="12.0725795"><ele>479.0</ele><time>2026-03-29T08:51:15.442Z</time></trkpt><trkpt lat="42.9450451" lon="12.0724975"><ele>479.0</ele><time>2026-03-29T08:51:16.437Z</time></trkpt><trkpt lat="42.9449909" lon="12.0723559"><ele>479.0</ele><time>2026-03-29T08:51:18.431Z</time></trkpt><trkpt lat="42.9449756" lon="12.0722368"><ele>478.99999999999994</ele><time>2026-03-29T08:51:20.433Z</time></trkpt><trkpt lat="42.9450133" lon="12.072131"><ele>479.0</ele><time>2026-03-29T08:51:22.433Z</time></trkpt><trkpt lat="42.9450624" lon="12.0720132"><ele>477.49999999999994</ele><time>2026-03-29T08:51:24.433Z</time></trkpt><trkpt lat="42.945115" lon="12.0719034"><ele>476.0</ele><time>2026-03-29T08:51:26.436Z</time></trkpt><trkpt lat="42.9451536" lon="12.0718072"><ele>474.5</ele><time>2026-03-29T08:51:28.435Z</time></trkpt><trkpt lat="42.9451744" lon="12.0717118"><ele>473.0</ele><time>2026-03-29T08:51:30.434Z</time></trkpt><trkpt lat="42.9451993" lon="12.0716021"><ele>471.49999999999994</ele><time>2026-03-29T08:51:32.435Z</time></trkpt><trkpt lat="42.9452516" lon="12.0714819"><ele>470.0</ele><time>2026-03-29T08:51:34.436Z</time></trkpt><trkpt lat="42.9452991" lon="12.0713665"><ele>468.0</ele><time>2026-03-29T08:51:36.435Z</time></trkpt><trkpt lat="42.9453235" lon="12.0712791"><ele>466.0</ele><time>2026-03-29T08:51:38.439Z</time></trkpt><trkpt lat="42.9453263" lon="12.071165"><ele>464.0</ele><time>2026-03-29T08:51:40.432Z</time></trkpt><trkpt lat="42.945328" lon="12.0710072"><ele>462.0</ele><time>2026-03-29T08:51:42.435Z</time></trkpt><trkpt lat="42.9453653" lon="12.07087"><ele>460.0</ele><time>2026-03-29T08:51:44.435Z</time></trkpt><trkpt lat="42.9454081" lon="12.0707251"><ele>458.6666666666667</ele><time>2026-03-29T08:51:46.434Z</time></trkpt><trkpt lat="42.945424" lon="12.0706212"><ele>457.33333333333337</ele><time>2026-03-29T08:51:47.44Z</time></trkpt><trkpt lat="42.9454383" lon="12.0705013"><ele>456.0</ele><time>2026-03-29T08:51:48.433Z</time></trkpt><trkpt lat="42.9454471" lon="12.0703929"><ele>454.66666666666663</ele><time>2026-03-29T08:51:49.439Z</time></trkpt><trkpt lat="42.9454505" lon="12.0702864"><ele>453.3333333333333</ele><time>2026-03-29T08:51:50.435Z</time></trkpt><trkpt lat="42.9454643" lon="12.0701951"><ele>452.0</ele><time>2026-03-29T08:51:51.432Z</time></trkpt><trkpt lat="42.9454863" lon="12.0700963"><ele>451.99999999999994</ele><time>2026-03-29T08:51:52.434Z</time></trkpt><trkpt lat="42.9455269" lon="12.0699967"><ele>452.0</ele><time>2026-03-29T08:51:53.431Z</time></trkpt><trkpt lat="42.9455754" lon="12.0698882"><ele>452.0</ele><time>2026-03-29T08:51:54.435Z</time></trkpt><trkpt lat="42.945629" lon="12.0697767"><ele>452.0</ele><time>2026-03-29T08:51:55.429Z</time></trkpt><trkpt lat="42.945676" lon="12.0696811"><ele>451.99999999999994</ele><time>2026-03-29T08:51:56.432Z</time></trkpt><trkpt lat="42.945721" lon="12.0696039"><ele>452.0</ele><time>2026-03-29T08:51:57.445Z</time></trkpt><trkpt lat="42.9457707" lon="12.0695444"><ele>450.6</ele><time>2026-03-29T08:51:58.446Z</time></trkpt><trkpt lat="42.9458681" lon="12.0694536"><ele>449.20000000000005</ele><time>2026-03-29T08:52:00.436Z</time></trkpt><trkpt lat="42.945932" lon="12.0693675"><ele>447.8</ele><time>2026-03-29T08:52:02.438Z</time></trkpt><trkpt lat="42.9459335" lon="12.0692703"><ele>446.4</ele><time>2026-03-29T08:52:04.438Z</time></trkpt><trkpt lat="42.9458751" lon="12.0691678"><ele>445.0</ele><time>2026-03-29T08:52:06.472Z</time></trkpt><trkpt lat="42.9457706" lon="12.0690723"><ele>442.6666666666667</ele><time>2026-03-29T08:52:08.437Z</time></trkpt><trkpt lat="42.9457097" lon="12.0690305"><ele>440.33333333333337</ele><time>2026-03-29T08:52:09.437Z</time></trkpt><trkpt lat="42.9456453" lon="12.0690004"><ele>438.0</ele><time>2026-03-29T08:52:10.435Z</time></trkpt><trkpt lat="42.9455774" lon="12.0689833"><ele>435.66666666666663</ele><time>2026-03-29T08:52:11.436Z</time></trkpt><trkpt lat="42.9455054" lon="12.0689784"><ele>433.3333333333333</ele><time>2026-03-29T08:52:12.438Z</time></trkpt><trkpt lat="42.9454349" lon="12.0689862"><ele>431.0</ele><time>2026-03-29T08:52:13.434Z</time></trkpt><trkpt lat="42.9453351" lon="12.0690215"><ele>431.0</ele><time>2026-03-29T08:52:15.435Z</time></trkpt><trkpt lat="42.9452631" lon="12.069077"><ele>431.0</ele><time>2026-03-29T08:52:17.435Z</time></trkpt><trkpt lat="42.9451879" lon="12.06915"><ele>431.0</ele><time>2026-03-29T08:52:19.435Z</time></trkpt><trkpt lat="42.9451058" lon="12.0691515"><ele>431.0</ele><time>2026-03-29T08:52:21.436Z</time></trkpt><trkpt lat="42.9450125" lon="12.069066"><ele>431.0</ele><time>2026-03-29T08:52:23.444Z</time></trkpt><trkpt lat="42.9449205" lon="12.0689669"><ele>430.4</ele><time>2026-03-29T08:52:25.432Z</time></trkpt><trkpt lat="42.9448429" lon="12.0688865"><ele>429.8</ele><time>2026-03-29T08:52:27.443Z</time></trkpt><trkpt lat="42.9447528" lon="12.0688134"><ele>429.19999999999993</ele><time>2026-03-29T08:52:29.432Z</time></trkpt><trkpt lat="42.9446726" lon="12.0687537"><ele>428.59999999999997</ele><time>2026-03-29T08:52:31.433Z</time></trkpt><trkpt lat="42.9445989" lon="12.0687054"><ele>428.0</ele><time>2026-03-29T08:52:33.433Z</time></trkpt><trkpt lat="42.9445298" lon="12.0686586"><ele>427.99999999999994</ele><time>2026-03-29T08:52:35.43Z</time></trkpt><trkpt lat="42.9444523" lon="12.0686116"><ele>428.0</ele><time>2026-03-29T08:52:37.436Z</time></trkpt><trkpt lat="42.9443868" lon="12.0685829"><ele>428.0</ele><time>2026-03-29T08:52:39.434Z</time></trkpt><trkpt lat="42.94432" lon="12.0685689"><ele>428.0</ele><time>2026-03-29T08:52:41.434Z</time></trkpt><trkpt lat="42.9442467" lon="12.0685595"><ele>427.99999999999994</ele><time>2026-03-29T08:52:43.431Z</time></trkpt><trkpt lat="42.9441565" lon="12.0685509"><ele>428.0</ele><time>2026-03-29T08:52:45.436Z</time></trkpt><trkpt lat="42.9440518" lon="12.0685384"><ele>427.3333333333333</ele><time>2026-03-29T08:52:47.433Z</time></trkpt><trkpt lat="42.9439549" lon="12.0685241"><ele>426.66666666666663</ele><time>2026-03-29T08:52:49.435Z</time></trkpt><trkpt lat="42.9438678" lon="12.0685449"><ele>426.0</ele><time>2026-03-29T08:52:54.434Z</time></trkpt><trkpt lat="42.9437801" lon="12.0685315"><ele>425.33333333333337</ele><time>2026-03-29T08:52:56.437Z</time></trkpt><trkpt lat="42.943687" lon="12.0685114"><ele>424.6666666666667</ele><time>2026-03-29T08:52:58.438Z</time></trkpt><trkpt lat="42.943612" lon="12.0684715"><ele>424.0</ele><time>2026-03-29T08:53:00.448Z</time></trkpt><trkpt lat="42.9435375" lon="12.0684338"><ele>424.00000000000006</ele><time>2026-03-29T08:53:03.432Z</time></trkpt><trkpt lat="42.9434706" lon="12.0684162"><ele>424.0</ele><time>2026-03-29T08:53:10.435Z</time></trkpt><trkpt lat="42.9433976" lon="12.0683546"><ele>424.0</ele><time>2026-03-29T08:53:23.436Z</time></trkpt><trkpt lat="42.9433344" lon="12.0683047"><ele>424.0</ele><time>2026-03-29T08:53:25.432Z</time></trkpt><trkpt lat="42.943311" lon="12.0682224"><ele>424.00000000000006</ele><time>2026-03-29T08:53:27.435Z</time></trkpt><trkpt lat="42.9433715" lon="12.0681312"><ele>424.0</ele><time>2026-03-29T08:53:30.432Z</time></trkpt><trkpt lat="42.943453" lon="12.0680772"><ele>425.6</ele><time>2026-03-29T08:54:02.434Z</time></trkpt><trkpt lat="42.9435228" lon="12.0680469"><ele>427.2</ele><time>2026-03-29T08:54:04.433Z</time></trkpt><trkpt lat="42.9436059" lon="12.0680258"><ele>428.80000000000007</ele><time>2026-03-29T08:54:06.435Z</time></trkpt><trkpt lat="42.9437034" lon="12.0679859"><ele>430.40000000000003</ele><time>2026-03-29T08:54:08.464Z</time></trkpt><trkpt lat="42.9437967" lon="12.0678942"><ele>432.0</ele><time>2026-03-29T08:54:10.433Z</time></trkpt><trkpt lat="42.9438437" lon="12.0677948"><ele>432.0</ele><time>2026-03-29T08:54:12.433Z</time></trkpt><trkpt lat="42.9438897" lon="12.0676614"><ele>432.00000000000006</ele><time>2026-03-29T08:54:14.433Z</time></trkpt><trkpt lat="42.9439585" lon="12.0675464"><ele>432.00000000000006</ele><time>2026-03-29T08:54:16.432Z</time></trkpt><trkpt lat="42.944043" lon="12.0674435"><ele>432.0</ele><time>2026-03-29T08:54:18.446Z</time></trkpt><trkpt lat="42.9440902" lon="12.0673855"><ele>432.0</ele><time>2026-03-29T08:54:19.45Z</time></trkpt><trkpt lat="42.9441347" lon="12.0673172"><ele>433.5</ele><time>2026-03-29T08:54:20.456Z</time></trkpt><trkpt lat="42.9441673" lon="12.0672381"><ele>435.0</ele><time>2026-03-29T08:54:21.444Z</time></trkpt><trkpt lat="42.9441898" lon="12.0670985"><ele>436.5</ele><time>2026-03-29T08:54:23.437Z</time></trkpt><trkpt lat="42.9441369" lon="12.0669736"><ele>438.0</ele><time>2026-03-29T08:54:25.455Z</time></trkpt><trkpt lat="42.9440788" lon="12.0669303"><ele>439.5</ele><time>2026-03-29T08:54:26.439Z</time></trkpt><trkpt lat="42.9440122" lon="12.0669062"><ele>441.0</ele><time>2026-03-29T08:54:27.437Z</time></trkpt><trkpt lat="42.943936" lon="12.0669101"><ele>441.0</ele><time>2026-03-29T08:54:28.444Z</time></trkpt><trkpt lat="42.9438506" lon="12.0669246"><ele>441.0</ele><time>2026-03-29T08:54:29.44Z</time></trkpt><trkpt lat="42.9437643" lon="12.0669296"><ele>441.0</ele><time>2026-03-29T08:54:30.445Z</time></trkpt><trkpt lat="42.9436899" lon="12.0669189"><ele>441.0</ele><time>2026-03-29T08:54:31.436Z</time></trkpt><trkpt lat="42.943622" lon="12.0669077"><ele>441.0</ele><time>2026-03-29T08:54:32.456Z</time></trkpt><trkpt lat="42.9435518" lon="12.0668971"><ele>441.0</ele><time>2026-03-29T08:54:33.443Z</time></trkpt><trkpt lat="42.9434423" lon="12.066878"><ele>442.8333333333333</ele><time>2026-03-29T08:54:35.437Z</time></trkpt><trkpt lat="42.9433599" lon="12.0668934"><ele>444.66666666666663</ele><time>2026-03-29T08:54:38.443Z</time></trkpt><trkpt lat="42.9432768" lon="12.0668691"><ele>446.5</ele><time>2026-03-29T08:54:42.433Z</time></trkpt><trkpt lat="42.9432206" lon="12.0668056"><ele>448.3333333333333</ele><time>2026-03-29T08:54:44.439Z</time></trkpt><trkpt lat="42.9431624" lon="12.0667618"><ele>450.16666666666663</ele><time>2026-03-29T08:54:45.434Z</time></trkpt><trkpt lat="42.943085" lon="12.0667166"><ele>452.0</ele><time>2026-03-29T08:54:46.435Z</time></trkpt><trkpt lat="42.9429978" lon="12.0666658"><ele>451.8</ele><time>2026-03-29T08:54:47.432Z</time></trkpt><trkpt lat="42.9429109" lon="12.0666068"><ele>451.6</ele><time>2026-03-29T08:54:48.434Z</time></trkpt><trkpt lat="42.9428193" lon="12.0665424"><ele>451.40000000000003</ele><time>2026-03-29T08:54:49.433Z</time></trkpt><trkpt lat="42.9427273" lon="12.0664783"><ele>451.20000000000005</ele><time>2026-03-29T08:54:50.437Z</time></trkpt><trkpt lat="42.9426512" lon="12.0664227"><ele>451.0</ele><time>2026-03-29T08:54:51.431Z</time></trkpt><trkpt lat="42.9425932" lon="12.0663609"><ele>451.0</ele><time>2026-03-29T08:54:52.44Z</time></trkpt><trkpt lat="42.9425512" lon="12.0662829"><ele>451.0</ele><time>2026-03-29T08:54:53.433Z</time></trkpt><trkpt lat="42.9425268" lon="12.0661915"><ele>451.0</ele><time>2026-03-29T08:54:54.431Z</time></trkpt><trkpt lat="42.942513" lon="12.0660774"><ele>451.0</ele><time>2026-03-29T08:54:55.44Z</time></trkpt><trkpt lat="42.9424915" lon="12.0659384"><ele>451.0</ele><time>2026-03-29T08:54:56.443Z</time></trkpt><trkpt lat="42.9424526" lon="12.0657787"><ele>453.75</ele><time>2026-03-29T08:54:57.432Z</time></trkpt><trkpt lat="42.9423999" lon="12.0656222"><ele>456.5</ele><time>2026-03-29T08:54:58.437Z</time></trkpt><trkpt lat="42.9423386" lon="12.0654635"><ele>459.25</ele><time>2026-03-29T08:54:59.432Z</time></trkpt><trkpt lat="42.9422843" lon="12.06532"><ele>462.0</ele><time>2026-03-29T08:55:00.431Z</time></trkpt><trkpt lat="42.9422311" lon="12.0651928"><ele>462.0</ele><time>2026-03-29T08:55:01.44Z</time></trkpt><trkpt lat="42.9421819" lon="12.0650825"><ele>462.0</ele><time>2026-03-29T08:55:02.433Z</time></trkpt><trkpt lat="42.9421508" lon="12.0649892"><ele>462.0</ele><time>2026-03-29T08:55:03.434Z</time></trkpt><trkpt lat="42.9421316" lon="12.0648855"><ele>462.0</ele><time>2026-03-29T08:55:04.432Z</time></trkpt><trkpt lat="42.9421229" lon="12.0647827"><ele>462.0</ele><time>2026-03-29T08:55:05.434Z</time></trkpt><trkpt lat="42.9421406" lon="12.0646927"><ele>462.0</ele><time>2026-03-29T08:55:06.435Z</time></trkpt><trkpt lat="42.9421829" lon="12.0645942"><ele>462.1666666666667</ele><time>2026-03-29T08:55:07.431Z</time></trkpt><trkpt lat="42.9422338" lon="12.0644946"><ele>462.33333333333337</ele><time>2026-03-29T08:55:08.432Z</time></trkpt><trkpt lat="42.9422853" lon="12.0643897"><ele>462.5</ele><time>2026-03-29T08:55:09.433Z</time></trkpt><trkpt lat="42.9423204" lon="12.0642914"><ele>462.6666666666667</ele><time>2026-03-29T08:55:10.437Z</time></trkpt><trkpt lat="42.9423382" lon="12.0642085"><ele>462.83333333333337</ele><time>2026-03-29T08:55:11.436Z</time></trkpt><trkpt lat="42.9423794" lon="12.0640684"><ele>463.0</ele><time>2026-03-29T08:55:13.438Z</time></trkpt><trkpt lat="42.9424678" lon="12.0639351"><ele>463.0</ele><time>2026-03-29T08:55:15.438Z</time></trkpt><trkpt lat="42.942527" lon="12.0638694"><ele>462.99999999999994</ele><time>2026-03-29T08:55:16.44Z</time></trkpt><trkpt lat="42.9425837" lon="12.0637982"><ele>463.0</ele><time>2026-03-29T08:55:17.43Z</time></trkpt><trkpt lat="42.9426353" lon="12.0637328"><ele>463.0</ele><time>2026-03-29T08:55:18.431Z</time></trkpt><trkpt lat="42.9426984" lon="12.0636662"><ele>462.99999999999994</ele><time>2026-03-29T08:55:20.433Z</time></trkpt><trkpt lat="42.9427526" lon="12.0636168"><ele>463.0</ele><time>2026-03-29T08:55:22.437Z</time></trkpt><trkpt lat="42.9428226" lon="12.0636172"><ele>463.0</ele><time>2026-03-29T08:55:24.447Z</time></trkpt><trkpt lat="42.9429039" lon="12.0636822"><ele>463.0</ele><time>2026-03-29T08:55:26.448Z</time></trkpt><trkpt lat="42.943006" lon="12.0637981"><ele>462.99999999999994</ele><time>2026-03-29T08:55:28.432Z</time></trkpt><trkpt lat="42.9430563" lon="12.0638739"><ele>462.99999999999994</ele><time>2026-03-29T08:55:29.433Z</time></trkpt><trkpt lat="42.9431132" lon="12.063951"><ele>463.0</ele><time>2026-03-29T08:55:30.435Z</time></trkpt><trkpt lat="42.9431835" lon="12.0640221"><ele>463.0</ele><time>2026-03-29T08:55:31.441Z</time></trkpt><trkpt lat="42.9432775" lon="12.0640887"><ele>461.75</ele><time>2026-03-29T08:55:32.431Z</time></trkpt><trkpt lat="42.9433837" lon="12.0641529"><ele>460.5</ele><time>2026-03-29T08:55:33.439Z</time></trkpt><trkpt lat="42.9434876" lon="12.0642078"><ele>459.25</ele><time>2026-03-29T08:55:34.433Z</time></trkpt><trkpt lat="42.9435925" lon="12.0642683"><ele>458.0</ele><time>2026-03-29T08:55:35.434Z</time></trkpt><trkpt lat="42.9436946" lon="12.0643422"><ele>458.0</ele><time>2026-03-29T08:55:36.438Z</time></trkpt><trkpt lat="42.943787" lon="12.064423"><ele>457.99999999999994</ele><time>2026-03-29T08:55:37.435Z</time></trkpt><trkpt lat="42.943871" lon="12.0645022"><ele>457.99999999999994</ele><time>2026-03-29T08:55:38.434Z</time></trkpt><trkpt lat="42.9439574" lon="12.0645705"><ele>458.0</ele><time>2026-03-29T08:55:39.438Z</time></trkpt><trkpt lat="42.9440458" lon="12.0646175"><ele>458.0</ele><time>2026-03-29T08:55:40.429Z</time></trkpt><trkpt lat="42.9441288" lon="12.0646314"><ele>458.0</ele><time>2026-03-29T08:55:41.431Z</time></trkpt><trkpt lat="42.9442043" lon="12.0646112"><ele>457.99999999999994</ele><time>2026-03-29T08:55:42.433Z</time></trkpt><trkpt lat="42.9442893" lon="12.0645634"><ele>457.99999999999994</ele><time>2026-03-29T08:55:43.436Z</time></trkpt><trkpt lat="42.9443844" lon="12.0645024"><ele>458.0</ele><time>2026-03-29T08:55:44.432Z</time></trkpt><trkpt lat="42.9444733" lon="12.0644478"><ele>458.0</ele><time>2026-03-29T08:55:45.433Z</time></trkpt><trkpt lat="42.9445531" lon="12.064404"><ele>456.99999999999994</ele><time>2026-03-29T08:55:46.432Z</time></trkpt><trkpt lat="42.9446252" lon="12.0643741"><ele>456.0</ele><time>2026-03-29T08:55:47.433Z</time></trkpt><trkpt lat="42.944707" lon="12.0643555"><ele>455.0</ele><time>2026-03-29T08:55:48.43Z</time></trkpt><trkpt lat="42.9448003" lon="12.0643415"><ele>454.0</ele><time>2026-03-29T08:55:49.442Z</time></trkpt><trkpt lat="42.9448994" lon="12.06433"><ele>452.99999999999994</ele><time>2026-03-29T08:55:50.47Z</time></trkpt><trkpt lat="42.9449936" lon="12.064323"><ele>452.0</ele><time>2026-03-29T08:55:51.432Z</time></trkpt><trkpt lat="42.945075" lon="12.0643221"><ele>451.8333333333333</ele><time>2026-03-29T08:55:52.433Z</time></trkpt><trkpt lat="42.9451495" lon="12.0643228"><ele>451.66666666666663</ele><time>2026-03-29T08:55:53.432Z</time></trkpt><trkpt lat="42.9452225" lon="12.0643286"><ele>451.5</ele><time>2026-03-29T08:55:54.434Z</time></trkpt><trkpt lat="42.9453002" lon="12.0643202"><ele>451.33333333333337</ele><time>2026-03-29T08:55:55.436Z</time></trkpt><trkpt lat="42.945393" lon="12.0642898"><ele>451.1666666666667</ele><time>2026-03-29T08:55:56.435Z</time></trkpt><trkpt lat="42.9454864" lon="12.0642517"><ele>451.0</ele><time>2026-03-29T08:55:57.432Z</time></trkpt><trkpt lat="42.9455771" lon="12.0642123"><ele>451.00000000000006</ele><time>2026-03-29T08:55:58.445Z</time></trkpt><trkpt lat="42.9456665" lon="12.0641784"><ele>451.0</ele><time>2026-03-29T08:55:59.441Z</time></trkpt><trkpt lat="42.9457525" lon="12.0641472"><ele>451.0</ele><time>2026-03-29T08:56:00.433Z</time></trkpt><trkpt lat="42.9458318" lon="12.0641147"><ele>451.0</ele><time>2026-03-29T08:56:01.437Z</time></trkpt><trkpt lat="42.9459098" lon="12.0640866"><ele>451.00000000000006</ele><time>2026-03-29T08:56:02.444Z</time></trkpt><trkpt lat="42.9459898" lon="12.0640705"><ele>451.0</ele><time>2026-03-29T08:56:03.433Z</time></trkpt><trkpt lat="42.9460812" lon="12.0640607"><ele>450.20000000000005</ele><time>2026-03-29T08:56:04.461Z</time></trkpt><trkpt lat="42.9461852" lon="12.0640461"><ele>449.40000000000003</ele><time>2026-03-29T08:56:05.447Z</time></trkpt><trkpt lat="42.9462923" lon="12.0640358"><ele>448.6</ele><time>2026-03-29T08:56:06.446Z</time></trkpt><trkpt lat="42.9463909" lon="12.0640281"><ele>447.8</ele><time>2026-03-29T08:56:07.434Z</time></trkpt><trkpt lat="42.94648" lon="12.064014"><ele>447.0</ele><time>2026-03-29T08:56:08.433Z</time></trkpt><trkpt lat="42.9465571" lon="12.0639961"><ele>447.0</ele><time>2026-03-29T08:56:09.435Z</time></trkpt><trkpt lat="42.9466298" lon="12.0639775"><ele>447.0</ele><time>2026-03-29T08:56:10.434Z</time></trkpt><trkpt lat="42.946699" lon="12.0639703"><ele>447.0</ele><time>2026-03-29T08:56:11.438Z</time></trkpt><trkpt lat="42.9467708" lon="12.0639698"><ele>447.0</ele><time>2026-03-29T08:56:12.433Z</time></trkpt><trkpt lat="42.9468568" lon="12.0639693"><ele>447.0</ele><time>2026-03-29T08:56:13.432Z</time></trkpt><trkpt lat="42.9469499" lon="12.0639704"><ele>447.0</ele><time>2026-03-29T08:56:14.432Z</time></trkpt><trkpt lat="42.9470411" lon="12.0639813"><ele>447.40000000000003</ele><time>2026-03-29T08:56:15.432Z</time></trkpt><trkpt lat="42.9471265" lon="12.0640035"><ele>447.80000000000007</ele><time>2026-03-29T08:56:16.464Z</time></trkpt><trkpt lat="42.9472049" lon="12.0640363"><ele>448.2</ele><time>2026-03-29T08:56:17.437Z</time></trkpt><trkpt lat="42.9472862" lon="12.0640868"><ele>448.6</ele><time>2026-03-29T08:56:18.429Z</time></trkpt><trkpt lat="42.9473709" lon="12.0641494"><ele>449.0</ele><time>2026-03-29T08:56:19.434Z</time></trkpt><trkpt lat="42.9474529" lon="12.0642168"><ele>448.99999999999994</ele><time>2026-03-29T08:56:20.432Z</time></trkpt><trkpt lat="42.947533" lon="12.0642789"><ele>449.0</ele><time>2026-03-29T08:56:21.432Z</time></trkpt><trkpt lat="42.9476019" lon="12.0643268"><ele>449.0</ele><time>2026-03-29T08:56:22.433Z</time></trkpt><trkpt lat="42.9476659" lon="12.0643606"><ele>449.0</ele><time>2026-03-29T08:56:23.432Z</time></trkpt><trkpt lat="42.9477765" lon="12.0644115"><ele>448.99999999999994</ele><time>2026-03-29T08:56:25.434Z</time></trkpt><trkpt lat="42.9478368" lon="12.0644456"><ele>449.0</ele><time>2026-03-29T08:56:26.432Z</time></trkpt><trkpt lat="42.9479035" lon="12.0644936"><ele>449.6</ele><time>2026-03-29T08:56:27.431Z</time></trkpt><trkpt lat="42.9479626" lon="12.0645495"><ele>450.2</ele><time>2026-03-29T08:56:28.445Z</time></trkpt><trkpt lat="42.9480529" lon="12.0646576"><ele>450.80000000000007</ele><time>2026-03-29T08:56:30.429Z</time></trkpt><trkpt lat="42.9481374" lon="12.0647645"><ele>451.40000000000003</ele><time>2026-03-29T08:56:32.435Z</time></trkpt><trkpt lat="42.9481927" lon="12.0648338"><ele>452.0</ele><time>2026-03-29T08:56:33.444Z</time></trkpt><trkpt lat="42.9482542" lon="12.0649152"><ele>450.99999999999994</ele><time>2026-03-29T08:56:34.44Z</time></trkpt><trkpt lat="42.9483085" lon="12.0650048"><ele>450.0</ele><time>2026-03-29T08:56:35.436Z</time></trkpt><trkpt lat="42.9483519" lon="12.0651012"><ele>449.0</ele><time>2026-03-29T08:56:36.442Z</time></trkpt><trkpt lat="42.9483883" lon="12.065202"><ele>448.0</ele><time>2026-03-29T08:56:37.444Z</time></trkpt><trkpt lat="42.9484229" lon="12.0653094"><ele>446.99999999999994</ele><time>2026-03-29T08:56:38.446Z</time></trkpt><trkpt lat="42.9484613" lon="12.0654255"><ele>446.0</ele><time>2026-03-29T08:56:39.437Z</time></trkpt><trkpt lat="42.9485023" lon="12.0655306"><ele>445.66666666666663</ele><time>2026-03-29T08:56:40.435Z</time></trkpt><trkpt lat="42.9485535" lon="12.0656227"><ele>445.3333333333333</ele><time>2026-03-29T08:56:41.439Z</time></trkpt><trkpt lat="42.9486022" lon="12.0657023"><ele>445.0</ele><time>2026-03-29T08:56:42.436Z</time></trkpt><trkpt lat="42.9486579" lon="12.0657814"><ele>444.66666666666663</ele><time>2026-03-29T08:56:43.438Z</time></trkpt><trkpt lat="42.9487181" lon="12.0658551"><ele>444.3333333333333</ele><time>2026-03-29T08:56:44.437Z</time></trkpt><trkpt lat="42.9487838" lon="12.0659309"><ele>444.0</ele><time>2026-03-29T08:56:45.451Z</time></trkpt><trkpt lat="42.9488557" lon="12.0660104"><ele>443.0</ele><time>2026-03-29T08:56:46.439Z</time></trkpt><trkpt lat="42.9489283" lon="12.0660894"><ele>442.0</ele><time>2026-03-29T08:56:47.455Z</time></trkpt><trkpt lat="42.9490117" lon="12.0661714"><ele>441.0</ele><time>2026-03-29T08:56:48.437Z</time></trkpt><trkpt lat="42.9491059" lon="12.0662576"><ele>440.0</ele><time>2026-03-29T08:56:49.438Z</time></trkpt><trkpt lat="42.9492059" lon="12.0663427"><ele>439.0</ele><time>2026-03-29T08:56:50.435Z</time></trkpt><trkpt lat="42.9493069" lon="12.0664195"><ele>437.2</ele><time>2026-03-29T08:56:51.443Z</time></trkpt><trkpt lat="42.9494104" lon="12.0664794"><ele>435.4</ele><time>2026-03-29T08:56:52.434Z</time></trkpt><trkpt lat="42.9495152" lon="12.06653"><ele>433.6</ele><time>2026-03-29T08:56:53.433Z</time></trkpt><trkpt lat="42.9496125" lon="12.0665727"><ele>431.8</ele><time>2026-03-29T08:56:54.434Z</time></trkpt><trkpt lat="42.9497082" lon="12.0666113"><ele>430.0</ele><time>2026-03-29T08:56:55.434Z</time></trkpt><trkpt lat="42.9498096" lon="12.0666503"><ele>430.0</ele><time>2026-03-29T08:56:56.462Z</time></trkpt><trkpt lat="42.9499191" lon="12.066691"><ele>430.0</ele><time>2026-03-29T08:56:57.435Z</time></trkpt><trkpt lat="42.9500368" lon="12.0667395"><ele>430.0</ele><time>2026-03-29T08:56:58.436Z</time></trkpt><trkpt lat="42.9501643" lon="12.0667945"><ele>430.0</ele><time>2026-03-29T08:56:59.436Z</time></trkpt><trkpt lat="42.9502903" lon="12.0668498"><ele>428.5</ele><time>2026-03-29T08:57:00.434Z</time></trkpt><trkpt lat="42.9504064" lon="12.0669"><ele>427.0</ele><time>2026-03-29T08:57:01.433Z</time></trkpt><trkpt lat="42.9505135" lon="12.0669538"><ele>425.5</ele><time>2026-03-29T08:57:02.434Z</time></trkpt><trkpt lat="42.9506144" lon="12.0670147"><ele>424.0</ele><time>2026-03-29T08:57:03.433Z</time></trkpt><trkpt lat="42.9507125" lon="12.067085"><ele>424.0</ele><time>2026-03-29T08:57:04.433Z</time></trkpt><trkpt lat="42.950818" lon="12.0671656"><ele>424.0</ele><time>2026-03-29T08:57:05.436Z</time></trkpt><trkpt lat="42.9509229" lon="12.0672465"><ele>424.0</ele><time>2026-03-29T08:57:06.436Z</time></trkpt><trkpt lat="42.9510218" lon="12.0673152"><ele>424.0</ele><time>2026-03-29T08:57:07.463Z</time></trkpt><trkpt lat="42.9511173" lon="12.0673596"><ele>422.83333333333337</ele><time>2026-03-29T08:57:08.432Z</time></trkpt><trkpt lat="42.9512043" lon="12.0673843"><ele>421.6666666666667</ele><time>2026-03-29T08:57:09.459Z</time></trkpt><trkpt lat="42.9512759" lon="12.0673957"><ele>420.5</ele><time>2026-03-29T08:57:10.437Z</time></trkpt><trkpt lat="42.9513828" lon="12.0673755"><ele>419.33333333333337</ele><time>2026-03-29T08:57:12.434Z</time></trkpt><trkpt lat="42.951453" lon="12.0673593"><ele>418.1666666666667</ele><time>2026-03-29T08:57:14.437Z</time></trkpt><trkpt lat="42.9515208" lon="12.0674069"><ele>417.0</ele><time>2026-03-29T08:57:26.438Z</time></trkpt><trkpt lat="42.9516171" lon="12.0674329"><ele>417.5</ele><time>2026-03-29T08:57:28.436Z</time></trkpt><trkpt lat="42.9517432" lon="12.0674771"><ele>418.0</ele><time>2026-03-29T08:57:30.43Z</time></trkpt><trkpt lat="42.9518098" lon="12.0675054"><ele>418.5</ele><time>2026-03-29T08:57:31.435Z</time></trkpt><trkpt lat="42.9518829" lon="12.0675373"><ele>419.0</ele><time>2026-03-29T08:57:32.434Z</time></trkpt><trkpt lat="42.9519558" lon="12.0675697"><ele>419.5</ele><time>2026-03-29T08:57:33.43Z</time></trkpt><trkpt lat="42.952021" lon="12.0676048"><ele>420.0</ele><time>2026-03-29T08:57:34.433Z</time></trkpt><trkpt lat="42.9521254" lon="12.0676644"><ele>420.0</ele><time>2026-03-29T08:57:36.433Z</time></trkpt><trkpt lat="42.9522066" lon="12.0677218"><ele>420.0</ele><time>2026-03-29T08:57:38.434Z</time></trkpt><trkpt lat="42.9522522" lon="12.0677814"><ele>420.0</ele><time>2026-03-29T08:57:40.464Z</time></trkpt><trkpt lat="42.9522896" lon="12.0678575"><ele>420.0</ele><time>2026-03-29T08:57:43.432Z</time></trkpt><trkpt lat="42.9523593" lon="12.0679089"><ele>420.0</ele><time>2026-03-29T08:57:46.432Z</time></trkpt><trkpt lat="42.9524134" lon="12.0679569"><ele>420.0</ele><time>2026-03-29T08:57:48.449Z</time></trkpt><trkpt lat="42.9524622" lon="12.0680113"><ele>420.0</ele><time>2026-03-29T08:57:50.434Z</time></trkpt><trkpt lat="42.9525183" lon="12.068075"><ele>419.8333333333333</ele><time>2026-03-29T08:57:52.443Z</time></trkpt><trkpt lat="42.9525899" lon="12.0681666"><ele>419.66666666666663</ele><time>2026-03-29T08:57:54.433Z</time></trkpt><trkpt lat="42.9526584" lon="12.0682579"><ele>419.5</ele><time>2026-03-29T08:57:56.432Z</time></trkpt><trkpt lat="42.9527194" lon="12.0683317"><ele>419.3333333333333</ele><time>2026-03-29T08:57:58.437Z</time></trkpt><trkpt lat="42.9527768" lon="12.0684041"><ele>419.16666666666663</ele><time>2026-03-29T08:58:00.433Z</time></trkpt><trkpt lat="42.9528183" lon="12.0684752"><ele>419.0</ele><time>2026-03-29T08:58:02.435Z</time></trkpt><trkpt lat="42.9528467" lon="12.0685581"><ele>417.8333333333333</ele><time>2026-03-29T08:58:04.437Z</time></trkpt><trkpt lat="42.952876" lon="12.0686377"><ele>416.66666666666663</ele><time>2026-03-29T08:58:06.432Z</time></trkpt><trkpt lat="42.9528994" lon="12.0687192"><ele>415.5</ele><time>2026-03-29T08:58:08.433Z</time></trkpt><trkpt lat="42.9529294" lon="12.0688039"><ele>414.33333333333337</ele><time>2026-03-29T08:58:10.436Z</time></trkpt><trkpt lat="42.9529813" lon="12.0688766"><ele>413.1666666666667</ele><time>2026-03-29T08:58:12.435Z</time></trkpt><trkpt lat="42.953058" lon="12.0689491"><ele>412.0</ele><time>2026-03-29T08:58:14.434Z</time></trkpt><trkpt lat="42.9531353" lon="12.0690178"><ele>412.0</ele><time>2026-03-29T08:58:16.431Z</time></trkpt><trkpt lat="42.9532092" lon="12.0690865"><ele>412.0</ele><time>2026-03-29T08:58:18.432Z</time></trkpt><trkpt lat="42.9532938" lon="12.0691567"><ele>412.0</ele><time>2026-03-29T08:58:20.432Z</time></trkpt><trkpt lat="42.953389" lon="12.0692189"><ele>412.0</ele><time>2026-03-29T08:58:22.435Z</time></trkpt><trkpt lat="42.9535056" lon="12.0692478"><ele>412.0</ele><time>2026-03-29T08:58:24.433Z</time></trkpt><trkpt lat="42.9536235" lon="12.0692215"><ele>410.6666666666667</ele><time>2026-03-29T08:58:26.432Z</time></trkpt><trkpt lat="42.9536865" lon="12.0691878"><ele>409.33333333333337</ele><time>2026-03-29T08:58:27.431Z</time></trkpt><trkpt lat="42.9537485" lon="12.0691523"><ele>408.0</ele><time>2026-03-29T08:58:28.434Z</time></trkpt><trkpt lat="42.9538329" lon="12.0690929"><ele>406.66666666666663</ele><time>2026-03-29T08:58:30.432Z</time></trkpt><trkpt lat="42.9539248" lon="12.0690485"><ele>405.3333333333333</ele><time>2026-03-29T08:58:32.439Z</time></trkpt><trkpt lat="42.954021" lon="12.0690357"><ele>404.0</ele><time>2026-03-29T08:58:34.432Z</time></trkpt><trkpt lat="42.9540987" lon="12.0690572"><ele>403.99999999999994</ele><time>2026-03-29T08:58:36.434Z</time></trkpt><trkpt lat="42.9541694" lon="12.0690792"><ele>404.0</ele><time>2026-03-29T08:58:38.431Z</time></trkpt><trkpt lat="42.9542476" lon="12.0690886"><ele>404.0</ele><time>2026-03-29T08:58:40.432Z</time></trkpt><trkpt lat="42.9543319" lon="12.0691018"><ele>404.0</ele><time>2026-03-29T08:58:42.431Z</time></trkpt><trkpt lat="42.9544118" lon="12.0691198"><ele>403.99999999999994</ele><time>2026-03-29T08:58:44.437Z</time></trkpt><trkpt lat="42.9544755" lon="12.0691176"><ele>404.0</ele><time>2026-03-29T08:58:46.435Z</time></trkpt><trkpt lat="42.9545707" lon="12.0691025"><ele>401.4</ele><time>2026-03-29T08:58:49.438Z</time></trkpt><trkpt lat="42.9546594" lon="12.0690983"><ele>398.79999999999995</ele><time>2026-03-29T08:58:51.433Z</time></trkpt><trkpt lat="42.9547696" lon="12.0691086"><ele>396.20000000000005</ele><time>2026-03-29T08:58:53.436Z</time></trkpt><trkpt lat="42.9548763" lon="12.0691167"><ele>393.6</ele><time>2026-03-29T08:58:55.433Z</time></trkpt><trkpt lat="42.9549848" lon="12.0691303"><ele>391.0</ele><time>2026-03-29T08:58:57.466Z</time></trkpt><trkpt lat="42.9550991" lon="12.069123"><ele>388.50000000000006</ele><time>2026-03-29T08:58:59.43Z</time></trkpt><trkpt lat="42.9551649" lon="12.0691219"><ele>386.0</ele><time>2026-03-29T08:59:00.432Z</time></trkpt><trkpt lat="42.9552872" lon="12.0691381"><ele>383.5</ele><time>2026-03-29T08:59:02.434Z</time></trkpt><trkpt lat="42.9553824" lon="12.0691376"><ele>381.0</ele><time>2026-03-29T08:59:04.438Z</time></trkpt><trkpt lat="42.9554447" lon="12.0691093"><ele>378.5</ele><time>2026-03-29T08:59:06.463Z</time></trkpt><trkpt lat="42.9555265" lon="12.0690833"><ele>376.0</ele><time>2026-03-29T08:59:09.464Z</time></trkpt><trkpt lat="42.9556078" lon="12.0690657"><ele>376.0</ele><time>2026-03-29T08:59:12.461Z</time></trkpt><trkpt lat="42.9556976" lon="12.0690472"><ele>376.0</ele><time>2026-03-29T08:59:14.43Z</time></trkpt><trkpt lat="42.9557979" lon="12.0690207"><ele>376.0</ele><time>2026-03-29T08:59:16.433Z</time></trkpt><trkpt lat="42.955885" lon="12.0689949"><ele>376.0</ele><time>2026-03-29T08:59:18.437Z</time></trkpt><trkpt lat="42.955952" lon="12.0689701"><ele>376.0</ele><time>2026-03-29T08:59:20.43Z</time></trkpt><trkpt lat="42.9560318" lon="12.0689212"><ele>376.0</ele><time>2026-03-29T08:59:23.428Z</time></trkpt><trkpt lat="42.9561297" lon="12.0688578"><ele>372.16666666666663</ele><time>2026-03-29T08:59:25.433Z</time></trkpt><trkpt lat="42.9562095" lon="12.0687994"><ele>368.3333333333333</ele><time>2026-03-29T08:59:27.433Z</time></trkpt><trkpt lat="42.9562712" lon="12.0687321"><ele>364.5</ele><time>2026-03-29T08:59:29.433Z</time></trkpt><trkpt lat="42.956338" lon="12.0686689"><ele>360.6666666666667</ele><time>2026-03-29T08:59:32.434Z</time></trkpt><trkpt lat="42.9564128" lon="12.0685956"><ele>356.83333333333337</ele><time>2026-03-29T08:59:35.435Z</time></trkpt><trkpt lat="42.9564657" lon="12.0685489"><ele>353.0</ele><time>2026-03-29T08:59:37.435Z</time></trkpt><trkpt lat="42.9565227" lon="12.0685004"><ele>353.0</ele><time>2026-03-29T08:59:39.432Z</time></trkpt><trkpt lat="42.9565861" lon="12.068426"><ele>353.0</ele><time>2026-03-29T08:59:42.432Z</time></trkpt><trkpt lat="42.9566095" lon="12.0683323"><ele>353.0</ele><time>2026-03-29T08:59:49.44Z</time></trkpt><trkpt lat="42.9566007" lon="12.0682214"><ele>353.0</ele><time>2026-03-29T08:59:52.434Z</time></trkpt><trkpt lat="42.9565979" lon="12.0681337"><ele>353.0</ele><time>2026-03-29T08:59:54.439Z</time></trkpt><trkpt lat="42.9565977" lon="12.0680291"><ele>353.0</ele><time>2026-03-29T08:59:56.433Z</time></trkpt><trkpt lat="42.9565821" lon="12.067907"><ele>353.0</ele><time>2026-03-29T08:59:58.436Z</time></trkpt><trkpt lat="42.9565523" lon="12.0677941"><ele>353.0</ele><time>2026-03-29T09:00:00.43Z</time></trkpt><trkpt lat="42.956541" lon="12.0678896"><ele>353.0</ele><time>2026-03-29T09:00:40.446Z</time></trkpt><trkpt lat="42.956566" lon="12.0679849"><ele>353.0</ele><time>2026-03-29T09:00:42.434Z</time></trkpt><trkpt lat="42.9565749" lon="12.0680749"><ele>353.0</ele><time>2026-03-29T09:00:44.44Z</time></trkpt><trkpt lat="42.9565883" lon="12.0681672"><ele>353.0</ele><time>2026-03-29T09:00:46.439Z</time></trkpt><trkpt lat="42.9566008" lon="12.068263"><ele>353.0</ele><time>2026-03-29T09:00:48.432Z</time></trkpt><trkpt lat="42.9566248" lon="12.0683806"><ele>353.0</ele><time>2026-03-29T09:00:51.434Z</time></trkpt><trkpt lat="42.9566675" lon="12.0684514"><ele>353.0</ele><time>2026-03-29T09:00:53.429Z</time></trkpt><trkpt lat="42.9566872" lon="12.068553"><ele>353.0</ele><time>2026-03-29T09:00:55.433Z</time></trkpt><trkpt lat="42.9566743" lon="12.0686622"><ele>353.0</ele><time>2026-03-29T09:00:57.432Z</time></trkpt><trkpt lat="42.9566524" lon="12.0687452"><ele>353.0</ele><time>2026-03-29T09:00:58.447Z</time></trkpt><trkpt lat="42.9566277" lon="12.0688439"><ele>353.0</ele><time>2026-03-29T09:00:59.436Z</time></trkpt><trkpt lat="42.9566035" lon="12.0689464"><ele>353.0</ele><time>2026-03-29T09:01:00.432Z</time></trkpt><trkpt lat="42.9565758" lon="12.0690434"><ele>351.6666666666667</ele><time>2026-03-29T09:01:01.431Z</time></trkpt><trkpt lat="42.9565431" lon="12.0691383"><ele>350.33333333333337</ele><time>2026-03-29T09:01:02.433Z</time></trkpt><trkpt lat="42.9565126" lon="12.0692264"><ele>349.0</ele><time>2026-03-29T09:01:03.43Z</time></trkpt><trkpt lat="42.9564855" lon="12.0693085"><ele>347.6666666666667</ele><time>2026-03-29T09:01:04.435Z</time></trkpt><trkpt lat="42.956457" lon="12.069386"><ele>346.3333333333333</ele><time>2026-03-29T09:01:05.441Z</time></trkpt><trkpt lat="42.956393" lon="12.0695248"><ele>345.0</ele><time>2026-03-29T09:01:07.433Z</time></trkpt><trkpt lat="42.9563293" lon="12.0696358"><ele>345.0</ele><time>2026-03-29T09:01:09.431Z</time></trkpt><trkpt lat="42.9562833" lon="12.0697306"><ele>345.0</ele><time>2026-03-29T09:01:11.435Z</time></trkpt><trkpt lat="42.956326" lon="12.0698038"><ele>345.0</ele><time>2026-03-29T09:01:14.437Z</time></trkpt><trkpt lat="42.9564" lon="12.0697582"><ele>345.0</ele><time>2026-03-29T09:01:16.433Z</time></trkpt><trkpt lat="42.9564581" lon="12.0697137"><ele>345.0</ele><time>2026-03-29T09:01:17.435Z</time></trkpt><trkpt lat="42.9565269" lon="12.0696636"><ele>345.0</ele><time>2026-03-29T09:01:18.44Z</time></trkpt><trkpt lat="42.9565929" lon="12.0696258"><ele>345.0</ele><time>2026-03-29T09:01:19.438Z</time></trkpt><trkpt lat="42.9566538" lon="12.0696021"><ele>343.1666666666667</ele><time>2026-03-29T09:01:20.435Z</time></trkpt><trkpt lat="42.9567697" lon="12.0695617"><ele>341.3333333333333</ele><time>2026-03-29T09:01:22.451Z</time></trkpt><trkpt lat="42.9568792" lon="12.0695169"><ele>339.5</ele><time>2026-03-29T09:01:24.437Z</time></trkpt><trkpt lat="42.9569419" lon="12.0694898"><ele>337.66666666666663</ele><time>2026-03-29T09:01:25.449Z</time></trkpt><trkpt lat="42.9570081" lon="12.0694662"><ele>335.8333333333333</ele><time>2026-03-29T09:01:26.432Z</time></trkpt><trkpt lat="42.9570696" lon="12.0694436"><ele>334.0</ele><time>2026-03-29T09:01:27.44Z</time></trkpt><trkpt lat="42.9571631" lon="12.0694036"><ele>334.0</ele><time>2026-03-29T09:01:29.438Z</time></trkpt><trkpt lat="42.957238" lon="12.0693591"><ele>334.0</ele><time>2026-03-29T09:01:32.429Z</time></trkpt><trkpt lat="42.9573073" lon="12.0693616"><ele>334.0</ele><time>2026-03-29T09:01:35.433Z</time></trkpt><trkpt lat="42.9573491" lon="12.0694335"><ele>334.0</ele><time>2026-03-29T09:01:38.433Z</time></trkpt><trkpt lat="42.9573988" lon="12.0695303"><ele>334.0</ele><time>2026-03-29T09:01:40.434Z</time></trkpt><trkpt lat="42.9574266" lon="12.069631"><ele>334.0</ele><time>2026-03-29T09:01:42.431Z</time></trkpt><trkpt lat="42.9574697" lon="12.0697155"><ele>334.66666666666663</ele><time>2026-03-29T09:01:44.429Z</time></trkpt><trkpt lat="42.9575437" lon="12.0698703"><ele>335.3333333333333</ele><time>2026-03-29T09:01:46.44Z</time></trkpt><trkpt lat="42.9575733" lon="12.0699707"><ele>336.0</ele><time>2026-03-29T09:01:47.43Z</time></trkpt><trkpt lat="42.9575937" lon="12.0700591"><ele>336.6666666666667</ele><time>2026-03-29T09:01:48.432Z</time></trkpt><trkpt lat="42.9576125" lon="12.070146"><ele>337.33333333333337</ele><time>2026-03-29T09:01:49.431Z</time></trkpt><trkpt lat="42.957631" lon="12.0702431"><ele>338.0</ele><time>2026-03-29T09:01:50.436Z</time></trkpt><trkpt lat="42.9576495" lon="12.070346"><ele>338.0</ele><time>2026-03-29T09:01:51.434Z</time></trkpt><trkpt lat="42.9576623" lon="12.0704594"><ele>338.0</ele><time>2026-03-29T09:01:52.431Z</time></trkpt><trkpt lat="42.9576588" lon="12.0705744"><ele>338.0</ele><time>2026-03-29T09:01:53.431Z</time></trkpt><trkpt lat="42.9576447" lon="12.0706846"><ele>338.0</ele><time>2026-03-29T09:01:54.431Z</time></trkpt><trkpt lat="42.9576324" lon="12.0707785"><ele>338.0</ele><time>2026-03-29T09:01:55.432Z</time></trkpt><trkpt lat="42.9576359" lon="12.0708946"><ele>338.0</ele><time>2026-03-29T09:01:57.429Z</time></trkpt><trkpt lat="42.9576911" lon="12.0709518"><ele>336.83333333333337</ele><time>2026-03-29T09:01:59.434Z</time></trkpt><trkpt lat="42.9577535" lon="12.0709918"><ele>335.6666666666667</ele><time>2026-03-29T09:02:01.432Z</time></trkpt><trkpt lat="42.9578298" lon="12.0710633"><ele>334.5</ele><time>2026-03-29T09:02:03.431Z</time></trkpt><trkpt lat="42.9578549" lon="12.0711571"><ele>333.3333333333333</ele><time>2026-03-29T09:02:05.433Z</time></trkpt><trkpt lat="42.9578258" lon="12.071064"><ele>332.16666666666663</ele><time>2026-03-29T09:02:53.437Z</time></trkpt><trkpt lat="42.957764" lon="12.0709808"><ele>331.0</ele><time>2026-03-29T09:02:56.429Z</time></trkpt><trkpt lat="42.9577018" lon="12.0709322"><ele>331.0</ele><time>2026-03-29T09:02:58.461Z</time></trkpt><trkpt lat="42.9576494" lon="12.0708772"><ele>331.0</ele><time>2026-03-29T09:03:00.435Z</time></trkpt><trkpt lat="42.9576628" lon="12.0707494"><ele>331.0</ele><time>2026-03-29T09:03:02.432Z</time></trkpt><trkpt lat="42.9576823" lon="12.070646"><ele>331.0</ele><time>2026-03-29T09:03:03.439Z</time></trkpt><trkpt lat="42.9577012" lon="12.0705324"><ele>331.0</ele><time>2026-03-29T09:03:04.434Z</time></trkpt><trkpt lat="42.9577052" lon="12.0704151"><ele>331.0</ele><time>2026-03-29T09:03:05.43Z</time></trkpt><trkpt lat="42.9576855" lon="12.0702882"><ele>331.5</ele><time>2026-03-29T09:03:06.435Z</time></trkpt><trkpt lat="42.9576545" lon="12.0701475"><ele>332.0</ele><time>2026-03-29T09:03:07.444Z</time></trkpt><trkpt lat="42.957625" lon="12.0700131"><ele>332.5</ele><time>2026-03-29T09:03:08.433Z</time></trkpt><trkpt lat="42.9575977" lon="12.0699073"><ele>333.0</ele><time>2026-03-29T09:03:09.431Z</time></trkpt><trkpt lat="42.9575711" lon="12.0698217"><ele>333.5</ele><time>2026-03-29T09:03:10.439Z</time></trkpt><trkpt lat="42.9575216" lon="12.0697207"><ele>334.0</ele><time>2026-03-29T09:03:12.438Z</time></trkpt><trkpt lat="42.9574594" lon="12.0696783"><ele>334.0</ele><time>2026-03-29T09:03:40.436Z</time></trkpt><trkpt lat="42.9573686" lon="12.0696895"><ele>334.0</ele><time>2026-03-29T09:03:42.429Z</time></trkpt><trkpt lat="42.9572965" lon="12.0697089"><ele>334.0</ele><time>2026-03-29T09:03:43.434Z</time></trkpt><trkpt lat="42.9571877" lon="12.069725"><ele>334.0</ele><time>2026-03-29T09:03:45.437Z</time></trkpt><trkpt lat="42.9571053" lon="12.0696689"><ele>334.0</ele><time>2026-03-29T09:03:47.429Z</time></trkpt><trkpt lat="42.9570387" lon="12.0696141"><ele>334.0</ele><time>2026-03-29T09:03:49.432Z</time></trkpt><trkpt lat="42.9569359" lon="12.0696398"><ele>334.0</ele><time>2026-03-29T09:03:51.432Z</time></trkpt><trkpt lat="42.9568403" lon="12.0696713"><ele>334.0</ele><time>2026-03-29T09:03:53.434Z</time></trkpt><trkpt lat="42.9567479" lon="12.0696847"><ele>334.0</ele><time>2026-03-29T09:03:55.436Z</time></trkpt><trkpt lat="42.9566816" lon="12.0696147"><ele>334.0</ele><time>2026-03-29T09:03:58.43Z</time></trkpt><trkpt lat="42.956608" lon="12.0696212"><ele>334.0</ele><time>2026-03-29T09:04:05.431Z</time></trkpt><trkpt lat="42.9565249" lon="12.0696615"><ele>334.0</ele><time>2026-03-29T09:04:07.43Z</time></trkpt><trkpt lat="42.9564198" lon="12.0697179"><ele>336.2</ele><time>2026-03-29T09:04:09.431Z</time></trkpt><trkpt lat="42.9563319" lon="12.0697458"><ele>338.4</ele><time>2026-03-29T09:04:11.43Z</time></trkpt><trkpt lat="42.9563389" lon="12.0696265"><ele>340.6</ele><time>2026-03-29T09:04:15.432Z</time></trkpt><trkpt lat="42.9564042" lon="12.0694987"><ele>342.8</ele><time>2026-03-29T09:04:17.46Z</time></trkpt><trkpt lat="42.9564354" lon="12.0694212"><ele>345.0</ele><time>2026-03-29T09:04:18.433Z</time></trkpt><trkpt lat="42.9564965" lon="12.0692424"><ele>345.0</ele><time>2026-03-29T09:04:20.431Z</time></trkpt><trkpt lat="42.9565256" lon="12.0691588"><ele>345.0</ele><time>2026-03-29T09:04:21.434Z</time></trkpt><trkpt lat="42.9565492" lon="12.0690763"><ele>345.0</ele><time>2026-03-29T09:04:22.438Z</time></trkpt><trkpt lat="42.9565735" lon="12.0689942"><ele>345.0</ele><time>2026-03-29T09:04:23.448Z</time></trkpt><trkpt lat="42.9566093" lon="12.0688364"><ele>345.0</ele><time>2026-03-29T09:04:25.435Z</time></trkpt><trkpt lat="42.9566286" lon="12.0687515"><ele>345.0</ele><time>2026-03-29T09:04:26.431Z</time></trkpt><trkpt lat="42.9566517" lon="12.0686663"><ele>346.6</ele><time>2026-03-29T09:04:27.434Z</time></trkpt><trkpt lat="42.9566804" lon="12.0685237"><ele>348.2</ele><time>2026-03-29T09:04:29.431Z</time></trkpt><trkpt lat="42.9566556" lon="12.0684187"><ele>349.79999999999995</ele><time>2026-03-29T09:04:31.451Z</time></trkpt><trkpt lat="42.9565714" lon="12.0683862"><ele>351.4</ele><time>2026-03-29T09:04:33.44Z</time></trkpt><trkpt lat="42.9564808" lon="12.0684629"><ele>353.0</ele><time>2026-03-29T09:04:35.464Z</time></trkpt><trkpt lat="42.9563885" lon="12.0685507"><ele>353.0</ele><time>2026-03-29T09:04:37.434Z</time></trkpt><trkpt lat="42.9563367" lon="12.0686015"><ele>353.0</ele><time>2026-03-29T09:04:38.432Z</time></trkpt><trkpt lat="42.9562861" lon="12.068653"><ele>353.0</ele><time>2026-03-29T09:04:39.432Z</time></trkpt><trkpt lat="42.9561972" lon="12.0687431"><ele>353.0</ele><time>2026-03-29T09:04:41.432Z</time></trkpt><trkpt lat="42.9561107" lon="12.0688259"><ele>353.0</ele><time>2026-03-29T09:04:43.436Z</time></trkpt><trkpt lat="42.9560023" lon="12.0689095"><ele>353.0</ele><time>2026-03-29T09:04:45.431Z</time></trkpt><trkpt lat="42.9559204" lon="12.0689646"><ele>353.0</ele><time>2026-03-29T09:04:47.432Z</time></trkpt><trkpt lat="42.9558381" lon="12.0689989"><ele>353.0</ele><time>2026-03-29T09:04:49.429Z</time></trkpt><trkpt lat="42.9557548" lon="12.0690274"><ele>353.0</ele><time>2026-03-29T09:04:51.43Z</time></trkpt><trkpt lat="42.9556666" lon="12.0690499"><ele>353.0</ele><time>2026-03-29T09:04:53.429Z</time></trkpt><trkpt lat="42.9555714" lon="12.0690562"><ele>353.0</ele><time>2026-03-29T09:04:55.435Z</time></trkpt><trkpt lat="42.9554879" lon="12.0690652"><ele>355.2</ele><time>2026-03-29T09:04:57.436Z</time></trkpt><trkpt lat="42.9553956" lon="12.0690946"><ele>357.4</ele><time>2026-03-29T09:04:59.428Z</time></trkpt><trkpt lat="42.955309" lon="12.0691335"><ele>359.59999999999997</ele><time>2026-03-29T09:05:01.434Z</time></trkpt><trkpt lat="42.9552294" lon="12.0691345"><ele>361.79999999999995</ele><time>2026-03-29T09:05:03.43Z</time></trkpt><trkpt lat="42.9551397" lon="12.0691184"><ele>364.0</ele><time>2026-03-29T09:05:05.432Z</time></trkpt><trkpt lat="42.9550449" lon="12.0691055"><ele>369.4</ele><time>2026-03-29T09:05:07.43Z</time></trkpt><trkpt lat="42.9549499" lon="12.0690907"><ele>374.79999999999995</ele><time>2026-03-29T09:05:09.437Z</time></trkpt><trkpt lat="42.9548457" lon="12.0690875"><ele>380.20000000000005</ele><time>2026-03-29T09:05:11.43Z</time></trkpt><trkpt lat="42.9547454" lon="12.0690883"><ele>385.6</ele><time>2026-03-29T09:05:13.431Z</time></trkpt><trkpt lat="42.9546514" lon="12.0690934"><ele>391.0</ele><time>2026-03-29T09:05:15.427Z</time></trkpt><trkpt lat="42.9545568" lon="12.06909"><ele>391.0</ele><time>2026-03-29T09:05:17.433Z</time></trkpt><trkpt lat="42.9544602" lon="12.0690665"><ele>391.0</ele><time>2026-03-29T09:05:19.431Z</time></trkpt><trkpt lat="42.9543473" lon="12.0690305"><ele>391.0</ele><time>2026-03-29T09:05:21.434Z</time></trkpt><trkpt lat="42.9542504" lon="12.0690193"><ele>391.0</ele><time>2026-03-29T09:05:23.431Z</time></trkpt><trkpt lat="42.9541611" lon="12.0690039"><ele>391.0</ele><time>2026-03-29T09:05:25.437Z</time></trkpt><trkpt lat="42.954034" lon="12.0689934"><ele>391.0</ele><time>2026-03-29T09:05:27.43Z</time></trkpt><trkpt lat="42.9539284" lon="12.069032"><ele>391.0</ele><time>2026-03-29T09:05:29.434Z</time></trkpt><trkpt lat="42.9538316" lon="12.0691066"><ele>391.0</ele><time>2026-03-29T09:05:31.43Z</time></trkpt><trkpt lat="42.9537698" lon="12.0691416"><ele>391.0</ele><time>2026-03-29T09:05:32.431Z</time></trkpt><trkpt lat="42.9536865" lon="12.0691823"><ele>391.0</ele><time>2026-03-29T09:05:33.432Z</time></trkpt><trkpt lat="42.953607" lon="12.0692136"><ele>391.00000000000006</ele><time>2026-03-29T09:05:34.434Z</time></trkpt><trkpt lat="42.9535342" lon="12.0692335"><ele>391.0</ele><time>2026-03-29T09:05:35.434Z</time></trkpt><trkpt lat="42.9534691" lon="12.0692329"><ele>391.0</ele><time>2026-03-29T09:05:36.431Z</time></trkpt><trkpt lat="42.9533992" lon="12.0692117"><ele>391.0</ele><time>2026-03-29T09:05:37.438Z</time></trkpt><trkpt lat="42.9533313" lon="12.069173"><ele>391.00000000000006</ele><time>2026-03-29T09:05:38.463Z</time></trkpt><trkpt lat="42.9532745" lon="12.0691309"><ele>391.0</ele><time>2026-03-29T09:05:39.429Z</time></trkpt><trkpt lat="42.9531864" lon="12.0690498"><ele>395.20000000000005</ele><time>2026-03-29T09:05:41.432Z</time></trkpt><trkpt lat="42.953099" lon="12.0689726"><ele>399.40000000000003</ele><time>2026-03-29T09:05:43.428Z</time></trkpt><trkpt lat="42.9530293" lon="12.0688913"><ele>403.6</ele><time>2026-03-29T09:05:45.431Z</time></trkpt><trkpt lat="42.9529699" lon="12.0688035"><ele>407.8</ele><time>2026-03-29T09:05:47.433Z</time></trkpt><trkpt lat="42.9529269" lon="12.0687195"><ele>412.0</ele><time>2026-03-29T09:05:49.431Z</time></trkpt><trkpt lat="42.9528795" lon="12.0686101"><ele>412.0</ele><time>2026-03-29T09:05:51.444Z</time></trkpt><trkpt lat="42.9528244" lon="12.0684837"><ele>412.0</ele><time>2026-03-29T09:05:53.429Z</time></trkpt><trkpt lat="42.9527506" lon="12.0683789"><ele>412.0</ele><time>2026-03-29T09:05:55.429Z</time></trkpt><trkpt lat="42.9526867" lon="12.068297"><ele>412.0</ele><time>2026-03-29T09:05:57.432Z</time></trkpt><trkpt lat="42.9526064" lon="12.0681994"><ele>412.0</ele><time>2026-03-29T09:05:59.465Z</time></trkpt><trkpt lat="42.9525203" lon="12.0680946"><ele>413.6</ele><time>2026-03-29T09:06:01.432Z</time></trkpt><trkpt lat="42.9524413" lon="12.068018"><ele>415.20000000000005</ele><time>2026-03-29T09:06:03.43Z</time></trkpt><trkpt lat="42.9523596" lon="12.0679412"><ele>416.8</ele><time>2026-03-29T09:06:05.431Z</time></trkpt><trkpt lat="42.9522905" lon="12.0678848"><ele>418.4</ele><time>2026-03-29T09:06:07.437Z</time></trkpt><trkpt lat="42.9522244" lon="12.0678258"><ele>420.0</ele><time>2026-03-29T09:06:09.428Z</time></trkpt><trkpt lat="42.9521534" lon="12.0677249"><ele>420.0</ele><time>2026-03-29T09:06:11.466Z</time></trkpt><trkpt lat="42.952045" lon="12.06764"><ele>420.0</ele><time>2026-03-29T09:06:13.43Z</time></trkpt><trkpt lat="42.9519404" lon="12.0675884"><ele>420.0</ele><time>2026-03-29T09:06:15.438Z</time></trkpt><trkpt lat="42.9518741" lon="12.0675578"><ele>420.0</ele><time>2026-03-29T09:06:16.435Z</time></trkpt><trkpt lat="42.951793" lon="12.0675265"><ele>420.0</ele><time>2026-03-29T09:06:17.43Z</time></trkpt><trkpt lat="42.9516998" lon="12.0674912"><ele>419.5</ele><time>2026-03-29T09:06:18.432Z</time></trkpt><trkpt lat="42.9516074" lon="12.0674598"><ele>419.0</ele><time>2026-03-29T09:06:19.431Z</time></trkpt><trkpt lat="42.9515235" lon="12.0674412"><ele>418.5</ele><time>2026-03-29T09:06:20.44Z</time></trkpt><trkpt lat="42.951452" lon="12.0674303"><ele>418.0</ele><time>2026-03-29T09:06:21.434Z</time></trkpt><trkpt lat="42.9513326" lon="12.0674165"><ele>417.5</ele><time>2026-03-29T09:06:23.433Z</time></trkpt><trkpt lat="42.9512611" lon="12.0674141"><ele>417.0</ele><time>2026-03-29T09:06:24.429Z</time></trkpt><trkpt lat="42.9511719" lon="12.0674038"><ele>417.0</ele><time>2026-03-29T09:06:25.428Z</time></trkpt><trkpt lat="42.9510756" lon="12.0673818"><ele>417.0</ele><time>2026-03-29T09:06:26.433Z</time></trkpt><trkpt lat="42.9509809" lon="12.067343"><ele>417.0</ele><time>2026-03-29T09:06:27.431Z</time></trkpt><trkpt lat="42.9508769" lon="12.0672748"><ele>417.0</ele><time>2026-03-29T09:06:28.427Z</time></trkpt><trkpt lat="42.9507613" lon="12.0671716"><ele>418.75</ele><time>2026-03-29T09:06:29.432Z</time></trkpt><trkpt lat="42.9506376" lon="12.067058"><ele>420.5</ele><time>2026-03-29T09:06:30.43Z</time></trkpt><trkpt lat="42.9505096" lon="12.0669578"><ele>422.25</ele><time>2026-03-29T09:06:31.431Z</time></trkpt><trkpt lat="42.9503794" lon="12.0668785"><ele>424.0</ele><time>2026-03-29T09:06:32.432Z</time></trkpt><trkpt lat="42.9502523" lon="12.0668181"><ele>424.0</ele><time>2026-03-29T09:06:33.431Z</time></trkpt><trkpt lat="42.9501257" lon="12.0667646"><ele>424.0</ele><time>2026-03-29T09:06:34.431Z</time></trkpt><trkpt lat="42.9499986" lon="12.0667118"><ele>424.0</ele><time>2026-03-29T09:06:35.432Z</time></trkpt><trkpt lat="42.9498695" lon="12.0666584"><ele>424.0</ele><time>2026-03-29T09:06:36.432Z</time></trkpt><trkpt lat="42.9497331" lon="12.0666015"><ele>425.25</ele><time>2026-03-29T09:06:37.431Z</time></trkpt><trkpt lat="42.9495874" lon="12.0665423"><ele>426.5</ele><time>2026-03-29T09:06:38.431Z</time></trkpt><trkpt lat="42.9494545" lon="12.0664911"><ele>427.75</ele><time>2026-03-29T09:06:39.435Z</time></trkpt><trkpt lat="42.9493423" lon="12.0664459"><ele>429.0</ele><time>2026-03-29T09:06:40.437Z</time></trkpt><trkpt lat="42.9492435" lon="12.0663903"><ele>431.5</ele><time>2026-03-29T09:06:41.433Z</time></trkpt><trkpt lat="42.9491493" lon="12.0663221"><ele>434.0</ele><time>2026-03-29T09:06:42.431Z</time></trkpt><trkpt lat="42.9490575" lon="12.0662408"><ele>436.5</ele><time>2026-03-29T09:06:43.443Z</time></trkpt><trkpt lat="42.9489653" lon="12.0661504"><ele>439.0</ele><time>2026-03-29T09:06:44.435Z</time></trkpt><trkpt lat="42.9488681" lon="12.0660536"><ele>439.0</ele><time>2026-03-29T09:06:45.433Z</time></trkpt><trkpt lat="42.9487759" lon="12.0659576"><ele>439.0</ele><time>2026-03-29T09:06:46.43Z</time></trkpt><trkpt lat="42.9486975" lon="12.0658638"><ele>439.0</ele><time>2026-03-29T09:06:47.433Z</time></trkpt><trkpt lat="42.9486376" lon="12.0657717"><ele>439.0</ele><time>2026-03-29T09:06:48.431Z</time></trkpt><trkpt lat="42.9485857" lon="12.0656829"><ele>439.0</ele><time>2026-03-29T09:06:49.432Z</time></trkpt><trkpt lat="42.9485375" lon="12.0655952"><ele>439.83333333333337</ele><time>2026-03-29T09:06:50.445Z</time></trkpt><trkpt lat="42.948493" lon="12.0655033"><ele>440.6666666666667</ele><time>2026-03-29T09:06:51.431Z</time></trkpt><trkpt lat="42.948453" lon="12.0654059"><ele>441.5</ele><time>2026-03-29T09:06:52.428Z</time></trkpt><trkpt lat="42.9484167" lon="12.065304"><ele>442.33333333333337</ele><time>2026-03-29T09:06:53.431Z</time></trkpt><trkpt lat="42.9483824" lon="12.0651993"><ele>443.1666666666667</ele><time>2026-03-29T09:06:54.428Z</time></trkpt><trkpt lat="42.9483342" lon="12.065086"><ele>444.0</ele><time>2026-03-29T09:06:55.433Z</time></trkpt><trkpt lat="42.9482627" lon="12.064957"><ele>446.0</ele><time>2026-03-29T09:06:56.43Z</time></trkpt><trkpt lat="42.9481653" lon="12.0648168"><ele>448.0</ele><time>2026-03-29T09:06:57.428Z</time></trkpt><trkpt lat="42.9480499" lon="12.0646694"><ele>450.0</ele><time>2026-03-29T09:06:58.435Z</time></trkpt><trkpt lat="42.9479512" lon="12.0645506"><ele>452.0</ele><time>2026-03-29T09:06:59.431Z</time></trkpt><trkpt lat="42.947865" lon="12.0644566"><ele>452.0</ele><time>2026-03-29T09:07:00.429Z</time></trkpt><trkpt lat="42.9477755" lon="12.0643848"><ele>452.00000000000006</ele><time>2026-03-29T09:07:01.438Z</time></trkpt><trkpt lat="42.9476767" lon="12.0643356"><ele>452.00000000000006</ele><time>2026-03-29T09:07:02.436Z</time></trkpt><trkpt lat="42.9475688" lon="12.064303"><ele>452.0</ele><time>2026-03-29T09:07:03.432Z</time></trkpt><trkpt lat="42.9474532" lon="12.0642623"><ele>452.0</ele><time>2026-03-29T09:07:04.432Z</time></trkpt><trkpt lat="42.9473346" lon="12.0642022"><ele>451.5</ele><time>2026-03-29T09:07:05.431Z</time></trkpt><trkpt lat="42.9472231" lon="12.0641246"><ele>451.0</ele><time>2026-03-29T09:07:06.433Z</time></trkpt><trkpt lat="42.9471214" lon="12.0640456"><ele>450.5</ele><time>2026-03-29T09:07:07.437Z</time></trkpt><trkpt lat="42.9470121" lon="12.0639828"><ele>450.0</ele><time>2026-03-29T09:07:08.431Z</time></trkpt><trkpt lat="42.9468924" lon="12.0639474"><ele>450.0</ele><time>2026-03-29T09:07:09.428Z</time></trkpt><trkpt lat="42.9467786" lon="12.0639392"><ele>450.0</ele><time>2026-03-29T09:07:10.431Z</time></trkpt><trkpt lat="42.9466619" lon="12.0639472"><ele>450.0</ele><time>2026-03-29T09:07:11.43Z</time></trkpt><trkpt lat="42.9465617" lon="12.0639611"><ele>450.0</ele><time>2026-03-29T09:07:12.436Z</time></trkpt><trkpt lat="42.9464676" lon="12.0639883"><ele>450.0</ele><time>2026-03-29T09:07:13.436Z</time></trkpt><trkpt lat="42.9463689" lon="12.0640248"><ele>449.8</ele><time>2026-03-29T09:07:14.429Z</time></trkpt><trkpt lat="42.9462647" lon="12.064064"><ele>449.6</ele><time>2026-03-29T09:07:15.43Z</time></trkpt><trkpt lat="42.9461584" lon="12.0640919"><ele>449.4</ele><time>2026-03-29T09:07:16.429Z</time></trkpt><trkpt lat="42.9460541" lon="12.0641088"><ele>449.2</ele><time>2026-03-29T09:07:17.437Z</time></trkpt><trkpt lat="42.9459512" lon="12.0641191"><ele>449.0</ele><time>2026-03-29T09:07:18.431Z</time></trkpt><trkpt lat="42.9458473" lon="12.0641373"><ele>449.5</ele><time>2026-03-29T09:07:19.428Z</time></trkpt><trkpt lat="42.9457367" lon="12.0641724"><ele>450.0</ele><time>2026-03-29T09:07:20.428Z</time></trkpt><trkpt lat="42.9456121" lon="12.0642178"><ele>450.5</ele><time>2026-03-29T09:07:21.432Z</time></trkpt><trkpt lat="42.9454919" lon="12.0642577"><ele>451.0</ele><time>2026-03-29T09:07:22.432Z</time></trkpt><trkpt lat="42.9453841" lon="12.0642977"><ele>451.00000000000006</ele><time>2026-03-29T09:07:23.429Z</time></trkpt><trkpt lat="42.9452874" lon="12.0643415"><ele>451.0</ele><time>2026-03-29T09:07:24.435Z</time></trkpt><trkpt lat="42.9451983" lon="12.0643662"><ele>451.0</ele><time>2026-03-29T09:07:25.431Z</time></trkpt><trkpt lat="42.9451218" lon="12.0643625"><ele>451.0</ele><time>2026-03-29T09:07:26.457Z</time></trkpt><trkpt lat="42.9450565" lon="12.0643383"><ele>451.00000000000006</ele><time>2026-03-29T09:07:27.432Z</time></trkpt><trkpt lat="42.9449847" lon="12.0643161"><ele>451.0</ele><time>2026-03-29T09:07:28.43Z</time></trkpt><trkpt lat="42.9449011" lon="12.0643095"><ele>451.1666666666667</ele><time>2026-03-29T09:07:29.429Z</time></trkpt><trkpt lat="42.9448095" lon="12.0643147"><ele>451.33333333333337</ele><time>2026-03-29T09:07:30.428Z</time></trkpt><trkpt lat="42.9447183" lon="12.0643261"><ele>451.5</ele><time>2026-03-29T09:07:31.429Z</time></trkpt><trkpt lat="42.9446395" lon="12.0643386"><ele>451.66666666666663</ele><time>2026-03-29T09:07:32.428Z</time></trkpt><trkpt lat="42.9445731" lon="12.0643455"><ele>451.8333333333333</ele><time>2026-03-29T09:07:33.428Z</time></trkpt><trkpt lat="42.9445053" lon="12.0643413"><ele>452.0</ele><time>2026-03-29T09:07:35.43Z</time></trkpt><trkpt lat="42.9444855" lon="12.0642488"><ele>451.99999999999994</ele><time>2026-03-29T09:07:40.431Z</time></trkpt><trkpt lat="42.9445023" lon="12.0641591"><ele>452.0</ele><time>2026-03-29T09:07:42.437Z</time></trkpt><trkpt lat="42.9445544" lon="12.0640692"><ele>452.0</ele><time>2026-03-29T09:07:44.431Z</time></trkpt><trkpt lat="42.9446085" lon="12.0640189"><ele>452.0</ele><time>2026-03-29T09:07:46.434Z</time></trkpt><trkpt lat="42.9446843" lon="12.0639492"><ele>451.99999999999994</ele><time>2026-03-29T09:07:49.43Z</time></trkpt><trkpt lat="42.944725" lon="12.0638823"><ele>452.0</ele><time>2026-03-29T09:07:51.433Z</time></trkpt><trkpt lat="42.9447474" lon="12.0637648"><ele>452.49999999999994</ele><time>2026-03-29T09:07:53.439Z</time></trkpt><trkpt lat="42.9447638" lon="12.0636197"><ele>453.0</ele><time>2026-03-29T09:07:55.441Z</time></trkpt><trkpt lat="42.9447742" lon="12.0635246"><ele>453.5</ele><time>2026-03-29T09:07:56.433Z</time></trkpt><trkpt lat="42.9447809" lon="12.0634235"><ele>454.0</ele><time>2026-03-29T09:07:57.43Z</time></trkpt><trkpt lat="42.9447838" lon="12.0633117"><ele>454.49999999999994</ele><time>2026-03-29T09:07:58.434Z</time></trkpt><trkpt lat="42.9447867" lon="12.0632052"><ele>455.0</ele><time>2026-03-29T09:07:59.438Z</time></trkpt><trkpt lat="42.9447878" lon="12.0631073"><ele>455.49999999999994</ele><time>2026-03-29T09:08:00.432Z</time></trkpt><trkpt lat="42.9447889" lon="12.0630128"><ele>456.0</ele><time>2026-03-29T09:08:01.446Z</time></trkpt><trkpt lat="42.9447908" lon="12.0629194"><ele>456.5</ele><time>2026-03-29T09:08:02.429Z</time></trkpt><trkpt lat="42.9447884" lon="12.062831"><ele>457.0</ele><time>2026-03-29T09:08:03.457Z</time></trkpt><trkpt lat="42.9447744" lon="12.0627321"><ele>457.49999999999994</ele><time>2026-03-29T09:08:04.433Z</time></trkpt><trkpt lat="42.9447511" lon="12.0626143"><ele>458.0</ele><time>2026-03-29T09:08:05.43Z</time></trkpt><trkpt lat="42.944734" lon="12.0624877"><ele>458.16666666666663</ele><time>2026-03-29T09:08:06.457Z</time></trkpt><trkpt lat="42.9447333" lon="12.0623778"><ele>458.3333333333333</ele><time>2026-03-29T09:08:07.435Z</time></trkpt><trkpt lat="42.9447443" lon="12.0622807"><ele>458.5</ele><time>2026-03-29T09:08:08.439Z</time></trkpt><trkpt lat="42.9447648" lon="12.0621892"><ele>458.66666666666663</ele><time>2026-03-29T09:08:09.469Z</time></trkpt><trkpt lat="42.9447901" lon="12.0620904"><ele>458.8333333333333</ele><time>2026-03-29T09:08:10.434Z</time></trkpt><trkpt lat="42.9448192" lon="12.0619842"><ele>459.0</ele><time>2026-03-29T09:08:11.431Z</time></trkpt><trkpt lat="42.9448472" lon="12.0618816"><ele>459.0</ele><time>2026-03-29T09:08:12.437Z</time></trkpt><trkpt lat="42.9448773" lon="12.061794"><ele>459.0</ele><time>2026-03-29T09:08:13.44Z</time></trkpt><trkpt lat="42.9449069" lon="12.0617161"><ele>459.0</ele><time>2026-03-29T09:08:14.434Z</time></trkpt><trkpt lat="42.944949" lon="12.0615609"><ele>459.0</ele><time>2026-03-29T09:08:16.442Z</time></trkpt><trkpt lat="42.9449674" lon="12.0614767"><ele>459.0</ele><time>2026-03-29T09:08:17.433Z</time></trkpt><trkpt lat="42.9449898" lon="12.0613816"><ele>459.0</ele><time>2026-03-29T09:08:18.464Z</time></trkpt><trkpt lat="42.9450239" lon="12.0612871"><ele>458.8333333333333</ele><time>2026-03-29T09:08:19.467Z</time></trkpt><trkpt lat="42.9450594" lon="12.0611962"><ele>458.66666666666663</ele><time>2026-03-29T09:08:20.454Z</time></trkpt><trkpt lat="42.9450945" lon="12.0611147"><ele>458.5</ele><time>2026-03-29T09:08:21.441Z</time></trkpt><trkpt lat="42.9451675" lon="12.0609748"><ele>458.3333333333333</ele><time>2026-03-29T09:08:23.441Z</time></trkpt><trkpt lat="42.945213" lon="12.0609004"><ele>458.16666666666663</ele><time>2026-03-29T09:08:24.443Z</time></trkpt><trkpt lat="42.9452685" lon="12.0608207"><ele>458.0</ele><time>2026-03-29T09:08:25.446Z</time></trkpt><trkpt lat="42.9453207" lon="12.0607247"><ele>457.99999999999994</ele><time>2026-03-29T09:08:26.44Z</time></trkpt><trkpt lat="42.9453814" lon="12.0606283"><ele>458.0</ele><time>2026-03-29T09:08:27.435Z</time></trkpt><trkpt lat="42.9454417" lon="12.0605318"><ele>458.0</ele><time>2026-03-29T09:08:28.443Z</time></trkpt><trkpt lat="42.945507" lon="12.0604425"><ele>458.0</ele><time>2026-03-29T09:08:29.44Z</time></trkpt><trkpt lat="42.9455683" lon="12.0603717"><ele>457.99999999999994</ele><time>2026-03-29T09:08:30.449Z</time></trkpt><trkpt lat="42.9456234" lon="12.0603235"><ele>458.0</ele><time>2026-03-29T09:08:31.463Z</time></trkpt><trkpt lat="42.9457045" lon="12.0602344"><ele>458.0</ele><time>2026-03-29T09:08:33.431Z</time></trkpt><trkpt lat="42.9457922" lon="12.0601166"><ele>457.99999999999994</ele><time>2026-03-29T09:08:35.441Z</time></trkpt><trkpt lat="42.9458499" lon="12.060051"><ele>457.99999999999994</ele><time>2026-03-29T09:08:36.438Z</time></trkpt><trkpt lat="42.9459144" lon="12.0599909"><ele>458.0</ele><time>2026-03-29T09:08:37.435Z</time></trkpt><trkpt lat="42.945987" lon="12.0599299"><ele>458.0</ele><time>2026-03-29T09:08:38.43Z</time></trkpt><trkpt lat="42.946068" lon="12.0598676"><ele>457.79999999999995</ele><time>2026-03-29T09:08:39.428Z</time></trkpt><trkpt lat="42.9461472" lon="12.0598049"><ele>457.59999999999997</ele><time>2026-03-29T09:08:40.433Z</time></trkpt><trkpt lat="42.9462272" lon="12.0597377"><ele>457.40000000000003</ele><time>2026-03-29T09:08:41.429Z</time></trkpt><trkpt lat="42.9463051" lon="12.0596602"><ele>457.20000000000005</ele><time>2026-03-29T09:08:42.44Z</time></trkpt><trkpt lat="42.9463807" lon="12.059583"><ele>457.0</ele><time>2026-03-29T09:08:43.434Z</time></trkpt><trkpt lat="42.9464495" lon="12.0595096"><ele>457.00000000000006</ele><time>2026-03-29T09:08:44.431Z</time></trkpt><trkpt lat="42.9465167" lon="12.0594435"><ele>457.0</ele><time>2026-03-29T09:08:45.432Z</time></trkpt><trkpt lat="42.946591" lon="12.0593868"><ele>457.0</ele><time>2026-03-29T09:08:46.433Z</time></trkpt><trkpt lat="42.9466729" lon="12.0593358"><ele>457.0</ele><time>2026-03-29T09:08:47.441Z</time></trkpt><trkpt lat="42.9467509" lon="12.0592867"><ele>457.00000000000006</ele><time>2026-03-29T09:08:48.437Z</time></trkpt><trkpt lat="42.94682" lon="12.0592359"><ele>457.0</ele><time>2026-03-29T09:08:49.454Z</time></trkpt><trkpt lat="42.9468737" lon="12.0591805"><ele>456.6</ele><time>2026-03-29T09:08:50.44Z</time></trkpt><trkpt lat="42.9469562" lon="12.0590637"><ele>456.20000000000005</ele><time>2026-03-29T09:08:52.437Z</time></trkpt><trkpt lat="42.9470431" lon="12.0589285"><ele>455.8</ele><time>2026-03-29T09:08:54.433Z</time></trkpt><trkpt lat="42.947094" lon="12.0588359"><ele>455.4</ele><time>2026-03-29T09:08:55.436Z</time></trkpt><trkpt lat="42.9471482" lon="12.0587407"><ele>455.0</ele><time>2026-03-29T09:08:56.431Z</time></trkpt><trkpt lat="42.9471903" lon="12.0586613"><ele>454.99999999999994</ele><time>2026-03-29T09:08:57.434Z</time></trkpt><trkpt lat="42.9472306" lon="12.0585835"><ele>455.0</ele><time>2026-03-29T09:08:58.434Z</time></trkpt><trkpt lat="42.9472752" lon="12.0584897"><ele>455.0</ele><time>2026-03-29T09:08:59.437Z</time></trkpt><trkpt lat="42.9473227" lon="12.0583979"><ele>455.0</ele><time>2026-03-29T09:09:00.428Z</time></trkpt><trkpt lat="42.9473709" lon="12.0583159"><ele>454.99999999999994</ele><time>2026-03-29T09:09:01.433Z</time></trkpt><trkpt lat="42.9474263" lon="12.0582313"><ele>455.0</ele><time>2026-03-29T09:09:02.43Z</time></trkpt><trkpt lat="42.9474918" lon="12.0581542"><ele>454.49999999999994</ele><time>2026-03-29T09:09:03.432Z</time></trkpt><trkpt lat="42.9475629" lon="12.0580737"><ele>454.0</ele><time>2026-03-29T09:09:04.432Z</time></trkpt><trkpt lat="42.9476426" lon="12.0580075"><ele>453.5</ele><time>2026-03-29T09:09:05.433Z</time></trkpt><trkpt lat="42.947725" lon="12.0579506"><ele>453.0</ele><time>2026-03-29T09:09:06.428Z</time></trkpt><trkpt lat="42.9478043" lon="12.0579079"><ele>452.49999999999994</ele><time>2026-03-29T09:09:07.436Z</time></trkpt><trkpt lat="42.9478806" lon="12.0578805"><ele>452.0</ele><time>2026-03-29T09:09:08.434Z</time></trkpt><trkpt lat="42.9479583" lon="12.057866"><ele>451.99999999999994</ele><time>2026-03-29T09:09:09.427Z</time></trkpt><trkpt lat="42.9480336" lon="12.0578667"><ele>452.0</ele><time>2026-03-29T09:09:10.43Z</time></trkpt><trkpt lat="42.9481091" lon="12.0578849"><ele>452.0</ele><time>2026-03-29T09:09:11.431Z</time></trkpt><trkpt lat="42.9481852" lon="12.0579113"><ele>452.0</ele><time>2026-03-29T09:09:12.432Z</time></trkpt><trkpt lat="42.9482612" lon="12.0579331"><ele>451.99999999999994</ele><time>2026-03-29T09:09:13.431Z</time></trkpt><trkpt lat="42.9483346" lon="12.057951"><ele>452.0</ele><time>2026-03-29T09:09:14.43Z</time></trkpt><trkpt lat="42.948407" lon="12.0579703"><ele>448.0</ele><time>2026-03-29T09:09:15.429Z</time></trkpt><trkpt lat="42.9484712" lon="12.0579896"><ele>444.00000000000006</ele><time>2026-03-29T09:09:16.434Z</time></trkpt><trkpt lat="42.9485661" lon="12.0579893"><ele>440.00000000000006</ele><time>2026-03-29T09:09:18.432Z</time></trkpt><trkpt lat="42.9486308" lon="12.0579115"><ele>436.0</ele><time>2026-03-29T09:09:20.428Z</time></trkpt><trkpt lat="42.9487256" lon="12.057779"><ele>432.0</ele><time>2026-03-29T09:09:22.432Z</time></trkpt><trkpt lat="42.948773" lon="12.0576964"><ele>432.0</ele><time>2026-03-29T09:09:23.434Z</time></trkpt><trkpt lat="42.9488155" lon="12.0576231"><ele>432.00000000000006</ele><time>2026-03-29T09:09:24.432Z</time></trkpt><trkpt lat="42.9488912" lon="12.0575084"><ele>432.00000000000006</ele><time>2026-03-29T09:09:26.431Z</time></trkpt><trkpt lat="42.9489749" lon="12.0574207"><ele>432.0</ele><time>2026-03-29T09:09:28.44Z</time></trkpt><trkpt lat="42.9490821" lon="12.0574029"><ele>432.0</ele><time>2026-03-29T09:09:30.427Z</time></trkpt><trkpt lat="42.9491912" lon="12.0574308"><ele>428.0</ele><time>2026-03-29T09:09:32.431Z</time></trkpt><trkpt lat="42.9493083" lon="12.0574571"><ele>424.0</ele><time>2026-03-29T09:09:34.431Z</time></trkpt><trkpt lat="42.9493717" lon="12.0574611"><ele>420.0</ele><time>2026-03-29T09:09:35.43Z</time></trkpt><trkpt lat="42.949437" lon="12.0574714"><ele>416.0</ele><time>2026-03-29T09:09:36.432Z</time></trkpt><trkpt lat="42.9494979" lon="12.0574968"><ele>412.0</ele><time>2026-03-29T09:09:37.43Z</time></trkpt><trkpt lat="42.9495982" lon="12.0575875"><ele>408.0</ele><time>2026-03-29T09:09:39.43Z</time></trkpt><trkpt lat="42.9496642" lon="12.0576941"><ele>408.0</ele><time>2026-03-29T09:09:41.43Z</time></trkpt><trkpt lat="42.949722" lon="12.0577816"><ele>408.0</ele><time>2026-03-29T09:09:43.43Z</time></trkpt><trkpt lat="42.9497804" lon="12.0578664"><ele>408.0</ele><time>2026-03-29T09:09:45.428Z</time></trkpt><trkpt lat="42.9498343" lon="12.0579597"><ele>408.0</ele><time>2026-03-29T09:09:47.433Z</time></trkpt><trkpt lat="42.9498813" lon="12.0580476"><ele>408.0</ele><time>2026-03-29T09:09:49.429Z</time></trkpt><trkpt lat="42.9499301" lon="12.0581129"><ele>408.0</ele><time>2026-03-29T09:09:51.431Z</time></trkpt><trkpt lat="42.9500035" lon="12.0581527"><ele>402.0</ele><time>2026-03-29T09:09:54.429Z</time></trkpt><trkpt lat="42.9500722" lon="12.0580756"><ele>396.0</ele><time>2026-03-29T09:09:57.434Z</time></trkpt><trkpt lat="42.9501171" lon="12.05801"><ele>390.0</ele><time>2026-03-29T09:09:59.431Z</time></trkpt><trkpt lat="42.9501751" lon="12.057933"><ele>384.0</ele><time>2026-03-29T09:10:02.433Z</time></trkpt><trkpt lat="42.9502186" lon="12.0578374"><ele>378.0</ele><time>2026-03-29T09:10:05.43Z</time></trkpt><trkpt lat="42.9502663" lon="12.0577499"><ele>372.0</ele><time>2026-03-29T09:10:08.426Z</time></trkpt><trkpt lat="42.9503431" lon="12.0578003"><ele>372.0</ele><time>2026-03-29T09:10:11.433Z</time></trkpt><trkpt lat="42.9504218" lon="12.0578806"><ele>372.0</ele><time>2026-03-29T09:10:13.461Z</time></trkpt><trkpt lat="42.9504938" lon="12.0579487"><ele>372.0</ele><time>2026-03-29T09:10:15.437Z</time></trkpt><trkpt lat="42.9505647" lon="12.0579973"><ele>372.0</ele><time>2026-03-29T09:10:17.432Z</time></trkpt><trkpt lat="42.9506226" lon="12.0580516"><ele>372.0</ele><time>2026-03-29T09:10:19.434Z</time></trkpt><trkpt lat="42.9506902" lon="12.0581265"><ele>372.0</ele><time>2026-03-29T09:10:21.431Z</time></trkpt><trkpt lat="42.9507633" lon="12.0582129"><ele>373.0</ele><time>2026-03-29T09:10:23.437Z</time></trkpt><trkpt lat="42.9508218" lon="12.0582955"><ele>374.0</ele><time>2026-03-29T09:10:25.427Z</time></trkpt><trkpt lat="42.9508968" lon="12.0582829"><ele>375.0</ele><time>2026-03-29T09:10:28.428Z</time></trkpt><trkpt lat="42.9509627" lon="12.058217"><ele>376.0</ele><time>2026-03-29T09:10:30.426Z</time></trkpt><trkpt lat="42.951024" lon="12.0581538"><ele>377.0</ele><time>2026-03-29T09:10:32.43Z</time></trkpt><trkpt lat="42.9510575" lon="12.0580336"><ele>378.0</ele><time>2026-03-29T09:10:35.429Z</time></trkpt><trkpt lat="42.9510727" lon="12.0579008"><ele>378.2857142857143</ele><time>2026-03-29T09:10:37.434Z</time></trkpt><trkpt lat="42.9510901" lon="12.0578163"><ele>378.57142857142856</ele><time>2026-03-29T09:10:39.434Z</time></trkpt><trkpt lat="42.9510786" lon="12.0577196"><ele>378.8571428571429</ele><time>2026-03-29T09:10:42.428Z</time></trkpt><trkpt lat="42.9510717" lon="12.057602"><ele>379.1428571428571</ele><time>2026-03-29T09:10:46.461Z</time></trkpt><trkpt lat="42.951035" lon="12.0575131"><ele>379.42857142857144</ele><time>2026-03-29T09:11:09.431Z</time></trkpt><trkpt lat="42.9509825" lon="12.0574521"><ele>379.7142857142857</ele><time>2026-03-29T09:11:12.436Z</time></trkpt><trkpt lat="42.9509311" lon="12.0573853"><ele>380.0</ele><time>2026-03-29T09:11:22.432Z</time></trkpt><trkpt lat="42.9508983" lon="12.0572746"><ele>380.0</ele><time>2026-03-29T09:11:33.429Z</time></trkpt><trkpt lat="42.9508906" lon="12.0571664"><ele>380.0</ele><time>2026-03-29T09:11:36.426Z</time></trkpt><trkpt lat="42.9508871" lon="12.057052"><ele>380.0</ele><time>2026-03-29T09:11:43.465Z</time></trkpt><trkpt lat="42.9508585" lon="12.0569753"><ele>380.0</ele><time>2026-03-29T09:11:47.438Z</time></trkpt><trkpt lat="42.9508584" lon="12.0568779"><ele>380.0</ele><time>2026-03-29T09:11:51.434Z</time></trkpt><trkpt lat="42.9508864" lon="12.0567813"><ele>380.0</ele><time>2026-03-29T09:11:54.426Z</time></trkpt><trkpt lat="42.9508693" lon="12.0566718"><ele>379.33333333333337</ele><time>2026-03-29T09:11:57.428Z</time></trkpt><trkpt lat="42.9507993" lon="12.0565863"><ele>378.6666666666667</ele><time>2026-03-29T09:12:00.436Z</time></trkpt><trkpt lat="42.9507472" lon="12.0565335"><ele>378.0</ele><time>2026-03-29T09:12:02.427Z</time></trkpt><trkpt lat="42.9506745" lon="12.0564676"><ele>377.3333333333333</ele><time>2026-03-29T09:12:05.439Z</time></trkpt><trkpt lat="42.9505969" lon="12.0564305"><ele>376.66666666666663</ele><time>2026-03-29T09:12:08.43Z</time></trkpt><trkpt lat="42.9505318" lon="12.0564144"><ele>376.0</ele><time>2026-03-29T09:12:14.436Z</time></trkpt><trkpt lat="42.9504675" lon="12.0563713"><ele>376.0</ele><time>2026-03-29T09:12:17.429Z</time></trkpt><trkpt lat="42.9504118" lon="12.0563293"><ele>376.0</ele><time>2026-03-29T09:12:25.435Z</time></trkpt><trkpt lat="42.9503466" lon="12.0562268"><ele>376.0</ele><time>2026-03-29T09:12:28.43Z</time></trkpt><trkpt lat="42.9503029" lon="12.056149"><ele>376.0</ele><time>2026-03-29T09:12:30.429Z</time></trkpt><trkpt lat="42.9502788" lon="12.056053"><ele>376.0</ele><time>2026-03-29T09:12:33.426Z</time></trkpt><trkpt lat="42.9503131" lon="12.0559654"><ele>376.0</ele><time>2026-03-29T09:12:36.431Z</time></trkpt><trkpt lat="42.9503488" lon="12.0558945"><ele>376.0</ele><time>2026-03-29T09:12:38.433Z</time></trkpt><trkpt lat="42.9503484" lon="12.0558048"><ele>378.2857142857143</ele><time>2026-03-29T09:12:41.431Z</time></trkpt><trkpt lat="42.950316" lon="12.0557206"><ele>380.57142857142856</ele><time>2026-03-29T09:12:43.432Z</time></trkpt><trkpt lat="42.9502834" lon="12.0556314"><ele>382.8571428571429</ele><time>2026-03-29T09:12:45.43Z</time></trkpt><trkpt lat="42.9502477" lon="12.0555427"><ele>385.1428571428571</ele><time>2026-03-29T09:12:48.43Z</time></trkpt><trkpt lat="42.9502076" lon="12.0554736"><ele>387.42857142857144</ele><time>2026-03-29T09:13:12.429Z</time></trkpt><trkpt lat="42.9502112" lon="12.0553838"><ele>389.7142857142857</ele><time>2026-03-29T09:13:16.461Z</time></trkpt><trkpt lat="42.9501702" lon="12.0553126"><ele>392.0</ele><time>2026-03-29T09:14:02.431Z</time></trkpt><trkpt lat="42.95013" lon="12.0552192"><ele>391.99999999999994</ele><time>2026-03-29T09:14:06.425Z</time></trkpt><trkpt lat="42.9500632" lon="12.0551458"><ele>392.0</ele><time>2026-03-29T09:14:09.424Z</time></trkpt><trkpt lat="42.9499826" lon="12.0550928"><ele>392.0</ele><time>2026-03-29T09:14:12.431Z</time></trkpt><trkpt lat="42.9499308" lon="12.0550371"><ele>392.0</ele><time>2026-03-29T09:14:15.426Z</time></trkpt><trkpt lat="42.9498541" lon="12.0549515"><ele>391.99999999999994</ele><time>2026-03-29T09:14:18.455Z</time></trkpt><trkpt lat="42.9497842" lon="12.0548869"><ele>392.0</ele><time>2026-03-29T09:14:20.428Z</time></trkpt><trkpt lat="42.9496842" lon="12.0548286"><ele>392.8333333333333</ele><time>2026-03-29T09:14:22.431Z</time></trkpt><trkpt lat="42.9495991" lon="12.0548015"><ele>393.66666666666663</ele><time>2026-03-29T09:14:24.434Z</time></trkpt><trkpt lat="42.9495206" lon="12.0547719"><ele>394.5</ele><time>2026-03-29T09:14:26.439Z</time></trkpt><trkpt lat="42.9494426" lon="12.0547251"><ele>395.33333333333337</ele><time>2026-03-29T09:14:28.444Z</time></trkpt><trkpt lat="42.9493679" lon="12.0546552"><ele>396.1666666666667</ele><time>2026-03-29T09:14:30.428Z</time></trkpt><trkpt lat="42.9493002" lon="12.0545567"><ele>397.0</ele><time>2026-03-29T09:14:32.431Z</time></trkpt><trkpt lat="42.9492227" lon="12.0544334"><ele>397.1666666666667</ele><time>2026-03-29T09:14:34.46Z</time></trkpt><trkpt lat="42.9491615" lon="12.0543611"><ele>397.33333333333337</ele><time>2026-03-29T09:14:35.461Z</time></trkpt><trkpt lat="42.9491037" lon="12.0542962"><ele>397.5</ele><time>2026-03-29T09:14:36.429Z</time></trkpt><trkpt lat="42.9490436" lon="12.0542394"><ele>397.66666666666663</ele><time>2026-03-29T09:14:37.427Z</time></trkpt><trkpt lat="42.9489901" lon="12.0541928"><ele>397.8333333333333</ele><time>2026-03-29T09:14:38.429Z</time></trkpt><trkpt lat="42.9489286" lon="12.0541381"><ele>398.0</ele><time>2026-03-29T09:14:40.431Z</time></trkpt><trkpt lat="42.9489045" lon="12.0540192"><ele>397.99999999999994</ele><time>2026-03-29T09:14:58.426Z</time></trkpt><trkpt lat="42.9488855" lon="12.0539167"><ele>398.0</ele><time>2026-03-29T09:15:00.425Z</time></trkpt><trkpt lat="42.9488546" lon="12.0538091"><ele>398.0</ele><time>2026-03-29T09:15:03.432Z</time></trkpt><trkpt lat="42.9488328" lon="12.053725"><ele>398.0</ele><time>2026-03-29T09:15:06.431Z</time></trkpt><trkpt lat="42.9487898" lon="12.0536455"><ele>397.99999999999994</ele><time>2026-03-29T09:15:10.433Z</time></trkpt><trkpt lat="42.9487548" lon="12.0535639"><ele>398.0</ele><time>2026-03-29T09:15:16.43Z</time></trkpt><trkpt lat="42.9487165" lon="12.0534596"><ele>397.99999999999994</ele><time>2026-03-29T09:15:20.431Z</time></trkpt><trkpt lat="42.9486879" lon="12.0533727"><ele>398.0</ele><time>2026-03-29T09:15:35.437Z</time></trkpt><trkpt lat="42.9486448" lon="12.0533067"><ele>398.0</ele><time>2026-03-29T09:15:41.474Z</time></trkpt><trkpt lat="42.9485716" lon="12.0533336"><ele>398.0</ele><time>2026-03-29T09:15:50.439Z</time></trkpt><trkpt lat="42.9485133" lon="12.0533844"><ele>398.0</ele><time>2026-03-29T09:15:55.43Z</time></trkpt><trkpt lat="42.9484551" lon="12.0534312"><ele>397.99999999999994</ele><time>2026-03-29T09:16:01.437Z</time></trkpt><trkpt lat="42.9483711" lon="12.0534424"><ele>398.0</ele><time>2026-03-29T09:16:06.447Z</time></trkpt><trkpt lat="42.9483107" lon="12.0534018"><ele>398.71428571428567</ele><time>2026-03-29T09:16:10.464Z</time></trkpt><trkpt lat="42.9482714" lon="12.0533338"><ele>399.42857142857144</ele><time>2026-03-29T09:16:13.435Z</time></trkpt><trkpt lat="42.9482113" lon="12.0532876"><ele>400.1428571428571</ele><time>2026-03-29T09:16:15.445Z</time></trkpt><trkpt lat="42.9481474" lon="12.0532303"><ele>400.85714285714283</ele><time>2026-03-29T09:16:18.437Z</time></trkpt><trkpt lat="42.9480945" lon="12.0531815"><ele>401.57142857142856</ele><time>2026-03-29T09:16:21.449Z</time></trkpt><trkpt lat="42.9480314" lon="12.053189"><ele>402.2857142857143</ele><time>2026-03-29T09:16:28.436Z</time></trkpt><trkpt lat="42.9479972" lon="12.0532641"><ele>403.0</ele><time>2026-03-29T09:17:31.434Z</time></trkpt><trkpt lat="42.9480366" lon="12.0533342"><ele>399.8571428571429</ele><time>2026-03-29T09:17:33.441Z</time></trkpt><trkpt lat="42.9480867" lon="12.053408"><ele>396.71428571428567</ele><time>2026-03-29T09:17:39.448Z</time></trkpt><trkpt lat="42.9481078" lon="12.0535018"><ele>393.57142857142856</ele><time>2026-03-29T09:17:42.463Z</time></trkpt><trkpt lat="42.9481317" lon="12.053601"><ele>390.42857142857144</ele><time>2026-03-29T09:17:45.437Z</time></trkpt><trkpt lat="42.9481403" lon="12.0536889"><ele>387.28571428571433</ele><time>2026-03-29T09:17:48.44Z</time></trkpt><trkpt lat="42.9481761" lon="12.0537867"><ele>384.1428571428571</ele><time>2026-03-29T09:17:51.448Z</time></trkpt><trkpt lat="42.9482363" lon="12.0538594"><ele>381.0</ele><time>2026-03-29T09:17:54.43Z</time></trkpt><trkpt lat="42.9482844" lon="12.0539204"><ele>381.0</ele><time>2026-03-29T09:17:56.444Z</time></trkpt><trkpt lat="42.9483449" lon="12.0539933"><ele>381.0</ele><time>2026-03-29T09:17:58.433Z</time></trkpt><trkpt lat="42.9484189" lon="12.0540588"><ele>381.0</ele><time>2026-03-29T09:18:01.434Z</time></trkpt><trkpt lat="42.9484669" lon="12.0539941"><ele>381.0</ele><time>2026-03-29T09:18:26.442Z</time></trkpt><trkpt lat="42.9483856" lon="12.0539821"><ele>381.0</ele><time>2026-03-29T09:18:31.436Z</time></trkpt><trkpt lat="42.948301" lon="12.0539495"><ele>381.0</ele><time>2026-03-29T09:18:34.444Z</time></trkpt><trkpt lat="42.9482271" lon="12.0538867"><ele>381.0</ele><time>2026-03-29T09:18:37.442Z</time></trkpt><trkpt lat="42.9481802" lon="12.0538"><ele>381.0</ele><time>2026-03-29T09:18:40.433Z</time></trkpt><trkpt lat="42.9481611" lon="12.0536941"><ele>381.0</ele><time>2026-03-29T09:18:42.437Z</time></trkpt><trkpt lat="42.9481401" lon="12.053581"><ele>381.0</ele><time>2026-03-29T09:18:44.432Z</time></trkpt><trkpt lat="42.948115" lon="12.0534879"><ele>381.0</ele><time>2026-03-29T09:18:46.469Z</time></trkpt><trkpt lat="42.9480697" lon="12.0533791"><ele>381.0</ele><time>2026-03-29T09:18:49.451Z</time></trkpt><trkpt lat="42.948013" lon="12.053311"><ele>381.0</ele><time>2026-03-29T09:18:59.445Z</time></trkpt><trkpt lat="42.9480561" lon="12.0534254"><ele>381.0</ele><time>2026-03-29T09:19:11.446Z</time></trkpt><trkpt lat="42.9480805" lon="12.0535324"><ele>381.0</ele><time>2026-03-29T09:19:13.454Z</time></trkpt><trkpt lat="42.9480988" lon="12.0536416"><ele>381.0</ele><time>2026-03-29T09:19:15.433Z</time></trkpt><trkpt lat="42.9481595" lon="12.0537812"><ele>381.0</ele><time>2026-03-29T09:19:27.441Z</time></trkpt><trkpt lat="42.9482224" lon="12.0538666"><ele>381.0</ele><time>2026-03-29T09:19:29.442Z</time></trkpt><trkpt lat="42.9482817" lon="12.0539461"><ele>381.0</ele><time>2026-03-29T09:19:31.444Z</time></trkpt><trkpt lat="42.9483392" lon="12.0540203"><ele>381.0</ele><time>2026-03-29T09:19:33.467Z</time></trkpt><trkpt lat="42.9484087" lon="12.0540806"><ele>381.0</ele><time>2026-03-29T09:19:36.436Z</time></trkpt><trkpt lat="42.9484738" lon="12.0540464"><ele>381.0</ele><time>2026-03-29T09:19:41.432Z</time></trkpt><trkpt lat="42.9485382" lon="12.0539875"><ele>381.0</ele><time>2026-03-29T09:19:45.433Z</time></trkpt><trkpt lat="42.9486207" lon="12.0540224"><ele>381.2857142857143</ele><time>2026-03-29T09:20:03.434Z</time></trkpt><trkpt lat="42.9487035" lon="12.054049"><ele>381.5714285714286</ele><time>2026-03-29T09:20:05.428Z</time></trkpt><trkpt lat="42.948781" lon="12.0540866"><ele>381.8571428571429</ele><time>2026-03-29T09:20:07.429Z</time></trkpt><trkpt lat="42.9488473" lon="12.054129"><ele>382.1428571428571</ele><time>2026-03-29T09:20:10.429Z</time></trkpt><trkpt lat="42.9488987" lon="12.0541969"><ele>382.42857142857144</ele><time>2026-03-29T09:20:13.425Z</time></trkpt><trkpt lat="42.9489541" lon="12.0542441"><ele>382.7142857142857</ele><time>2026-03-29T09:20:15.428Z</time></trkpt><trkpt lat="42.9490107" lon="12.0542895"><ele>383.0</ele><time>2026-03-29T09:20:17.425Z</time></trkpt><trkpt lat="42.9490749" lon="12.0543395"><ele>383.0</ele><time>2026-03-29T09:20:19.427Z</time></trkpt><trkpt lat="42.9491693" lon="12.0544426"><ele>383.0</ele><time>2026-03-29T09:20:21.434Z</time></trkpt><trkpt lat="42.9492591" lon="12.0545537"><ele>383.0</ele><time>2026-03-29T09:20:23.429Z</time></trkpt><trkpt lat="42.9493247" lon="12.0546245"><ele>383.0</ele><time>2026-03-29T09:20:25.439Z</time></trkpt><trkpt lat="42.9493996" lon="12.0546763"><ele>383.0</ele><time>2026-03-29T09:20:27.434Z</time></trkpt><trkpt lat="42.9494924" lon="12.0547109"><ele>382.33333333333337</ele><time>2026-03-29T09:20:29.425Z</time></trkpt><trkpt lat="42.9495974" lon="12.0547617"><ele>381.6666666666667</ele><time>2026-03-29T09:20:31.427Z</time></trkpt><trkpt lat="42.9496782" lon="12.0548156"><ele>381.0</ele><time>2026-03-29T09:20:33.43Z</time></trkpt><trkpt lat="42.9497461" lon="12.0548593"><ele>380.3333333333333</ele><time>2026-03-29T09:20:35.463Z</time></trkpt><trkpt lat="42.9498213" lon="12.0549278"><ele>379.66666666666663</ele><time>2026-03-29T09:20:38.431Z</time></trkpt><trkpt lat="42.9498765" lon="12.0549776"><ele>379.0</ele><time>2026-03-29T09:20:41.426Z</time></trkpt><trkpt lat="42.9499398" lon="12.0550162"><ele>379.0</ele><time>2026-03-29T09:20:43.43Z</time></trkpt><trkpt lat="42.9500115" lon="12.0550766"><ele>379.0</ele><time>2026-03-29T09:20:45.432Z</time></trkpt><trkpt lat="42.9500715" lon="12.0551654"><ele>379.0</ele><time>2026-03-29T09:20:47.428Z</time></trkpt><trkpt lat="42.9501152" lon="12.0552689"><ele>379.0</ele><time>2026-03-29T09:20:49.431Z</time></trkpt><trkpt lat="42.9501621" lon="12.0553618"><ele>379.0</ele><time>2026-03-29T09:20:52.426Z</time></trkpt><trkpt lat="42.9502266" lon="12.0554565"><ele>379.0</ele><time>2026-03-29T09:20:56.432Z</time></trkpt><trkpt lat="42.9502779" lon="12.0555814"><ele>378.4</ele><time>2026-03-29T09:20:58.43Z</time></trkpt><trkpt lat="42.950336" lon="12.0557014"><ele>377.79999999999995</ele><time>2026-03-29T09:21:00.432Z</time></trkpt><trkpt lat="42.9503934" lon="12.0558141"><ele>377.20000000000005</ele><time>2026-03-29T09:21:02.458Z</time></trkpt><trkpt lat="42.9504593" lon="12.055924"><ele>376.6</ele><time>2026-03-29T09:21:04.43Z</time></trkpt><trkpt lat="42.9505182" lon="12.0560035"><ele>376.0</ele><time>2026-03-29T09:21:06.457Z</time></trkpt><trkpt lat="42.9505546" lon="12.0560912"><ele>376.0</ele><time>2026-03-29T09:21:08.429Z</time></trkpt><trkpt lat="42.9505712" lon="12.0561998"><ele>376.0</ele><time>2026-03-29T09:21:10.428Z</time></trkpt><trkpt lat="42.9505911" lon="12.0562906"><ele>376.0</ele><time>2026-03-29T09:21:12.427Z</time></trkpt><trkpt lat="42.9506305" lon="12.0563887"><ele>376.0</ele><time>2026-03-29T09:21:15.434Z</time></trkpt><trkpt lat="42.9506892" lon="12.0564504"><ele>376.0</ele><time>2026-03-29T09:21:18.427Z</time></trkpt><trkpt lat="42.9507571" lon="12.0565133"><ele>376.0</ele><time>2026-03-29T09:21:20.434Z</time></trkpt><trkpt lat="42.9508284" lon="12.0565961"><ele>376.66666666666663</ele><time>2026-03-29T09:21:22.432Z</time></trkpt><trkpt lat="42.950867" lon="12.0566806"><ele>377.3333333333333</ele><time>2026-03-29T09:21:24.43Z</time></trkpt><trkpt lat="42.9509103" lon="12.0567767"><ele>378.0</ele><time>2026-03-29T09:21:27.431Z</time></trkpt><trkpt lat="42.950984" lon="12.0568259"><ele>378.6666666666667</ele><time>2026-03-29T09:21:35.436Z</time></trkpt><trkpt lat="42.951043" lon="12.0568925"><ele>379.33333333333337</ele><time>2026-03-29T09:21:37.429Z</time></trkpt><trkpt lat="42.951122" lon="12.0569778"><ele>380.0</ele><time>2026-03-29T09:21:39.464Z</time></trkpt><trkpt lat="42.9511899" lon="12.0570423"><ele>380.0</ele><time>2026-03-29T09:21:41.429Z</time></trkpt><trkpt lat="42.9512491" lon="12.057103"><ele>380.0</ele><time>2026-03-29T09:21:56.43Z</time></trkpt><trkpt lat="42.951255" lon="12.057189"><ele>380.0</ele><time>2026-03-29T09:22:00.432Z</time></trkpt><trkpt lat="42.9512257" lon="12.0572701"><ele>380.0</ele><time>2026-03-29T09:22:03.459Z</time></trkpt><trkpt lat="42.9511504" lon="12.0573436"><ele>380.0</ele><time>2026-03-29T09:22:06.43Z</time></trkpt><trkpt lat="42.9510822" lon="12.0573914"><ele>380.0</ele><time>2026-03-29T09:22:09.425Z</time></trkpt><trkpt lat="42.9511475" lon="12.057399"><ele>380.0</ele><time>2026-03-29T09:22:31.429Z</time></trkpt><trkpt lat="42.9512114" lon="12.0573299"><ele>380.0</ele><time>2026-03-29T09:22:34.431Z</time></trkpt><trkpt lat="42.9512381" lon="12.0572404"><ele>380.0</ele><time>2026-03-29T09:22:37.43Z</time></trkpt><trkpt lat="42.9513025" lon="12.0571869"><ele>380.0</ele><time>2026-03-29T09:22:41.427Z</time></trkpt><trkpt lat="42.9513766" lon="12.0572158"><ele>380.0</ele><time>2026-03-29T09:22:50.429Z</time></trkpt><trkpt lat="42.9514293" lon="12.0572724"><ele>380.0</ele><time>2026-03-29T09:22:53.432Z</time></trkpt><trkpt lat="42.9514979" lon="12.0573446"><ele>380.0</ele><time>2026-03-29T09:22:56.424Z</time></trkpt><trkpt lat="42.9515516" lon="12.0574024"><ele>380.0</ele><time>2026-03-29T09:22:59.427Z</time></trkpt><trkpt lat="42.9515956" lon="12.0574697"><ele>380.0</ele><time>2026-03-29T09:23:02.425Z</time></trkpt><trkpt lat="42.9516259" lon="12.0575507"><ele>380.0</ele><time>2026-03-29T09:23:05.426Z</time></trkpt><trkpt lat="42.9517044" lon="12.0575954"><ele>380.0</ele><time>2026-03-29T09:23:08.43Z</time></trkpt><trkpt lat="42.9517865" lon="12.0576019"><ele>380.0</ele><time>2026-03-29T09:23:11.426Z</time></trkpt><trkpt lat="42.9518495" lon="12.0576116"><ele>380.0</ele><time>2026-03-29T09:23:13.428Z</time></trkpt><trkpt lat="42.9519122" lon="12.0576842"><ele>380.0</ele><time>2026-03-29T09:23:16.428Z</time></trkpt><trkpt lat="42.9519374" lon="12.0577816"><ele>380.0</ele><time>2026-03-29T09:23:19.427Z</time></trkpt><trkpt lat="42.9519742" lon="12.0578847"><ele>380.0</ele><time>2026-03-29T09:23:22.425Z</time></trkpt><trkpt lat="42.9520066" lon="12.0579768"><ele>380.0</ele><time>2026-03-29T09:23:24.434Z</time></trkpt><trkpt lat="42.9520376" lon="12.0580556"><ele>380.0</ele><time>2026-03-29T09:23:26.426Z</time></trkpt><trkpt lat="42.9520459" lon="12.0581667"><ele>380.0</ele><time>2026-03-29T09:23:29.428Z</time></trkpt><trkpt lat="42.9520874" lon="12.0582505"><ele>380.0</ele><time>2026-03-29T09:23:32.426Z</time></trkpt><trkpt lat="42.9521329" lon="12.0583507"><ele>377.6</ele><time>2026-03-29T09:23:35.423Z</time></trkpt><trkpt lat="42.9521614" lon="12.0584512"><ele>375.2</ele><time>2026-03-29T09:23:38.455Z</time></trkpt><trkpt lat="42.952217" lon="12.0585387"><ele>372.79999999999995</ele><time>2026-03-29T09:23:40.427Z</time></trkpt><trkpt lat="42.9522803" lon="12.0586616"><ele>370.4</ele><time>2026-03-29T09:23:42.426Z</time></trkpt><trkpt lat="42.9523318" lon="12.0587873"><ele>368.0</ele><time>2026-03-29T09:23:44.425Z</time></trkpt><trkpt lat="42.9523768" lon="12.0588628"><ele>368.0</ele><time>2026-03-29T09:23:46.428Z</time></trkpt><trkpt lat="42.9524346" lon="12.0589304"><ele>368.0</ele><time>2026-03-29T09:23:49.427Z</time></trkpt><trkpt lat="42.952487" lon="12.058987"><ele>368.0</ele><time>2026-03-29T09:23:52.433Z</time></trkpt><trkpt lat="42.9525369" lon="12.0590521"><ele>368.0</ele><time>2026-03-29T09:23:55.43Z</time></trkpt><trkpt lat="42.9526195" lon="12.0591058"><ele>368.0</ele><time>2026-03-29T09:24:03.433Z</time></trkpt><trkpt lat="42.9526962" lon="12.0591859"><ele>368.0</ele><time>2026-03-29T09:24:08.424Z</time></trkpt><trkpt lat="42.9527479" lon="12.0592493"><ele>368.5714285714286</ele><time>2026-03-29T09:24:11.43Z</time></trkpt><trkpt lat="42.9527602" lon="12.0593462"><ele>369.1428571428571</ele><time>2026-03-29T09:24:15.424Z</time></trkpt><trkpt lat="42.9527842" lon="12.0594672"><ele>369.7142857142857</ele><time>2026-03-29T09:24:21.432Z</time></trkpt><trkpt lat="42.9528092" lon="12.0595563"><ele>370.28571428571433</ele><time>2026-03-29T09:24:31.429Z</time></trkpt><trkpt lat="42.952877" lon="12.0595805"><ele>370.8571428571429</ele><time>2026-03-29T09:24:35.427Z</time></trkpt><trkpt lat="42.9529444" lon="12.0595741"><ele>371.42857142857144</ele><time>2026-03-29T09:24:38.425Z</time></trkpt><trkpt lat="42.9530072" lon="12.0595509"><ele>372.0</ele><time>2026-03-29T09:24:41.431Z</time></trkpt><trkpt lat="42.9530931" lon="12.0595374"><ele>372.00000000000006</ele><time>2026-03-29T09:24:46.425Z</time></trkpt><trkpt lat="42.9531546" lon="12.0595834"><ele>372.0</ele><time>2026-03-29T09:24:50.426Z</time></trkpt><trkpt lat="42.9532036" lon="12.0596444"><ele>372.0</ele><time>2026-03-29T09:24:53.427Z</time></trkpt><trkpt lat="42.953265" lon="12.0597396"><ele>372.0</ele><time>2026-03-29T09:25:00.429Z</time></trkpt><trkpt lat="42.953298" lon="12.0598239"><ele>372.0</ele><time>2026-03-29T09:25:03.426Z</time></trkpt><trkpt lat="42.9533351" lon="12.0599098"><ele>372.00000000000006</ele><time>2026-03-29T09:25:06.427Z</time></trkpt><trkpt lat="42.9533618" lon="12.0599986"><ele>372.0</ele><time>2026-03-29T09:25:09.426Z</time></trkpt><trkpt lat="42.9534057" lon="12.0600884"><ele>370.0</ele><time>2026-03-29T09:25:12.426Z</time></trkpt><trkpt lat="42.9534773" lon="12.0601486"><ele>368.0</ele><time>2026-03-29T09:25:15.424Z</time></trkpt><trkpt lat="42.9535469" lon="12.0602132"><ele>366.0</ele><time>2026-03-29T09:25:18.425Z</time></trkpt><trkpt lat="42.9536144" lon="12.0602689"><ele>364.0</ele><time>2026-03-29T09:25:21.432Z</time></trkpt><trkpt lat="42.9536851" lon="12.060304"><ele>362.0</ele><time>2026-03-29T09:25:23.425Z</time></trkpt><trkpt lat="42.9537668" lon="12.0603584"><ele>360.0</ele><time>2026-03-29T09:25:25.431Z</time></trkpt><trkpt lat="42.9538412" lon="12.0604117"><ele>360.0</ele><time>2026-03-29T09:25:27.424Z</time></trkpt><trkpt lat="42.9539136" lon="12.0604357"><ele>360.0</ele><time>2026-03-29T09:25:29.425Z</time></trkpt><trkpt lat="42.9539823" lon="12.0603937"><ele>360.0</ele><time>2026-03-29T09:25:32.427Z</time></trkpt><trkpt lat="42.9540389" lon="12.0603389"><ele>360.0</ele><time>2026-03-29T09:25:34.427Z</time></trkpt><trkpt lat="42.9541292" lon="12.0602721"><ele>360.0</ele><time>2026-03-29T09:25:36.456Z</time></trkpt><trkpt lat="42.9542298" lon="12.0601927"><ele>360.0</ele><time>2026-03-29T09:25:38.423Z</time></trkpt><trkpt lat="42.9542851" lon="12.0601195"><ele>361.5</ele><time>2026-03-29T09:25:40.455Z</time></trkpt><trkpt lat="42.9543042" lon="12.0600352"><ele>363.0</ele><time>2026-03-29T09:25:42.428Z</time></trkpt><trkpt lat="42.9542834" lon="12.0599394"><ele>364.5</ele><time>2026-03-29T09:25:44.435Z</time></trkpt><trkpt lat="42.9542259" lon="12.0598714"><ele>366.0</ele><time>2026-03-29T09:25:46.435Z</time></trkpt><trkpt lat="42.9541496" lon="12.0598644"><ele>367.5</ele><time>2026-03-29T09:25:48.432Z</time></trkpt><trkpt lat="42.9540674" lon="12.0599082"><ele>369.0</ele><time>2026-03-29T09:25:50.428Z</time></trkpt><trkpt lat="42.9539719" lon="12.0599346"><ele>369.2</ele><time>2026-03-29T09:25:52.425Z</time></trkpt><trkpt lat="42.9538776" lon="12.0599012"><ele>369.4</ele><time>2026-03-29T09:25:54.429Z</time></trkpt><trkpt lat="42.9537858" lon="12.059804"><ele>369.6</ele><time>2026-03-29T09:25:56.425Z</time></trkpt><trkpt lat="42.953714" lon="12.0596915"><ele>369.8</ele><time>2026-03-29T09:25:58.426Z</time></trkpt><trkpt lat="42.9537046" lon="12.0596052"><ele>370.0</ele><time>2026-03-29T09:26:01.427Z</time></trkpt><trkpt lat="42.9537736" lon="12.0596106"><ele>370.0</ele><time>2026-03-29T09:26:04.423Z</time></trkpt><trkpt lat="42.9538403" lon="12.0595437"><ele>370.0</ele><time>2026-03-29T09:26:07.427Z</time></trkpt><trkpt lat="42.9538543" lon="12.0594324"><ele>370.0</ele><time>2026-03-29T09:26:09.43Z</time></trkpt><trkpt lat="42.9538675" lon="12.0593195"><ele>370.0</ele><time>2026-03-29T09:26:11.43Z</time></trkpt><trkpt lat="42.9538703" lon="12.0592133"><ele>370.0</ele><time>2026-03-29T09:26:13.434Z</time></trkpt><trkpt lat="42.9538385" lon="12.0590913"><ele>370.0</ele><time>2026-03-29T09:26:15.423Z</time></trkpt><trkpt lat="42.9537982" lon="12.058975"><ele>373.0</ele><time>2026-03-29T09:26:17.429Z</time></trkpt><trkpt lat="42.95376" lon="12.0588667"><ele>376.0</ele><time>2026-03-29T09:26:19.427Z</time></trkpt><trkpt lat="42.9537556" lon="12.0587321"><ele>379.0</ele><time>2026-03-29T09:26:21.433Z</time></trkpt><trkpt lat="42.9537666" lon="12.0585856"><ele>382.0</ele><time>2026-03-29T09:26:23.426Z</time></trkpt><trkpt lat="42.9537841" lon="12.0584237"><ele>385.0</ele><time>2026-03-29T09:26:25.432Z</time></trkpt><trkpt lat="42.9537941" lon="12.0583206"><ele>386.0</ele><time>2026-03-29T09:26:26.426Z</time></trkpt><trkpt lat="42.9538157" lon="12.0581606"><ele>387.0</ele><time>2026-03-29T09:26:28.428Z</time></trkpt><trkpt lat="42.9538531" lon="12.0579922"><ele>388.0</ele><time>2026-03-29T09:26:30.431Z</time></trkpt><trkpt lat="42.9538654" lon="12.0578905"><ele>389.0</ele><time>2026-03-29T09:26:31.427Z</time></trkpt><trkpt lat="42.953875" lon="12.0577841"><ele>390.0</ele><time>2026-03-29T09:26:32.426Z</time></trkpt><trkpt lat="42.9538763" lon="12.0576794"><ele>390.0</ele><time>2026-03-29T09:26:33.425Z</time></trkpt><trkpt lat="42.9538682" lon="12.0575718"><ele>390.0</ele><time>2026-03-29T09:26:34.43Z</time></trkpt><trkpt lat="42.9538559" lon="12.0574716"><ele>390.0</ele><time>2026-03-29T09:26:35.423Z</time></trkpt><trkpt lat="42.9538466" lon="12.0573789"><ele>390.0</ele><time>2026-03-29T09:26:36.424Z</time></trkpt><trkpt lat="42.953842" lon="12.0572916"><ele>390.0</ele><time>2026-03-29T09:26:37.425Z</time></trkpt><trkpt lat="42.9538416" lon="12.0572001"><ele>390.0</ele><time>2026-03-29T09:26:38.434Z</time></trkpt><trkpt lat="42.9538391" lon="12.0571066"><ele>390.0</ele><time>2026-03-29T09:26:39.426Z</time></trkpt><trkpt lat="42.9538325" lon="12.0570123"><ele>392.1666666666667</ele><time>2026-03-29T09:26:40.427Z</time></trkpt><trkpt lat="42.9538321" lon="12.0569226"><ele>394.33333333333337</ele><time>2026-03-29T09:26:41.425Z</time></trkpt><trkpt lat="42.9538393" lon="12.0568357"><ele>396.5</ele><time>2026-03-29T09:26:42.427Z</time></trkpt><trkpt lat="42.95388" lon="12.0566814"><ele>398.6666666666667</ele><time>2026-03-29T09:26:44.426Z</time></trkpt><trkpt lat="42.9539306" lon="12.0565402"><ele>400.83333333333337</ele><time>2026-03-29T09:26:46.429Z</time></trkpt><trkpt lat="42.9539516" lon="12.056454"><ele>403.0</ele><time>2026-03-29T09:26:47.438Z</time></trkpt><trkpt lat="42.953969" lon="12.056353"><ele>405.1666666666667</ele><time>2026-03-29T09:26:48.428Z</time></trkpt><trkpt lat="42.9539808" lon="12.0562465"><ele>407.33333333333337</ele><time>2026-03-29T09:26:49.425Z</time></trkpt><trkpt lat="42.95399" lon="12.0561425"><ele>409.5</ele><time>2026-03-29T09:26:50.428Z</time></trkpt><trkpt lat="42.9539967" lon="12.0560498"><ele>411.66666666666663</ele><time>2026-03-29T09:26:51.423Z</time></trkpt><trkpt lat="42.9540009" lon="12.0559615"><ele>413.8333333333333</ele><time>2026-03-29T09:26:52.425Z</time></trkpt><trkpt lat="42.9540273" lon="12.0558092"><ele>416.0</ele><time>2026-03-29T09:26:54.458Z</time></trkpt><trkpt lat="42.954055" lon="12.0557317"><ele>416.99999999999994</ele><time>2026-03-29T09:26:55.429Z</time></trkpt><trkpt lat="42.9540925" lon="12.055653"><ele>418.0</ele><time>2026-03-29T09:26:56.424Z</time></trkpt><trkpt lat="42.9541356" lon="12.0555778"><ele>419.0</ele><time>2026-03-29T09:26:57.43Z</time></trkpt><trkpt lat="42.9541766" lon="12.0555101"><ele>420.0</ele><time>2026-03-29T09:26:58.428Z</time></trkpt><trkpt lat="42.9542187" lon="12.0553816"><ele>420.99999999999994</ele><time>2026-03-29T09:27:00.43Z</time></trkpt><trkpt lat="42.9542465" lon="12.0551999"><ele>422.0</ele><time>2026-03-29T09:27:02.238Z</time></trkpt><trkpt lat="42.9542653" lon="12.0550991"><ele>420.16666666666663</ele><time>2026-03-29T09:27:03.237Z</time></trkpt><trkpt lat="42.9542846" lon="12.0549913"><ele>418.3333333333333</ele><time>2026-03-29T09:27:04.237Z</time></trkpt><trkpt lat="42.9543052" lon="12.054863"><ele>416.5</ele><time>2026-03-29T09:27:05.236Z</time></trkpt><trkpt lat="42.954332" lon="12.0547347"><ele>414.66666666666663</ele><time>2026-03-29T09:27:06.244Z</time></trkpt><trkpt lat="42.9543556" lon="12.0546311"><ele>412.8333333333333</ele><time>2026-03-29T09:27:07.242Z</time></trkpt><trkpt lat="42.954365" lon="12.0545426"><ele>411.0</ele><time>2026-03-29T09:27:08.266Z</time></trkpt><trkpt lat="42.9543602" lon="12.0544535"><ele>411.0</ele><time>2026-03-29T09:27:09.239Z</time></trkpt><trkpt lat="42.9543519" lon="12.0543588"><ele>411.0</ele><time>2026-03-29T09:27:10.234Z</time></trkpt><trkpt lat="42.9543459" lon="12.0542668"><ele>411.0</ele><time>2026-03-29T09:27:11.236Z</time></trkpt><trkpt lat="42.9543503" lon="12.054126"><ele>411.0</ele><time>2026-03-29T09:27:13.243Z</time></trkpt><trkpt lat="42.9543574" lon="12.0539662"><ele>411.0</ele><time>2026-03-29T09:27:15.236Z</time></trkpt><trkpt lat="42.9543583" lon="12.053861"><ele>411.0</ele><time>2026-03-29T09:27:16.239Z</time></trkpt><trkpt lat="42.954353" lon="12.0537408"><ele>411.8333333333333</ele><time>2026-03-29T09:27:17.236Z</time></trkpt><trkpt lat="42.9543445" lon="12.0536214"><ele>412.66666666666663</ele><time>2026-03-29T09:27:18.242Z</time></trkpt><trkpt lat="42.9543354" lon="12.053515"><ele>413.5</ele><time>2026-03-29T09:27:19.236Z</time></trkpt><trkpt lat="42.954318" lon="12.0534078"><ele>414.3333333333333</ele><time>2026-03-29T09:27:20.236Z</time></trkpt><trkpt lat="42.9543038" lon="12.0533026"><ele>415.16666666666663</ele><time>2026-03-29T09:27:21.238Z</time></trkpt><trkpt lat="42.9542916" lon="12.0532034"><ele>416.0</ele><time>2026-03-29T09:27:22.241Z</time></trkpt><trkpt lat="42.9542708" lon="12.0531068"><ele>416.57142857142856</ele><time>2026-03-29T09:27:23.241Z</time></trkpt><trkpt lat="42.9542446" lon="12.0530129"><ele>417.14285714285717</ele><time>2026-03-29T09:27:24.242Z</time></trkpt><trkpt lat="42.954218" lon="12.0529171"><ele>417.7142857142857</ele><time>2026-03-29T09:27:25.239Z</time></trkpt><trkpt lat="42.9541874" lon="12.0528326"><ele>418.2857142857143</ele><time>2026-03-29T09:27:26.238Z</time></trkpt><trkpt lat="42.9541465" lon="12.0527577"><ele>418.8571428571429</ele><time>2026-03-29T09:27:27.24Z</time></trkpt><trkpt lat="42.9541074" lon="12.0526861"><ele>419.42857142857144</ele><time>2026-03-29T09:27:28.236Z</time></trkpt><trkpt lat="42.9540625" lon="12.0526102"><ele>420.0</ele><time>2026-03-29T09:27:29.237Z</time></trkpt><trkpt lat="42.9540092" lon="12.0525367"><ele>422.0</ele><time>2026-03-29T09:27:30.237Z</time></trkpt><trkpt lat="42.9539514" lon="12.0524758"><ele>424.0</ele><time>2026-03-29T09:27:31.238Z</time></trkpt><trkpt lat="42.9538876" lon="12.0524168"><ele>426.0</ele><time>2026-03-29T09:27:32.24Z</time></trkpt><trkpt lat="42.9538232" lon="12.052356"><ele>428.0</ele><time>2026-03-29T09:27:33.238Z</time></trkpt><trkpt lat="42.9537618" lon="12.0522875"><ele>430.0</ele><time>2026-03-29T09:27:34.238Z</time></trkpt><trkpt lat="42.9537051" lon="12.0522122"><ele>432.0</ele><time>2026-03-29T09:27:35.238Z</time></trkpt><trkpt lat="42.9536562" lon="12.052141"><ele>432.0</ele><time>2026-03-29T09:27:36.238Z</time></trkpt><trkpt lat="42.9535859" lon="12.0520571"><ele>432.00000000000006</ele><time>2026-03-29T09:27:38.239Z</time></trkpt><trkpt lat="42.9535244" lon="12.0519755"><ele>432.00000000000006</ele><time>2026-03-29T09:28:02.236Z</time></trkpt><trkpt lat="42.9534241" lon="12.0518507"><ele>432.0</ele><time>2026-03-29T09:28:04.238Z</time></trkpt><trkpt lat="42.9533593" lon="12.0517789"><ele>432.0</ele><time>2026-03-29T09:28:05.234Z</time></trkpt><trkpt lat="42.9532882" lon="12.0517004"><ele>433.8</ele><time>2026-03-29T09:28:06.237Z</time></trkpt><trkpt lat="42.9532136" lon="12.0516153"><ele>435.6</ele><time>2026-03-29T09:28:07.236Z</time></trkpt><trkpt lat="42.9531378" lon="12.0515264"><ele>437.40000000000003</ele><time>2026-03-29T09:28:08.237Z</time></trkpt><trkpt lat="42.9530517" lon="12.0514266"><ele>439.20000000000005</ele><time>2026-03-29T09:28:09.239Z</time></trkpt><trkpt lat="42.9529642" lon="12.0513278"><ele>441.0</ele><time>2026-03-29T09:28:10.236Z</time></trkpt><trkpt lat="42.9528906" lon="12.0512424"><ele>441.0</ele><time>2026-03-29T09:28:11.238Z</time></trkpt><trkpt lat="42.9528163" lon="12.0511517"><ele>441.0</ele><time>2026-03-29T09:28:12.238Z</time></trkpt><trkpt lat="42.9527349" lon="12.0510541"><ele>441.0</ele><time>2026-03-29T09:28:13.237Z</time></trkpt><trkpt lat="42.9526576" lon="12.050953"><ele>441.0</ele><time>2026-03-29T09:28:14.244Z</time></trkpt><trkpt lat="42.9525829" lon="12.0508523"><ele>441.0</ele><time>2026-03-29T09:28:15.236Z</time></trkpt><trkpt lat="42.9525061" lon="12.0507494"><ele>442.8</ele><time>2026-03-29T09:28:16.241Z</time></trkpt><trkpt lat="42.9524249" lon="12.0506444"><ele>444.6</ele><time>2026-03-29T09:28:17.237Z</time></trkpt><trkpt lat="42.9523429" lon="12.0505415"><ele>446.4</ele><time>2026-03-29T09:28:18.235Z</time></trkpt><trkpt lat="42.9522685" lon="12.0504488"><ele>448.2</ele><time>2026-03-29T09:28:19.237Z</time></trkpt><trkpt lat="42.952201" lon="12.0503661"><ele>450.0</ele><time>2026-03-29T09:28:20.238Z</time></trkpt><trkpt lat="42.9521365" lon="12.0502951"><ele>450.0</ele><time>2026-03-29T09:28:21.237Z</time></trkpt><trkpt lat="42.952075" lon="12.0502387"><ele>450.0</ele><time>2026-03-29T09:28:22.243Z</time></trkpt><trkpt lat="42.952008" lon="12.0501926"><ele>450.0</ele><time>2026-03-29T09:28:23.235Z</time></trkpt><trkpt lat="42.9519412" lon="12.0501421"><ele>450.0</ele><time>2026-03-29T09:28:24.269Z</time></trkpt><trkpt lat="42.9518787" lon="12.0500823"><ele>450.0</ele><time>2026-03-29T09:28:25.24Z</time></trkpt><trkpt lat="42.9518182" lon="12.0500173"><ele>450.0</ele><time>2026-03-29T09:28:26.241Z</time></trkpt><trkpt lat="42.951759" lon="12.0499452"><ele>450.0</ele><time>2026-03-29T09:28:27.238Z</time></trkpt><trkpt lat="42.9516972" lon="12.0498681"><ele>450.0</ele><time>2026-03-29T09:28:28.236Z</time></trkpt><trkpt lat="42.9516313" lon="12.0497937"><ele>450.0</ele><time>2026-03-29T09:28:29.243Z</time></trkpt><trkpt lat="42.9515631" lon="12.0497183"><ele>450.0</ele><time>2026-03-29T09:28:30.236Z</time></trkpt><trkpt lat="42.9514876" lon="12.0496358"><ele>450.0</ele><time>2026-03-29T09:28:31.237Z</time></trkpt><trkpt lat="42.951404" lon="12.0495521"><ele>450.0</ele><time>2026-03-29T09:28:32.234Z</time></trkpt><trkpt lat="42.951315" lon="12.04947"><ele>450.0</ele><time>2026-03-29T09:28:33.269Z</time></trkpt><trkpt lat="42.9512239" lon="12.0493875"><ele>450.0</ele><time>2026-03-29T09:28:34.236Z</time></trkpt><trkpt lat="42.951139" lon="12.0493001"><ele>450.0</ele><time>2026-03-29T09:28:35.237Z</time></trkpt><trkpt lat="42.9510585" lon="12.0492003"><ele>450.0</ele><time>2026-03-29T09:28:36.239Z</time></trkpt><trkpt lat="42.9509862" lon="12.0490914"><ele>450.2</ele><time>2026-03-29T09:28:37.243Z</time></trkpt><trkpt lat="42.9509203" lon="12.0489669"><ele>450.4</ele><time>2026-03-29T09:28:38.239Z</time></trkpt><trkpt lat="42.9508653" lon="12.0488361"><ele>450.6</ele><time>2026-03-29T09:28:39.236Z</time></trkpt><trkpt lat="42.9508217" lon="12.048706"><ele>450.8</ele><time>2026-03-29T09:28:40.237Z</time></trkpt><trkpt lat="42.9507931" lon="12.0485833"><ele>451.0</ele><time>2026-03-29T09:28:41.238Z</time></trkpt><trkpt lat="42.9507724" lon="12.0484778"><ele>452.33333333333337</ele><time>2026-03-29T09:28:42.272Z</time></trkpt><trkpt lat="42.9507529" lon="12.0483776"><ele>453.6666666666667</ele><time>2026-03-29T09:28:43.237Z</time></trkpt><trkpt lat="42.9507382" lon="12.048278"><ele>455.0</ele><time>2026-03-29T09:28:44.237Z</time></trkpt><trkpt lat="42.950726" lon="12.0481716"><ele>456.33333333333337</ele><time>2026-03-29T09:28:45.238Z</time></trkpt><trkpt lat="42.9507138" lon="12.048066"><ele>457.6666666666667</ele><time>2026-03-29T09:28:46.24Z</time></trkpt><trkpt lat="42.9507126" lon="12.0479671"><ele>459.0</ele><time>2026-03-29T09:28:47.24Z</time></trkpt><trkpt lat="42.9507257" lon="12.0478728"><ele>459.0</ele><time>2026-03-29T09:28:48.241Z</time></trkpt><trkpt lat="42.9507524" lon="12.0477787"><ele>459.0</ele><time>2026-03-29T09:28:49.239Z</time></trkpt><trkpt lat="42.9507863" lon="12.0476812"><ele>459.0</ele><time>2026-03-29T09:28:50.236Z</time></trkpt><trkpt lat="42.950825" lon="12.0475729"><ele>459.0</ele><time>2026-03-29T09:28:51.238Z</time></trkpt><trkpt lat="42.9508609" lon="12.0474562"><ele>459.0</ele><time>2026-03-29T09:28:52.24Z</time></trkpt><trkpt lat="42.9508961" lon="12.0473329"><ele>459.0</ele><time>2026-03-29T09:28:53.236Z</time></trkpt><trkpt lat="42.9509362" lon="12.0471955"><ele>459.5</ele><time>2026-03-29T09:28:54.236Z</time></trkpt><trkpt lat="42.9509796" lon="12.047048"><ele>460.0</ele><time>2026-03-29T09:28:55.241Z</time></trkpt><trkpt lat="42.9510197" lon="12.0468866"><ele>460.5</ele><time>2026-03-29T09:28:56.236Z</time></trkpt><trkpt lat="42.9510658" lon="12.0467105"><ele>461.0</ele><time>2026-03-29T09:28:57.239Z</time></trkpt><trkpt lat="42.9511167" lon="12.0465229"><ele>462.66666666666663</ele><time>2026-03-29T09:28:58.236Z</time></trkpt><trkpt lat="42.9511722" lon="12.0463217"><ele>464.33333333333337</ele><time>2026-03-29T09:28:59.244Z</time></trkpt><trkpt lat="42.9512323" lon="12.0461022"><ele>466.0</ele><time>2026-03-29T09:29:00.264Z</time></trkpt><trkpt lat="42.9512934" lon="12.0458766"><ele>466.75</ele><time>2026-03-29T09:29:01.238Z</time></trkpt><trkpt lat="42.9513514" lon="12.0456624"><ele>467.5</ele><time>2026-03-29T09:29:02.241Z</time></trkpt><trkpt lat="42.9514063" lon="12.0454724"><ele>468.25</ele><time>2026-03-29T09:29:03.236Z</time></trkpt><trkpt lat="42.9514541" lon="12.0453163"><ele>469.0</ele><time>2026-03-29T09:29:04.236Z</time></trkpt><trkpt lat="42.9514897" lon="12.0451904"><ele>469.00000000000006</ele><time>2026-03-29T09:29:05.235Z</time></trkpt><trkpt lat="42.9515108" lon="12.0450741"><ele>469.0</ele><time>2026-03-29T09:29:06.236Z</time></trkpt><trkpt lat="42.9515096" lon="12.0449626"><ele>469.0</ele><time>2026-03-29T09:29:07.241Z</time></trkpt><trkpt lat="42.9514872" lon="12.0448519"><ele>469.0</ele><time>2026-03-29T09:29:08.238Z</time></trkpt><trkpt lat="42.9514478" lon="12.04474"><ele>469.00000000000006</ele><time>2026-03-29T09:29:09.265Z</time></trkpt><trkpt lat="42.9513981" lon="12.0446136"><ele>469.0</ele><time>2026-03-29T09:29:10.242Z</time></trkpt><trkpt lat="42.9513378" lon="12.0444729"><ele>469.25</ele><time>2026-03-29T09:29:11.245Z</time></trkpt><trkpt lat="42.9512646" lon="12.0443186"><ele>469.5</ele><time>2026-03-29T09:29:12.244Z</time></trkpt><trkpt lat="42.9511865" lon="12.0441504"><ele>469.75</ele><time>2026-03-29T09:29:13.241Z</time></trkpt><trkpt lat="42.9511058" lon="12.0439658"><ele>470.0</ele><time>2026-03-29T09:29:14.239Z</time></trkpt><trkpt lat="42.9510289" lon="12.0437865"><ele>469.25</ele><time>2026-03-29T09:29:15.235Z</time></trkpt><trkpt lat="42.9509584" lon="12.0436219"><ele>468.5</ele><time>2026-03-29T09:29:16.238Z</time></trkpt><trkpt lat="42.9508912" lon="12.0434706"><ele>467.75</ele><time>2026-03-29T09:29:17.238Z</time></trkpt><trkpt lat="42.9508239" lon="12.0433372"><ele>467.0</ele><time>2026-03-29T09:29:18.235Z</time></trkpt><trkpt lat="42.9507487" lon="12.0432284"><ele>467.0</ele><time>2026-03-29T09:29:19.238Z</time></trkpt><trkpt lat="42.9506717" lon="12.043139"><ele>467.00000000000006</ele><time>2026-03-29T09:29:20.236Z</time></trkpt><trkpt lat="42.9505889" lon="12.0430711"><ele>467.00000000000006</ele><time>2026-03-29T09:29:21.241Z</time></trkpt><trkpt lat="42.9504897" lon="12.0430295"><ele>467.0</ele><time>2026-03-29T09:29:22.237Z</time></trkpt><trkpt lat="42.9503778" lon="12.0429931"><ele>467.0</ele><time>2026-03-29T09:29:23.241Z</time></trkpt><trkpt lat="42.9502637" lon="12.0429415"><ele>467.0</ele><time>2026-03-29T09:29:24.245Z</time></trkpt><trkpt lat="42.9501593" lon="12.0428679"><ele>467.00000000000006</ele><time>2026-03-29T09:29:25.234Z</time></trkpt><trkpt lat="42.950068" lon="12.0427825"><ele>467.00000000000006</ele><time>2026-03-29T09:29:26.238Z</time></trkpt><trkpt lat="42.9499875" lon="12.0427018"><ele>467.0</ele><time>2026-03-29T09:29:27.243Z</time></trkpt><trkpt lat="42.9499119" lon="12.0426338"><ele>467.0</ele><time>2026-03-29T09:29:28.244Z</time></trkpt><trkpt lat="42.9498362" lon="12.0425732"><ele>466.8</ele><time>2026-03-29T09:29:29.236Z</time></trkpt><trkpt lat="42.9497614" lon="12.0424989"><ele>466.6</ele><time>2026-03-29T09:29:30.237Z</time></trkpt><trkpt lat="42.9496812" lon="12.0424039"><ele>466.40000000000003</ele><time>2026-03-29T09:29:31.245Z</time></trkpt><trkpt lat="42.949597" lon="12.0422875"><ele>466.20000000000005</ele><time>2026-03-29T09:29:32.239Z</time></trkpt><trkpt lat="42.9495104" lon="12.0421571"><ele>466.0</ele><time>2026-03-29T09:29:33.24Z</time></trkpt><trkpt lat="42.9494161" lon="12.0420221"><ele>466.0</ele><time>2026-03-29T09:29:34.238Z</time></trkpt><trkpt lat="42.9493181" lon="12.0418935"><ele>466.0</ele><time>2026-03-29T09:29:35.242Z</time></trkpt><trkpt lat="42.9492178" lon="12.0417787"><ele>466.0</ele><time>2026-03-29T09:29:36.236Z</time></trkpt><trkpt lat="42.949115" lon="12.0416678"><ele>466.0</ele><time>2026-03-29T09:29:37.244Z</time></trkpt><trkpt lat="42.9490101" lon="12.0415506"><ele>466.0</ele><time>2026-03-29T09:29:38.237Z</time></trkpt><trkpt lat="42.9489036" lon="12.0414377"><ele>466.0</ele><time>2026-03-29T09:29:39.233Z</time></trkpt><trkpt lat="42.9487883" lon="12.0413361"><ele>466.0</ele><time>2026-03-29T09:29:40.244Z</time></trkpt><trkpt lat="42.9486515" lon="12.041241"><ele>466.0</ele><time>2026-03-29T09:29:41.238Z</time></trkpt><trkpt lat="42.9484917" lon="12.0411473"><ele>470.0</ele><time>2026-03-29T09:29:42.24Z</time></trkpt><trkpt lat="42.9483306" lon="12.0410576"><ele>474.0</ele><time>2026-03-29T09:29:43.241Z</time></trkpt><trkpt lat="42.9481776" lon="12.0409725"><ele>478.0</ele><time>2026-03-29T09:29:44.235Z</time></trkpt><trkpt lat="42.9480389" lon="12.0408926"><ele>478.0</ele><time>2026-03-29T09:29:45.265Z</time></trkpt><trkpt lat="42.9479145" lon="12.0408052"><ele>478.0</ele><time>2026-03-29T09:29:46.236Z</time></trkpt><trkpt lat="42.9478003" lon="12.040701"><ele>478.0</ele><time>2026-03-29T09:29:47.237Z</time></trkpt><trkpt lat="42.9476905" lon="12.0405721"><ele>478.0</ele><time>2026-03-29T09:29:48.236Z</time></trkpt><trkpt lat="42.9475835" lon="12.0404392"><ele>478.25</ele><time>2026-03-29T09:29:49.245Z</time></trkpt><trkpt lat="42.947482" lon="12.0403152"><ele>478.5</ele><time>2026-03-29T09:29:50.234Z</time></trkpt><trkpt lat="42.9473842" lon="12.0401959"><ele>478.75</ele><time>2026-03-29T09:29:51.236Z</time></trkpt><trkpt lat="42.9472905" lon="12.0400751"><ele>479.0</ele><time>2026-03-29T09:29:52.239Z</time></trkpt><trkpt lat="42.9471967" lon="12.0399354"><ele>476.66666666666663</ele><time>2026-03-29T09:29:53.238Z</time></trkpt><trkpt lat="42.9471012" lon="12.039769"><ele>474.33333333333337</ele><time>2026-03-29T09:29:54.243Z</time></trkpt><trkpt lat="42.9470007" lon="12.0395863"><ele>472.0</ele><time>2026-03-29T09:29:55.237Z</time></trkpt><trkpt lat="42.9468979" lon="12.0394059"><ele>472.0</ele><time>2026-03-29T09:29:56.235Z</time></trkpt><trkpt lat="42.9468011" lon="12.0392493"><ele>472.0</ele><time>2026-03-29T09:29:57.235Z</time></trkpt><trkpt lat="42.9467136" lon="12.0391041"><ele>472.0</ele><time>2026-03-29T09:29:58.268Z</time></trkpt><trkpt lat="42.9466334" lon="12.0389618"><ele>472.0</ele><time>2026-03-29T09:29:59.236Z</time></trkpt><trkpt lat="42.9465617" lon="12.038817"><ele>474.8</ele><time>2026-03-29T09:30:00.237Z</time></trkpt><trkpt lat="42.9464998" lon="12.0386779"><ele>477.6</ele><time>2026-03-29T09:30:01.24Z</time></trkpt><trkpt lat="42.9464375" lon="12.0385552"><ele>480.40000000000003</ele><time>2026-03-29T09:30:02.237Z</time></trkpt><trkpt lat="42.9463695" lon="12.0384543"><ele>483.20000000000005</ele><time>2026-03-29T09:30:03.237Z</time></trkpt><trkpt lat="42.9463037" lon="12.0383593"><ele>486.0</ele><time>2026-03-29T09:30:04.266Z</time></trkpt><trkpt lat="42.9462466" lon="12.0382528"><ele>486.0</ele><time>2026-03-29T09:30:05.246Z</time></trkpt><trkpt lat="42.9461947" lon="12.0381321"><ele>486.0</ele><time>2026-03-29T09:30:06.236Z</time></trkpt><trkpt lat="42.9461473" lon="12.0380063"><ele>486.0</ele><time>2026-03-29T09:30:07.244Z</time></trkpt><trkpt lat="42.9461017" lon="12.03789"><ele>486.0</ele><time>2026-03-29T09:30:08.245Z</time></trkpt><trkpt lat="42.9460519" lon="12.0377921"><ele>486.0</ele><time>2026-03-29T09:30:09.237Z</time></trkpt><trkpt lat="42.9459905" lon="12.0377181"><ele>486.0</ele><time>2026-03-29T09:30:10.237Z</time></trkpt><trkpt lat="42.9459182" lon="12.0376601"><ele>486.0</ele><time>2026-03-29T09:30:11.234Z</time></trkpt><trkpt lat="42.9458446" lon="12.0376064"><ele>486.0</ele><time>2026-03-29T09:30:12.236Z</time></trkpt><trkpt lat="42.9457738" lon="12.0375492"><ele>486.0</ele><time>2026-03-29T09:30:13.238Z</time></trkpt><trkpt lat="42.9457122" lon="12.037489"><ele>486.0</ele><time>2026-03-29T09:30:14.233Z</time></trkpt><trkpt lat="42.9456448" lon="12.0374225"><ele>486.0</ele><time>2026-03-29T09:30:15.243Z</time></trkpt><trkpt lat="42.9455718" lon="12.0373427"><ele>484.20000000000005</ele><time>2026-03-29T09:30:16.237Z</time></trkpt><trkpt lat="42.945499" lon="12.0372584"><ele>482.40000000000003</ele><time>2026-03-29T09:30:17.235Z</time></trkpt><trkpt lat="42.9454225" lon="12.0371852"><ele>480.6</ele><time>2026-03-29T09:30:18.238Z</time></trkpt><trkpt lat="42.9453407" lon="12.0371301"><ele>478.8</ele><time>2026-03-29T09:30:19.238Z</time></trkpt><trkpt lat="42.9452559" lon="12.0370896"><ele>477.0</ele><time>2026-03-29T09:30:20.236Z</time></trkpt><trkpt lat="42.9451601" lon="12.0370583"><ele>477.0</ele><time>2026-03-29T09:30:21.241Z</time></trkpt><trkpt lat="42.945058" lon="12.037026"><ele>477.00000000000006</ele><time>2026-03-29T09:30:22.238Z</time></trkpt><trkpt lat="42.9449549" lon="12.0369877"><ele>477.00000000000006</ele><time>2026-03-29T09:30:23.236Z</time></trkpt><trkpt lat="42.9448483" lon="12.0369484"><ele>477.0</ele><time>2026-03-29T09:30:24.236Z</time></trkpt><trkpt lat="42.9447391" lon="12.0369134"><ele>477.0</ele><time>2026-03-29T09:30:25.234Z</time></trkpt><trkpt lat="42.9446275" lon="12.0368817"><ele>478.5</ele><time>2026-03-29T09:30:26.242Z</time></trkpt><trkpt lat="42.9445099" lon="12.0368538"><ele>480.0</ele><time>2026-03-29T09:30:27.236Z</time></trkpt><trkpt lat="42.9443924" lon="12.0368281"><ele>481.5</ele><time>2026-03-29T09:30:28.243Z</time></trkpt><trkpt lat="42.9442762" lon="12.0367955"><ele>483.0</ele><time>2026-03-29T09:30:29.242Z</time></trkpt><trkpt lat="42.9441594" lon="12.0367537"><ele>481.75</ele><time>2026-03-29T09:30:30.237Z</time></trkpt><trkpt lat="42.9440304" lon="12.0367095"><ele>480.5</ele><time>2026-03-29T09:30:31.24Z</time></trkpt><trkpt lat="42.9438877" lon="12.0366732"><ele>479.25</ele><time>2026-03-29T09:30:32.238Z</time></trkpt><trkpt lat="42.9437508" lon="12.0366474"><ele>478.0</ele><time>2026-03-29T09:30:33.238Z</time></trkpt><trkpt lat="42.9436313" lon="12.0366237"><ele>478.0</ele><time>2026-03-29T09:30:34.237Z</time></trkpt><trkpt lat="42.9435287" lon="12.0365919"><ele>477.99999999999994</ele><time>2026-03-29T09:30:35.239Z</time></trkpt><trkpt lat="42.9434313" lon="12.0365439"><ele>477.99999999999994</ele><time>2026-03-29T09:30:36.245Z</time></trkpt><trkpt lat="42.9433321" lon="12.0364774"><ele>478.0</ele><time>2026-03-29T09:30:37.249Z</time></trkpt><trkpt lat="42.9432309" lon="12.0363975"><ele>478.0</ele><time>2026-03-29T09:30:38.238Z</time></trkpt><trkpt lat="42.9431332" lon="12.036306"><ele>478.75</ele><time>2026-03-29T09:30:39.237Z</time></trkpt><trkpt lat="42.9430361" lon="12.0361971"><ele>479.5</ele><time>2026-03-29T09:30:40.237Z</time></trkpt><trkpt lat="42.942948" lon="12.0360688"><ele>480.25</ele><time>2026-03-29T09:30:41.242Z</time></trkpt><trkpt lat="42.9428759" lon="12.0359294"><ele>481.0</ele><time>2026-03-29T09:30:42.239Z</time></trkpt><trkpt lat="42.9428175" lon="12.0357861"><ele>481.0</ele><time>2026-03-29T09:30:43.237Z</time></trkpt><trkpt lat="42.9427737" lon="12.0356321"><ele>481.0</ele><time>2026-03-29T09:30:44.237Z</time></trkpt><trkpt lat="42.9427406" lon="12.0354664"><ele>481.0</ele><time>2026-03-29T09:30:45.241Z</time></trkpt><trkpt lat="42.9427141" lon="12.0352989"><ele>481.0</ele><time>2026-03-29T09:30:46.238Z</time></trkpt><trkpt lat="42.9426845" lon="12.0351417"><ele>481.0</ele><time>2026-03-29T09:30:47.241Z</time></trkpt><trkpt lat="42.9426476" lon="12.0349908"><ele>481.0</ele><time>2026-03-29T09:30:48.239Z</time></trkpt><trkpt lat="42.9425991" lon="12.034839"><ele>481.0</ele><time>2026-03-29T09:30:49.244Z</time></trkpt><trkpt lat="42.9425345" lon="12.0346781"><ele>481.0</ele><time>2026-03-29T09:30:50.24Z</time></trkpt><trkpt lat="42.9424547" lon="12.0345078"><ele>483.75</ele><time>2026-03-29T09:30:51.243Z</time></trkpt><trkpt lat="42.9423698" lon="12.0343323"><ele>486.5</ele><time>2026-03-29T09:30:52.237Z</time></trkpt><trkpt lat="42.9422995" lon="12.0341664"><ele>489.25</ele><time>2026-03-29T09:30:53.239Z</time></trkpt><trkpt lat="42.9422439" lon="12.0340071"><ele>492.0</ele><time>2026-03-29T09:30:54.239Z</time></trkpt><trkpt lat="42.9421948" lon="12.0338446"><ele>492.0</ele><time>2026-03-29T09:30:55.26Z</time></trkpt><trkpt lat="42.9421463" lon="12.0336781"><ele>492.0</ele><time>2026-03-29T09:30:56.248Z</time></trkpt><trkpt lat="42.9420928" lon="12.0335147"><ele>492.0</ele><time>2026-03-29T09:30:57.238Z</time></trkpt><trkpt lat="42.9420377" lon="12.0333682"><ele>492.0</ele><time>2026-03-29T09:30:58.24Z</time></trkpt><trkpt lat="42.9419736" lon="12.0332436"><ele>493.20000000000005</ele><time>2026-03-29T09:30:59.24Z</time></trkpt><trkpt lat="42.9419014" lon="12.0331328"><ele>494.40000000000003</ele><time>2026-03-29T09:31:00.238Z</time></trkpt><trkpt lat="42.941824" lon="12.0330372"><ele>495.59999999999997</ele><time>2026-03-29T09:31:01.244Z</time></trkpt><trkpt lat="42.9417434" lon="12.0329513"><ele>496.79999999999995</ele><time>2026-03-29T09:31:02.246Z</time></trkpt><trkpt lat="42.9416619" lon="12.032866"><ele>498.0</ele><time>2026-03-29T09:31:03.239Z</time></trkpt><trkpt lat="42.9415791" lon="12.0327791"><ele>498.0</ele><time>2026-03-29T09:31:04.251Z</time></trkpt><trkpt lat="42.9414994" lon="12.0326854"><ele>497.99999999999994</ele><time>2026-03-29T09:31:05.273Z</time></trkpt><trkpt lat="42.9414255" lon="12.0325961"><ele>497.99999999999994</ele><time>2026-03-29T09:31:06.242Z</time></trkpt><trkpt lat="42.9413543" lon="12.0325161"><ele>498.0</ele><time>2026-03-29T09:31:07.236Z</time></trkpt><trkpt lat="42.9412829" lon="12.0324512"><ele>498.0</ele><time>2026-03-29T09:31:08.238Z</time></trkpt><trkpt lat="42.9412103" lon="12.0324085"><ele>497.3333333333333</ele><time>2026-03-29T09:31:09.239Z</time></trkpt><trkpt lat="42.9411453" lon="12.0323807"><ele>496.66666666666663</ele><time>2026-03-29T09:31:10.234Z</time></trkpt><trkpt lat="42.9410791" lon="12.0323557"><ele>496.0</ele><time>2026-03-29T09:31:11.238Z</time></trkpt><trkpt lat="42.9410088" lon="12.0323175"><ele>495.3333333333333</ele><time>2026-03-29T09:31:12.236Z</time></trkpt><trkpt lat="42.9409271" lon="12.0322654"><ele>494.66666666666663</ele><time>2026-03-29T09:31:13.237Z</time></trkpt><trkpt lat="42.940833" lon="12.0322117"><ele>494.0</ele><time>2026-03-29T09:31:14.241Z</time></trkpt><trkpt lat="42.9407316" lon="12.0321488"><ele>494.0</ele><time>2026-03-29T09:31:15.239Z</time></trkpt><trkpt lat="42.9406272" lon="12.032074"><ele>494.0</ele><time>2026-03-29T09:31:16.24Z</time></trkpt><trkpt lat="42.9405191" lon="12.031985"><ele>494.0</ele><time>2026-03-29T09:31:17.237Z</time></trkpt><trkpt lat="42.9403986" lon="12.0318846"><ele>494.0</ele><time>2026-03-29T09:31:18.236Z</time></trkpt><trkpt lat="42.9402658" lon="12.0317787"><ele>494.0</ele><time>2026-03-29T09:31:19.242Z</time></trkpt><trkpt lat="42.9401279" lon="12.0316697"><ele>494.0</ele><time>2026-03-29T09:31:20.24Z</time></trkpt><trkpt lat="42.9399993" lon="12.0315657"><ele>494.0</ele><time>2026-03-29T09:31:21.236Z</time></trkpt><trkpt lat="42.9398788" lon="12.0314777"><ele>494.0</ele><time>2026-03-29T09:31:22.238Z</time></trkpt><trkpt lat="42.9397692" lon="12.0314021"><ele>494.2</ele><time>2026-03-29T09:31:23.238Z</time></trkpt><trkpt lat="42.9396717" lon="12.0313345"><ele>494.4</ele><time>2026-03-29T09:31:24.236Z</time></trkpt><trkpt lat="42.9395854" lon="12.031264"><ele>494.6</ele><time>2026-03-29T09:31:25.239Z</time></trkpt><trkpt lat="42.9395111" lon="12.0311889"><ele>494.8</ele><time>2026-03-29T09:31:26.236Z</time></trkpt><trkpt lat="42.9394419" lon="12.0311068"><ele>495.0</ele><time>2026-03-29T09:31:27.238Z</time></trkpt><trkpt lat="42.9393814" lon="12.0310085"><ele>495.0</ele><time>2026-03-29T09:31:28.239Z</time></trkpt><trkpt lat="42.9393325" lon="12.0308965"><ele>495.0</ele><time>2026-03-29T09:31:29.242Z</time></trkpt><trkpt lat="42.9392873" lon="12.0307789"><ele>495.0</ele><time>2026-03-29T09:31:30.264Z</time></trkpt><trkpt lat="42.9392421" lon="12.0306693"><ele>495.0</ele><time>2026-03-29T09:31:31.239Z</time></trkpt><trkpt lat="42.9391932" lon="12.0305756"><ele>495.0</ele><time>2026-03-29T09:31:32.245Z</time></trkpt><trkpt lat="42.9391406" lon="12.0304902"><ele>497.0</ele><time>2026-03-29T09:31:33.238Z</time></trkpt><trkpt lat="42.939088" lon="12.0304002"><ele>499.0</ele><time>2026-03-29T09:31:34.242Z</time></trkpt><trkpt lat="42.9390359" lon="12.0302969"><ele>501.0</ele><time>2026-03-29T09:31:35.236Z</time></trkpt><trkpt lat="42.938976" lon="12.0301827"><ele>503.0</ele><time>2026-03-29T09:31:36.265Z</time></trkpt><trkpt lat="42.9389168" lon="12.030062"><ele>505.0</ele><time>2026-03-29T09:31:37.241Z</time></trkpt><trkpt lat="42.9388682" lon="12.0299313"><ele>506.2</ele><time>2026-03-29T09:31:38.235Z</time></trkpt><trkpt lat="42.9388199" lon="12.0297981"><ele>507.4</ele><time>2026-03-29T09:31:39.235Z</time></trkpt><trkpt lat="42.938773" lon="12.0296578"><ele>508.6</ele><time>2026-03-29T09:31:40.241Z</time></trkpt><trkpt lat="42.9387274" lon="12.0295166"><ele>509.8</ele><time>2026-03-29T09:31:41.249Z</time></trkpt><trkpt lat="42.9386836" lon="12.0293862"><ele>511.0</ele><time>2026-03-29T09:31:42.24Z</time></trkpt><trkpt lat="42.938632" lon="12.0292619"><ele>511.4</ele><time>2026-03-29T09:31:43.235Z</time></trkpt><trkpt lat="42.9385705" lon="12.0291417"><ele>511.8</ele><time>2026-03-29T09:31:44.244Z</time></trkpt><trkpt lat="42.9385062" lon="12.0290301"><ele>512.1999999999999</ele><time>2026-03-29T09:31:45.24Z</time></trkpt><trkpt lat="42.9384413" lon="12.0289247"><ele>512.6</ele><time>2026-03-29T09:31:46.236Z</time></trkpt><trkpt lat="42.938374" lon="12.0288181"><ele>513.0</ele><time>2026-03-29T09:31:47.24Z</time></trkpt><trkpt lat="42.9382943" lon="12.0287106"><ele>512.0</ele><time>2026-03-29T09:31:48.234Z</time></trkpt><trkpt lat="42.9382041" lon="12.0286105"><ele>511.0</ele><time>2026-03-29T09:31:49.235Z</time></trkpt><trkpt lat="42.9381121" lon="12.0285232"><ele>510.0</ele><time>2026-03-29T09:31:50.238Z</time></trkpt><trkpt lat="42.9380151" lon="12.028444"><ele>509.0</ele><time>2026-03-29T09:31:51.272Z</time></trkpt><trkpt lat="42.9379053" lon="12.0283603"><ele>509.3333333333333</ele><time>2026-03-29T09:31:52.24Z</time></trkpt><trkpt lat="42.9377772" lon="12.0282736"><ele>509.66666666666663</ele><time>2026-03-29T09:31:53.238Z</time></trkpt><trkpt lat="42.9376287" lon="12.028196"><ele>510.0</ele><time>2026-03-29T09:31:54.235Z</time></trkpt><trkpt lat="42.9374612" lon="12.0281334"><ele>510.0</ele><time>2026-03-29T09:31:55.238Z</time></trkpt><trkpt lat="42.9372854" lon="12.0280831"><ele>510.0</ele><time>2026-03-29T09:31:56.238Z</time></trkpt><trkpt lat="42.9371136" lon="12.0280398"><ele>510.0</ele><time>2026-03-29T09:31:57.237Z</time></trkpt><trkpt lat="42.9369633" lon="12.0279996"><ele>510.0</ele><time>2026-03-29T09:31:58.237Z</time></trkpt><trkpt lat="42.9368445" lon="12.0279667"><ele>510.0</ele><time>2026-03-29T09:31:59.239Z</time></trkpt><trkpt lat="42.9367508" lon="12.027942"><ele>510.0</ele><time>2026-03-29T09:32:00.24Z</time></trkpt><trkpt lat="42.9366856" lon="12.027935"><ele>510.0</ele><time>2026-03-29T09:32:01.236Z</time></trkpt><trkpt lat="42.9365973" lon="12.0279366"><ele>510.0</ele><time>2026-03-29T09:32:03.238Z</time></trkpt><trkpt lat="42.9365329" lon="12.0279092"><ele>510.0</ele><time>2026-03-29T09:32:05.24Z</time></trkpt><trkpt lat="42.9364683" lon="12.0278601"><ele>510.0</ele><time>2026-03-29T09:32:08.235Z</time></trkpt><trkpt lat="42.9364935" lon="12.0279467"><ele>510.0</ele><time>2026-03-29T09:32:13.241Z</time></trkpt><trkpt lat="42.9366037" lon="12.0279622"><ele>510.0</ele><time>2026-03-29T09:32:15.241Z</time></trkpt><trkpt lat="42.9366735" lon="12.0279497"><ele>510.0</ele><time>2026-03-29T09:32:16.236Z</time></trkpt><trkpt lat="42.9367558" lon="12.0279225"><ele>510.0</ele><time>2026-03-29T09:32:17.238Z</time></trkpt><trkpt lat="42.9368478" lon="12.0278809"><ele>510.0</ele><time>2026-03-29T09:32:18.237Z</time></trkpt><trkpt lat="42.9369561" lon="12.027834"><ele>510.0</ele><time>2026-03-29T09:32:19.238Z</time></trkpt><trkpt lat="42.9370697" lon="12.027778"><ele>510.0</ele><time>2026-03-29T09:32:20.238Z</time></trkpt><trkpt lat="42.9371892" lon="12.0277191"><ele>510.0</ele><time>2026-03-29T09:32:21.236Z</time></trkpt><trkpt lat="42.9373155" lon="12.0276689"><ele>510.0</ele><time>2026-03-29T09:32:22.237Z</time></trkpt><trkpt lat="42.9374487" lon="12.0276247"><ele>510.5</ele><time>2026-03-29T09:32:23.247Z</time></trkpt><trkpt lat="42.9375726" lon="12.0275822"><ele>511.0</ele><time>2026-03-29T09:32:24.242Z</time></trkpt><trkpt lat="42.9376843" lon="12.0275433"><ele>511.5</ele><time>2026-03-29T09:32:25.268Z</time></trkpt><trkpt lat="42.9377889" lon="12.0275103"><ele>512.0</ele><time>2026-03-29T09:32:26.24Z</time></trkpt><trkpt lat="42.9378922" lon="12.0274798"><ele>511.99999999999994</ele><time>2026-03-29T09:32:27.24Z</time></trkpt><trkpt lat="42.9379872" lon="12.0274555"><ele>512.0</ele><time>2026-03-29T09:32:28.238Z</time></trkpt><trkpt lat="42.9380774" lon="12.0274426"><ele>512.0</ele><time>2026-03-29T09:32:29.267Z</time></trkpt><trkpt lat="42.9381654" lon="12.0274449"><ele>512.0</ele><time>2026-03-29T09:32:30.239Z</time></trkpt><trkpt lat="42.9382471" lon="12.0274629"><ele>511.99999999999994</ele><time>2026-03-29T09:32:31.235Z</time></trkpt><trkpt lat="42.9383148" lon="12.0274861"><ele>512.0</ele><time>2026-03-29T09:32:32.238Z</time></trkpt><trkpt lat="42.9384128" lon="12.0275053"><ele>511.99999999999994</ele><time>2026-03-29T09:32:34.238Z</time></trkpt><trkpt lat="42.9384818" lon="12.0274368"><ele>512.0</ele><time>2026-03-29T09:32:36.233Z</time></trkpt><trkpt lat="42.9385276" lon="12.0272753"><ele>512.0</ele><time>2026-03-29T09:32:38.237Z</time></trkpt><trkpt lat="42.938545" lon="12.0271705"><ele>512.0</ele><time>2026-03-29T09:32:39.236Z</time></trkpt><trkpt lat="42.9385709" lon="12.0270686"><ele>511.99999999999994</ele><time>2026-03-29T09:32:40.267Z</time></trkpt><trkpt lat="42.9386017" lon="12.0269737"><ele>512.0</ele><time>2026-03-29T09:32:41.244Z</time></trkpt><trkpt lat="42.9386377" lon="12.0268824"><ele>512.0</ele><time>2026-03-29T09:32:42.239Z</time></trkpt><trkpt lat="42.9386778" lon="12.0268009"><ele>511.99999999999994</ele><time>2026-03-29T09:32:43.24Z</time></trkpt><trkpt lat="42.93872" lon="12.0267335"><ele>512.0</ele><time>2026-03-29T09:32:44.242Z</time></trkpt><trkpt lat="42.938776" lon="12.0266723"><ele>512.0</ele><time>2026-03-29T09:32:45.243Z</time></trkpt><trkpt lat="42.9388424" lon="12.0266226"><ele>511.99999999999994</ele><time>2026-03-29T09:32:46.241Z</time></trkpt><trkpt lat="42.9389096" lon="12.0265912"><ele>512.0</ele><time>2026-03-29T09:32:47.234Z</time></trkpt><trkpt lat="42.9389874" lon="12.0265851"><ele>512.0</ele><time>2026-03-29T09:32:48.243Z</time></trkpt><trkpt lat="42.9390704" lon="12.0266068"><ele>512.0</ele><time>2026-03-29T09:32:49.265Z</time></trkpt><trkpt lat="42.9391493" lon="12.0266463"><ele>511.99999999999994</ele><time>2026-03-29T09:32:50.239Z</time></trkpt><trkpt lat="42.9392202" lon="12.0266857"><ele>512.0</ele><time>2026-03-29T09:32:51.236Z</time></trkpt><trkpt lat="42.9392867" lon="12.0267174"><ele>512.0</ele><time>2026-03-29T09:32:52.242Z</time></trkpt><trkpt lat="42.9393587" lon="12.0267448"><ele>511.99999999999994</ele><time>2026-03-29T09:32:53.235Z</time></trkpt><trkpt lat="42.9394272" lon="12.0267788"><ele>512.0</ele><time>2026-03-29T09:32:54.237Z</time></trkpt><trkpt lat="42.9394889" lon="12.0268245"><ele>512.0</ele><time>2026-03-29T09:32:55.238Z</time></trkpt><trkpt lat="42.9395546" lon="12.0268901"><ele>511.3333333333333</ele><time>2026-03-29T09:32:56.239Z</time></trkpt><trkpt lat="42.9396226" lon="12.0269558"><ele>510.66666666666663</ele><time>2026-03-29T09:32:57.237Z</time></trkpt><trkpt lat="42.9396876" lon="12.0270002"><ele>510.0</ele><time>2026-03-29T09:32:58.236Z</time></trkpt><trkpt lat="42.9397811" lon="12.0270461"><ele>509.33333333333337</ele><time>2026-03-29T09:33:00.27Z</time></trkpt><trkpt lat="42.9398701" lon="12.0270918"><ele>508.6666666666667</ele><time>2026-03-29T09:33:02.236Z</time></trkpt><trkpt lat="42.9399348" lon="12.027094"><ele>508.0</ele><time>2026-03-29T09:33:03.243Z</time></trkpt><trkpt lat="42.9400106" lon="12.0270786"><ele>507.50000000000006</ele><time>2026-03-29T09:33:04.24Z</time></trkpt><trkpt lat="42.9400827" lon="12.0270534"><ele>507.0</ele><time>2026-03-29T09:33:05.238Z</time></trkpt><trkpt lat="42.9401444" lon="12.0270254"><ele>506.5</ele><time>2026-03-29T09:33:06.236Z</time></trkpt><trkpt lat="42.9402371" lon="12.0269802"><ele>506.0</ele><time>2026-03-29T09:33:08.234Z</time></trkpt><trkpt lat="42.9403461" lon="12.0269032"><ele>505.50000000000006</ele><time>2026-03-29T09:33:10.238Z</time></trkpt><trkpt lat="42.9404098" lon="12.0268696"><ele>505.0</ele><time>2026-03-29T09:33:11.237Z</time></trkpt><trkpt lat="42.9404872" lon="12.0268434"><ele>505.0</ele><time>2026-03-29T09:33:12.243Z</time></trkpt><trkpt lat="42.9405863" lon="12.0268412"><ele>505.0</ele><time>2026-03-29T09:33:13.236Z</time></trkpt><trkpt lat="42.9407059" lon="12.0268539"><ele>505.0</ele><time>2026-03-29T09:33:14.234Z</time></trkpt><trkpt lat="42.9408491" lon="12.0268773"><ele>505.0</ele><time>2026-03-29T09:33:15.265Z</time></trkpt><trkpt lat="42.9409921" lon="12.0269026"><ele>504.75</ele><time>2026-03-29T09:33:16.243Z</time></trkpt><trkpt lat="42.9411158" lon="12.0269241"><ele>504.5</ele><time>2026-03-29T09:33:17.246Z</time></trkpt><trkpt lat="42.9412309" lon="12.0269374"><ele>504.25</ele><time>2026-03-29T09:33:18.236Z</time></trkpt><trkpt lat="42.9413408" lon="12.0269457"><ele>504.0</ele><time>2026-03-29T09:33:19.241Z</time></trkpt><trkpt lat="42.9414429" lon="12.0269431"><ele>504.0</ele><time>2026-03-29T09:33:20.235Z</time></trkpt><trkpt lat="42.9415408" lon="12.0269256"><ele>504.0</ele><time>2026-03-29T09:33:21.265Z</time></trkpt><trkpt lat="42.9416447" lon="12.0268952"><ele>504.0</ele><time>2026-03-29T09:33:22.241Z</time></trkpt><trkpt lat="42.9417482" lon="12.0268791"><ele>504.0</ele><time>2026-03-29T09:33:23.239Z</time></trkpt><trkpt lat="42.9418475" lon="12.0268762"><ele>504.0</ele><time>2026-03-29T09:33:24.235Z</time></trkpt><trkpt lat="42.9419591" lon="12.0268933"><ele>505.25</ele><time>2026-03-29T09:33:25.238Z</time></trkpt><trkpt lat="42.94208" lon="12.0269217"><ele>506.5</ele><time>2026-03-29T09:33:26.238Z</time></trkpt><trkpt lat="42.9421983" lon="12.0269505"><ele>507.75</ele><time>2026-03-29T09:33:27.237Z</time></trkpt><trkpt lat="42.9423116" lon="12.0269789"><ele>509.0</ele><time>2026-03-29T09:33:28.236Z</time></trkpt><trkpt lat="42.9424209" lon="12.0270089"><ele>509.0</ele><time>2026-03-29T09:33:29.235Z</time></trkpt><trkpt lat="42.9425235" lon="12.0270425"><ele>509.0</ele><time>2026-03-29T09:33:30.235Z</time></trkpt><trkpt lat="42.9426149" lon="12.0270796"><ele>509.0</ele><time>2026-03-29T09:33:31.236Z</time></trkpt><trkpt lat="42.9427003" lon="12.0271265"><ele>509.0</ele><time>2026-03-29T09:33:32.234Z</time></trkpt><trkpt lat="42.9427817" lon="12.0271792"><ele>509.0</ele><time>2026-03-29T09:33:33.236Z</time></trkpt><trkpt lat="42.942859" lon="12.0272326"><ele>508.66666666666663</ele><time>2026-03-29T09:33:34.272Z</time></trkpt><trkpt lat="42.9429318" lon="12.0272817"><ele>508.3333333333333</ele><time>2026-03-29T09:33:35.237Z</time></trkpt><trkpt lat="42.9430034" lon="12.0273237"><ele>508.0</ele><time>2026-03-29T09:33:36.242Z</time></trkpt><trkpt lat="42.9430825" lon="12.027359"><ele>507.66666666666663</ele><time>2026-03-29T09:33:37.272Z</time></trkpt><trkpt lat="42.9431666" lon="12.027399"><ele>507.3333333333333</ele><time>2026-03-29T09:33:38.237Z</time></trkpt><trkpt lat="42.943247" lon="12.0274536"><ele>507.0</ele><time>2026-03-29T09:33:39.242Z</time></trkpt><trkpt lat="42.9433315" lon="12.0275227"><ele>507.5</ele><time>2026-03-29T09:33:40.247Z</time></trkpt><trkpt lat="42.9434213" lon="12.0276034"><ele>508.0</ele><time>2026-03-29T09:33:41.269Z</time></trkpt><trkpt lat="42.9435016" lon="12.0276793"><ele>508.5</ele><time>2026-03-29T09:33:42.242Z</time></trkpt><trkpt lat="42.9435529" lon="12.0277372"><ele>509.0</ele><time>2026-03-29T09:33:43.246Z</time></trkpt><trkpt lat="42.9435975" lon="12.0278065"><ele>509.5</ele><time>2026-03-29T09:33:46.237Z</time></trkpt><trkpt lat="42.9436599" lon="12.0278603"><ele>510.0</ele><time>2026-03-29T09:33:49.236Z</time></trkpt><trkpt lat="42.9437195" lon="12.0279172"><ele>510.0</ele><time>2026-03-29T09:33:51.238Z</time></trkpt><trkpt lat="42.9436579" lon="12.0278569"><ele>510.0</ele><time>2026-03-29T09:34:07.257Z</time></trkpt><trkpt lat="42.9435962" lon="12.0278171"><ele>510.0</ele><time>2026-03-29T09:34:09.237Z</time></trkpt><trkpt lat="42.9435288" lon="12.0279284"><ele>510.0</ele><time>2026-03-29T09:34:12.238Z</time></trkpt><trkpt lat="42.9435243" lon="12.0280157"><ele>510.0</ele><time>2026-03-29T09:34:13.236Z</time></trkpt><trkpt lat="42.9435366" lon="12.0281255"><ele>510.0</ele><time>2026-03-29T09:34:14.237Z</time></trkpt><trkpt lat="42.9435652" lon="12.0282478"><ele>510.1666666666667</ele><time>2026-03-29T09:34:15.236Z</time></trkpt><trkpt lat="42.9436016" lon="12.0283752"><ele>510.33333333333337</ele><time>2026-03-29T09:34:16.237Z</time></trkpt><trkpt lat="42.9436338" lon="12.0284909"><ele>510.5</ele><time>2026-03-29T09:34:17.24Z</time></trkpt><trkpt lat="42.9436553" lon="12.0285941"><ele>510.6666666666667</ele><time>2026-03-29T09:34:18.239Z</time></trkpt><trkpt lat="42.9436662" lon="12.0286977"><ele>510.83333333333337</ele><time>2026-03-29T09:34:19.238Z</time></trkpt><trkpt lat="42.9436689" lon="12.028806"><ele>511.0</ele><time>2026-03-29T09:34:20.237Z</time></trkpt><trkpt lat="42.9436658" lon="12.0289216"><ele>511.0</ele><time>2026-03-29T09:34:21.238Z</time></trkpt><trkpt lat="42.9436663" lon="12.0290266"><ele>511.0</ele><time>2026-03-29T09:34:22.236Z</time></trkpt><trkpt lat="42.9436698" lon="12.0291294"><ele>511.0</ele><time>2026-03-29T09:34:23.238Z</time></trkpt><trkpt lat="42.9436714" lon="12.0292252"><ele>511.0</ele><time>2026-03-29T09:34:24.236Z</time></trkpt><trkpt lat="42.9436744" lon="12.029313"><ele>511.0</ele><time>2026-03-29T09:34:25.235Z</time></trkpt><trkpt lat="42.9436772" lon="12.0294018"><ele>511.0</ele><time>2026-03-29T09:34:26.244Z</time></trkpt><trkpt lat="42.9436747" lon="12.0294937"><ele>511.0</ele><time>2026-03-29T09:34:27.237Z</time></trkpt><trkpt lat="42.9436686" lon="12.0295958"><ele>510.83333333333337</ele><time>2026-03-29T09:34:28.233Z</time></trkpt><trkpt lat="42.9436694" lon="12.0296986"><ele>510.6666666666667</ele><time>2026-03-29T09:34:29.238Z</time></trkpt><trkpt lat="42.9436761" lon="12.0298008"><ele>510.5</ele><time>2026-03-29T09:34:30.242Z</time></trkpt><trkpt lat="42.9436861" lon="12.0299043"><ele>510.33333333333337</ele><time>2026-03-29T09:34:31.235Z</time></trkpt><trkpt lat="42.9436934" lon="12.030011"><ele>510.1666666666667</ele><time>2026-03-29T09:34:32.235Z</time></trkpt><trkpt lat="42.9437001" lon="12.0301264"><ele>510.0</ele><time>2026-03-29T09:34:33.235Z</time></trkpt><trkpt lat="42.9437095" lon="12.0302514"><ele>510.0</ele><time>2026-03-29T09:34:34.236Z</time></trkpt><trkpt lat="42.9437198" lon="12.0303677"><ele>510.0</ele><time>2026-03-29T09:34:35.236Z</time></trkpt><trkpt lat="42.9437288" lon="12.0304677"><ele>510.0</ele><time>2026-03-29T09:34:36.239Z</time></trkpt><trkpt lat="42.9437762" lon="12.0306177"><ele>510.0</ele><time>2026-03-29T09:34:38.264Z</time></trkpt><trkpt lat="42.9438147" lon="12.0307035"><ele>510.0</ele><time>2026-03-29T09:34:39.239Z</time></trkpt><trkpt lat="42.9438532" lon="12.0308045"><ele>510.0</ele><time>2026-03-29T09:34:40.236Z</time></trkpt><trkpt lat="42.9438952" lon="12.0309082"><ele>509.5</ele><time>2026-03-29T09:34:41.234Z</time></trkpt><trkpt lat="42.9439439" lon="12.0310101"><ele>509.0</ele><time>2026-03-29T09:34:42.237Z</time></trkpt><trkpt lat="42.943988" lon="12.0311029"><ele>508.5</ele><time>2026-03-29T09:34:43.238Z</time></trkpt><trkpt lat="42.9440264" lon="12.0311805"><ele>508.0</ele><time>2026-03-29T09:34:44.24Z</time></trkpt><trkpt lat="42.9440688" lon="12.0312559"><ele>507.5</ele><time>2026-03-29T09:34:45.235Z</time></trkpt><trkpt lat="42.9441239" lon="12.0313448"><ele>507.0</ele><time>2026-03-29T09:34:46.234Z</time></trkpt><trkpt lat="42.9441911" lon="12.0314476"><ele>504.8</ele><time>2026-03-29T09:34:47.241Z</time></trkpt><trkpt lat="42.9442603" lon="12.031553"><ele>502.6</ele><time>2026-03-29T09:34:48.236Z</time></trkpt><trkpt lat="42.9443224" lon="12.0316594"><ele>500.40000000000003</ele><time>2026-03-29T09:34:49.269Z</time></trkpt><trkpt lat="42.9443766" lon="12.0317672"><ele>498.20000000000005</ele><time>2026-03-29T09:34:50.237Z</time></trkpt><trkpt lat="42.9444206" lon="12.0318673"><ele>496.0</ele><time>2026-03-29T09:34:51.247Z</time></trkpt><trkpt lat="42.9444545" lon="12.0319532"><ele>496.0</ele><time>2026-03-29T09:34:52.252Z</time></trkpt><trkpt lat="42.9444914" lon="12.0320262"><ele>496.00000000000006</ele><time>2026-03-29T09:34:53.238Z</time></trkpt><trkpt lat="42.9445421" lon="12.0320833"><ele>496.0</ele><time>2026-03-29T09:34:54.24Z</time></trkpt><trkpt lat="42.9446027" lon="12.0321225"><ele>496.0</ele><time>2026-03-29T09:34:55.243Z</time></trkpt><trkpt lat="42.9446694" lon="12.0321364"><ele>496.00000000000006</ele><time>2026-03-29T09:34:56.236Z</time></trkpt><trkpt lat="42.944748" lon="12.0321225"><ele>496.0</ele><time>2026-03-29T09:34:57.269Z</time></trkpt><trkpt lat="42.9448329" lon="12.0321059"><ele>496.0</ele><time>2026-03-29T09:34:58.239Z</time></trkpt><trkpt lat="42.9449163" lon="12.0321084"><ele>496.00000000000006</ele><time>2026-03-29T09:34:59.236Z</time></trkpt><trkpt lat="42.9450043" lon="12.0321209"><ele>496.0</ele><time>2026-03-29T09:35:00.239Z</time></trkpt><trkpt lat="42.9450932" lon="12.03214"><ele>496.0</ele><time>2026-03-29T09:35:01.237Z</time></trkpt><trkpt lat="42.9451749" lon="12.032169"><ele>496.0</ele><time>2026-03-29T09:35:02.239Z</time></trkpt><trkpt lat="42.9452458" lon="12.0322038"><ele>496.00000000000006</ele><time>2026-03-29T09:35:03.238Z</time></trkpt><trkpt lat="42.9453062" lon="12.0322477"><ele>496.0</ele><time>2026-03-29T09:35:04.244Z</time></trkpt><trkpt lat="42.9453586" lon="12.0323058"><ele>495.7142857142857</ele><time>2026-03-29T09:35:05.241Z</time></trkpt><trkpt lat="42.9454151" lon="12.0323785"><ele>495.42857142857144</ele><time>2026-03-29T09:35:06.236Z</time></trkpt><trkpt lat="42.9454742" lon="12.0324519"><ele>495.14285714285717</ele><time>2026-03-29T09:35:07.237Z</time></trkpt><trkpt lat="42.9455285" lon="12.0325163"><ele>494.8571428571429</ele><time>2026-03-29T09:35:08.236Z</time></trkpt><trkpt lat="42.9455739" lon="12.0325759"><ele>494.57142857142856</ele><time>2026-03-29T09:35:09.234Z</time></trkpt><trkpt lat="42.9456109" lon="12.0326485"><ele>494.28571428571433</ele><time>2026-03-29T09:35:10.244Z</time></trkpt><trkpt lat="42.9456514" lon="12.0327421"><ele>494.0</ele><time>2026-03-29T09:35:11.234Z</time></trkpt><trkpt lat="42.9456979" lon="12.0328484"><ele>494.0</ele><time>2026-03-29T09:35:12.243Z</time></trkpt><trkpt lat="42.9457537" lon="12.0329627"><ele>494.0</ele><time>2026-03-29T09:35:13.236Z</time></trkpt><trkpt lat="42.9458209" lon="12.0330854"><ele>494.0</ele><time>2026-03-29T09:35:14.233Z</time></trkpt><trkpt lat="42.9458874" lon="12.0332029"><ele>494.0</ele><time>2026-03-29T09:35:15.235Z</time></trkpt><trkpt lat="42.9459507" lon="12.0332928"><ele>494.0</ele><time>2026-03-29T09:35:16.234Z</time></trkpt><trkpt lat="42.9460064" lon="12.03335"><ele>492.49999999999994</ele><time>2026-03-29T09:35:17.237Z</time></trkpt><trkpt lat="42.946065" lon="12.0333932"><ele>491.0</ele><time>2026-03-29T09:35:18.243Z</time></trkpt><trkpt lat="42.9461375" lon="12.0334451"><ele>489.5</ele><time>2026-03-29T09:35:19.238Z</time></trkpt><trkpt lat="42.9462134" lon="12.0335068"><ele>488.0</ele><time>2026-03-29T09:35:20.264Z</time></trkpt><trkpt lat="42.9462818" lon="12.0335629"><ele>486.49999999999994</ele><time>2026-03-29T09:35:21.236Z</time></trkpt><trkpt lat="42.9463859" lon="12.0336098"><ele>485.0</ele><time>2026-03-29T09:35:23.237Z</time></trkpt><trkpt lat="42.9464494" lon="12.0336022"><ele>485.0</ele><time>2026-03-29T09:35:24.236Z</time></trkpt><trkpt lat="42.9465283" lon="12.0335804"><ele>485.0</ele><time>2026-03-29T09:35:25.239Z</time></trkpt><trkpt lat="42.9466159" lon="12.0335478"><ele>485.0</ele><time>2026-03-29T09:35:26.239Z</time></trkpt><trkpt lat="42.9466967" lon="12.0335112"><ele>485.0</ele><time>2026-03-29T09:35:27.236Z</time></trkpt><trkpt lat="42.9467733" lon="12.0334796"><ele>485.0</ele><time>2026-03-29T09:35:28.242Z</time></trkpt><trkpt lat="42.9468757" lon="12.0334133"><ele>481.0</ele><time>2026-03-29T09:35:30.237Z</time></trkpt><trkpt lat="42.9469517" lon="12.033257"><ele>477.0</ele><time>2026-03-29T09:35:32.24Z</time></trkpt><trkpt lat="42.94699" lon="12.0331474"><ele>473.0</ele><time>2026-03-29T09:35:33.235Z</time></trkpt><trkpt lat="42.94704" lon="12.0330393"><ele>469.0</ele><time>2026-03-29T09:35:34.236Z</time></trkpt><trkpt lat="42.9471024" lon="12.0329605"><ele>465.0</ele><time>2026-03-29T09:35:35.236Z</time></trkpt><trkpt lat="42.9471715" lon="12.0328987"><ele>465.0</ele><time>2026-03-29T09:35:36.234Z</time></trkpt><trkpt lat="42.9472448" lon="12.0328677"><ele>465.0</ele><time>2026-03-29T09:35:37.241Z</time></trkpt><trkpt lat="42.9473209" lon="12.0328556"><ele>465.0</ele><time>2026-03-29T09:35:38.235Z</time></trkpt><trkpt lat="42.947398" lon="12.0328576"><ele>465.0</ele><time>2026-03-29T09:35:39.235Z</time></trkpt><trkpt lat="42.9474691" lon="12.0328656"><ele>465.0</ele><time>2026-03-29T09:35:40.235Z</time></trkpt><trkpt lat="42.9475731" lon="12.0328866"><ele>465.0</ele><time>2026-03-29T09:35:42.236Z</time></trkpt><trkpt lat="42.9476448" lon="12.0329548"><ele>461.8</ele><time>2026-03-29T09:35:44.243Z</time></trkpt><trkpt lat="42.9477159" lon="12.0330737"><ele>458.6</ele><time>2026-03-29T09:35:46.239Z</time></trkpt><trkpt lat="42.9477738" lon="12.0331821"><ele>455.4</ele><time>2026-03-29T09:35:48.236Z</time></trkpt><trkpt lat="42.9478356" lon="12.0332693"><ele>452.2</ele><time>2026-03-29T09:35:50.234Z</time></trkpt><trkpt lat="42.947891" lon="12.0333826"><ele>449.0</ele><time>2026-03-29T09:35:52.242Z</time></trkpt><trkpt lat="42.9479382" lon="12.0334443"><ele>448.99999999999994</ele><time>2026-03-29T09:35:54.235Z</time></trkpt><trkpt lat="42.9480132" lon="12.0334954"><ele>449.0</ele><time>2026-03-29T09:35:56.237Z</time></trkpt><trkpt lat="42.9480791" lon="12.033554"><ele>449.0</ele><time>2026-03-29T09:35:58.236Z</time></trkpt><trkpt lat="42.9481425" lon="12.0336408"><ele>449.0</ele><time>2026-03-29T09:36:00.234Z</time></trkpt><trkpt lat="42.9481939" lon="12.0337546"><ele>448.99999999999994</ele><time>2026-03-29T09:36:02.234Z</time></trkpt><trkpt lat="42.9481962" lon="12.033877"><ele>449.0</ele><time>2026-03-29T09:36:04.236Z</time></trkpt><trkpt lat="42.9481344" lon="12.0339517"><ele>448.99999999999994</ele><time>2026-03-29T09:36:07.242Z</time></trkpt><trkpt lat="42.9480696" lon="12.0339887"><ele>449.0</ele><time>2026-03-29T09:36:10.237Z</time></trkpt><trkpt lat="42.9480744" lon="12.0340926"><ele>449.0</ele><time>2026-03-29T09:36:12.236Z</time></trkpt><trkpt lat="42.9480947" lon="12.0342178"><ele>449.0</ele><time>2026-03-29T09:36:14.237Z</time></trkpt><trkpt lat="42.9481217" lon="12.0343242"><ele>448.99999999999994</ele><time>2026-03-29T09:36:16.264Z</time></trkpt><trkpt lat="42.9481599" lon="12.0344118"><ele>449.0</ele><time>2026-03-29T09:36:19.235Z</time></trkpt><trkpt lat="42.9482277" lon="12.0344843"><ele>448.16666666666663</ele><time>2026-03-29T09:36:22.246Z</time></trkpt><trkpt lat="42.9483062" lon="12.0345549"><ele>447.3333333333333</ele><time>2026-03-29T09:36:25.233Z</time></trkpt><trkpt lat="42.9483843" lon="12.0345741"><ele>446.5</ele><time>2026-03-29T09:36:27.241Z</time></trkpt><trkpt lat="42.9484936" lon="12.034579"><ele>445.66666666666663</ele><time>2026-03-29T09:36:29.233Z</time></trkpt><trkpt lat="42.9485926" lon="12.0345582"><ele>444.8333333333333</ele><time>2026-03-29T09:36:31.235Z</time></trkpt><trkpt lat="42.948649" lon="12.0345174"><ele>444.0</ele><time>2026-03-29T09:36:33.235Z</time></trkpt><trkpt lat="42.9487096" lon="12.0344282"><ele>443.5</ele><time>2026-03-29T09:36:36.231Z</time></trkpt><trkpt lat="42.948747" lon="12.0343293"><ele>443.0</ele><time>2026-03-29T09:36:38.233Z</time></trkpt><trkpt lat="42.9487943" lon="12.03421"><ele>442.5</ele><time>2026-03-29T09:36:40.234Z</time></trkpt><trkpt lat="42.9488527" lon="12.0341433"><ele>442.0</ele><time>2026-03-29T09:36:42.233Z</time></trkpt><trkpt lat="42.9488903" lon="12.0340469"><ele>441.5</ele><time>2026-03-29T09:38:05.237Z</time></trkpt><trkpt lat="42.9489769" lon="12.0339795"><ele>441.0</ele><time>2026-03-29T09:38:08.238Z</time></trkpt><trkpt lat="42.9490339" lon="12.0339237"><ele>441.0</ele><time>2026-03-29T09:38:10.235Z</time></trkpt><trkpt lat="42.9491549" lon="12.0340594"><ele>441.0</ele><time>2026-03-29T09:38:15.238Z</time></trkpt><trkpt lat="42.9491933" lon="12.0341581"><ele>441.0</ele><time>2026-03-29T09:38:16.24Z</time></trkpt><trkpt lat="42.9492342" lon="12.0342729"><ele>441.0</ele><time>2026-03-29T09:38:17.237Z</time></trkpt><trkpt lat="42.9492806" lon="12.0343983"><ele>441.0</ele><time>2026-03-29T09:38:18.233Z</time></trkpt><trkpt lat="42.9493299" lon="12.0345156"><ele>440.8</ele><time>2026-03-29T09:38:19.233Z</time></trkpt><trkpt lat="42.9493724" lon="12.0346253"><ele>440.6</ele><time>2026-03-29T09:38:20.234Z</time></trkpt><trkpt lat="42.9494206" lon="12.0347322"><ele>440.4</ele><time>2026-03-29T09:38:21.233Z</time></trkpt><trkpt lat="42.949484" lon="12.0348398"><ele>440.2</ele><time>2026-03-29T09:38:22.274Z</time></trkpt><trkpt lat="42.9495535" lon="12.0349519"><ele>440.0</ele><time>2026-03-29T09:38:23.233Z</time></trkpt><trkpt lat="42.9496153" lon="12.0350489"><ele>439.99999999999994</ele><time>2026-03-29T09:38:24.233Z</time></trkpt><trkpt lat="42.9496567" lon="12.0351373"><ele>440.0</ele><time>2026-03-29T09:38:25.235Z</time></trkpt><trkpt lat="42.9496823" lon="12.035233"><ele>440.0</ele><time>2026-03-29T09:38:26.237Z</time></trkpt><trkpt lat="42.9496869" lon="12.0353289"><ele>440.0</ele><time>2026-03-29T09:38:27.233Z</time></trkpt><trkpt lat="42.9496774" lon="12.0354225"><ele>440.0</ele><time>2026-03-29T09:38:28.234Z</time></trkpt><trkpt lat="42.9496755" lon="12.0355194"><ele>439.99999999999994</ele><time>2026-03-29T09:38:29.236Z</time></trkpt><trkpt lat="42.9496828" lon="12.0356084"><ele>440.0</ele><time>2026-03-29T09:38:30.264Z</time></trkpt><trkpt lat="42.9497366" lon="12.0357506"><ele>438.6</ele><time>2026-03-29T09:38:32.235Z</time></trkpt><trkpt lat="42.9497866" lon="12.0358105"><ele>437.2</ele><time>2026-03-29T09:38:33.24Z</time></trkpt><trkpt lat="42.9498547" lon="12.0358761"><ele>435.79999999999995</ele><time>2026-03-29T09:38:34.238Z</time></trkpt><trkpt lat="42.94993" lon="12.0359574"><ele>434.4</ele><time>2026-03-29T09:38:35.235Z</time></trkpt><trkpt lat="42.9500007" lon="12.0360618"><ele>433.0</ele><time>2026-03-29T09:38:36.233Z</time></trkpt><trkpt lat="42.950062" lon="12.0361743"><ele>433.4</ele><time>2026-03-29T09:38:37.238Z</time></trkpt><trkpt lat="42.9501296" lon="12.0363029"><ele>433.79999999999995</ele><time>2026-03-29T09:38:38.237Z</time></trkpt><trkpt lat="42.9501904" lon="12.0364269"><ele>434.2</ele><time>2026-03-29T09:38:39.233Z</time></trkpt><trkpt lat="42.9502394" lon="12.036533"><ele>434.6</ele><time>2026-03-29T09:38:40.236Z</time></trkpt><trkpt lat="42.9502727" lon="12.0366212"><ele>435.0</ele><time>2026-03-29T09:38:41.238Z</time></trkpt><trkpt lat="42.9503328" lon="12.0367278"><ele>435.0</ele><time>2026-03-29T09:38:43.238Z</time></trkpt><trkpt lat="42.9503941" lon="12.0367746"><ele>435.0</ele><time>2026-03-29T09:38:45.235Z</time></trkpt><trkpt lat="42.9504841" lon="12.0368519"><ele>435.0</ele><time>2026-03-29T09:38:47.242Z</time></trkpt><trkpt lat="42.9505577" lon="12.0369174"><ele>435.0</ele><time>2026-03-29T09:38:48.238Z</time></trkpt><trkpt lat="42.9506334" lon="12.0369899"><ele>435.0</ele><time>2026-03-29T09:38:49.237Z</time></trkpt><trkpt lat="42.9507115" lon="12.0370667"><ele>435.0</ele><time>2026-03-29T09:38:50.233Z</time></trkpt><trkpt lat="42.9507871" lon="12.0371453"><ele>435.0</ele><time>2026-03-29T09:38:51.233Z</time></trkpt><trkpt lat="42.9508539" lon="12.0372407"><ele>435.0</ele><time>2026-03-29T09:38:52.235Z</time></trkpt><trkpt lat="42.9509211" lon="12.0373574"><ele>435.0</ele><time>2026-03-29T09:38:53.236Z</time></trkpt><trkpt lat="42.9509906" lon="12.0374847"><ele>435.0</ele><time>2026-03-29T09:38:54.232Z</time></trkpt><trkpt lat="42.9510687" lon="12.0376139"><ele>433.0</ele><time>2026-03-29T09:38:55.234Z</time></trkpt><trkpt lat="42.951156" lon="12.0377434"><ele>431.0</ele><time>2026-03-29T09:38:56.236Z</time></trkpt><trkpt lat="42.9512492" lon="12.0378655"><ele>429.0</ele><time>2026-03-29T09:38:57.234Z</time></trkpt><trkpt lat="42.9513443" lon="12.0379709"><ele>427.0</ele><time>2026-03-29T09:38:58.237Z</time></trkpt><trkpt lat="42.9514293" lon="12.0380594"><ele>427.0</ele><time>2026-03-29T09:38:59.233Z</time></trkpt><trkpt lat="42.9515008" lon="12.0381292"><ele>427.00000000000006</ele><time>2026-03-29T09:39:00.232Z</time></trkpt><trkpt lat="42.9515559" lon="12.038205"><ele>427.00000000000006</ele><time>2026-03-29T09:39:01.233Z</time></trkpt><trkpt lat="42.9516036" lon="12.0383071"><ele>427.0</ele><time>2026-03-29T09:39:02.237Z</time></trkpt><trkpt lat="42.9516528" lon="12.0384223"><ele>427.0</ele><time>2026-03-29T09:39:03.235Z</time></trkpt><trkpt lat="42.9517082" lon="12.0385421"><ele>428.40000000000003</ele><time>2026-03-29T09:39:04.234Z</time></trkpt><trkpt lat="42.9517585" lon="12.0386636"><ele>429.80000000000007</ele><time>2026-03-29T09:39:05.233Z</time></trkpt><trkpt lat="42.9518071" lon="12.038778"><ele>431.2</ele><time>2026-03-29T09:39:06.237Z</time></trkpt><trkpt lat="42.9518617" lon="12.0388887"><ele>432.6</ele><time>2026-03-29T09:39:07.234Z</time></trkpt><trkpt lat="42.9519269" lon="12.0389919"><ele>434.0</ele><time>2026-03-29T09:39:08.235Z</time></trkpt><trkpt lat="42.9519991" lon="12.0390807"><ele>431.49999999999994</ele><time>2026-03-29T09:39:09.235Z</time></trkpt><trkpt lat="42.9520679" lon="12.0391599"><ele>429.0</ele><time>2026-03-29T09:39:10.235Z</time></trkpt><trkpt lat="42.9521355" lon="12.0392195"><ele>426.5</ele><time>2026-03-29T09:39:11.234Z</time></trkpt><trkpt lat="42.9522088" lon="12.0392542"><ele>424.0</ele><time>2026-03-29T09:39:12.237Z</time></trkpt><trkpt lat="42.9522858" lon="12.0392699"><ele>421.49999999999994</ele><time>2026-03-29T09:39:13.236Z</time></trkpt><trkpt lat="42.9523655" lon="12.0392714"><ele>419.0</ele><time>2026-03-29T09:39:14.233Z</time></trkpt><trkpt lat="42.9524391" lon="12.0392929"><ele>419.0</ele><time>2026-03-29T09:39:15.237Z</time></trkpt><trkpt lat="42.9525078" lon="12.0393462"><ele>419.0</ele><time>2026-03-29T09:39:16.235Z</time></trkpt><trkpt lat="42.9525794" lon="12.0394309"><ele>419.0</ele><time>2026-03-29T09:39:17.237Z</time></trkpt><trkpt lat="42.9526518" lon="12.0395481"><ele>419.0</ele><time>2026-03-29T09:39:18.238Z</time></trkpt><trkpt lat="42.9527246" lon="12.0396806"><ele>419.0</ele><time>2026-03-29T09:39:19.263Z</time></trkpt><trkpt lat="42.9527972" lon="12.0398114"><ele>419.2</ele><time>2026-03-29T09:39:20.264Z</time></trkpt><trkpt lat="42.9528816" lon="12.0399236"><ele>419.4</ele><time>2026-03-29T09:39:21.234Z</time></trkpt><trkpt lat="42.9529677" lon="12.0400212"><ele>419.6</ele><time>2026-03-29T09:39:22.233Z</time></trkpt><trkpt lat="42.9530468" lon="12.0401053"><ele>419.8</ele><time>2026-03-29T09:39:23.234Z</time></trkpt><trkpt lat="42.953117" lon="12.0401785"><ele>420.0</ele><time>2026-03-29T09:39:24.231Z</time></trkpt><trkpt lat="42.9531814" lon="12.0402384"><ele>420.0</ele><time>2026-03-29T09:39:25.243Z</time></trkpt><trkpt lat="42.9532396" lon="12.0402824"><ele>420.0</ele><time>2026-03-29T09:39:26.236Z</time></trkpt><trkpt lat="42.9533391" lon="12.04034"><ele>420.0</ele><time>2026-03-29T09:39:28.236Z</time></trkpt><trkpt lat="42.9533526" lon="12.0404344"><ele>420.0</ele><time>2026-03-29T09:39:37.237Z</time></trkpt><trkpt lat="42.9533693" lon="12.040542"><ele>420.0</ele><time>2026-03-29T09:39:39.234Z</time></trkpt><trkpt lat="42.9534345" lon="12.0406954"><ele>419.8</ele><time>2026-03-29T09:39:41.234Z</time></trkpt><trkpt lat="42.9534806" lon="12.0407874"><ele>419.6</ele><time>2026-03-29T09:39:42.236Z</time></trkpt><trkpt lat="42.9535292" lon="12.0408766"><ele>419.4</ele><time>2026-03-29T09:39:43.236Z</time></trkpt><trkpt lat="42.9535891" lon="12.0409609"><ele>419.2</ele><time>2026-03-29T09:39:44.236Z</time></trkpt><trkpt lat="42.9536751" lon="12.04104"><ele>419.0</ele><time>2026-03-29T09:39:45.233Z</time></trkpt><trkpt lat="42.9537705" lon="12.0411112"><ele>419.0</ele><time>2026-03-29T09:39:46.234Z</time></trkpt><trkpt lat="42.953858" lon="12.0411747"><ele>419.0</ele><time>2026-03-29T09:39:47.233Z</time></trkpt><trkpt lat="42.9539271" lon="12.0412349"><ele>419.0</ele><time>2026-03-29T09:39:48.237Z</time></trkpt><trkpt lat="42.9540194" lon="12.0413185"><ele>419.0</ele><time>2026-03-29T09:39:50.238Z</time></trkpt><trkpt lat="42.9541392" lon="12.0413999"><ele>419.0</ele><time>2026-03-29T09:39:52.242Z</time></trkpt><trkpt lat="42.9542034" lon="12.0414494"><ele>419.3333333333333</ele><time>2026-03-29T09:39:53.236Z</time></trkpt><trkpt lat="42.9542927" lon="12.0415564"><ele>419.66666666666663</ele><time>2026-03-29T09:39:55.239Z</time></trkpt><trkpt lat="42.9543533" lon="12.0416599"><ele>420.0</ele><time>2026-03-29T09:39:57.268Z</time></trkpt><trkpt lat="42.9543934" lon="12.0417305"><ele>420.33333333333337</ele><time>2026-03-29T09:39:59.243Z</time></trkpt><trkpt lat="42.9544404" lon="12.0418242"><ele>420.6666666666667</ele><time>2026-03-29T09:40:01.243Z</time></trkpt><trkpt lat="42.9544551" lon="12.0419244"><ele>421.0</ele><time>2026-03-29T09:40:03.238Z</time></trkpt><trkpt lat="42.9544402" lon="12.0420134"><ele>421.00000000000006</ele><time>2026-03-29T09:40:05.232Z</time></trkpt><trkpt lat="42.9544739" lon="12.0421007"><ele>421.0</ele><time>2026-03-29T09:40:08.239Z</time></trkpt><trkpt lat="42.9545305" lon="12.0420496"><ele>421.0</ele><time>2026-03-29T09:40:12.242Z</time></trkpt><trkpt lat="42.9545274" lon="12.0419239"><ele>421.0</ele><time>2026-03-29T09:40:14.251Z</time></trkpt><trkpt lat="42.954513" lon="12.0418115"><ele>421.00000000000006</ele><time>2026-03-29T09:40:16.239Z</time></trkpt><trkpt lat="42.9544818" lon="12.0417293"><ele>421.0</ele><time>2026-03-29T09:40:18.246Z</time></trkpt><trkpt lat="42.9544322" lon="12.0416511"><ele>421.1666666666667</ele><time>2026-03-29T09:40:20.245Z</time></trkpt><trkpt lat="42.954342" lon="12.041528"><ele>421.33333333333337</ele><time>2026-03-29T09:40:22.238Z</time></trkpt><trkpt lat="42.9542719" lon="12.0414673"><ele>421.5</ele><time>2026-03-29T09:40:23.24Z</time></trkpt><trkpt lat="42.9541951" lon="12.0414117"><ele>421.66666666666663</ele><time>2026-03-29T09:40:24.238Z</time></trkpt><trkpt lat="42.9541319" lon="12.0413616"><ele>421.8333333333333</ele><time>2026-03-29T09:40:25.234Z</time></trkpt><trkpt lat="42.9540742" lon="12.0413116"><ele>422.0</ele><time>2026-03-29T09:40:26.24Z</time></trkpt><trkpt lat="42.9540115" lon="12.0412644"><ele>421.49999999999994</ele><time>2026-03-29T09:40:27.241Z</time></trkpt><trkpt lat="42.9539393" lon="12.0412177"><ele>421.0</ele><time>2026-03-29T09:40:28.242Z</time></trkpt><trkpt lat="42.9538673" lon="12.0411665"><ele>420.5</ele><time>2026-03-29T09:40:29.239Z</time></trkpt><trkpt lat="42.9537985" lon="12.0411154"><ele>420.0</ele><time>2026-03-29T09:40:30.235Z</time></trkpt><trkpt lat="42.9537332" lon="12.0410568"><ele>419.49999999999994</ele><time>2026-03-29T09:40:31.241Z</time></trkpt><trkpt lat="42.9536624" lon="12.0409832"><ele>419.0</ele><time>2026-03-29T09:40:32.241Z</time></trkpt><trkpt lat="42.9535901" lon="12.0408956"><ele>418.99999999999994</ele><time>2026-03-29T09:40:33.237Z</time></trkpt><trkpt lat="42.9535296" lon="12.0408035"><ele>419.0</ele><time>2026-03-29T09:40:34.24Z</time></trkpt><trkpt lat="42.9534827" lon="12.040708"><ele>419.0</ele><time>2026-03-29T09:40:35.237Z</time></trkpt><trkpt lat="42.9534456" lon="12.0406075"><ele>419.0</ele><time>2026-03-29T09:40:36.236Z</time></trkpt><trkpt lat="42.9534193" lon="12.0405215"><ele>418.99999999999994</ele><time>2026-03-29T09:40:37.237Z</time></trkpt><trkpt lat="42.9533963" lon="12.0404413"><ele>419.0</ele><time>2026-03-29T09:40:38.235Z</time></trkpt><trkpt lat="42.9534865" lon="12.0404138"><ele>421.3333333333333</ele><time>2026-03-29T09:40:43.234Z</time></trkpt><trkpt lat="42.9535464" lon="12.0404415"><ele>423.66666666666663</ele><time>2026-03-29T09:40:44.236Z</time></trkpt><trkpt lat="42.9536219" lon="12.0404667"><ele>426.0</ele><time>2026-03-29T09:40:45.234Z</time></trkpt><trkpt lat="42.9537147" lon="12.0404928"><ele>428.33333333333337</ele><time>2026-03-29T09:40:46.237Z</time></trkpt><trkpt lat="42.9538067" lon="12.0405157"><ele>430.6666666666667</ele><time>2026-03-29T09:40:47.234Z</time></trkpt><trkpt lat="42.9538902" lon="12.0405329"><ele>433.0</ele><time>2026-03-29T09:40:48.235Z</time></trkpt><trkpt lat="42.9539594" lon="12.0405382"><ele>433.0</ele><time>2026-03-29T09:40:49.239Z</time></trkpt><trkpt lat="42.9541112" lon="12.0405016"><ele>432.99999999999994</ele><time>2026-03-29T09:40:52.232Z</time></trkpt><trkpt lat="42.9541721" lon="12.0404686"><ele>432.99999999999994</ele><time>2026-03-29T09:40:53.242Z</time></trkpt><trkpt lat="42.9542494" lon="12.0404286"><ele>433.0</ele><time>2026-03-29T09:40:54.236Z</time></trkpt><trkpt lat="42.9543343" lon="12.0403921"><ele>433.0</ele><time>2026-03-29T09:40:55.238Z</time></trkpt><trkpt lat="42.9544151" lon="12.0403396"><ele>432.1666666666667</ele><time>2026-03-29T09:40:56.238Z</time></trkpt><trkpt lat="42.954492" lon="12.0402595"><ele>431.33333333333337</ele><time>2026-03-29T09:40:57.237Z</time></trkpt><trkpt lat="42.9545589" lon="12.0401693"><ele>430.5</ele><time>2026-03-29T09:40:58.236Z</time></trkpt><trkpt lat="42.9546193" lon="12.0400912"><ele>429.66666666666663</ele><time>2026-03-29T09:40:59.234Z</time></trkpt><trkpt lat="42.9546765" lon="12.0400192"><ele>428.8333333333333</ele><time>2026-03-29T09:41:00.234Z</time></trkpt><trkpt lat="42.9547445" lon="12.0399517"><ele>428.0</ele><time>2026-03-29T09:41:01.233Z</time></trkpt><trkpt lat="42.9548117" lon="12.039878"><ele>428.4</ele><time>2026-03-29T09:41:02.236Z</time></trkpt><trkpt lat="42.954869" lon="12.0397955"><ele>428.79999999999995</ele><time>2026-03-29T09:41:03.235Z</time></trkpt><trkpt lat="42.9549219" lon="12.0396992"><ele>429.2</ele><time>2026-03-29T09:41:04.235Z</time></trkpt><trkpt lat="42.9549813" lon="12.0395918"><ele>429.6</ele><time>2026-03-29T09:41:05.239Z</time></trkpt><trkpt lat="42.9550432" lon="12.0394805"><ele>430.0</ele><time>2026-03-29T09:41:06.238Z</time></trkpt><trkpt lat="42.9551009" lon="12.0393723"><ele>430.0</ele><time>2026-03-29T09:41:07.233Z</time></trkpt><trkpt lat="42.9551513" lon="12.0392657"><ele>430.0</ele><time>2026-03-29T09:41:08.235Z</time></trkpt><trkpt lat="42.955194" lon="12.0391444"><ele>430.0</ele><time>2026-03-29T09:41:09.235Z</time></trkpt><trkpt lat="42.9552371" lon="12.0390176"><ele>430.0</ele><time>2026-03-29T09:41:10.235Z</time></trkpt><trkpt lat="42.9552879" lon="12.0388979"><ele>430.0</ele><time>2026-03-29T09:41:11.24Z</time></trkpt><trkpt lat="42.955345" lon="12.0387879"><ele>431.2</ele><time>2026-03-29T09:41:12.236Z</time></trkpt><trkpt lat="42.9554009" lon="12.0386771"><ele>432.4</ele><time>2026-03-29T09:41:13.237Z</time></trkpt><trkpt lat="42.9554509" lon="12.038564"><ele>433.6</ele><time>2026-03-29T09:41:14.235Z</time></trkpt><trkpt lat="42.9554896" lon="12.038454"><ele>434.8</ele><time>2026-03-29T09:41:15.235Z</time></trkpt><trkpt lat="42.9555223" lon="12.0383418"><ele>436.0</ele><time>2026-03-29T09:41:16.239Z</time></trkpt><trkpt lat="42.9555502" lon="12.038221"><ele>437.20000000000005</ele><time>2026-03-29T09:41:17.235Z</time></trkpt><trkpt lat="42.9555733" lon="12.0380881"><ele>438.40000000000003</ele><time>2026-03-29T09:41:18.234Z</time></trkpt><trkpt lat="42.9555904" lon="12.0379533"><ele>439.6</ele><time>2026-03-29T09:41:19.242Z</time></trkpt><trkpt lat="42.9556042" lon="12.0378111"><ele>440.8</ele><time>2026-03-29T09:41:20.239Z</time></trkpt><trkpt lat="42.9556112" lon="12.0376684"><ele>442.0</ele><time>2026-03-29T09:41:21.238Z</time></trkpt><trkpt lat="42.9556078" lon="12.0375284"><ele>442.25</ele><time>2026-03-29T09:41:22.234Z</time></trkpt><trkpt lat="42.9555948" lon="12.0373876"><ele>442.5</ele><time>2026-03-29T09:41:23.234Z</time></trkpt><trkpt lat="42.9555668" lon="12.0372523"><ele>442.75</ele><time>2026-03-29T09:41:24.243Z</time></trkpt><trkpt lat="42.9555194" lon="12.0371143"><ele>443.0</ele><time>2026-03-29T09:41:25.234Z</time></trkpt><trkpt lat="42.9554543" lon="12.0369577"><ele>443.0</ele><time>2026-03-29T09:41:26.239Z</time></trkpt><trkpt lat="42.9553857" lon="12.0367906"><ele>443.0</ele><time>2026-03-29T09:41:27.23Z</time></trkpt><trkpt lat="42.9553218" lon="12.0366217"><ele>443.0</ele><time>2026-03-29T09:41:28.234Z</time></trkpt><trkpt lat="42.9552603" lon="12.0364604"><ele>443.0</ele><time>2026-03-29T09:41:29.245Z</time></trkpt><trkpt lat="42.9552079" lon="12.0363163"><ele>444.5</ele><time>2026-03-29T09:41:30.236Z</time></trkpt><trkpt lat="42.9551657" lon="12.036183"><ele>446.0</ele><time>2026-03-29T09:41:31.232Z</time></trkpt><trkpt lat="42.9551311" lon="12.0360486"><ele>447.5</ele><time>2026-03-29T09:41:32.244Z</time></trkpt><trkpt lat="42.9550916" lon="12.0359027"><ele>449.0</ele><time>2026-03-29T09:41:33.24Z</time></trkpt><trkpt lat="42.9550335" lon="12.0357411"><ele>451.5</ele><time>2026-03-29T09:41:34.234Z</time></trkpt><trkpt lat="42.9549673" lon="12.035564"><ele>454.0</ele><time>2026-03-29T09:41:35.232Z</time></trkpt><trkpt lat="42.954909" lon="12.0353947"><ele>456.5</ele><time>2026-03-29T09:41:36.233Z</time></trkpt><trkpt lat="42.9548592" lon="12.0352484"><ele>459.0</ele><time>2026-03-29T09:41:37.234Z</time></trkpt><trkpt lat="42.9548173" lon="12.0351234"><ele>459.0</ele><time>2026-03-29T09:41:38.234Z</time></trkpt><trkpt lat="42.954791" lon="12.0350051"><ele>459.0</ele><time>2026-03-29T09:41:39.264Z</time></trkpt><trkpt lat="42.9547781" lon="12.0348834"><ele>459.0</ele><time>2026-03-29T09:41:40.235Z</time></trkpt><trkpt lat="42.954777" lon="12.034766"><ele>459.0</ele><time>2026-03-29T09:41:41.232Z</time></trkpt><trkpt lat="42.9547676" lon="12.0346488"><ele>459.0</ele><time>2026-03-29T09:41:42.263Z</time></trkpt><trkpt lat="42.9547385" lon="12.0345275"><ele>459.0</ele><time>2026-03-29T09:41:43.239Z</time></trkpt><trkpt lat="42.9546986" lon="12.0344004"><ele>459.4</ele><time>2026-03-29T09:41:44.238Z</time></trkpt><trkpt lat="42.9546513" lon="12.03427"><ele>459.79999999999995</ele><time>2026-03-29T09:41:45.233Z</time></trkpt><trkpt lat="42.9546046" lon="12.0341492"><ele>460.20000000000005</ele><time>2026-03-29T09:41:46.235Z</time></trkpt><trkpt lat="42.9545633" lon="12.0340431"><ele>460.6</ele><time>2026-03-29T09:41:47.234Z</time></trkpt><trkpt lat="42.9545312" lon="12.0339344"><ele>461.0</ele><time>2026-03-29T09:41:48.234Z</time></trkpt><trkpt lat="42.9545088" lon="12.033818"><ele>461.20000000000005</ele><time>2026-03-29T09:41:49.235Z</time></trkpt><trkpt lat="42.9544931" lon="12.0336859"><ele>461.40000000000003</ele><time>2026-03-29T09:41:50.267Z</time></trkpt><trkpt lat="42.954481" lon="12.0335348"><ele>461.6</ele><time>2026-03-29T09:41:51.237Z</time></trkpt><trkpt lat="42.9544746" lon="12.0333776"><ele>461.8</ele><time>2026-03-29T09:41:52.231Z</time></trkpt><trkpt lat="42.954467" lon="12.0332234"><ele>462.0</ele><time>2026-03-29T09:41:53.236Z</time></trkpt><trkpt lat="42.9544549" lon="12.0330829"><ele>462.3333333333333</ele><time>2026-03-29T09:41:54.234Z</time></trkpt><trkpt lat="42.9544386" lon="12.0329486"><ele>462.66666666666663</ele><time>2026-03-29T09:41:55.232Z</time></trkpt><trkpt lat="42.95443" lon="12.0328246"><ele>463.0</ele><time>2026-03-29T09:41:56.232Z</time></trkpt><trkpt lat="42.9544304" lon="12.0327146"><ele>463.3333333333333</ele><time>2026-03-29T09:41:57.239Z</time></trkpt><trkpt lat="42.9544367" lon="12.0326236"><ele>463.66666666666663</ele><time>2026-03-29T09:41:58.235Z</time></trkpt><trkpt lat="42.9544409" lon="12.0325134"><ele>464.0</ele><time>2026-03-29T09:42:00.231Z</time></trkpt><trkpt lat="42.9544156" lon="12.0324283"><ele>465.4</ele><time>2026-03-29T09:42:21.229Z</time></trkpt><trkpt lat="42.9543834" lon="12.03229"><ele>466.79999999999995</ele><time>2026-03-29T09:42:23.238Z</time></trkpt><trkpt lat="42.954356" lon="12.0321826"><ele>468.20000000000005</ele><time>2026-03-29T09:42:24.235Z</time></trkpt><trkpt lat="42.9543361" lon="12.032062"><ele>469.6</ele><time>2026-03-29T09:42:25.238Z</time></trkpt><trkpt lat="42.9543304" lon="12.0319326"><ele>471.0</ele><time>2026-03-29T09:42:26.237Z</time></trkpt><trkpt lat="42.9543292" lon="12.0317874"><ele>471.0</ele><time>2026-03-29T09:42:27.241Z</time></trkpt><trkpt lat="42.95433" lon="12.0316444"><ele>471.0</ele><time>2026-03-29T09:42:28.235Z</time></trkpt><trkpt lat="42.9543252" lon="12.0315191"><ele>471.0</ele><time>2026-03-29T09:42:29.235Z</time></trkpt><trkpt lat="42.9543073" lon="12.0314022"><ele>471.0</ele><time>2026-03-29T09:42:30.238Z</time></trkpt><trkpt lat="42.9542876" lon="12.0313005"><ele>471.0</ele><time>2026-03-29T09:42:31.242Z</time></trkpt><trkpt lat="42.9542756" lon="12.0312127"><ele>471.0</ele><time>2026-03-29T09:42:32.234Z</time></trkpt><trkpt lat="42.954285" lon="12.031036"><ele>472.0</ele><time>2026-03-29T09:42:34.235Z</time></trkpt><trkpt lat="42.9542998" lon="12.0309382"><ele>473.0</ele><time>2026-03-29T09:42:35.236Z</time></trkpt><trkpt lat="42.9543116" lon="12.0308436"><ele>474.0</ele><time>2026-03-29T09:42:36.239Z</time></trkpt><trkpt lat="42.9543097" lon="12.03075"><ele>475.0</ele><time>2026-03-29T09:42:37.233Z</time></trkpt><trkpt lat="42.9542955" lon="12.0306536"><ele>476.0</ele><time>2026-03-29T09:42:38.234Z</time></trkpt><trkpt lat="42.9542782" lon="12.0305689"><ele>477.0</ele><time>2026-03-29T09:42:39.715Z</time></trkpt><trkpt lat="42.9542808" lon="12.0304143"><ele>478.20000000000005</ele><time>2026-03-29T09:42:41.717Z</time></trkpt><trkpt lat="42.9543165" lon="12.0302936"><ele>479.40000000000003</ele><time>2026-03-29T09:42:43.725Z</time></trkpt><trkpt lat="42.9543948" lon="12.0302713"><ele>480.59999999999997</ele><time>2026-03-29T09:42:45.717Z</time></trkpt><trkpt lat="42.954485" lon="12.0303755"><ele>481.79999999999995</ele><time>2026-03-29T09:42:47.717Z</time></trkpt><trkpt lat="42.9545441" lon="12.0304813"><ele>483.0</ele><time>2026-03-29T09:42:48.727Z</time></trkpt><trkpt lat="42.9546058" lon="12.0306046"><ele>483.0</ele><time>2026-03-29T09:42:49.721Z</time></trkpt><trkpt lat="42.9546671" lon="12.0307216"><ele>482.99999999999994</ele><time>2026-03-29T09:42:50.723Z</time></trkpt><trkpt lat="42.9547291" lon="12.0308346"><ele>482.99999999999994</ele><time>2026-03-29T09:42:51.717Z</time></trkpt><trkpt lat="42.9547914" lon="12.0309456"><ele>483.0</ele><time>2026-03-29T09:42:52.717Z</time></trkpt><trkpt lat="42.9548497" lon="12.0310543"><ele>483.0</ele><time>2026-03-29T09:42:53.749Z</time></trkpt><trkpt lat="42.9549054" lon="12.0311573"><ele>482.3333333333333</ele><time>2026-03-29T09:42:54.717Z</time></trkpt><trkpt lat="42.9549567" lon="12.0312546"><ele>481.66666666666663</ele><time>2026-03-29T09:42:55.719Z</time></trkpt><trkpt lat="42.9550076" lon="12.0313476"><ele>481.0</ele><time>2026-03-29T09:42:56.749Z</time></trkpt><trkpt lat="42.9550611" lon="12.031443"><ele>480.3333333333333</ele><time>2026-03-29T09:42:57.716Z</time></trkpt><trkpt lat="42.9551142" lon="12.0315369"><ele>479.66666666666663</ele><time>2026-03-29T09:42:58.721Z</time></trkpt><trkpt lat="42.9551637" lon="12.0316215"><ele>479.0</ele><time>2026-03-29T09:42:59.718Z</time></trkpt><trkpt lat="42.9552156" lon="12.0317044"><ele>477.0</ele><time>2026-03-29T09:43:00.717Z</time></trkpt><trkpt lat="42.9552699" lon="12.0317982"><ele>475.0</ele><time>2026-03-29T09:43:01.73Z</time></trkpt><trkpt lat="42.9553293" lon="12.0319054"><ele>473.0</ele><time>2026-03-29T09:43:02.719Z</time></trkpt><trkpt lat="42.955399" lon="12.032032"><ele>471.0</ele><time>2026-03-29T09:43:03.726Z</time></trkpt><trkpt lat="42.9554743" lon="12.0321722"><ele>469.0</ele><time>2026-03-29T09:43:04.727Z</time></trkpt><trkpt lat="42.9555505" lon="12.0323106"><ele>469.0</ele><time>2026-03-29T09:43:05.719Z</time></trkpt><trkpt lat="42.9556218" lon="12.0324382"><ele>469.0</ele><time>2026-03-29T09:43:06.728Z</time></trkpt><trkpt lat="42.9556841" lon="12.0325535"><ele>469.0</ele><time>2026-03-29T09:43:07.719Z</time></trkpt><trkpt lat="42.955739" lon="12.0326569"><ele>469.0</ele><time>2026-03-29T09:43:08.718Z</time></trkpt><trkpt lat="42.9557855" lon="12.0327499"><ele>469.0</ele><time>2026-03-29T09:43:09.719Z</time></trkpt><trkpt lat="42.9558164" lon="12.0328363"><ele>468.6</ele><time>2026-03-29T09:43:10.719Z</time></trkpt><trkpt lat="42.9558413" lon="12.0329329"><ele>468.2</ele><time>2026-03-29T09:43:12.725Z</time></trkpt><trkpt lat="42.9559148" lon="12.033042"><ele>467.80000000000007</ele><time>2026-03-29T09:43:32.717Z</time></trkpt><trkpt lat="42.9560001" lon="12.0331674"><ele>467.40000000000003</ele><time>2026-03-29T09:43:34.718Z</time></trkpt><trkpt lat="42.9560487" lon="12.0332447"><ele>467.0</ele><time>2026-03-29T09:43:35.72Z</time></trkpt><trkpt lat="42.9561046" lon="12.0333446"><ele>467.0</ele><time>2026-03-29T09:43:36.716Z</time></trkpt><trkpt lat="42.9561693" lon="12.0334699"><ele>467.0</ele><time>2026-03-29T09:43:37.719Z</time></trkpt><trkpt lat="42.9562441" lon="12.0336141"><ele>467.0</ele><time>2026-03-29T09:43:38.717Z</time></trkpt><trkpt lat="42.9563218" lon="12.0337705"><ele>467.0</ele><time>2026-03-29T09:43:39.718Z</time></trkpt><trkpt lat="42.9564008" lon="12.0339338"><ele>467.0</ele><time>2026-03-29T09:43:40.748Z</time></trkpt><trkpt lat="42.956491" lon="12.0341104"><ele>467.0</ele><time>2026-03-29T09:43:41.716Z</time></trkpt><trkpt lat="42.9565808" lon="12.034287"><ele>467.0</ele><time>2026-03-29T09:43:42.716Z</time></trkpt><trkpt lat="42.9566723" lon="12.034453"><ele>466.66666666666663</ele><time>2026-03-29T09:43:43.718Z</time></trkpt><trkpt lat="42.9567694" lon="12.0346204"><ele>466.33333333333337</ele><time>2026-03-29T09:43:44.724Z</time></trkpt><trkpt lat="42.9568728" lon="12.0347822"><ele>466.0</ele><time>2026-03-29T09:43:45.716Z</time></trkpt><trkpt lat="42.9569813" lon="12.0349381"><ele>465.75</ele><time>2026-03-29T09:43:46.72Z</time></trkpt><trkpt lat="42.9570923" lon="12.0350807"><ele>465.5</ele><time>2026-03-29T09:43:47.725Z</time></trkpt><trkpt lat="42.9571976" lon="12.0352089"><ele>465.25</ele><time>2026-03-29T09:43:48.718Z</time></trkpt><trkpt lat="42.9572921" lon="12.0353258"><ele>465.0</ele><time>2026-03-29T09:43:49.72Z</time></trkpt><trkpt lat="42.9573778" lon="12.0354322"><ele>465.0</ele><time>2026-03-29T09:43:50.72Z</time></trkpt><trkpt lat="42.957459" lon="12.035526"><ele>465.0</ele><time>2026-03-29T09:43:51.718Z</time></trkpt><trkpt lat="42.957539" lon="12.0356076"><ele>465.0</ele><time>2026-03-29T09:43:52.727Z</time></trkpt><trkpt lat="42.9576142" lon="12.0356864"><ele>465.0</ele><time>2026-03-29T09:43:53.72Z</time></trkpt><trkpt lat="42.9576824" lon="12.0357614"><ele>465.0</ele><time>2026-03-29T09:43:54.719Z</time></trkpt><trkpt lat="42.9577433" lon="12.0358292"><ele>464.1666666666667</ele><time>2026-03-29T09:43:55.718Z</time></trkpt><trkpt lat="42.9577981" lon="12.0358862"><ele>463.33333333333337</ele><time>2026-03-29T09:43:56.72Z</time></trkpt><trkpt lat="42.9578519" lon="12.035941"><ele>462.5</ele><time>2026-03-29T09:43:57.716Z</time></trkpt><trkpt lat="42.9579082" lon="12.0360036"><ele>461.6666666666667</ele><time>2026-03-29T09:43:58.719Z</time></trkpt><trkpt lat="42.9579724" lon="12.0360802"><ele>460.83333333333337</ele><time>2026-03-29T09:43:59.753Z</time></trkpt><trkpt lat="42.9580346" lon="12.0361723"><ele>460.0</ele><time>2026-03-29T09:44:00.726Z</time></trkpt><trkpt lat="42.9580881" lon="12.0362746"><ele>460.0</ele><time>2026-03-29T09:44:01.725Z</time></trkpt><trkpt lat="42.9581353" lon="12.0363871"><ele>460.0</ele><time>2026-03-29T09:44:02.72Z</time></trkpt><trkpt lat="42.9581744" lon="12.0365037"><ele>460.0</ele><time>2026-03-29T09:44:03.726Z</time></trkpt><trkpt lat="42.9582045" lon="12.0366231"><ele>460.0</ele><time>2026-03-29T09:44:04.725Z</time></trkpt><trkpt lat="42.9582231" lon="12.0367338"><ele>460.0</ele><time>2026-03-29T09:44:05.72Z</time></trkpt><trkpt lat="42.958209" lon="12.0368605"><ele>460.0</ele><time>2026-03-29T09:44:07.719Z</time></trkpt><trkpt lat="42.9581923" lon="12.0367774"><ele>460.0</ele><time>2026-03-29T09:44:26.728Z</time></trkpt><trkpt lat="42.9582296" lon="12.0366287"><ele>460.0</ele><time>2026-03-29T09:44:29.753Z</time></trkpt><trkpt lat="42.9582164" lon="12.0365064"><ele>460.0</ele><time>2026-03-29T09:44:30.722Z</time></trkpt><trkpt lat="42.9581849" lon="12.0363805"><ele>460.0</ele><time>2026-03-29T09:44:31.724Z</time></trkpt><trkpt lat="42.9581397" lon="12.0362631"><ele>460.0</ele><time>2026-03-29T09:44:32.724Z</time></trkpt><trkpt lat="42.9580789" lon="12.0361481"><ele>460.0</ele><time>2026-03-29T09:44:33.727Z</time></trkpt><trkpt lat="42.9580051" lon="12.0360371"><ele>460.0</ele><time>2026-03-29T09:44:34.735Z</time></trkpt><trkpt lat="42.957926" lon="12.0359406"><ele>460.0</ele><time>2026-03-29T09:44:35.719Z</time></trkpt><trkpt lat="42.9578532" lon="12.0358595"><ele>460.0</ele><time>2026-03-29T09:44:36.725Z</time></trkpt><trkpt lat="42.957789" lon="12.0357976"><ele>460.0</ele><time>2026-03-29T09:44:37.73Z</time></trkpt><trkpt lat="42.9577115" lon="12.0357121"><ele>460.0</ele><time>2026-03-29T09:44:39.724Z</time></trkpt><trkpt lat="42.9577616" lon="12.0356511"><ele>460.0</ele><time>2026-03-29T09:44:42.725Z</time></trkpt><trkpt lat="42.9578382" lon="12.0357111"><ele>460.0</ele><time>2026-03-29T09:44:44.727Z</time></trkpt><trkpt lat="42.9579431" lon="12.035825"><ele>460.0</ele><time>2026-03-29T09:44:46.733Z</time></trkpt><trkpt lat="42.9580142" lon="12.0358776"><ele>460.00000000000006</ele><time>2026-03-29T09:44:47.731Z</time></trkpt><trkpt lat="42.9580932" lon="12.0359268"><ele>460.0</ele><time>2026-03-29T09:44:48.732Z</time></trkpt><trkpt lat="42.9581722" lon="12.0359739"><ele>460.0</ele><time>2026-03-29T09:44:49.73Z</time></trkpt><trkpt lat="42.9582517" lon="12.0360181"><ele>460.0</ele><time>2026-03-29T09:44:50.719Z</time></trkpt><trkpt lat="42.9583388" lon="12.0360637"><ele>460.00000000000006</ele><time>2026-03-29T09:44:51.738Z</time></trkpt><trkpt lat="42.9584275" lon="12.0361144"><ele>460.0</ele><time>2026-03-29T09:44:52.752Z</time></trkpt><trkpt lat="42.9585181" lon="12.0361723"><ele>460.0</ele><time>2026-03-29T09:44:53.727Z</time></trkpt><trkpt lat="42.9586083" lon="12.036236"><ele>460.0</ele><time>2026-03-29T09:44:54.726Z</time></trkpt><trkpt lat="42.9586923" lon="12.0362954"><ele>460.0</ele><time>2026-03-29T09:44:55.732Z</time></trkpt><trkpt lat="42.9587763" lon="12.036341"><ele>460.0</ele><time>2026-03-29T09:44:56.721Z</time></trkpt><trkpt lat="42.9588628" lon="12.0363741"><ele>460.0</ele><time>2026-03-29T09:44:57.724Z</time></trkpt><trkpt lat="42.9589577" lon="12.0363919"><ele>460.0</ele><time>2026-03-29T09:44:58.721Z</time></trkpt><trkpt lat="42.9590613" lon="12.0363922"><ele>460.0</ele><time>2026-03-29T09:44:59.719Z</time></trkpt><trkpt lat="42.9591748" lon="12.0363682"><ele>460.0</ele><time>2026-03-29T09:45:00.723Z</time></trkpt><trkpt lat="42.9592884" lon="12.0363242"><ele>460.0</ele><time>2026-03-29T09:45:01.716Z</time></trkpt><trkpt lat="42.9594026" lon="12.036262"><ele>461.0</ele><time>2026-03-29T09:45:02.718Z</time></trkpt><trkpt lat="42.9595107" lon="12.0361893"><ele>462.0</ele><time>2026-03-29T09:45:03.718Z</time></trkpt><trkpt lat="42.9596168" lon="12.0361044"><ele>463.0</ele><time>2026-03-29T09:45:04.717Z</time></trkpt><trkpt lat="42.9597243" lon="12.0360238"><ele>464.0</ele><time>2026-03-29T09:45:05.722Z</time></trkpt><trkpt lat="42.9598326" lon="12.0359626"><ele>464.0</ele><time>2026-03-29T09:45:06.748Z</time></trkpt><trkpt lat="42.9599461" lon="12.0359189"><ele>464.0</ele><time>2026-03-29T09:45:07.717Z</time></trkpt><trkpt lat="42.9600624" lon="12.035875"><ele>464.0</ele><time>2026-03-29T09:45:08.719Z</time></trkpt><trkpt lat="42.9601808" lon="12.0358205"><ele>464.0</ele><time>2026-03-29T09:45:09.715Z</time></trkpt><trkpt lat="42.9603001" lon="12.0357678"><ele>464.25</ele><time>2026-03-29T09:45:10.718Z</time></trkpt><trkpt lat="42.9604243" lon="12.035724"><ele>464.5</ele><time>2026-03-29T09:45:11.721Z</time></trkpt><trkpt lat="42.9605511" lon="12.0356928"><ele>464.75</ele><time>2026-03-29T09:45:12.719Z</time></trkpt><trkpt lat="42.9606895" lon="12.0356815"><ele>465.0</ele><time>2026-03-29T09:45:13.718Z</time></trkpt><trkpt lat="42.9608447" lon="12.0356839"><ele>464.33333333333337</ele><time>2026-03-29T09:45:14.718Z</time></trkpt><trkpt lat="42.9610128" lon="12.0356919"><ele>463.6666666666667</ele><time>2026-03-29T09:45:15.717Z</time></trkpt><trkpt lat="42.9611858" lon="12.0356886"><ele>463.0</ele><time>2026-03-29T09:45:16.723Z</time></trkpt><trkpt lat="42.9613477" lon="12.0356687"><ele>463.0</ele><time>2026-03-29T09:45:17.722Z</time></trkpt><trkpt lat="42.9614942" lon="12.0356457"><ele>463.0</ele><time>2026-03-29T09:45:18.719Z</time></trkpt><trkpt lat="42.9616265" lon="12.0356246"><ele>463.0</ele><time>2026-03-29T09:45:19.719Z</time></trkpt><trkpt lat="42.9617422" lon="12.0356231"><ele>463.0</ele><time>2026-03-29T09:45:20.719Z</time></trkpt><trkpt lat="42.961856" lon="12.0356531"><ele>459.75</ele><time>2026-03-29T09:45:21.716Z</time></trkpt><trkpt lat="42.9619663" lon="12.0357155"><ele>456.5</ele><time>2026-03-29T09:45:22.717Z</time></trkpt><trkpt lat="42.9620794" lon="12.0357897"><ele>453.25</ele><time>2026-03-29T09:45:23.717Z</time></trkpt><trkpt lat="42.9621944" lon="12.0358462"><ele>450.0</ele><time>2026-03-29T09:45:24.719Z</time></trkpt><trkpt lat="42.9623233" lon="12.0358791"><ele>450.0</ele><time>2026-03-29T09:45:25.717Z</time></trkpt><trkpt lat="42.9624579" lon="12.0359005"><ele>450.0</ele><time>2026-03-29T09:45:26.728Z</time></trkpt><trkpt lat="42.9625796" lon="12.0359271"><ele>450.0</ele><time>2026-03-29T09:45:27.729Z</time></trkpt><trkpt lat="42.9626914" lon="12.035963"><ele>450.0</ele><time>2026-03-29T09:45:28.718Z</time></trkpt><trkpt lat="42.9628028" lon="12.0360126"><ele>449.0</ele><time>2026-03-29T09:45:29.717Z</time></trkpt><trkpt lat="42.9629103" lon="12.03607"><ele>448.0</ele><time>2026-03-29T09:45:30.714Z</time></trkpt><trkpt lat="42.9630138" lon="12.0361232"><ele>447.0</ele><time>2026-03-29T09:45:31.718Z</time></trkpt><trkpt lat="42.9631149" lon="12.0361594"><ele>446.0</ele><time>2026-03-29T09:45:32.716Z</time></trkpt><trkpt lat="42.9632171" lon="12.0361708"><ele>445.0</ele><time>2026-03-29T09:45:33.716Z</time></trkpt><trkpt lat="42.963321" lon="12.0361569"><ele>445.0</ele><time>2026-03-29T09:45:34.718Z</time></trkpt><trkpt lat="42.9634281" lon="12.0361224"><ele>445.0</ele><time>2026-03-29T09:45:35.716Z</time></trkpt><trkpt lat="42.9635404" lon="12.0360708"><ele>445.0</ele><time>2026-03-29T09:45:36.719Z</time></trkpt><trkpt lat="42.9636547" lon="12.0360045"><ele>445.0</ele><time>2026-03-29T09:45:37.721Z</time></trkpt><trkpt lat="42.963772" lon="12.0359352"><ele>445.0</ele><time>2026-03-29T09:45:38.719Z</time></trkpt><trkpt lat="42.9638903" lon="12.0358609"><ele>445.0</ele><time>2026-03-29T09:45:39.719Z</time></trkpt><trkpt lat="42.9640098" lon="12.0357837"><ele>445.0</ele><time>2026-03-29T09:45:40.719Z</time></trkpt><trkpt lat="42.9641203" lon="12.0357119"><ele>445.0</ele><time>2026-03-29T09:45:41.72Z</time></trkpt><trkpt lat="42.9642188" lon="12.0356466"><ele>445.6</ele><time>2026-03-29T09:45:42.717Z</time></trkpt><trkpt lat="42.9643088" lon="12.0355935"><ele>446.2</ele><time>2026-03-29T09:45:43.718Z</time></trkpt><trkpt lat="42.9644037" lon="12.0355567"><ele>446.79999999999995</ele><time>2026-03-29T09:45:44.716Z</time></trkpt><trkpt lat="42.9645027" lon="12.0355395"><ele>447.4</ele><time>2026-03-29T09:45:45.727Z</time></trkpt><trkpt lat="42.9646036" lon="12.0355346"><ele>448.0</ele><time>2026-03-29T09:45:46.719Z</time></trkpt><trkpt lat="42.964707" lon="12.0355495"><ele>448.0</ele><time>2026-03-29T09:45:47.715Z</time></trkpt><trkpt lat="42.9648094" lon="12.0355665"><ele>447.99999999999994</ele><time>2026-03-29T09:45:48.716Z</time></trkpt><trkpt lat="42.9649038" lon="12.0355657"><ele>447.99999999999994</ele><time>2026-03-29T09:45:49.719Z</time></trkpt><trkpt lat="42.9649933" lon="12.0355495"><ele>448.0</ele><time>2026-03-29T09:45:50.747Z</time></trkpt><trkpt lat="42.9650782" lon="12.0355465"><ele>448.0</ele><time>2026-03-29T09:45:51.719Z</time></trkpt><trkpt lat="42.9651665" lon="12.0355684"><ele>445.5</ele><time>2026-03-29T09:45:52.713Z</time></trkpt><trkpt lat="42.9652569" lon="12.0356021"><ele>443.0</ele><time>2026-03-29T09:45:53.714Z</time></trkpt><trkpt lat="42.9653569" lon="12.0356472"><ele>440.5</ele><time>2026-03-29T09:45:54.716Z</time></trkpt><trkpt lat="42.965475" lon="12.0356988"><ele>438.0</ele><time>2026-03-29T09:45:55.744Z</time></trkpt><trkpt lat="42.9655986" lon="12.0357489"><ele>438.0</ele><time>2026-03-29T09:45:56.718Z</time></trkpt><trkpt lat="42.9657237" lon="12.0357923"><ele>438.0</ele><time>2026-03-29T09:45:57.717Z</time></trkpt><trkpt lat="42.9658456" lon="12.0358293"><ele>438.0</ele><time>2026-03-29T09:45:58.715Z</time></trkpt><trkpt lat="42.9659559" lon="12.0358581"><ele>438.0</ele><time>2026-03-29T09:45:59.715Z</time></trkpt><trkpt lat="42.966058" lon="12.0358804"><ele>436.79999999999995</ele><time>2026-03-29T09:46:00.713Z</time></trkpt><trkpt lat="42.9661547" lon="12.0358911"><ele>435.59999999999997</ele><time>2026-03-29T09:46:01.715Z</time></trkpt><trkpt lat="42.9662578" lon="12.0358927"><ele>434.40000000000003</ele><time>2026-03-29T09:46:02.713Z</time></trkpt><trkpt lat="42.9663651" lon="12.035891"><ele>433.20000000000005</ele><time>2026-03-29T09:46:03.716Z</time></trkpt><trkpt lat="42.966481" lon="12.0358921"><ele>432.0</ele><time>2026-03-29T09:46:04.717Z</time></trkpt><trkpt lat="42.9666055" lon="12.0358903"><ele>432.75</ele><time>2026-03-29T09:46:05.716Z</time></trkpt><trkpt lat="42.9667434" lon="12.0358793"><ele>433.5</ele><time>2026-03-29T09:46:06.72Z</time></trkpt><trkpt lat="42.9668855" lon="12.0358578"><ele>434.25</ele><time>2026-03-29T09:46:07.716Z</time></trkpt><trkpt lat="42.9670218" lon="12.0358244"><ele>435.0</ele><time>2026-03-29T09:46:08.719Z</time></trkpt><trkpt lat="42.967147" lon="12.03579"><ele>431.8</ele><time>2026-03-29T09:46:09.716Z</time></trkpt><trkpt lat="42.9672614" lon="12.0357564"><ele>428.6</ele><time>2026-03-29T09:46:10.718Z</time></trkpt><trkpt lat="42.9673661" lon="12.035722"><ele>425.4</ele><time>2026-03-29T09:46:11.718Z</time></trkpt><trkpt lat="42.9674633" lon="12.0356903"><ele>422.2</ele><time>2026-03-29T09:46:12.718Z</time></trkpt><trkpt lat="42.9675518" lon="12.0356677"><ele>419.0</ele><time>2026-03-29T09:46:13.715Z</time></trkpt><trkpt lat="42.9676365" lon="12.0356572"><ele>418.8333333333333</ele><time>2026-03-29T09:46:14.715Z</time></trkpt><trkpt lat="42.9677117" lon="12.0356653"><ele>418.66666666666663</ele><time>2026-03-29T09:46:15.717Z</time></trkpt><trkpt lat="42.9677804" lon="12.0356946"><ele>418.5</ele><time>2026-03-29T09:46:16.718Z</time></trkpt><trkpt lat="42.9678486" lon="12.0357316"><ele>418.33333333333337</ele><time>2026-03-29T09:46:17.717Z</time></trkpt><trkpt lat="42.9679073" lon="12.0357669"><ele>418.1666666666667</ele><time>2026-03-29T09:46:18.718Z</time></trkpt><trkpt lat="42.9679716" lon="12.0358749"><ele>418.0</ele><time>2026-03-29T09:46:20.716Z</time></trkpt><trkpt lat="42.9680081" lon="12.0360437"><ele>418.0</ele><time>2026-03-29T09:46:22.715Z</time></trkpt><trkpt lat="42.9680209" lon="12.0361527"><ele>418.0</ele><time>2026-03-29T09:46:23.716Z</time></trkpt><trkpt lat="42.9680398" lon="12.0362835"><ele>418.0</ele><time>2026-03-29T09:46:24.716Z</time></trkpt><trkpt lat="42.9680622" lon="12.0364176"><ele>418.0</ele><time>2026-03-29T09:46:25.713Z</time></trkpt><trkpt lat="42.9680812" lon="12.0365418"><ele>418.0</ele><time>2026-03-29T09:46:26.717Z</time></trkpt><trkpt lat="42.9680949" lon="12.036652"><ele>418.50000000000006</ele><time>2026-03-29T09:46:27.721Z</time></trkpt><trkpt lat="42.9681034" lon="12.0367604"><ele>419.0</ele><time>2026-03-29T09:46:28.714Z</time></trkpt><trkpt lat="42.9681067" lon="12.0368737"><ele>419.5</ele><time>2026-03-29T09:46:29.715Z</time></trkpt><trkpt lat="42.9680994" lon="12.0369872"><ele>420.0</ele><time>2026-03-29T09:46:30.713Z</time></trkpt><trkpt lat="42.9680849" lon="12.0371058"><ele>420.50000000000006</ele><time>2026-03-29T09:46:31.717Z</time></trkpt><trkpt lat="42.9680759" lon="12.0372315"><ele>421.0</ele><time>2026-03-29T09:46:32.725Z</time></trkpt><trkpt lat="42.9680801" lon="12.0373588"><ele>422.0</ele><time>2026-03-29T09:46:33.717Z</time></trkpt><trkpt lat="42.9681093" lon="12.0374776"><ele>423.0</ele><time>2026-03-29T09:46:34.719Z</time></trkpt><trkpt lat="42.9681607" lon="12.0375868"><ele>424.0</ele><time>2026-03-29T09:46:35.715Z</time></trkpt><trkpt lat="42.9682348" lon="12.0376831"><ele>425.0</ele><time>2026-03-29T09:46:36.717Z</time></trkpt><trkpt lat="42.9683342" lon="12.0377732"><ele>426.0</ele><time>2026-03-29T09:46:37.718Z</time></trkpt><trkpt lat="42.9684446" lon="12.0378603"><ele>426.4</ele><time>2026-03-29T09:46:38.713Z</time></trkpt><trkpt lat="42.9685425" lon="12.0379492"><ele>426.8</ele><time>2026-03-29T09:46:39.725Z</time></trkpt><trkpt lat="42.9686232" lon="12.0380382"><ele>427.19999999999993</ele><time>2026-03-29T09:46:40.72Z</time></trkpt><trkpt lat="42.9686859" lon="12.0381363"><ele>427.59999999999997</ele><time>2026-03-29T09:46:41.715Z</time></trkpt><trkpt lat="42.9687334" lon="12.038235"><ele>428.0</ele><time>2026-03-29T09:46:42.716Z</time></trkpt><trkpt lat="42.9687758" lon="12.0383355"><ele>427.99999999999994</ele><time>2026-03-29T09:46:43.718Z</time></trkpt><trkpt lat="42.968819" lon="12.0384404"><ele>428.0</ele><time>2026-03-29T09:46:44.714Z</time></trkpt><trkpt lat="42.9688757" lon="12.0385238"><ele>428.0</ele><time>2026-03-29T09:46:45.715Z</time></trkpt><trkpt lat="42.9689437" lon="12.0385705"><ele>428.0</ele><time>2026-03-29T09:46:46.725Z</time></trkpt><trkpt lat="42.9690191" lon="12.0385812"><ele>427.99999999999994</ele><time>2026-03-29T09:46:47.716Z</time></trkpt><trkpt lat="42.9691092" lon="12.0385578"><ele>428.0</ele><time>2026-03-29T09:46:48.714Z</time></trkpt><trkpt lat="42.9692109" lon="12.0385024"><ele>428.0</ele><time>2026-03-29T09:46:49.714Z</time></trkpt><trkpt lat="42.9693189" lon="12.038425"><ele>427.99999999999994</ele><time>2026-03-29T09:46:50.717Z</time></trkpt><trkpt lat="42.9694107" lon="12.0383336"><ele>427.99999999999994</ele><time>2026-03-29T09:46:51.717Z</time></trkpt><trkpt lat="42.9694872" lon="12.0382439"><ele>428.0</ele><time>2026-03-29T09:46:52.715Z</time></trkpt><trkpt lat="42.9695541" lon="12.0381615"><ele>428.0</ele><time>2026-03-29T09:46:53.718Z</time></trkpt><trkpt lat="42.969624" lon="12.0380916"><ele>427.49999999999994</ele><time>2026-03-29T09:46:54.717Z</time></trkpt><trkpt lat="42.9696936" lon="12.0380483"><ele>427.0</ele><time>2026-03-29T09:46:55.714Z</time></trkpt><trkpt lat="42.9697702" lon="12.0380305"><ele>426.5</ele><time>2026-03-29T09:46:56.715Z</time></trkpt><trkpt lat="42.9698631" lon="12.0380188"><ele>426.0</ele><time>2026-03-29T09:46:57.716Z</time></trkpt><trkpt lat="42.9699563" lon="12.0380157"><ele>425.49999999999994</ele><time>2026-03-29T09:46:58.724Z</time></trkpt><trkpt lat="42.9700389" lon="12.0380181"><ele>425.0</ele><time>2026-03-29T09:46:59.715Z</time></trkpt><trkpt lat="42.9701164" lon="12.0380291"><ele>424.99999999999994</ele><time>2026-03-29T09:47:00.713Z</time></trkpt><trkpt lat="42.9701917" lon="12.0380547"><ele>425.0</ele><time>2026-03-29T09:47:01.714Z</time></trkpt><trkpt lat="42.9702642" lon="12.0380943"><ele>425.0</ele><time>2026-03-29T09:47:02.715Z</time></trkpt><trkpt lat="42.9703405" lon="12.0381484"><ele>425.0</ele><time>2026-03-29T09:47:03.714Z</time></trkpt><trkpt lat="42.9704194" lon="12.038207"><ele>424.99999999999994</ele><time>2026-03-29T09:47:04.744Z</time></trkpt><trkpt lat="42.9705002" lon="12.0382662"><ele>425.0</ele><time>2026-03-29T09:47:05.718Z</time></trkpt><trkpt lat="42.970582" lon="12.0383253"><ele>425.49999999999994</ele><time>2026-03-29T09:47:06.714Z</time></trkpt><trkpt lat="42.9706603" lon="12.038374"><ele>426.0</ele><time>2026-03-29T09:47:07.714Z</time></trkpt><trkpt lat="42.9707354" lon="12.0384189"><ele>426.5</ele><time>2026-03-29T09:47:08.719Z</time></trkpt><trkpt lat="42.9708022" lon="12.0384596"><ele>427.0</ele><time>2026-03-29T09:47:09.717Z</time></trkpt><trkpt lat="42.970882" lon="12.0385053"><ele>427.49999999999994</ele><time>2026-03-29T09:47:11.718Z</time></trkpt><trkpt lat="42.9708294" lon="12.0384338"><ele>428.0</ele><time>2026-03-29T09:47:33.718Z</time></trkpt><trkpt lat="42.9708809" lon="12.0383541"><ele>427.99999999999994</ele><time>2026-03-29T09:47:36.72Z</time></trkpt><trkpt lat="42.9709428" lon="12.0383082"><ele>428.0</ele><time>2026-03-29T09:47:38.714Z</time></trkpt><trkpt lat="42.9709857" lon="12.0382337"><ele>428.0</ele><time>2026-03-29T09:47:40.72Z</time></trkpt><trkpt lat="42.971025" lon="12.0381445"><ele>428.0</ele><time>2026-03-29T09:47:42.714Z</time></trkpt><trkpt lat="42.9710849" lon="12.0380669"><ele>427.99999999999994</ele><time>2026-03-29T09:47:45.73Z</time></trkpt><trkpt lat="42.9711346" lon="12.0379757"><ele>428.0</ele><time>2026-03-29T09:47:48.713Z</time></trkpt><trkpt lat="42.9711438" lon="12.0378631"><ele>426.49999999999994</ele><time>2026-03-29T09:47:55.726Z</time></trkpt><trkpt lat="42.9710914" lon="12.0377544"><ele>425.0</ele><time>2026-03-29T09:47:58.728Z</time></trkpt><trkpt lat="42.9710398" lon="12.0376497"><ele>423.5</ele><time>2026-03-29T09:48:00.751Z</time></trkpt><trkpt lat="42.9709907" lon="12.0375446"><ele>422.0</ele><time>2026-03-29T09:48:02.73Z</time></trkpt><trkpt lat="42.9709623" lon="12.0374446"><ele>420.49999999999994</ele><time>2026-03-29T09:48:04.719Z</time></trkpt><trkpt lat="42.9709428" lon="12.0373361"><ele>419.0</ele><time>2026-03-29T09:48:06.722Z</time></trkpt><trkpt lat="42.9709307" lon="12.0372225"><ele>417.79999999999995</ele><time>2026-03-29T09:48:08.723Z</time></trkpt><trkpt lat="42.9709498" lon="12.0370308"><ele>416.59999999999997</ele><time>2026-03-29T09:48:11.73Z</time></trkpt><trkpt lat="42.970981" lon="12.0369157"><ele>415.4</ele><time>2026-03-29T09:48:13.749Z</time></trkpt><trkpt lat="42.9710258" lon="12.0368511"><ele>414.2</ele><time>2026-03-29T09:48:15.719Z</time></trkpt><trkpt lat="42.9711111" lon="12.0367803"><ele>413.0</ele><time>2026-03-29T09:48:18.728Z</time></trkpt><trkpt lat="42.9711816" lon="12.0367289"><ele>413.0</ele><time>2026-03-29T09:48:20.722Z</time></trkpt><trkpt lat="42.9712548" lon="12.0366807"><ele>413.0</ele><time>2026-03-29T09:48:22.722Z</time></trkpt><trkpt lat="42.9713179" lon="12.0366204"><ele>413.0</ele><time>2026-03-29T09:48:24.72Z</time></trkpt><trkpt lat="42.9714046" lon="12.0365442"><ele>413.0</ele><time>2026-03-29T09:48:26.716Z</time></trkpt><trkpt lat="42.9715109" lon="12.0364663"><ele>413.0</ele><time>2026-03-29T09:48:28.733Z</time></trkpt><trkpt lat="42.9716219" lon="12.0363884"><ele>412.66666666666663</ele><time>2026-03-29T09:48:30.718Z</time></trkpt><trkpt lat="42.9716922" lon="12.0363428"><ele>412.3333333333333</ele><time>2026-03-29T09:48:31.726Z</time></trkpt><trkpt lat="42.9717549" lon="12.0363013"><ele>412.0</ele><time>2026-03-29T09:48:32.719Z</time></trkpt><trkpt lat="42.9718529" lon="12.0362368"><ele>411.66666666666663</ele><time>2026-03-29T09:48:34.721Z</time></trkpt><trkpt lat="42.9719192" lon="12.0362038"><ele>411.3333333333333</ele><time>2026-03-29T09:48:45.719Z</time></trkpt><trkpt lat="42.9719905" lon="12.0361709"><ele>411.0</ele><time>2026-03-29T09:48:47.725Z</time></trkpt><trkpt lat="42.9720773" lon="12.0361285"><ele>411.0</ele><time>2026-03-29T09:48:49.723Z</time></trkpt><trkpt lat="42.9721599" lon="12.0360797"><ele>411.0</ele><time>2026-03-29T09:48:51.734Z</time></trkpt><trkpt lat="42.9722614" lon="12.0360121"><ele>411.0</ele><time>2026-03-29T09:48:53.719Z</time></trkpt><trkpt lat="42.9723281" lon="12.0359841"><ele>411.0</ele><time>2026-03-29T09:48:54.717Z</time></trkpt><trkpt lat="42.9723987" lon="12.0359614"><ele>411.0</ele><time>2026-03-29T09:48:55.727Z</time></trkpt><trkpt lat="42.9724718" lon="12.0359405"><ele>411.0</ele><time>2026-03-29T09:48:56.722Z</time></trkpt><trkpt lat="42.9725403" lon="12.0359156"><ele>410.7142857142857</ele><time>2026-03-29T09:48:57.721Z</time></trkpt><trkpt lat="42.9726073" lon="12.0358883"><ele>410.42857142857144</ele><time>2026-03-29T09:48:58.717Z</time></trkpt><trkpt lat="42.972675" lon="12.0358662"><ele>410.1428571428571</ele><time>2026-03-29T09:48:59.72Z</time></trkpt><trkpt lat="42.9727392" lon="12.0358522"><ele>409.8571428571429</ele><time>2026-03-29T09:49:00.72Z</time></trkpt><trkpt lat="42.9728017" lon="12.0358399"><ele>409.5714285714286</ele><time>2026-03-29T09:49:01.719Z</time></trkpt><trkpt lat="42.9728688" lon="12.0358335"><ele>409.2857142857143</ele><time>2026-03-29T09:49:02.72Z</time></trkpt><trkpt lat="42.9729512" lon="12.0358329"><ele>409.0</ele><time>2026-03-29T09:49:03.722Z</time></trkpt><trkpt lat="42.9730375" lon="12.0358382"><ele>409.00000000000006</ele><time>2026-03-29T09:49:04.718Z</time></trkpt><trkpt lat="42.9731172" lon="12.0358561"><ele>409.0</ele><time>2026-03-29T09:49:05.719Z</time></trkpt><trkpt lat="42.973198" lon="12.0358753"><ele>409.0</ele><time>2026-03-29T09:49:06.718Z</time></trkpt><trkpt lat="42.9732736" lon="12.0358964"><ele>409.0</ele><time>2026-03-29T09:49:07.723Z</time></trkpt><trkpt lat="42.9733464" lon="12.0359085"><ele>409.00000000000006</ele><time>2026-03-29T09:49:08.718Z</time></trkpt><trkpt lat="42.973415" lon="12.0359066"><ele>409.0</ele><time>2026-03-29T09:49:09.725Z</time></trkpt><trkpt lat="42.9734856" lon="12.0358934"><ele>406.79999999999995</ele><time>2026-03-29T09:49:10.729Z</time></trkpt><trkpt lat="42.9735689" lon="12.0358743"><ele>404.59999999999997</ele><time>2026-03-29T09:49:11.723Z</time></trkpt><trkpt lat="42.9736618" lon="12.0358538"><ele>402.4</ele><time>2026-03-29T09:49:12.731Z</time></trkpt><trkpt lat="42.9737547" lon="12.0358442"><ele>400.2</ele><time>2026-03-29T09:49:13.716Z</time></trkpt><trkpt lat="42.9738539" lon="12.0358451"><ele>398.0</ele><time>2026-03-29T09:49:14.718Z</time></trkpt><trkpt lat="42.9739485" lon="12.0358486"><ele>397.99999999999994</ele><time>2026-03-29T09:49:15.719Z</time></trkpt><trkpt lat="42.9740356" lon="12.0358568"><ele>398.0</ele><time>2026-03-29T09:49:16.759Z</time></trkpt><trkpt lat="42.9741152" lon="12.0358669"><ele>398.0</ele><time>2026-03-29T09:49:17.727Z</time></trkpt><trkpt lat="42.9741919" lon="12.0358901"><ele>398.0</ele><time>2026-03-29T09:49:18.72Z</time></trkpt><trkpt lat="42.9742689" lon="12.0359218"><ele>397.99999999999994</ele><time>2026-03-29T09:49:19.721Z</time></trkpt><trkpt lat="42.9743473" lon="12.0359541"><ele>398.0</ele><time>2026-03-29T09:49:20.718Z</time></trkpt><trkpt lat="42.9744253" lon="12.0359868"><ele>395.99999999999994</ele><time>2026-03-29T09:49:21.752Z</time></trkpt><trkpt lat="42.9745071" lon="12.0360189"><ele>394.0</ele><time>2026-03-29T09:49:22.728Z</time></trkpt><trkpt lat="42.9745913" lon="12.0360527"><ele>392.0</ele><time>2026-03-29T09:49:23.717Z</time></trkpt><trkpt lat="42.9746742" lon="12.0360891"><ele>390.0</ele><time>2026-03-29T09:49:24.723Z</time></trkpt><trkpt lat="42.9747547" lon="12.0361211"><ele>387.99999999999994</ele><time>2026-03-29T09:49:25.721Z</time></trkpt><trkpt lat="42.9748295" lon="12.0361494"><ele>386.0</ele><time>2026-03-29T09:49:26.72Z</time></trkpt><trkpt lat="42.9749014" lon="12.0361708"><ele>385.99999999999994</ele><time>2026-03-29T09:49:27.727Z</time></trkpt><trkpt lat="42.9749731" lon="12.0361781"><ele>386.0</ele><time>2026-03-29T09:49:28.718Z</time></trkpt><trkpt lat="42.9750512" lon="12.0361772"><ele>386.0</ele><time>2026-03-29T09:49:29.717Z</time></trkpt><trkpt lat="42.9751416" lon="12.036175"><ele>386.0</ele><time>2026-03-29T09:49:30.719Z</time></trkpt><trkpt lat="42.975243" lon="12.0361794"><ele>385.99999999999994</ele><time>2026-03-29T09:49:31.727Z</time></trkpt><trkpt lat="42.9753425" lon="12.0362002"><ele>386.0</ele><time>2026-03-29T09:49:32.72Z</time></trkpt><trkpt lat="42.9754293" lon="12.036241"><ele>383.8333333333333</ele><time>2026-03-29T09:49:33.72Z</time></trkpt><trkpt lat="42.9754994" lon="12.0362869"><ele>381.66666666666663</ele><time>2026-03-29T09:49:34.718Z</time></trkpt><trkpt lat="42.9755641" lon="12.0363319"><ele>379.5</ele><time>2026-03-29T09:49:35.724Z</time></trkpt><trkpt lat="42.9756374" lon="12.0363804"><ele>377.3333333333333</ele><time>2026-03-29T09:49:36.747Z</time></trkpt><trkpt lat="42.9757205" lon="12.0364358"><ele>375.16666666666663</ele><time>2026-03-29T09:49:37.724Z</time></trkpt><trkpt lat="42.9758032" lon="12.0364926"><ele>373.0</ele><time>2026-03-29T09:49:38.722Z</time></trkpt><trkpt lat="42.9758885" lon="12.0365476"><ele>374.0</ele><time>2026-03-29T09:49:39.716Z</time></trkpt><trkpt lat="42.9759755" lon="12.0365997"><ele>375.0</ele><time>2026-03-29T09:49:40.75Z</time></trkpt><trkpt lat="42.9760674" lon="12.0366479"><ele>376.0</ele><time>2026-03-29T09:49:41.73Z</time></trkpt><trkpt lat="42.9761553" lon="12.0366871"><ele>377.0</ele><time>2026-03-29T09:49:42.72Z</time></trkpt><trkpt lat="42.9762386" lon="12.0367156"><ele>378.0</ele><time>2026-03-29T09:49:43.724Z</time></trkpt><trkpt lat="42.9763124" lon="12.0367394"><ele>379.0</ele><time>2026-03-29T09:49:44.724Z</time></trkpt><trkpt lat="42.9763826" lon="12.0367688"><ele>379.0</ele><time>2026-03-29T09:49:45.729Z</time></trkpt><trkpt lat="42.9764592" lon="12.0368041"><ele>379.0</ele><time>2026-03-29T09:49:46.72Z</time></trkpt><trkpt lat="42.9765426" lon="12.0368488"><ele>379.0</ele><time>2026-03-29T09:49:47.716Z</time></trkpt><trkpt lat="42.976628" lon="12.0368964"><ele>379.0</ele><time>2026-03-29T09:49:48.719Z</time></trkpt><trkpt lat="42.9767117" lon="12.0369355"><ele>379.0</ele><time>2026-03-29T09:49:49.72Z</time></trkpt><trkpt lat="42.9767898" lon="12.0369698"><ele>379.0</ele><time>2026-03-29T09:49:50.749Z</time></trkpt><trkpt lat="42.9768656" lon="12.0370003"><ele>379.79999999999995</ele><time>2026-03-29T09:49:51.723Z</time></trkpt><trkpt lat="42.9769417" lon="12.0370295"><ele>380.59999999999997</ele><time>2026-03-29T09:49:52.721Z</time></trkpt><trkpt lat="42.9770203" lon="12.0370599"><ele>381.4</ele><time>2026-03-29T09:49:53.729Z</time></trkpt><trkpt lat="42.9771053" lon="12.0371015"><ele>382.2</ele><time>2026-03-29T09:49:54.719Z</time></trkpt><trkpt lat="42.9771979" lon="12.037157"><ele>383.0</ele><time>2026-03-29T09:49:55.717Z</time></trkpt><trkpt lat="42.9773007" lon="12.0372157"><ele>383.0</ele><time>2026-03-29T09:49:56.725Z</time></trkpt><trkpt lat="42.9774102" lon="12.0372679"><ele>383.0</ele><time>2026-03-29T09:49:57.721Z</time></trkpt><trkpt lat="42.9775195" lon="12.0373122"><ele>383.0</ele><time>2026-03-29T09:49:58.732Z</time></trkpt><trkpt lat="42.9776268" lon="12.0373551"><ele>383.0</ele><time>2026-03-29T09:49:59.719Z</time></trkpt><trkpt lat="42.9777341" lon="12.0374004"><ele>382.2</ele><time>2026-03-29T09:50:00.721Z</time></trkpt><trkpt lat="42.9778368" lon="12.037443"><ele>381.4</ele><time>2026-03-29T09:50:01.719Z</time></trkpt><trkpt lat="42.9779281" lon="12.0374757"><ele>380.59999999999997</ele><time>2026-03-29T09:50:02.72Z</time></trkpt><trkpt lat="42.9780075" lon="12.0375055"><ele>379.79999999999995</ele><time>2026-03-29T09:50:03.723Z</time></trkpt><trkpt lat="42.9780859" lon="12.0375326"><ele>379.0</ele><time>2026-03-29T09:50:04.719Z</time></trkpt><trkpt lat="42.9781708" lon="12.0375653"><ele>377.4</ele><time>2026-03-29T09:50:05.715Z</time></trkpt><trkpt lat="42.9782611" lon="12.0375961"><ele>375.79999999999995</ele><time>2026-03-29T09:50:06.726Z</time></trkpt><trkpt lat="42.9783613" lon="12.037619"><ele>374.20000000000005</ele><time>2026-03-29T09:50:07.726Z</time></trkpt><trkpt lat="42.9784635" lon="12.0376438"><ele>372.6</ele><time>2026-03-29T09:50:08.753Z</time></trkpt><trkpt lat="42.9785583" lon="12.0376727"><ele>371.0</ele><time>2026-03-29T09:50:09.725Z</time></trkpt><trkpt lat="42.9786477" lon="12.0377042"><ele>369.6</ele><time>2026-03-29T09:50:10.717Z</time></trkpt><trkpt lat="42.978741" lon="12.0377382"><ele>368.20000000000005</ele><time>2026-03-29T09:50:11.719Z</time></trkpt><trkpt lat="42.9788466" lon="12.0377753"><ele>366.79999999999995</ele><time>2026-03-29T09:50:12.716Z</time></trkpt><trkpt lat="42.9789558" lon="12.0378152"><ele>365.4</ele><time>2026-03-29T09:50:13.753Z</time></trkpt><trkpt lat="42.9790542" lon="12.037852"><ele>364.0</ele><time>2026-03-29T09:50:14.727Z</time></trkpt><trkpt lat="42.9791451" lon="12.0378755"><ele>362.8333333333333</ele><time>2026-03-29T09:50:15.72Z</time></trkpt><trkpt lat="42.9792302" lon="12.0378774"><ele>361.66666666666663</ele><time>2026-03-29T09:50:16.72Z</time></trkpt><trkpt lat="42.9793145" lon="12.0378568"><ele>360.5</ele><time>2026-03-29T09:50:17.723Z</time></trkpt><trkpt lat="42.9793989" lon="12.0378212"><ele>359.3333333333333</ele><time>2026-03-29T09:50:18.72Z</time></trkpt><trkpt lat="42.9794841" lon="12.0377939"><ele>358.1666666666667</ele><time>2026-03-29T09:50:19.753Z</time></trkpt><trkpt lat="42.9795763" lon="12.0377859"><ele>357.0</ele><time>2026-03-29T09:50:20.725Z</time></trkpt><trkpt lat="42.9796701" lon="12.0377977"><ele>357.0</ele><time>2026-03-29T09:50:21.725Z</time></trkpt><trkpt lat="42.9797488" lon="12.0378185"><ele>357.0</ele><time>2026-03-29T09:50:22.717Z</time></trkpt><trkpt lat="42.979835" lon="12.0378445"><ele>357.0</ele><time>2026-03-29T09:50:24.732Z</time></trkpt><trkpt lat="42.979906" lon="12.0378164"><ele>357.0</ele><time>2026-03-29T09:50:32.72Z</time></trkpt><trkpt lat="42.9799828" lon="12.0377596"><ele>357.0</ele><time>2026-03-29T09:50:34.718Z</time></trkpt><trkpt lat="42.9800878" lon="12.0376699"><ele>356.0</ele><time>2026-03-29T09:50:36.722Z</time></trkpt><trkpt lat="42.9801338" lon="12.0376043"><ele>355.0</ele><time>2026-03-29T09:50:37.716Z</time></trkpt><trkpt lat="42.9801761" lon="12.0375248"><ele>354.0</ele><time>2026-03-29T09:50:38.722Z</time></trkpt><trkpt lat="42.9802149" lon="12.0374404"><ele>353.0</ele><time>2026-03-29T09:50:39.734Z</time></trkpt><trkpt lat="42.9802441" lon="12.0373522"><ele>352.0</ele><time>2026-03-29T09:50:40.718Z</time></trkpt><trkpt lat="42.9802621" lon="12.0372614"><ele>351.0</ele><time>2026-03-29T09:50:41.726Z</time></trkpt><trkpt lat="42.9802753" lon="12.0371635"><ele>350.0</ele><time>2026-03-29T09:50:42.735Z</time></trkpt><trkpt lat="42.9802804" lon="12.0370623"><ele>348.0</ele><time>2026-03-29T09:50:43.723Z</time></trkpt><trkpt lat="42.9802809" lon="12.036957"><ele>346.0</ele><time>2026-03-29T09:50:44.721Z</time></trkpt><trkpt lat="42.9802757" lon="12.0368423"><ele>344.0</ele><time>2026-03-29T09:50:45.754Z</time></trkpt><trkpt lat="42.9802609" lon="12.0367138"><ele>342.0</ele><time>2026-03-29T09:50:46.728Z</time></trkpt><trkpt lat="42.9802411" lon="12.0365752"><ele>340.0</ele><time>2026-03-29T09:50:47.726Z</time></trkpt><trkpt lat="42.9802206" lon="12.0364458"><ele>337.66666666666663</ele><time>2026-03-29T09:50:48.763Z</time></trkpt><trkpt lat="42.9802015" lon="12.0363317"><ele>335.3333333333333</ele><time>2026-03-29T09:50:49.722Z</time></trkpt><trkpt lat="42.9801915" lon="12.0362386"><ele>333.0</ele><time>2026-03-29T09:50:50.727Z</time></trkpt><trkpt lat="42.9801999" lon="12.0360817"><ele>330.6666666666667</ele><time>2026-03-29T09:50:52.717Z</time></trkpt><trkpt lat="42.9802077" lon="12.0359915"><ele>328.33333333333337</ele><time>2026-03-29T09:50:53.719Z</time></trkpt><trkpt lat="42.9802118" lon="12.0358927"><ele>326.0</ele><time>2026-03-29T09:50:54.725Z</time></trkpt><trkpt lat="42.9802135" lon="12.0357874"><ele>324.0</ele><time>2026-03-29T09:50:55.722Z</time></trkpt><trkpt lat="42.9802148" lon="12.0356803"><ele>322.0</ele><time>2026-03-29T09:50:56.717Z</time></trkpt><trkpt lat="42.9802163" lon="12.0355778"><ele>320.0</ele><time>2026-03-29T09:50:57.724Z</time></trkpt><trkpt lat="42.9802124" lon="12.0354838"><ele>318.0</ele><time>2026-03-29T09:50:58.728Z</time></trkpt><trkpt lat="42.9802046" lon="12.0353916"><ele>316.0</ele><time>2026-03-29T09:50:59.72Z</time></trkpt><trkpt lat="42.9801922" lon="12.0352466"><ele>314.0</ele><time>2026-03-29T09:51:01.718Z</time></trkpt><trkpt lat="42.9801748" lon="12.0351392"><ele>314.0</ele><time>2026-03-29T09:51:03.721Z</time></trkpt><trkpt lat="42.9801469" lon="12.0350133"><ele>314.0</ele><time>2026-03-29T09:51:05.721Z</time></trkpt><trkpt lat="42.9801088" lon="12.0348388"><ele>314.0</ele><time>2026-03-29T09:51:07.721Z</time></trkpt><trkpt lat="42.9800909" lon="12.0347397"><ele>314.0</ele><time>2026-03-29T09:51:08.72Z</time></trkpt><trkpt lat="42.9800644" lon="12.0346503"><ele>314.0</ele><time>2026-03-29T09:51:09.717Z</time></trkpt><trkpt lat="42.9800435" lon="12.0345607"><ele>314.0</ele><time>2026-03-29T09:51:10.719Z</time></trkpt><trkpt lat="42.9800368" lon="12.0344617"><ele>313.1666666666667</ele><time>2026-03-29T09:51:11.731Z</time></trkpt><trkpt lat="42.9800318" lon="12.0343604"><ele>312.33333333333337</ele><time>2026-03-29T09:51:12.719Z</time></trkpt><trkpt lat="42.9800346" lon="12.0342538"><ele>311.5</ele><time>2026-03-29T09:51:13.751Z</time></trkpt><trkpt lat="42.9800486" lon="12.0341441"><ele>310.6666666666667</ele><time>2026-03-29T09:51:14.729Z</time></trkpt><trkpt lat="42.9800626" lon="12.0340312"><ele>309.8333333333333</ele><time>2026-03-29T09:51:15.75Z</time></trkpt><trkpt lat="42.9800742" lon="12.0339189"><ele>309.0</ele><time>2026-03-29T09:51:16.724Z</time></trkpt><trkpt lat="42.9800839" lon="12.0338081"><ele>308.5714285714286</ele><time>2026-03-29T09:51:17.729Z</time></trkpt><trkpt lat="42.9800899" lon="12.0337009"><ele>308.14285714285717</ele><time>2026-03-29T09:51:18.719Z</time></trkpt><trkpt lat="42.9801008" lon="12.0335989"><ele>307.7142857142857</ele><time>2026-03-29T09:51:19.718Z</time></trkpt><trkpt lat="42.980117" lon="12.0335046"><ele>307.28571428571433</ele><time>2026-03-29T09:51:20.721Z</time></trkpt><trkpt lat="42.9801455" lon="12.0334228"><ele>306.8571428571429</ele><time>2026-03-29T09:51:21.728Z</time></trkpt><trkpt lat="42.9801935" lon="12.0333584"><ele>306.42857142857144</ele><time>2026-03-29T09:51:22.721Z</time></trkpt><trkpt lat="42.9802614" lon="12.0333183"><ele>306.0</ele><time>2026-03-29T09:51:23.716Z</time></trkpt><trkpt lat="42.980342" lon="12.0333146"><ele>306.0</ele><time>2026-03-29T09:51:24.746Z</time></trkpt><trkpt lat="42.9804211" lon="12.0333363"><ele>306.0</ele><time>2026-03-29T09:51:25.719Z</time></trkpt><trkpt lat="42.9804952" lon="12.0333619"><ele>306.0</ele><time>2026-03-29T09:51:26.727Z</time></trkpt><trkpt lat="42.9805721" lon="12.033385"><ele>306.0</ele><time>2026-03-29T09:51:27.723Z</time></trkpt><trkpt lat="42.9806458" lon="12.0334035"><ele>306.0</ele><time>2026-03-29T09:51:28.721Z</time></trkpt><trkpt lat="42.9807232" lon="12.0334143"><ele>306.0</ele><time>2026-03-29T09:51:29.719Z</time></trkpt><trkpt lat="42.9808113" lon="12.0334239"><ele>305.8</ele><time>2026-03-29T09:51:30.718Z</time></trkpt><trkpt lat="42.9809032" lon="12.0334213"><ele>305.6</ele><time>2026-03-29T09:51:31.722Z</time></trkpt><trkpt lat="42.9810045" lon="12.0334187"><ele>305.4</ele><time>2026-03-29T09:51:32.725Z</time></trkpt><trkpt lat="42.9811171" lon="12.033417"><ele>305.2</ele><time>2026-03-29T09:51:33.725Z</time></trkpt><trkpt lat="42.9812343" lon="12.0334193"><ele>305.0</ele><time>2026-03-29T09:51:34.714Z</time></trkpt><trkpt lat="42.9813434" lon="12.0334197"><ele>305.0</ele><time>2026-03-29T09:51:35.722Z</time></trkpt><trkpt lat="42.9814416" lon="12.0334205"><ele>305.0</ele><time>2026-03-29T09:51:36.723Z</time></trkpt><trkpt lat="42.9815294" lon="12.0334242"><ele>305.0</ele><time>2026-03-29T09:51:37.722Z</time></trkpt><trkpt lat="42.9816096" lon="12.0334358"><ele>305.0</ele><time>2026-03-29T09:51:38.721Z</time></trkpt><trkpt lat="42.9816849" lon="12.03346"><ele>305.0</ele><time>2026-03-29T09:51:39.728Z</time></trkpt><trkpt lat="42.9817531" lon="12.0334936"><ele>305.0</ele><time>2026-03-29T09:51:40.717Z</time></trkpt><trkpt lat="42.9818103" lon="12.0335316"><ele>308.5</ele><time>2026-03-29T09:51:41.723Z</time></trkpt><trkpt lat="42.9818682" lon="12.0335875"><ele>312.0</ele><time>2026-03-29T09:51:43.727Z</time></trkpt><trkpt lat="42.9819082" lon="12.0336565"><ele>315.5</ele><time>2026-03-29T09:51:45.721Z</time></trkpt><trkpt lat="42.9819191" lon="12.0337997"><ele>319.0</ele><time>2026-03-29T09:51:47.723Z</time></trkpt><trkpt lat="42.9819052" lon="12.0338919"><ele>322.5</ele><time>2026-03-29T09:51:48.718Z</time></trkpt><trkpt lat="42.9818856" lon="12.0339928"><ele>326.0</ele><time>2026-03-29T09:51:49.725Z</time></trkpt><trkpt lat="42.9818603" lon="12.0340922"><ele>325.5</ele><time>2026-03-29T09:51:50.741Z</time></trkpt><trkpt lat="42.9818265" lon="12.0341977"><ele>325.0</ele><time>2026-03-29T09:51:51.717Z</time></trkpt><trkpt lat="42.9817916" lon="12.0343069"><ele>324.5</ele><time>2026-03-29T09:51:52.717Z</time></trkpt><trkpt lat="42.9817567" lon="12.0344156"><ele>324.0</ele><time>2026-03-29T09:51:53.717Z</time></trkpt><trkpt lat="42.9817295" lon="12.0345199"><ele>323.5</ele><time>2026-03-29T09:51:54.727Z</time></trkpt><trkpt lat="42.9817115" lon="12.0346273"><ele>323.0</ele><time>2026-03-29T09:51:55.717Z</time></trkpt><trkpt lat="42.9816993" lon="12.0347418"><ele>323.0</ele><time>2026-03-29T09:51:56.759Z</time></trkpt><trkpt lat="42.9816977" lon="12.0348597"><ele>323.0</ele><time>2026-03-29T09:51:57.716Z</time></trkpt><trkpt lat="42.981706" lon="12.0349829"><ele>323.0</ele><time>2026-03-29T09:51:58.721Z</time></trkpt><trkpt lat="42.9817239" lon="12.0351057"><ele>323.0</ele><time>2026-03-29T09:51:59.73Z</time></trkpt><trkpt lat="42.9817509" lon="12.0352206"><ele>323.0</ele><time>2026-03-29T09:52:00.718Z</time></trkpt><trkpt lat="42.9817867" lon="12.0353302"><ele>323.0</ele><time>2026-03-29T09:52:01.75Z</time></trkpt><trkpt lat="42.9818366" lon="12.035443"><ele>320.4</ele><time>2026-03-29T09:52:02.746Z</time></trkpt><trkpt lat="42.9818908" lon="12.0355528"><ele>317.79999999999995</ele><time>2026-03-29T09:52:03.721Z</time></trkpt><trkpt lat="42.9819489" lon="12.0356616"><ele>315.2</ele><time>2026-03-29T09:52:04.719Z</time></trkpt><trkpt lat="42.9820039" lon="12.0357668"><ele>312.6</ele><time>2026-03-29T09:52:05.72Z</time></trkpt><trkpt lat="42.9820559" lon="12.0358704"><ele>310.0</ele><time>2026-03-29T09:52:06.719Z</time></trkpt><trkpt lat="42.9821086" lon="12.0359732"><ele>307.8333333333333</ele><time>2026-03-29T09:52:07.72Z</time></trkpt><trkpt lat="42.9821577" lon="12.0360733"><ele>305.66666666666663</ele><time>2026-03-29T09:52:08.719Z</time></trkpt><trkpt lat="42.9821993" lon="12.0361793"><ele>303.5</ele><time>2026-03-29T09:52:09.723Z</time></trkpt><trkpt lat="42.982231" lon="12.0362814"><ele>301.3333333333333</ele><time>2026-03-29T09:52:10.719Z</time></trkpt><trkpt lat="42.9822624" lon="12.0363882"><ele>299.1666666666667</ele><time>2026-03-29T09:52:11.723Z</time></trkpt><trkpt lat="42.9823" lon="12.0365083"><ele>297.0</ele><time>2026-03-29T09:52:12.722Z</time></trkpt><trkpt lat="42.9823428" lon="12.036636"><ele>297.2</ele><time>2026-03-29T09:52:13.723Z</time></trkpt><trkpt lat="42.9823841" lon="12.0367639"><ele>297.4</ele><time>2026-03-29T09:52:14.719Z</time></trkpt><trkpt lat="42.9824225" lon="12.0368905"><ele>297.6</ele><time>2026-03-29T09:52:15.721Z</time></trkpt><trkpt lat="42.9824498" lon="12.0370187"><ele>297.8</ele><time>2026-03-29T09:52:16.728Z</time></trkpt><trkpt lat="42.9824667" lon="12.0371647"><ele>298.0</ele><time>2026-03-29T09:52:17.723Z</time></trkpt><trkpt lat="42.9824833" lon="12.0373284"><ele>298.6</ele><time>2026-03-29T09:52:18.719Z</time></trkpt><trkpt lat="42.9824994" lon="12.0374922"><ele>299.20000000000005</ele><time>2026-03-29T09:52:19.732Z</time></trkpt><trkpt lat="42.9825127" lon="12.0376406"><ele>299.8</ele><time>2026-03-29T09:52:20.724Z</time></trkpt><trkpt lat="42.9825265" lon="12.0377651"><ele>300.40000000000003</ele><time>2026-03-29T09:52:21.722Z</time></trkpt><trkpt lat="42.9825481" lon="12.0378706"><ele>301.0</ele><time>2026-03-29T09:52:22.721Z</time></trkpt><trkpt lat="42.9826053" lon="12.0379776"><ele>301.14285714285717</ele><time>2026-03-29T09:52:24.723Z</time></trkpt><trkpt lat="42.9826391" lon="12.0380764"><ele>301.2857142857143</ele><time>2026-03-29T09:52:29.718Z</time></trkpt><trkpt lat="42.9826253" lon="12.0381998"><ele>301.42857142857144</ele><time>2026-03-29T09:52:31.716Z</time></trkpt><trkpt lat="42.9826326" lon="12.0382861"><ele>301.57142857142856</ele><time>2026-03-29T09:52:32.712Z</time></trkpt><trkpt lat="42.9826524" lon="12.038376"><ele>301.7142857142857</ele><time>2026-03-29T09:52:33.716Z</time></trkpt><trkpt lat="42.98268" lon="12.0384543"><ele>301.8571428571429</ele><time>2026-03-29T09:52:34.717Z</time></trkpt><trkpt lat="42.9827183" lon="12.038529"><ele>302.0</ele><time>2026-03-29T09:52:35.715Z</time></trkpt><trkpt lat="42.9827592" lon="12.0386067"><ele>303.00000000000006</ele><time>2026-03-29T09:52:36.716Z</time></trkpt><trkpt lat="42.9827986" lon="12.0386868"><ele>304.0</ele><time>2026-03-29T09:52:37.718Z</time></trkpt><trkpt lat="42.9828424" lon="12.0387689"><ele>305.0</ele><time>2026-03-29T09:52:38.716Z</time></trkpt><trkpt lat="42.9828898" lon="12.038853"><ele>306.0</ele><time>2026-03-29T09:52:39.716Z</time></trkpt><trkpt lat="42.9829363" lon="12.0389359"><ele>307.0</ele><time>2026-03-29T09:52:40.743Z</time></trkpt><trkpt lat="42.9829791" lon="12.0390177"><ele>308.00000000000006</ele><time>2026-03-29T09:52:41.717Z</time></trkpt><trkpt lat="42.9830198" lon="12.0391009"><ele>309.0</ele><time>2026-03-29T09:52:42.717Z</time></trkpt><trkpt lat="42.9830619" lon="12.0391801"><ele>309.8</ele><time>2026-03-29T09:52:43.714Z</time></trkpt><trkpt lat="42.9831046" lon="12.0392623"><ele>310.59999999999997</ele><time>2026-03-29T09:52:44.717Z</time></trkpt><trkpt lat="42.983146" lon="12.0393571"><ele>311.4</ele><time>2026-03-29T09:52:45.718Z</time></trkpt><trkpt lat="42.9831883" lon="12.0394736"><ele>312.2</ele><time>2026-03-29T09:52:46.718Z</time></trkpt><trkpt lat="42.9832224" lon="12.0396128"><ele>313.0</ele><time>2026-03-29T09:52:47.724Z</time></trkpt><trkpt lat="42.9832463" lon="12.0397736"><ele>313.0</ele><time>2026-03-29T09:52:48.749Z</time></trkpt><trkpt lat="42.983261" lon="12.0399573"><ele>313.0</ele><time>2026-03-29T09:52:49.718Z</time></trkpt><trkpt lat="42.9832746" lon="12.0401603"><ele>313.0</ele><time>2026-03-29T09:52:50.715Z</time></trkpt><trkpt lat="42.9832892" lon="12.0403733"><ele>313.0</ele><time>2026-03-29T09:52:51.717Z</time></trkpt><trkpt lat="42.9833094" lon="12.040574"><ele>316.5</ele><time>2026-03-29T09:52:52.719Z</time></trkpt><trkpt lat="42.9833323" lon="12.0407581"><ele>320.0</ele><time>2026-03-29T09:52:53.733Z</time></trkpt><trkpt lat="42.9833561" lon="12.0409251"><ele>323.5</ele><time>2026-03-29T09:52:54.718Z</time></trkpt><trkpt lat="42.9833747" lon="12.0410736"><ele>327.0</ele><time>2026-03-29T09:52:55.713Z</time></trkpt><trkpt lat="42.9833896" lon="12.0412079"><ele>327.20000000000005</ele><time>2026-03-29T09:52:56.716Z</time></trkpt><trkpt lat="42.983405" lon="12.0413491"><ele>327.4</ele><time>2026-03-29T09:52:57.722Z</time></trkpt><trkpt lat="42.9834142" lon="12.0414952"><ele>327.6</ele><time>2026-03-29T09:52:58.717Z</time></trkpt><trkpt lat="42.9834187" lon="12.0416444"><ele>327.79999999999995</ele><time>2026-03-29T09:52:59.718Z</time></trkpt><trkpt lat="42.9834201" lon="12.0417761"><ele>328.0</ele><time>2026-03-29T09:53:00.716Z</time></trkpt><trkpt lat="42.9834211" lon="12.0418858"><ele>328.66666666666663</ele><time>2026-03-29T09:53:01.715Z</time></trkpt><trkpt lat="42.9834214" lon="12.0420255"><ele>329.3333333333333</ele><time>2026-03-29T09:53:03.716Z</time></trkpt><trkpt lat="42.9833778" lon="12.0419625"><ele>330.0</ele><time>2026-03-29T09:53:10.065Z</time></trkpt><trkpt lat="42.9833212" lon="12.0419063"><ele>330.6666666666667</ele><time>2026-03-29T09:53:11.065Z</time></trkpt><trkpt lat="42.9832592" lon="12.0418409"><ele>331.33333333333337</ele><time>2026-03-29T09:53:12.068Z</time></trkpt><trkpt lat="42.9832042" lon="12.0417803"><ele>332.0</ele><time>2026-03-29T09:53:13.063Z</time></trkpt><trkpt lat="42.9831539" lon="12.0417099"><ele>333.33333333333337</ele><time>2026-03-29T09:53:14.064Z</time></trkpt><trkpt lat="42.9831035" lon="12.041632"><ele>334.6666666666667</ele><time>2026-03-29T09:53:15.065Z</time></trkpt><trkpt lat="42.9830522" lon="12.0415494"><ele>336.0</ele><time>2026-03-29T09:53:16.067Z</time></trkpt><trkpt lat="42.9829978" lon="12.0414754"><ele>337.3333333333333</ele><time>2026-03-29T09:53:17.066Z</time></trkpt><trkpt lat="42.982941" lon="12.0414124"><ele>338.66666666666663</ele><time>2026-03-29T09:53:18.065Z</time></trkpt><trkpt lat="42.9828876" lon="12.0413638"><ele>340.0</ele><time>2026-03-29T09:53:19.065Z</time></trkpt><trkpt lat="42.98277" lon="12.04131"><ele>340.0</ele><time>2026-03-29T09:53:21.072Z</time></trkpt><trkpt lat="42.9827019" lon="12.0413016"><ele>340.0</ele><time>2026-03-29T09:53:22.066Z</time></trkpt><trkpt lat="42.982627" lon="12.0413047"><ele>340.0</ele><time>2026-03-29T09:53:23.064Z</time></trkpt><trkpt lat="42.9825234" lon="12.0413337"><ele>340.0</ele><time>2026-03-29T09:53:25.067Z</time></trkpt><trkpt lat="42.9824908" lon="12.0414251"><ele>340.0</ele><time>2026-03-29T09:53:27.069Z</time></trkpt><trkpt lat="42.9825131" lon="12.0415912"><ele>340.0</ele><time>2026-03-29T09:53:29.065Z</time></trkpt><trkpt lat="42.9825293" lon="12.0416904"><ele>342.16666666666663</ele><time>2026-03-29T09:53:30.065Z</time></trkpt><trkpt lat="42.9825424" lon="12.041791"><ele>344.3333333333333</ele><time>2026-03-29T09:53:31.063Z</time></trkpt><trkpt lat="42.9825537" lon="12.0418962"><ele>346.5</ele><time>2026-03-29T09:53:32.068Z</time></trkpt><trkpt lat="42.9825654" lon="12.042008"><ele>348.6666666666667</ele><time>2026-03-29T09:53:33.068Z</time></trkpt><trkpt lat="42.9825802" lon="12.0421179"><ele>350.83333333333337</ele><time>2026-03-29T09:53:34.064Z</time></trkpt><trkpt lat="42.9826001" lon="12.0422203"><ele>353.0</ele><time>2026-03-29T09:53:35.067Z</time></trkpt><trkpt lat="42.982625" lon="12.0423211"><ele>353.0</ele><time>2026-03-29T09:53:36.066Z</time></trkpt><trkpt lat="42.9826539" lon="12.0424249"><ele>353.0</ele><time>2026-03-29T09:53:37.067Z</time></trkpt><trkpt lat="42.9826775" lon="12.0425178"><ele>353.0</ele><time>2026-03-29T09:53:38.067Z</time></trkpt><trkpt lat="42.9826923" lon="12.0426731"><ele>353.0</ele><time>2026-03-29T09:53:40.081Z</time></trkpt><trkpt lat="42.9826339" lon="12.0428502"><ele>353.0</ele><time>2026-03-29T09:53:42.065Z</time></trkpt><trkpt lat="42.9825826" lon="12.0429477"><ele>353.6666666666667</ele><time>2026-03-29T09:53:43.076Z</time></trkpt><trkpt lat="42.9825419" lon="12.0430385"><ele>354.33333333333337</ele><time>2026-03-29T09:53:44.065Z</time></trkpt><trkpt lat="42.982507" lon="12.0431278"><ele>355.0</ele><time>2026-03-29T09:53:45.064Z</time></trkpt><trkpt lat="42.9824734" lon="12.0432171"><ele>355.6666666666667</ele><time>2026-03-29T09:53:46.065Z</time></trkpt><trkpt lat="42.9824403" lon="12.0433156"><ele>356.3333333333333</ele><time>2026-03-29T09:53:47.067Z</time></trkpt><trkpt lat="42.9824058" lon="12.0434258"><ele>357.0</ele><time>2026-03-29T09:53:48.067Z</time></trkpt><trkpt lat="42.9823717" lon="12.0435402"><ele>358.85714285714283</ele><time>2026-03-29T09:53:49.067Z</time></trkpt><trkpt lat="42.9823399" lon="12.0436497"><ele>360.7142857142857</ele><time>2026-03-29T09:53:50.066Z</time></trkpt><trkpt lat="42.9823133" lon="12.0437469"><ele>362.57142857142856</ele><time>2026-03-29T09:53:51.068Z</time></trkpt><trkpt lat="42.9822945" lon="12.0438376"><ele>364.42857142857144</ele><time>2026-03-29T09:53:52.065Z</time></trkpt><trkpt lat="42.9822865" lon="12.043927"><ele>366.2857142857143</ele><time>2026-03-29T09:53:53.069Z</time></trkpt><trkpt lat="42.9822876" lon="12.0440165"><ele>368.1428571428571</ele><time>2026-03-29T09:53:54.067Z</time></trkpt><trkpt lat="42.982282" lon="12.0441069"><ele>370.0</ele><time>2026-03-29T09:53:55.064Z</time></trkpt><trkpt lat="42.9822651" lon="12.0441955"><ele>370.0</ele><time>2026-03-29T09:53:56.067Z</time></trkpt><trkpt lat="42.9822352" lon="12.0442871"><ele>370.0</ele><time>2026-03-29T09:53:57.067Z</time></trkpt><trkpt lat="42.9821911" lon="12.0443804"><ele>370.0</ele><time>2026-03-29T09:53:58.069Z</time></trkpt><trkpt lat="42.9821353" lon="12.0444676"><ele>370.0</ele><time>2026-03-29T09:53:59.064Z</time></trkpt><trkpt lat="42.9820732" lon="12.0445498"><ele>370.0</ele><time>2026-03-29T09:54:00.067Z</time></trkpt><trkpt lat="42.9820122" lon="12.044625"><ele>370.0</ele><time>2026-03-29T09:54:01.069Z</time></trkpt><trkpt lat="42.9819656" lon="12.0446939"><ele>370.0</ele><time>2026-03-29T09:54:02.069Z</time></trkpt><trkpt lat="42.9818991" lon="12.0447844"><ele>370.0</ele><time>2026-03-29T09:54:04.066Z</time></trkpt><trkpt lat="42.9818765" lon="12.0448847"><ele>370.0</ele><time>2026-03-29T09:54:07.069Z</time></trkpt><trkpt lat="42.9818495" lon="12.0450247"><ele>370.0</ele><time>2026-03-29T09:54:09.067Z</time></trkpt><trkpt lat="42.9818059" lon="12.0451406"><ele>370.0</ele><time>2026-03-29T09:54:11.099Z</time></trkpt><trkpt lat="42.9817425" lon="12.0451874"><ele>370.0</ele><time>2026-03-29T09:54:13.067Z</time></trkpt><trkpt lat="42.9816867" lon="12.0452346"><ele>369.5</ele><time>2026-03-29T09:54:15.065Z</time></trkpt><trkpt lat="42.9816593" lon="12.0453157"><ele>369.0</ele><time>2026-03-29T09:54:17.069Z</time></trkpt><trkpt lat="42.9816665" lon="12.0454426"><ele>368.5</ele><time>2026-03-29T09:54:19.066Z</time></trkpt><trkpt lat="42.9816754" lon="12.0455726"><ele>368.0</ele><time>2026-03-29T09:54:21.062Z</time></trkpt><trkpt lat="42.9817115" lon="12.045698"><ele>367.5</ele><time>2026-03-29T09:54:23.072Z</time></trkpt><trkpt lat="42.9817025" lon="12.0458216"><ele>367.0</ele><time>2026-03-29T09:54:25.066Z</time></trkpt><trkpt lat="42.9816783" lon="12.0459304"><ele>366.8</ele><time>2026-03-29T09:54:27.071Z</time></trkpt><trkpt lat="42.9816638" lon="12.0460285"><ele>366.6</ele><time>2026-03-29T09:54:29.068Z</time></trkpt><trkpt lat="42.9816549" lon="12.0461507"><ele>366.40000000000003</ele><time>2026-03-29T09:54:31.067Z</time></trkpt><trkpt lat="42.9816449" lon="12.0462784"><ele>366.20000000000005</ele><time>2026-03-29T09:54:33.1Z</time></trkpt><trkpt lat="42.9816415" lon="12.0464018"><ele>366.0</ele><time>2026-03-29T09:54:35.07Z</time></trkpt><trkpt lat="42.9816882" lon="12.0465548"><ele>362.20000000000005</ele><time>2026-03-29T09:54:37.065Z</time></trkpt><trkpt lat="42.9817211" lon="12.0466352"><ele>358.40000000000003</ele><time>2026-03-29T09:54:38.068Z</time></trkpt><trkpt lat="42.9817741" lon="12.0467784"><ele>354.6</ele><time>2026-03-29T09:54:40.086Z</time></trkpt><trkpt lat="42.9817964" lon="12.0469289"><ele>350.8</ele><time>2026-03-29T09:54:42.068Z</time></trkpt><trkpt lat="42.9818086" lon="12.04703"><ele>347.0</ele><time>2026-03-29T09:54:43.075Z</time></trkpt><trkpt lat="42.98182" lon="12.0471586"><ele>347.0</ele><time>2026-03-29T09:54:44.068Z</time></trkpt><trkpt lat="42.9818317" lon="12.0473157"><ele>347.0</ele><time>2026-03-29T09:54:45.105Z</time></trkpt><trkpt lat="42.9818424" lon="12.0474836"><ele>347.0</ele><time>2026-03-29T09:54:46.07Z</time></trkpt><trkpt lat="42.9818528" lon="12.0476293"><ele>347.0</ele><time>2026-03-29T09:54:47.069Z</time></trkpt><trkpt lat="42.9818636" lon="12.0477609"><ele>347.0</ele><time>2026-03-29T09:54:48.067Z</time></trkpt><trkpt lat="42.9818629" lon="12.0478917"><ele>346.8</ele><time>2026-03-29T09:54:49.07Z</time></trkpt><trkpt lat="42.9818602" lon="12.0480276"><ele>346.6</ele><time>2026-03-29T09:54:50.066Z</time></trkpt><trkpt lat="42.9818567" lon="12.048162"><ele>346.40000000000003</ele><time>2026-03-29T09:54:51.069Z</time></trkpt><trkpt lat="42.9818515" lon="12.0482883"><ele>346.20000000000005</ele><time>2026-03-29T09:54:52.077Z</time></trkpt><trkpt lat="42.981833" lon="12.0484039"><ele>346.0</ele><time>2026-03-29T09:54:53.069Z</time></trkpt><trkpt lat="42.9818079" lon="12.0485069"><ele>346.5</ele><time>2026-03-29T09:54:54.072Z</time></trkpt><trkpt lat="42.9817814" lon="12.0485964"><ele>347.0</ele><time>2026-03-29T09:54:55.103Z</time></trkpt><trkpt lat="42.9817654" lon="12.0486845"><ele>347.5</ele><time>2026-03-29T09:54:56.071Z</time></trkpt><trkpt lat="42.9817668" lon="12.0487751"><ele>348.0</ele><time>2026-03-29T09:54:57.071Z</time></trkpt><trkpt lat="42.9817933" lon="12.0488727"><ele>348.5</ele><time>2026-03-29T09:54:58.074Z</time></trkpt><trkpt lat="42.9818394" lon="12.0489803"><ele>349.0</ele><time>2026-03-29T09:54:59.066Z</time></trkpt><trkpt lat="42.9818919" lon="12.0490906"><ele>351.16666666666663</ele><time>2026-03-29T09:55:00.076Z</time></trkpt><trkpt lat="42.9819305" lon="12.0491915"><ele>353.3333333333333</ele><time>2026-03-29T09:55:01.075Z</time></trkpt><trkpt lat="42.9819571" lon="12.0492967"><ele>355.5</ele><time>2026-03-29T09:55:02.072Z</time></trkpt><trkpt lat="42.9819653" lon="12.0494067"><ele>357.6666666666667</ele><time>2026-03-29T09:55:03.066Z</time></trkpt><trkpt lat="42.9819544" lon="12.0495063"><ele>359.83333333333337</ele><time>2026-03-29T09:55:04.064Z</time></trkpt><trkpt lat="42.9819473" lon="12.0495973"><ele>362.0</ele><time>2026-03-29T09:55:05.102Z</time></trkpt><trkpt lat="42.981969" lon="12.0497617"><ele>362.0</ele><time>2026-03-29T09:55:07.076Z</time></trkpt><trkpt lat="42.9819968" lon="12.04985"><ele>362.0</ele><time>2026-03-29T09:55:08.068Z</time></trkpt><trkpt lat="42.9820211" lon="12.0499564"><ele>362.0</ele><time>2026-03-29T09:55:09.069Z</time></trkpt><trkpt lat="42.982042" lon="12.0500853"><ele>362.0</ele><time>2026-03-29T09:55:10.095Z</time></trkpt><trkpt lat="42.9820586" lon="12.0502267"><ele>362.0</ele><time>2026-03-29T09:55:11.066Z</time></trkpt><trkpt lat="42.9820632" lon="12.0503679"><ele>363.20000000000005</ele><time>2026-03-29T09:55:12.065Z</time></trkpt><trkpt lat="42.9820494" lon="12.0505027"><ele>364.4</ele><time>2026-03-29T09:55:13.064Z</time></trkpt><trkpt lat="42.982022" lon="12.0506274"><ele>365.6</ele><time>2026-03-29T09:55:14.071Z</time></trkpt><trkpt lat="42.9819946" lon="12.0507422"><ele>366.79999999999995</ele><time>2026-03-29T09:55:15.066Z</time></trkpt><trkpt lat="42.9819627" lon="12.0508588"><ele>368.0</ele><time>2026-03-29T09:55:16.064Z</time></trkpt><trkpt lat="42.9819226" lon="12.0509792"><ele>368.0</ele><time>2026-03-29T09:55:17.072Z</time></trkpt><trkpt lat="42.9818699" lon="12.0511086"><ele>368.0</ele><time>2026-03-29T09:55:18.098Z</time></trkpt><trkpt lat="42.9818073" lon="12.0512429"><ele>368.0</ele><time>2026-03-29T09:55:19.065Z</time></trkpt><trkpt lat="42.9817473" lon="12.0513723"><ele>368.0</ele><time>2026-03-29T09:55:20.064Z</time></trkpt><trkpt lat="42.981696" lon="12.0514957"><ele>368.0</ele><time>2026-03-29T09:55:21.067Z</time></trkpt><trkpt lat="42.9816666" lon="12.051605"><ele>384.0</ele><time>2026-03-29T09:55:22.077Z</time></trkpt><trkpt lat="42.9816631" lon="12.0516945"><ele>386.0</ele><time>2026-03-29T09:55:23.067Z</time></trkpt><trkpt lat="42.9816739" lon="12.0518189"><ele>386.0</ele><time>2026-03-29T09:55:25.063Z</time></trkpt></trkseg></trk></gpx>